<?xml version="1.0" encoding="UTF-8" standalone="no" ?>
<gpx xmlns="http://www.topografix.com/GPX/1/1" xmlns:xsi="http://www.w3.org/2001/XMLSchema-instance" xsi:schemaLocation="http://www.topografix.com/GPX/1/1 http://www.topografix.com/GPX/1/1/gpx.xsd" version="1.1" creator="VisuGPX - https://www.visugpx.com">
  <metadata>
    <name>Joel , entrainement Talloire</name>
    <desc><![CDATA[séance a Talloire , enregistrement avec le dénivelé du parcours (enfin)   ]]></desc>
  </metadata>
  <trk>
    <name><![CDATA[Joel , entrainement Talloire_1]]></name>
    <trkseg>
      <trkpt lat="45.85501" lon="6.21327">
        <ele>655</ele>
        <time>2013-05-25T15:42:38.000Z</time>
      </trkpt>
      <trkpt lat="45.855" lon="6.2133">
        <ele>654</ele>
        <time>2013-05-25T15:42:39.000Z</time>
      </trkpt>
      <trkpt lat="45.85499" lon="6.21333">
        <ele>655</ele>
        <time>2013-05-25T15:42:40.000Z</time>
      </trkpt>
      <trkpt lat="45.85499" lon="6.21334">
        <ele>655</ele>
        <time>2013-05-25T15:42:41.000Z</time>
      </trkpt>
      <trkpt lat="45.855" lon="6.21334">
        <ele>655</ele>
        <time>2013-05-25T15:42:42.000Z</time>
      </trkpt>
      <trkpt lat="45.85503" lon="6.21335">
        <ele>656</ele>
        <time>2013-05-25T15:42:43.000Z</time>
      </trkpt>
      <trkpt lat="45.85505" lon="6.21334">
        <ele>657</ele>
        <time>2013-05-25T15:42:44.000Z</time>
      </trkpt>
      <trkpt lat="45.85508" lon="6.21334">
        <ele>658</ele>
        <time>2013-05-25T15:42:45.000Z</time>
      </trkpt>
      <trkpt lat="45.8551" lon="6.21334">
        <ele>658</ele>
        <time>2013-05-25T15:42:46.000Z</time>
      </trkpt>
      <trkpt lat="45.85513" lon="6.21334">
        <ele>659</ele>
        <time>2013-05-25T15:42:47.000Z</time>
      </trkpt>
      <trkpt lat="45.85516" lon="6.21332">
        <ele>656</ele>
        <time>2013-05-25T15:42:48.000Z</time>
      </trkpt>
      <trkpt lat="45.85519" lon="6.21332">
        <ele>656</ele>
        <time>2013-05-25T15:42:49.000Z</time>
      </trkpt>
      <trkpt lat="45.85522" lon="6.21331">
        <ele>656</ele>
        <time>2013-05-25T15:42:50.000Z</time>
      </trkpt>
      <trkpt lat="45.85525" lon="6.21331">
        <ele>656</ele>
        <time>2013-05-25T15:42:51.000Z</time>
      </trkpt>
      <trkpt lat="45.85528" lon="6.2133">
        <ele>656</ele>
        <time>2013-05-25T15:42:52.000Z</time>
      </trkpt>
      <trkpt lat="45.85531" lon="6.21329">
        <ele>657</ele>
        <time>2013-05-25T15:42:53.000Z</time>
      </trkpt>
      <trkpt lat="45.85534" lon="6.21327">
        <ele>657</ele>
        <time>2013-05-25T15:42:54.000Z</time>
      </trkpt>
      <trkpt lat="45.85536" lon="6.21327">
        <ele>657</ele>
        <time>2013-05-25T15:42:55.000Z</time>
      </trkpt>
      <trkpt lat="45.85539" lon="6.21325">
        <ele>657</ele>
        <time>2013-05-25T15:42:56.000Z</time>
      </trkpt>
      <trkpt lat="45.85542" lon="6.21323">
        <ele>657</ele>
        <time>2013-05-25T15:42:57.000Z</time>
      </trkpt>
      <trkpt lat="45.85545" lon="6.21321">
        <ele>657</ele>
        <time>2013-05-25T15:42:58.000Z</time>
      </trkpt>
      <trkpt lat="45.85548" lon="6.21319">
        <ele>657</ele>
        <time>2013-05-25T15:42:59.000Z</time>
      </trkpt>
      <trkpt lat="45.8555" lon="6.21317">
        <ele>658</ele>
        <time>2013-05-25T15:43:00.000Z</time>
      </trkpt>
      <trkpt lat="45.85553" lon="6.21315">
        <ele>658</ele>
        <time>2013-05-25T15:43:01.000Z</time>
      </trkpt>
      <trkpt lat="45.85556" lon="6.21312">
        <ele>658</ele>
        <time>2013-05-25T15:43:02.000Z</time>
      </trkpt>
      <trkpt lat="45.85559" lon="6.2131">
        <ele>658</ele>
        <time>2013-05-25T15:43:03.000Z</time>
      </trkpt>
      <trkpt lat="45.85562" lon="6.21308">
        <ele>658</ele>
        <time>2013-05-25T15:43:04.000Z</time>
      </trkpt>
      <trkpt lat="45.85565" lon="6.21305">
        <ele>658</ele>
        <time>2013-05-25T15:43:05.000Z</time>
      </trkpt>
      <trkpt lat="45.85567" lon="6.21302">
        <ele>657</ele>
        <time>2013-05-25T15:43:06.000Z</time>
      </trkpt>
      <trkpt lat="45.8557" lon="6.213">
        <ele>657</ele>
        <time>2013-05-25T15:43:07.000Z</time>
      </trkpt>
      <trkpt lat="45.85571" lon="6.21299">
        <ele>657</ele>
        <time>2013-05-25T15:43:08.000Z</time>
      </trkpt>
      <trkpt lat="45.85574" lon="6.21298">
        <ele>657</ele>
        <time>2013-05-25T15:43:09.000Z</time>
      </trkpt>
      <trkpt lat="45.85577" lon="6.21296">
        <ele>657</ele>
        <time>2013-05-25T15:43:10.000Z</time>
      </trkpt>
      <trkpt lat="45.8558" lon="6.21294">
        <ele>657</ele>
        <time>2013-05-25T15:43:11.000Z</time>
      </trkpt>
      <trkpt lat="45.85583" lon="6.21291">
        <ele>657</ele>
        <time>2013-05-25T15:43:12.000Z</time>
      </trkpt>
      <trkpt lat="45.85586" lon="6.21289">
        <ele>660</ele>
        <time>2013-05-25T15:43:13.000Z</time>
      </trkpt>
      <trkpt lat="45.85588" lon="6.21287">
        <ele>660</ele>
        <time>2013-05-25T15:43:14.000Z</time>
      </trkpt>
      <trkpt lat="45.85591" lon="6.21285">
        <ele>660</ele>
        <time>2013-05-25T15:43:15.000Z</time>
      </trkpt>
      <trkpt lat="45.85594" lon="6.21284">
        <ele>659</ele>
        <time>2013-05-25T15:43:16.000Z</time>
      </trkpt>
      <trkpt lat="45.85597" lon="6.21282">
        <ele>659</ele>
        <time>2013-05-25T15:43:17.000Z</time>
      </trkpt>
      <trkpt lat="45.856" lon="6.21279">
        <ele>659</ele>
        <time>2013-05-25T15:43:18.000Z</time>
      </trkpt>
      <trkpt lat="45.85603" lon="6.21278">
        <ele>659</ele>
        <time>2013-05-25T15:43:19.000Z</time>
      </trkpt>
      <trkpt lat="45.85606" lon="6.21277">
        <ele>659</ele>
        <time>2013-05-25T15:43:20.000Z</time>
      </trkpt>
      <trkpt lat="45.85608" lon="6.21275">
        <ele>659</ele>
        <time>2013-05-25T15:43:21.000Z</time>
      </trkpt>
      <trkpt lat="45.85611" lon="6.21274">
        <ele>659</ele>
        <time>2013-05-25T15:43:22.000Z</time>
      </trkpt>
      <trkpt lat="45.85614" lon="6.21272">
        <ele>659</ele>
        <time>2013-05-25T15:43:23.000Z</time>
      </trkpt>
      <trkpt lat="45.85617" lon="6.21271">
        <ele>659</ele>
        <time>2013-05-25T15:43:24.000Z</time>
      </trkpt>
      <trkpt lat="45.85619" lon="6.2127">
        <ele>659</ele>
        <time>2013-05-25T15:43:25.000Z</time>
      </trkpt>
      <trkpt lat="45.85622" lon="6.21269">
        <ele>659</ele>
        <time>2013-05-25T15:43:26.000Z</time>
      </trkpt>
      <trkpt lat="45.85624" lon="6.21268">
        <ele>659</ele>
        <time>2013-05-25T15:43:27.000Z</time>
      </trkpt>
      <trkpt lat="45.85627" lon="6.21267">
        <ele>659</ele>
        <time>2013-05-25T15:43:28.000Z</time>
      </trkpt>
      <trkpt lat="45.85631" lon="6.21267">
        <ele>659</ele>
        <time>2013-05-25T15:43:29.000Z</time>
      </trkpt>
      <trkpt lat="45.85634" lon="6.21267">
        <ele>660</ele>
        <time>2013-05-25T15:43:30.000Z</time>
      </trkpt>
      <trkpt lat="45.85636" lon="6.21266">
        <ele>659</ele>
        <time>2013-05-25T15:43:31.000Z</time>
      </trkpt>
      <trkpt lat="45.85639" lon="6.21266">
        <ele>659</ele>
        <time>2013-05-25T15:43:32.000Z</time>
      </trkpt>
      <trkpt lat="45.85642" lon="6.21266">
        <ele>659</ele>
        <time>2013-05-25T15:43:33.000Z</time>
      </trkpt>
      <trkpt lat="45.85645" lon="6.21266">
        <ele>659</ele>
        <time>2013-05-25T15:43:34.000Z</time>
      </trkpt>
      <trkpt lat="45.85648" lon="6.21266">
        <ele>659</ele>
        <time>2013-05-25T15:43:35.000Z</time>
      </trkpt>
      <trkpt lat="45.85651" lon="6.21266">
        <ele>659</ele>
        <time>2013-05-25T15:43:36.000Z</time>
      </trkpt>
      <trkpt lat="45.85653" lon="6.21267">
        <ele>659</ele>
        <time>2013-05-25T15:43:37.000Z</time>
      </trkpt>
      <trkpt lat="45.85656" lon="6.21267">
        <ele>659</ele>
        <time>2013-05-25T15:43:38.000Z</time>
      </trkpt>
      <trkpt lat="45.85658" lon="6.21267">
        <ele>659</ele>
        <time>2013-05-25T15:43:39.000Z</time>
      </trkpt>
      <trkpt lat="45.8566" lon="6.21265">
        <ele>658</ele>
        <time>2013-05-25T15:43:40.000Z</time>
      </trkpt>
      <trkpt lat="45.85663" lon="6.21264">
        <ele>658</ele>
        <time>2013-05-25T15:43:41.000Z</time>
      </trkpt>
      <trkpt lat="45.85666" lon="6.21264">
        <ele>658</ele>
        <time>2013-05-25T15:43:42.000Z</time>
      </trkpt>
      <trkpt lat="45.85669" lon="6.21264">
        <ele>660</ele>
        <time>2013-05-25T15:43:43.000Z</time>
      </trkpt>
      <trkpt lat="45.85672" lon="6.21264">
        <ele>661</ele>
        <time>2013-05-25T15:43:44.000Z</time>
      </trkpt>
      <trkpt lat="45.85674" lon="6.21264">
        <ele>661</ele>
        <time>2013-05-25T15:43:45.000Z</time>
      </trkpt>
      <trkpt lat="45.85677" lon="6.21264">
        <ele>661</ele>
        <time>2013-05-25T15:43:46.000Z</time>
      </trkpt>
      <trkpt lat="45.85679" lon="6.21265">
        <ele>662</ele>
        <time>2013-05-25T15:43:47.000Z</time>
      </trkpt>
      <trkpt lat="45.85681" lon="6.21265">
        <ele>662</ele>
        <time>2013-05-25T15:43:48.000Z</time>
      </trkpt>
      <trkpt lat="45.85684" lon="6.21266">
        <ele>663</ele>
        <time>2013-05-25T15:43:49.000Z</time>
      </trkpt>
      <trkpt lat="45.85687" lon="6.21267">
        <ele>663</ele>
        <time>2013-05-25T15:43:50.000Z</time>
      </trkpt>
      <trkpt lat="45.8569" lon="6.21267">
        <ele>663</ele>
        <time>2013-05-25T15:43:51.000Z</time>
      </trkpt>
      <trkpt lat="45.85692" lon="6.21266">
        <ele>664</ele>
        <time>2013-05-25T15:43:52.000Z</time>
      </trkpt>
      <trkpt lat="45.85694" lon="6.21267">
        <ele>664</ele>
        <time>2013-05-25T15:43:53.000Z</time>
      </trkpt>
      <trkpt lat="45.85697" lon="6.21267">
        <ele>664</ele>
        <time>2013-05-25T15:43:54.000Z</time>
      </trkpt>
      <trkpt lat="45.85699" lon="6.21267">
        <ele>664</ele>
        <time>2013-05-25T15:43:55.000Z</time>
      </trkpt>
      <trkpt lat="45.85702" lon="6.21267">
        <ele>665</ele>
        <time>2013-05-25T15:43:56.000Z</time>
      </trkpt>
      <trkpt lat="45.85705" lon="6.21268">
        <ele>665</ele>
        <time>2013-05-25T15:43:57.000Z</time>
      </trkpt>
      <trkpt lat="45.85707" lon="6.21267">
        <ele>665</ele>
        <time>2013-05-25T15:43:58.000Z</time>
      </trkpt>
      <trkpt lat="45.8571" lon="6.21267">
        <ele>665</ele>
        <time>2013-05-25T15:43:59.000Z</time>
      </trkpt>
      <trkpt lat="45.85712" lon="6.21267">
        <ele>665</ele>
        <time>2013-05-25T15:44:00.000Z</time>
      </trkpt>
      <trkpt lat="45.85715" lon="6.21266">
        <ele>665</ele>
        <time>2013-05-25T15:44:01.000Z</time>
      </trkpt>
      <trkpt lat="45.85717" lon="6.21266">
        <ele>665</ele>
        <time>2013-05-25T15:44:02.000Z</time>
      </trkpt>
      <trkpt lat="45.8572" lon="6.21266">
        <ele>665</ele>
        <time>2013-05-25T15:44:03.000Z</time>
      </trkpt>
      <trkpt lat="45.85722" lon="6.21266">
        <ele>665</ele>
        <time>2013-05-25T15:44:04.000Z</time>
      </trkpt>
      <trkpt lat="45.85725" lon="6.21266">
        <ele>665</ele>
        <time>2013-05-25T15:44:05.000Z</time>
      </trkpt>
      <trkpt lat="45.85727" lon="6.21266">
        <ele>665</ele>
        <time>2013-05-25T15:44:06.000Z</time>
      </trkpt>
      <trkpt lat="45.8573" lon="6.21267">
        <ele>665</ele>
        <time>2013-05-25T15:44:07.000Z</time>
      </trkpt>
      <trkpt lat="45.85732" lon="6.21267">
        <ele>665</ele>
        <time>2013-05-25T15:44:08.000Z</time>
      </trkpt>
      <trkpt lat="45.85735" lon="6.21267">
        <ele>665</ele>
        <time>2013-05-25T15:44:09.000Z</time>
      </trkpt>
      <trkpt lat="45.85737" lon="6.21268">
        <ele>665</ele>
        <time>2013-05-25T15:44:10.000Z</time>
      </trkpt>
      <trkpt lat="45.85739" lon="6.21269">
        <ele>665</ele>
        <time>2013-05-25T15:44:11.000Z</time>
      </trkpt>
      <trkpt lat="45.85742" lon="6.21269">
        <ele>665</ele>
        <time>2013-05-25T15:44:12.000Z</time>
      </trkpt>
      <trkpt lat="45.85744" lon="6.2127">
        <ele>665</ele>
        <time>2013-05-25T15:44:13.000Z</time>
      </trkpt>
      <trkpt lat="45.85746" lon="6.21271">
        <ele>665</ele>
        <time>2013-05-25T15:44:14.000Z</time>
      </trkpt>
      <trkpt lat="45.85748" lon="6.21272">
        <ele>665</ele>
        <time>2013-05-25T15:44:15.000Z</time>
      </trkpt>
      <trkpt lat="45.85751" lon="6.21273">
        <ele>668</ele>
        <time>2013-05-25T15:44:16.000Z</time>
      </trkpt>
      <trkpt lat="45.85753" lon="6.21273">
        <ele>668</ele>
        <time>2013-05-25T15:44:17.000Z</time>
      </trkpt>
      <trkpt lat="45.85756" lon="6.21274">
        <ele>669</ele>
        <time>2013-05-25T15:44:18.000Z</time>
      </trkpt>
      <trkpt lat="45.85758" lon="6.21275">
        <ele>669</ele>
        <time>2013-05-25T15:44:19.000Z</time>
      </trkpt>
      <trkpt lat="45.8576" lon="6.21278">
        <ele>670</ele>
        <time>2013-05-25T15:44:20.000Z</time>
      </trkpt>
      <trkpt lat="45.85762" lon="6.2128">
        <ele>670</ele>
        <time>2013-05-25T15:44:21.000Z</time>
      </trkpt>
      <trkpt lat="45.85764" lon="6.2128">
        <ele>670</ele>
        <time>2013-05-25T15:44:22.000Z</time>
      </trkpt>
      <trkpt lat="45.85766" lon="6.2128">
        <ele>670</ele>
        <time>2013-05-25T15:44:23.000Z</time>
      </trkpt>
      <trkpt lat="45.85768" lon="6.21281">
        <ele>671</ele>
        <time>2013-05-25T15:44:24.000Z</time>
      </trkpt>
      <trkpt lat="45.8577" lon="6.21282">
        <ele>671</ele>
        <time>2013-05-25T15:44:25.000Z</time>
      </trkpt>
      <trkpt lat="45.85773" lon="6.21283">
        <ele>671</ele>
        <time>2013-05-25T15:44:26.000Z</time>
      </trkpt>
      <trkpt lat="45.85775" lon="6.21284">
        <ele>671</ele>
        <time>2013-05-25T15:44:27.000Z</time>
      </trkpt>
      <trkpt lat="45.85777" lon="6.21286">
        <ele>672</ele>
        <time>2013-05-25T15:44:28.000Z</time>
      </trkpt>
      <trkpt lat="45.8578" lon="6.21288">
        <ele>672</ele>
        <time>2013-05-25T15:44:29.000Z</time>
      </trkpt>
      <trkpt lat="45.85782" lon="6.21291">
        <ele>672</ele>
        <time>2013-05-25T15:44:30.000Z</time>
      </trkpt>
      <trkpt lat="45.85784" lon="6.21293">
        <ele>673</ele>
        <time>2013-05-25T15:44:31.000Z</time>
      </trkpt>
      <trkpt lat="45.85786" lon="6.21294">
        <ele>673</ele>
        <time>2013-05-25T15:44:32.000Z</time>
      </trkpt>
      <trkpt lat="45.85789" lon="6.21296">
        <ele>673</ele>
        <time>2013-05-25T15:44:33.000Z</time>
      </trkpt>
      <trkpt lat="45.85791" lon="6.21297">
        <ele>673</ele>
        <time>2013-05-25T15:44:34.000Z</time>
      </trkpt>
      <trkpt lat="45.85793" lon="6.21298">
        <ele>673</ele>
        <time>2013-05-25T15:44:35.000Z</time>
      </trkpt>
      <trkpt lat="45.85795" lon="6.21299">
        <ele>673</ele>
        <time>2013-05-25T15:44:36.000Z</time>
      </trkpt>
      <trkpt lat="45.85798" lon="6.213">
        <ele>673</ele>
        <time>2013-05-25T15:44:37.000Z</time>
      </trkpt>
      <trkpt lat="45.858" lon="6.21301">
        <ele>674</ele>
        <time>2013-05-25T15:44:38.000Z</time>
      </trkpt>
      <trkpt lat="45.85802" lon="6.21304">
        <ele>674</ele>
        <time>2013-05-25T15:44:39.000Z</time>
      </trkpt>
      <trkpt lat="45.85804" lon="6.21305">
        <ele>674</ele>
        <time>2013-05-25T15:44:40.000Z</time>
      </trkpt>
      <trkpt lat="45.85806" lon="6.21307">
        <ele>674</ele>
        <time>2013-05-25T15:44:41.000Z</time>
      </trkpt>
      <trkpt lat="45.85808" lon="6.21308">
        <ele>674</ele>
        <time>2013-05-25T15:44:42.000Z</time>
      </trkpt>
      <trkpt lat="45.85809" lon="6.21309">
        <ele>674</ele>
        <time>2013-05-25T15:44:43.000Z</time>
      </trkpt>
      <trkpt lat="45.85811" lon="6.2131">
        <ele>674</ele>
        <time>2013-05-25T15:44:44.000Z</time>
      </trkpt>
      <trkpt lat="45.85813" lon="6.21311">
        <ele>675</ele>
        <time>2013-05-25T15:44:45.000Z</time>
      </trkpt>
      <trkpt lat="45.85815" lon="6.21312">
        <ele>675</ele>
        <time>2013-05-25T15:44:46.000Z</time>
      </trkpt>
      <trkpt lat="45.85817" lon="6.21313">
        <ele>675</ele>
        <time>2013-05-25T15:44:47.000Z</time>
      </trkpt>
      <trkpt lat="45.85819" lon="6.21315">
        <ele>675</ele>
        <time>2013-05-25T15:44:48.000Z</time>
      </trkpt>
      <trkpt lat="45.85821" lon="6.21316">
        <ele>675</ele>
        <time>2013-05-25T15:44:49.000Z</time>
      </trkpt>
      <trkpt lat="45.85823" lon="6.21318">
        <ele>675</ele>
        <time>2013-05-25T15:44:50.000Z</time>
      </trkpt>
      <trkpt lat="45.85824" lon="6.21318">
        <ele>676</ele>
        <time>2013-05-25T15:44:51.000Z</time>
      </trkpt>
      <trkpt lat="45.85826" lon="6.21319">
        <ele>676</ele>
        <time>2013-05-25T15:44:52.000Z</time>
      </trkpt>
      <trkpt lat="45.85828" lon="6.21321">
        <ele>676</ele>
        <time>2013-05-25T15:44:53.000Z</time>
      </trkpt>
      <trkpt lat="45.8583" lon="6.21322">
        <ele>676</ele>
        <time>2013-05-25T15:44:54.000Z</time>
      </trkpt>
      <trkpt lat="45.85832" lon="6.21323">
        <ele>676</ele>
        <time>2013-05-25T15:44:55.000Z</time>
      </trkpt>
      <trkpt lat="45.85833" lon="6.21324">
        <ele>676</ele>
        <time>2013-05-25T15:44:56.000Z</time>
      </trkpt>
      <trkpt lat="45.85835" lon="6.21325">
        <ele>679</ele>
        <time>2013-05-25T15:44:57.000Z</time>
      </trkpt>
      <trkpt lat="45.85837" lon="6.21326">
        <ele>679</ele>
        <time>2013-05-25T15:44:58.000Z</time>
      </trkpt>
      <trkpt lat="45.85839" lon="6.21329">
        <ele>679</ele>
        <time>2013-05-25T15:44:59.000Z</time>
      </trkpt>
      <trkpt lat="45.85841" lon="6.2133">
        <ele>679</ele>
        <time>2013-05-25T15:45:00.000Z</time>
      </trkpt>
      <trkpt lat="45.85843" lon="6.21331">
        <ele>679</ele>
        <time>2013-05-25T15:45:01.000Z</time>
      </trkpt>
      <trkpt lat="45.85845" lon="6.21334">
        <ele>680</ele>
        <time>2013-05-25T15:45:02.000Z</time>
      </trkpt>
      <trkpt lat="45.85847" lon="6.21335">
        <ele>681</ele>
        <time>2013-05-25T15:45:03.000Z</time>
      </trkpt>
      <trkpt lat="45.85848" lon="6.21337">
        <ele>681</ele>
        <time>2013-05-25T15:45:04.000Z</time>
      </trkpt>
      <trkpt lat="45.8585" lon="6.21339">
        <ele>681</ele>
        <time>2013-05-25T15:45:05.000Z</time>
      </trkpt>
      <trkpt lat="45.85851" lon="6.21341">
        <ele>682</ele>
        <time>2013-05-25T15:45:06.000Z</time>
      </trkpt>
      <trkpt lat="45.85853" lon="6.21343">
        <ele>682</ele>
        <time>2013-05-25T15:45:07.000Z</time>
      </trkpt>
      <trkpt lat="45.85855" lon="6.21344">
        <ele>682</ele>
        <time>2013-05-25T15:45:08.000Z</time>
      </trkpt>
      <trkpt lat="45.85856" lon="6.21345">
        <ele>682</ele>
        <time>2013-05-25T15:45:09.000Z</time>
      </trkpt>
      <trkpt lat="45.85858" lon="6.21346">
        <ele>683</ele>
        <time>2013-05-25T15:45:10.000Z</time>
      </trkpt>
      <trkpt lat="45.8586" lon="6.21347">
        <ele>683</ele>
        <time>2013-05-25T15:45:11.000Z</time>
      </trkpt>
      <trkpt lat="45.85862" lon="6.21348">
        <ele>683</ele>
        <time>2013-05-25T15:45:12.000Z</time>
      </trkpt>
      <trkpt lat="45.85864" lon="6.21349">
        <ele>683</ele>
        <time>2013-05-25T15:45:13.000Z</time>
      </trkpt>
      <trkpt lat="45.85866" lon="6.21351">
        <ele>683</ele>
        <time>2013-05-25T15:45:14.000Z</time>
      </trkpt>
      <trkpt lat="45.85867" lon="6.21352">
        <ele>683</ele>
        <time>2013-05-25T15:45:15.000Z</time>
      </trkpt>
      <trkpt lat="45.85869" lon="6.21353">
        <ele>684</ele>
        <time>2013-05-25T15:45:16.000Z</time>
      </trkpt>
      <trkpt lat="45.8587" lon="6.21354">
        <ele>684</ele>
        <time>2013-05-25T15:45:17.000Z</time>
      </trkpt>
      <trkpt lat="45.85872" lon="6.21355">
        <ele>684</ele>
        <time>2013-05-25T15:45:18.000Z</time>
      </trkpt>
      <trkpt lat="45.85874" lon="6.21355">
        <ele>684</ele>
        <time>2013-05-25T15:45:19.000Z</time>
      </trkpt>
      <trkpt lat="45.85876" lon="6.21356">
        <ele>684</ele>
        <time>2013-05-25T15:45:20.000Z</time>
      </trkpt>
      <trkpt lat="45.85878" lon="6.21356">
        <ele>684</ele>
        <time>2013-05-25T15:45:21.000Z</time>
      </trkpt>
      <trkpt lat="45.8588" lon="6.21357">
        <ele>684</ele>
        <time>2013-05-25T15:45:22.000Z</time>
      </trkpt>
      <trkpt lat="45.85882" lon="6.21357">
        <ele>684</ele>
        <time>2013-05-25T15:45:23.000Z</time>
      </trkpt>
      <trkpt lat="45.85884" lon="6.21358">
        <ele>684</ele>
        <time>2013-05-25T15:45:24.000Z</time>
      </trkpt>
      <trkpt lat="45.85887" lon="6.21359">
        <ele>684</ele>
        <time>2013-05-25T15:45:25.000Z</time>
      </trkpt>
      <trkpt lat="45.85889" lon="6.21359">
        <ele>685</ele>
        <time>2013-05-25T15:45:26.000Z</time>
      </trkpt>
      <trkpt lat="45.85892" lon="6.21358">
        <ele>685</ele>
        <time>2013-05-25T15:45:27.000Z</time>
      </trkpt>
      <trkpt lat="45.85894" lon="6.21357">
        <ele>685</ele>
        <time>2013-05-25T15:45:28.000Z</time>
      </trkpt>
      <trkpt lat="45.85896" lon="6.21357">
        <ele>685</ele>
        <time>2013-05-25T15:45:29.000Z</time>
      </trkpt>
      <trkpt lat="45.85898" lon="6.21357">
        <ele>685</ele>
        <time>2013-05-25T15:45:30.000Z</time>
      </trkpt>
      <trkpt lat="45.85901" lon="6.21356">
        <ele>685</ele>
        <time>2013-05-25T15:45:31.000Z</time>
      </trkpt>
      <trkpt lat="45.85903" lon="6.21357">
        <ele>685</ele>
        <time>2013-05-25T15:45:32.000Z</time>
      </trkpt>
      <trkpt lat="45.85906" lon="6.21357">
        <ele>685</ele>
        <time>2013-05-25T15:45:33.000Z</time>
      </trkpt>
      <trkpt lat="45.85908" lon="6.21357">
        <ele>685</ele>
        <time>2013-05-25T15:45:34.000Z</time>
      </trkpt>
      <trkpt lat="45.85911" lon="6.21356">
        <ele>685</ele>
        <time>2013-05-25T15:45:35.000Z</time>
      </trkpt>
      <trkpt lat="45.85913" lon="6.21356">
        <ele>685</ele>
        <time>2013-05-25T15:45:36.000Z</time>
      </trkpt>
      <trkpt lat="45.85916" lon="6.21356">
        <ele>685</ele>
        <time>2013-05-25T15:45:37.000Z</time>
      </trkpt>
      <trkpt lat="45.85918" lon="6.21355">
        <ele>687</ele>
        <time>2013-05-25T15:45:38.000Z</time>
      </trkpt>
      <trkpt lat="45.85921" lon="6.21355">
        <ele>687</ele>
        <time>2013-05-25T15:45:39.000Z</time>
      </trkpt>
      <trkpt lat="45.85923" lon="6.21355">
        <ele>687</ele>
        <time>2013-05-25T15:45:40.000Z</time>
      </trkpt>
      <trkpt lat="45.85926" lon="6.21354">
        <ele>687</ele>
        <time>2013-05-25T15:45:41.000Z</time>
      </trkpt>
      <trkpt lat="45.85928" lon="6.21353">
        <ele>687</ele>
        <time>2013-05-25T15:45:42.000Z</time>
      </trkpt>
      <trkpt lat="45.85931" lon="6.21352">
        <ele>687</ele>
        <time>2013-05-25T15:45:43.000Z</time>
      </trkpt>
      <trkpt lat="45.85933" lon="6.21352">
        <ele>687</ele>
        <time>2013-05-25T15:45:44.000Z</time>
      </trkpt>
      <trkpt lat="45.85936" lon="6.21352">
        <ele>687</ele>
        <time>2013-05-25T15:45:45.000Z</time>
      </trkpt>
      <trkpt lat="45.85938" lon="6.21351">
        <ele>687</ele>
        <time>2013-05-25T15:45:46.000Z</time>
      </trkpt>
      <trkpt lat="45.85941" lon="6.21352">
        <ele>687</ele>
        <time>2013-05-25T15:45:47.000Z</time>
      </trkpt>
      <trkpt lat="45.85943" lon="6.21351">
        <ele>687</ele>
        <time>2013-05-25T15:45:48.000Z</time>
      </trkpt>
      <trkpt lat="45.85946" lon="6.21351">
        <ele>687</ele>
        <time>2013-05-25T15:45:49.000Z</time>
      </trkpt>
      <trkpt lat="45.85948" lon="6.2135">
        <ele>687</ele>
        <time>2013-05-25T15:45:50.000Z</time>
      </trkpt>
      <trkpt lat="45.85951" lon="6.2135">
        <ele>687</ele>
        <time>2013-05-25T15:45:51.000Z</time>
      </trkpt>
      <trkpt lat="45.85953" lon="6.21349">
        <ele>687</ele>
        <time>2013-05-25T15:45:52.000Z</time>
      </trkpt>
      <trkpt lat="45.85956" lon="6.21349">
        <ele>687</ele>
        <time>2013-05-25T15:45:53.000Z</time>
      </trkpt>
      <trkpt lat="45.85958" lon="6.2135">
        <ele>687</ele>
        <time>2013-05-25T15:45:54.000Z</time>
      </trkpt>
      <trkpt lat="45.85961" lon="6.21351">
        <ele>687</ele>
        <time>2013-05-25T15:45:55.000Z</time>
      </trkpt>
      <trkpt lat="45.85963" lon="6.21351">
        <ele>687</ele>
        <time>2013-05-25T15:45:56.000Z</time>
      </trkpt>
      <trkpt lat="45.85966" lon="6.21351">
        <ele>687</ele>
        <time>2013-05-25T15:45:57.000Z</time>
      </trkpt>
      <trkpt lat="45.85969" lon="6.21352">
        <ele>687</ele>
        <time>2013-05-25T15:45:58.000Z</time>
      </trkpt>
      <trkpt lat="45.85972" lon="6.21352">
        <ele>687</ele>
        <time>2013-05-25T15:45:59.000Z</time>
      </trkpt>
      <trkpt lat="45.85974" lon="6.21353">
        <ele>687</ele>
        <time>2013-05-25T15:46:00.000Z</time>
      </trkpt>
      <trkpt lat="45.85977" lon="6.21354">
        <ele>687</ele>
        <time>2013-05-25T15:46:01.000Z</time>
      </trkpt>
      <trkpt lat="45.85979" lon="6.21354">
        <ele>687</ele>
        <time>2013-05-25T15:46:02.000Z</time>
      </trkpt>
      <trkpt lat="45.85982" lon="6.21355">
        <ele>687</ele>
        <time>2013-05-25T15:46:03.000Z</time>
      </trkpt>
      <trkpt lat="45.85985" lon="6.21356">
        <ele>688</ele>
        <time>2013-05-25T15:46:04.000Z</time>
      </trkpt>
      <trkpt lat="45.85988" lon="6.21356">
        <ele>688</ele>
        <time>2013-05-25T15:46:05.000Z</time>
      </trkpt>
      <trkpt lat="45.8599" lon="6.21357">
        <ele>688</ele>
        <time>2013-05-25T15:46:06.000Z</time>
      </trkpt>
      <trkpt lat="45.85993" lon="6.21357">
        <ele>688</ele>
        <time>2013-05-25T15:46:07.000Z</time>
      </trkpt>
      <trkpt lat="45.85995" lon="6.21358">
        <ele>688</ele>
        <time>2013-05-25T15:46:08.000Z</time>
      </trkpt>
      <trkpt lat="45.85998" lon="6.21359">
        <ele>688</ele>
        <time>2013-05-25T15:46:09.000Z</time>
      </trkpt>
      <trkpt lat="45.86001" lon="6.21359">
        <ele>688</ele>
        <time>2013-05-25T15:46:10.000Z</time>
      </trkpt>
      <trkpt lat="45.86004" lon="6.2136">
        <ele>688</ele>
        <time>2013-05-25T15:46:11.000Z</time>
      </trkpt>
      <trkpt lat="45.86006" lon="6.21361">
        <ele>688</ele>
        <time>2013-05-25T15:46:12.000Z</time>
      </trkpt>
      <trkpt lat="45.86009" lon="6.21361">
        <ele>689</ele>
        <time>2013-05-25T15:46:13.000Z</time>
      </trkpt>
      <trkpt lat="45.86012" lon="6.21362">
        <ele>689</ele>
        <time>2013-05-25T15:46:14.000Z</time>
      </trkpt>
      <trkpt lat="45.86015" lon="6.21363">
        <ele>689</ele>
        <time>2013-05-25T15:46:15.000Z</time>
      </trkpt>
      <trkpt lat="45.86017" lon="6.21363">
        <ele>689</ele>
        <time>2013-05-25T15:46:16.000Z</time>
      </trkpt>
      <trkpt lat="45.8602" lon="6.21362">
        <ele>689</ele>
        <time>2013-05-25T15:46:17.000Z</time>
      </trkpt>
      <trkpt lat="45.86023" lon="6.21363">
        <ele>689</ele>
        <time>2013-05-25T15:46:18.000Z</time>
      </trkpt>
      <trkpt lat="45.86026" lon="6.21363">
        <ele>689</ele>
        <time>2013-05-25T15:46:19.000Z</time>
      </trkpt>
      <trkpt lat="45.86028" lon="6.21364">
        <ele>689</ele>
        <time>2013-05-25T15:46:20.000Z</time>
      </trkpt>
      <trkpt lat="45.86031" lon="6.21365">
        <ele>689</ele>
        <time>2013-05-25T15:46:21.000Z</time>
      </trkpt>
      <trkpt lat="45.86035" lon="6.21367">
        <ele>689</ele>
        <time>2013-05-25T15:46:22.000Z</time>
      </trkpt>
      <trkpt lat="45.86038" lon="6.21368">
        <ele>689</ele>
        <time>2013-05-25T15:46:23.000Z</time>
      </trkpt>
      <trkpt lat="45.8604" lon="6.21368">
        <ele>689</ele>
        <time>2013-05-25T15:46:24.000Z</time>
      </trkpt>
      <trkpt lat="45.86043" lon="6.21368">
        <ele>689</ele>
        <time>2013-05-25T15:46:25.000Z</time>
      </trkpt>
      <trkpt lat="45.86046" lon="6.21369">
        <ele>689</ele>
        <time>2013-05-25T15:46:26.000Z</time>
      </trkpt>
      <trkpt lat="45.86049" lon="6.21369">
        <ele>689</ele>
        <time>2013-05-25T15:46:27.000Z</time>
      </trkpt>
      <trkpt lat="45.86051" lon="6.2137">
        <ele>689</ele>
        <time>2013-05-25T15:46:28.000Z</time>
      </trkpt>
      <trkpt lat="45.86054" lon="6.21371">
        <ele>689</ele>
        <time>2013-05-25T15:46:29.000Z</time>
      </trkpt>
      <trkpt lat="45.86056" lon="6.21372">
        <ele>689</ele>
        <time>2013-05-25T15:46:30.000Z</time>
      </trkpt>
      <trkpt lat="45.86059" lon="6.21373">
        <ele>689</ele>
        <time>2013-05-25T15:46:31.000Z</time>
      </trkpt>
      <trkpt lat="45.86062" lon="6.21374">
        <ele>689</ele>
        <time>2013-05-25T15:46:32.000Z</time>
      </trkpt>
      <trkpt lat="45.86064" lon="6.21375">
        <ele>689</ele>
        <time>2013-05-25T15:46:33.000Z</time>
      </trkpt>
      <trkpt lat="45.86067" lon="6.21377">
        <ele>689</ele>
        <time>2013-05-25T15:46:34.000Z</time>
      </trkpt>
      <trkpt lat="45.8607" lon="6.21378">
        <ele>689</ele>
        <time>2013-05-25T15:46:35.000Z</time>
      </trkpt>
      <trkpt lat="45.86072" lon="6.21379">
        <ele>689</ele>
        <time>2013-05-25T15:46:36.000Z</time>
      </trkpt>
      <trkpt lat="45.86075" lon="6.21381">
        <ele>689</ele>
        <time>2013-05-25T15:46:37.000Z</time>
      </trkpt>
      <trkpt lat="45.86077" lon="6.21383">
        <ele>689</ele>
        <time>2013-05-25T15:46:38.000Z</time>
      </trkpt>
      <trkpt lat="45.8608" lon="6.21385">
        <ele>689</ele>
        <time>2013-05-25T15:46:39.000Z</time>
      </trkpt>
      <trkpt lat="45.86082" lon="6.21386">
        <ele>689</ele>
        <time>2013-05-25T15:46:40.000Z</time>
      </trkpt>
      <trkpt lat="45.86085" lon="6.21388">
        <ele>690</ele>
        <time>2013-05-25T15:46:41.000Z</time>
      </trkpt>
      <trkpt lat="45.86087" lon="6.2139">
        <ele>690</ele>
        <time>2013-05-25T15:46:42.000Z</time>
      </trkpt>
      <trkpt lat="45.86089" lon="6.21393">
        <ele>690</ele>
        <time>2013-05-25T15:46:43.000Z</time>
      </trkpt>
      <trkpt lat="45.86091" lon="6.21395">
        <ele>690</ele>
        <time>2013-05-25T15:46:44.000Z</time>
      </trkpt>
      <trkpt lat="45.86093" lon="6.21397">
        <ele>690</ele>
        <time>2013-05-25T15:46:45.000Z</time>
      </trkpt>
      <trkpt lat="45.86095" lon="6.214">
        <ele>690</ele>
        <time>2013-05-25T15:46:46.000Z</time>
      </trkpt>
      <trkpt lat="45.86097" lon="6.21403">
        <ele>690</ele>
        <time>2013-05-25T15:46:47.000Z</time>
      </trkpt>
      <trkpt lat="45.86099" lon="6.21405">
        <ele>689</ele>
        <time>2013-05-25T15:46:48.000Z</time>
      </trkpt>
      <trkpt lat="45.861" lon="6.21408">
        <ele>689</ele>
        <time>2013-05-25T15:46:49.000Z</time>
      </trkpt>
      <trkpt lat="45.86101" lon="6.21411">
        <ele>689</ele>
        <time>2013-05-25T15:46:50.000Z</time>
      </trkpt>
      <trkpt lat="45.86103" lon="6.21414">
        <ele>689</ele>
        <time>2013-05-25T15:46:51.000Z</time>
      </trkpt>
      <trkpt lat="45.86104" lon="6.21418">
        <ele>687</ele>
        <time>2013-05-25T15:46:52.000Z</time>
      </trkpt>
      <trkpt lat="45.86105" lon="6.21421">
        <ele>687</ele>
        <time>2013-05-25T15:46:53.000Z</time>
      </trkpt>
      <trkpt lat="45.86105" lon="6.21424">
        <ele>687</ele>
        <time>2013-05-25T15:46:54.000Z</time>
      </trkpt>
      <trkpt lat="45.86106" lon="6.21427">
        <ele>687</ele>
        <time>2013-05-25T15:46:55.000Z</time>
      </trkpt>
      <trkpt lat="45.86106" lon="6.21431">
        <ele>687</ele>
        <time>2013-05-25T15:46:56.000Z</time>
      </trkpt>
      <trkpt lat="45.86106" lon="6.21435">
        <ele>687</ele>
        <time>2013-05-25T15:46:57.000Z</time>
      </trkpt>
      <trkpt lat="45.86107" lon="6.21444">
        <ele>686</ele>
        <time>2013-05-25T15:46:58.000Z</time>
      </trkpt>
      <trkpt lat="45.86106" lon="6.21448">
        <ele>686</ele>
        <time>2013-05-25T15:46:59.000Z</time>
      </trkpt>
      <trkpt lat="45.86106" lon="6.2145">
        <ele>686</ele>
        <time>2013-05-25T15:47:00.000Z</time>
      </trkpt>
      <trkpt lat="45.86105" lon="6.21454">
        <ele>686</ele>
        <time>2013-05-25T15:47:01.000Z</time>
      </trkpt>
      <trkpt lat="45.86105" lon="6.21458">
        <ele>686</ele>
        <time>2013-05-25T15:47:02.000Z</time>
      </trkpt>
      <trkpt lat="45.86104" lon="6.21462">
        <ele>686</ele>
        <time>2013-05-25T15:47:03.000Z</time>
      </trkpt>
      <trkpt lat="45.86102" lon="6.21467">
        <ele>686</ele>
        <time>2013-05-25T15:47:04.000Z</time>
      </trkpt>
      <trkpt lat="45.861" lon="6.21472">
        <ele>686</ele>
        <time>2013-05-25T15:47:05.000Z</time>
      </trkpt>
      <trkpt lat="45.86099" lon="6.21476">
        <ele>686</ele>
        <time>2013-05-25T15:47:06.000Z</time>
      </trkpt>
      <trkpt lat="45.86098" lon="6.2148">
        <ele>686</ele>
        <time>2013-05-25T15:47:07.000Z</time>
      </trkpt>
      <trkpt lat="45.86097" lon="6.21484">
        <ele>686</ele>
        <time>2013-05-25T15:47:08.000Z</time>
      </trkpt>
      <trkpt lat="45.86096" lon="6.21488">
        <ele>686</ele>
        <time>2013-05-25T15:47:09.000Z</time>
      </trkpt>
      <trkpt lat="45.86097" lon="6.21493">
        <ele>686</ele>
        <time>2013-05-25T15:47:10.000Z</time>
      </trkpt>
      <trkpt lat="45.86097" lon="6.21496">
        <ele>686</ele>
        <time>2013-05-25T15:47:11.000Z</time>
      </trkpt>
      <trkpt lat="45.86097" lon="6.215">
        <ele>686</ele>
        <time>2013-05-25T15:47:12.000Z</time>
      </trkpt>
      <trkpt lat="45.86098" lon="6.21503">
        <ele>685</ele>
        <time>2013-05-25T15:47:13.000Z</time>
      </trkpt>
      <trkpt lat="45.86099" lon="6.21506">
        <ele>685</ele>
        <time>2013-05-25T15:47:14.000Z</time>
      </trkpt>
      <trkpt lat="45.86099" lon="6.21509">
        <ele>685</ele>
        <time>2013-05-25T15:47:15.000Z</time>
      </trkpt>
      <trkpt lat="45.861" lon="6.21512">
        <ele>685</ele>
        <time>2013-05-25T15:47:16.000Z</time>
      </trkpt>
      <trkpt lat="45.86099" lon="6.21516">
        <ele>685</ele>
        <time>2013-05-25T15:47:17.000Z</time>
      </trkpt>
      <trkpt lat="45.86099" lon="6.2152">
        <ele>685</ele>
        <time>2013-05-25T15:47:18.000Z</time>
      </trkpt>
      <trkpt lat="45.86098" lon="6.21525">
        <ele>685</ele>
        <time>2013-05-25T15:47:19.000Z</time>
      </trkpt>
      <trkpt lat="45.86098" lon="6.21529">
        <ele>685</ele>
        <time>2013-05-25T15:47:20.000Z</time>
      </trkpt>
      <trkpt lat="45.86099" lon="6.21533">
        <ele>685</ele>
        <time>2013-05-25T15:47:21.000Z</time>
      </trkpt>
      <trkpt lat="45.86099" lon="6.21537">
        <ele>685</ele>
        <time>2013-05-25T15:47:22.000Z</time>
      </trkpt>
      <trkpt lat="45.861" lon="6.21541">
        <ele>685</ele>
        <time>2013-05-25T15:47:23.000Z</time>
      </trkpt>
      <trkpt lat="45.861" lon="6.21545">
        <ele>685</ele>
        <time>2013-05-25T15:47:24.000Z</time>
      </trkpt>
      <trkpt lat="45.861" lon="6.21549">
        <ele>685</ele>
        <time>2013-05-25T15:47:25.000Z</time>
      </trkpt>
      <trkpt lat="45.86101" lon="6.21552">
        <ele>685</ele>
        <time>2013-05-25T15:47:26.000Z</time>
      </trkpt>
      <trkpt lat="45.86102" lon="6.21555">
        <ele>685</ele>
        <time>2013-05-25T15:47:27.000Z</time>
      </trkpt>
      <trkpt lat="45.86103" lon="6.21558">
        <ele>685</ele>
        <time>2013-05-25T15:47:28.000Z</time>
      </trkpt>
      <trkpt lat="45.86104" lon="6.21559">
        <ele>685</ele>
        <time>2013-05-25T15:47:29.000Z</time>
      </trkpt>
      <trkpt lat="45.86107" lon="6.2156">
        <ele>685</ele>
        <time>2013-05-25T15:47:30.000Z</time>
      </trkpt>
      <trkpt lat="45.8611" lon="6.2156">
        <ele>685</ele>
        <time>2013-05-25T15:47:31.000Z</time>
      </trkpt>
      <trkpt lat="45.86113" lon="6.2156">
        <ele>685</ele>
        <time>2013-05-25T15:47:32.000Z</time>
      </trkpt>
      <trkpt lat="45.86116" lon="6.2156">
        <ele>684</ele>
        <time>2013-05-25T15:47:33.000Z</time>
      </trkpt>
      <trkpt lat="45.8612" lon="6.2156">
        <ele>684</ele>
        <time>2013-05-25T15:47:34.000Z</time>
      </trkpt>
      <trkpt lat="45.86123" lon="6.2156">
        <ele>684</ele>
        <time>2013-05-25T15:47:35.000Z</time>
      </trkpt>
      <trkpt lat="45.86126" lon="6.21559">
        <ele>684</ele>
        <time>2013-05-25T15:47:36.000Z</time>
      </trkpt>
      <trkpt lat="45.86129" lon="6.21559">
        <ele>683</ele>
        <time>2013-05-25T15:47:37.000Z</time>
      </trkpt>
      <trkpt lat="45.86132" lon="6.21559">
        <ele>683</ele>
        <time>2013-05-25T15:47:38.000Z</time>
      </trkpt>
      <trkpt lat="45.86135" lon="6.21559">
        <ele>683</ele>
        <time>2013-05-25T15:47:39.000Z</time>
      </trkpt>
      <trkpt lat="45.86138" lon="6.21559">
        <ele>682</ele>
        <time>2013-05-25T15:47:40.000Z</time>
      </trkpt>
      <trkpt lat="45.86141" lon="6.2156">
        <ele>682</ele>
        <time>2013-05-25T15:47:41.000Z</time>
      </trkpt>
      <trkpt lat="45.86143" lon="6.21561">
        <ele>682</ele>
        <time>2013-05-25T15:47:42.000Z</time>
      </trkpt>
      <trkpt lat="45.86145" lon="6.21562">
        <ele>682</ele>
        <time>2013-05-25T15:47:43.000Z</time>
      </trkpt>
      <trkpt lat="45.86147" lon="6.21564">
        <ele>682</ele>
        <time>2013-05-25T15:47:44.000Z</time>
      </trkpt>
      <trkpt lat="45.8615" lon="6.21566">
        <ele>681</ele>
        <time>2013-05-25T15:47:45.000Z</time>
      </trkpt>
      <trkpt lat="45.86152" lon="6.21568">
        <ele>681</ele>
        <time>2013-05-25T15:47:46.000Z</time>
      </trkpt>
      <trkpt lat="45.86154" lon="6.21571">
        <ele>680</ele>
        <time>2013-05-25T15:47:47.000Z</time>
      </trkpt>
      <trkpt lat="45.86156" lon="6.21574">
        <ele>680</ele>
        <time>2013-05-25T15:47:48.000Z</time>
      </trkpt>
      <trkpt lat="45.86159" lon="6.21577">
        <ele>679</ele>
        <time>2013-05-25T15:47:49.000Z</time>
      </trkpt>
      <trkpt lat="45.86161" lon="6.21581">
        <ele>679</ele>
        <time>2013-05-25T15:47:50.000Z</time>
      </trkpt>
      <trkpt lat="45.86163" lon="6.21584">
        <ele>679</ele>
        <time>2013-05-25T15:47:51.000Z</time>
      </trkpt>
      <trkpt lat="45.86164" lon="6.21587">
        <ele>679</ele>
        <time>2013-05-25T15:47:52.000Z</time>
      </trkpt>
      <trkpt lat="45.86166" lon="6.2159">
        <ele>679</ele>
        <time>2013-05-25T15:47:53.000Z</time>
      </trkpt>
      <trkpt lat="45.86169" lon="6.21593">
        <ele>677</ele>
        <time>2013-05-25T15:47:54.000Z</time>
      </trkpt>
      <trkpt lat="45.8617" lon="6.21597">
        <ele>677</ele>
        <time>2013-05-25T15:47:55.000Z</time>
      </trkpt>
      <trkpt lat="45.86172" lon="6.216">
        <ele>677</ele>
        <time>2013-05-25T15:47:56.000Z</time>
      </trkpt>
      <trkpt lat="45.86174" lon="6.21603">
        <ele>677</ele>
        <time>2013-05-25T15:47:57.000Z</time>
      </trkpt>
      <trkpt lat="45.86176" lon="6.21606">
        <ele>677</ele>
        <time>2013-05-25T15:47:58.000Z</time>
      </trkpt>
      <trkpt lat="45.86179" lon="6.21609">
        <ele>677</ele>
        <time>2013-05-25T15:47:59.000Z</time>
      </trkpt>
      <trkpt lat="45.86181" lon="6.21612">
        <ele>677</ele>
        <time>2013-05-25T15:48:00.000Z</time>
      </trkpt>
      <trkpt lat="45.86183" lon="6.21615">
        <ele>678</ele>
        <time>2013-05-25T15:48:01.000Z</time>
      </trkpt>
      <trkpt lat="45.86185" lon="6.21618">
        <ele>678</ele>
        <time>2013-05-25T15:48:02.000Z</time>
      </trkpt>
      <trkpt lat="45.86187" lon="6.21621">
        <ele>678</ele>
        <time>2013-05-25T15:48:03.000Z</time>
      </trkpt>
      <trkpt lat="45.86189" lon="6.21624">
        <ele>678</ele>
        <time>2013-05-25T15:48:04.000Z</time>
      </trkpt>
      <trkpt lat="45.86191" lon="6.21627">
        <ele>678</ele>
        <time>2013-05-25T15:48:05.000Z</time>
      </trkpt>
      <trkpt lat="45.86194" lon="6.2163">
        <ele>678</ele>
        <time>2013-05-25T15:48:06.000Z</time>
      </trkpt>
      <trkpt lat="45.86196" lon="6.21632">
        <ele>678</ele>
        <time>2013-05-25T15:48:07.000Z</time>
      </trkpt>
      <trkpt lat="45.86198" lon="6.21635">
        <ele>678</ele>
        <time>2013-05-25T15:48:08.000Z</time>
      </trkpt>
      <trkpt lat="45.86201" lon="6.21637">
        <ele>678</ele>
        <time>2013-05-25T15:48:09.000Z</time>
      </trkpt>
      <trkpt lat="45.86203" lon="6.21639">
        <ele>678</ele>
        <time>2013-05-25T15:48:10.000Z</time>
      </trkpt>
      <trkpt lat="45.86205" lon="6.21641">
        <ele>678</ele>
        <time>2013-05-25T15:48:11.000Z</time>
      </trkpt>
      <trkpt lat="45.86207" lon="6.21643">
        <ele>678</ele>
        <time>2013-05-25T15:48:12.000Z</time>
      </trkpt>
      <trkpt lat="45.86209" lon="6.21645">
        <ele>678</ele>
        <time>2013-05-25T15:48:13.000Z</time>
      </trkpt>
      <trkpt lat="45.86211" lon="6.21647">
        <ele>678</ele>
        <time>2013-05-25T15:48:14.000Z</time>
      </trkpt>
      <trkpt lat="45.86213" lon="6.21649">
        <ele>678</ele>
        <time>2013-05-25T15:48:15.000Z</time>
      </trkpt>
      <trkpt lat="45.86215" lon="6.21652">
        <ele>678</ele>
        <time>2013-05-25T15:48:16.000Z</time>
      </trkpt>
      <trkpt lat="45.86217" lon="6.21654">
        <ele>678</ele>
        <time>2013-05-25T15:48:17.000Z</time>
      </trkpt>
      <trkpt lat="45.8622" lon="6.21657">
        <ele>678</ele>
        <time>2013-05-25T15:48:18.000Z</time>
      </trkpt>
      <trkpt lat="45.86222" lon="6.21659">
        <ele>678</ele>
        <time>2013-05-25T15:48:19.000Z</time>
      </trkpt>
      <trkpt lat="45.86224" lon="6.21662">
        <ele>678</ele>
        <time>2013-05-25T15:48:20.000Z</time>
      </trkpt>
      <trkpt lat="45.86226" lon="6.21664">
        <ele>678</ele>
        <time>2013-05-25T15:48:21.000Z</time>
      </trkpt>
      <trkpt lat="45.86228" lon="6.21666">
        <ele>678</ele>
        <time>2013-05-25T15:48:22.000Z</time>
      </trkpt>
      <trkpt lat="45.8623" lon="6.21668">
        <ele>684</ele>
        <time>2013-05-25T15:48:23.000Z</time>
      </trkpt>
      <trkpt lat="45.86232" lon="6.2167">
        <ele>684</ele>
        <time>2013-05-25T15:48:24.000Z</time>
      </trkpt>
      <trkpt lat="45.86234" lon="6.21673">
        <ele>684</ele>
        <time>2013-05-25T15:48:25.000Z</time>
      </trkpt>
      <trkpt lat="45.86236" lon="6.21675">
        <ele>684</ele>
        <time>2013-05-25T15:48:26.000Z</time>
      </trkpt>
      <trkpt lat="45.86239" lon="6.21678">
        <ele>684</ele>
        <time>2013-05-25T15:48:27.000Z</time>
      </trkpt>
      <trkpt lat="45.86241" lon="6.2168">
        <ele>684</ele>
        <time>2013-05-25T15:48:28.000Z</time>
      </trkpt>
      <trkpt lat="45.86243" lon="6.21683">
        <ele>684</ele>
        <time>2013-05-25T15:48:29.000Z</time>
      </trkpt>
      <trkpt lat="45.86245" lon="6.21685">
        <ele>684</ele>
        <time>2013-05-25T15:48:30.000Z</time>
      </trkpt>
      <trkpt lat="45.86248" lon="6.21686">
        <ele>685</ele>
        <time>2013-05-25T15:48:31.000Z</time>
      </trkpt>
      <trkpt lat="45.8625" lon="6.21688">
        <ele>680</ele>
        <time>2013-05-25T15:48:32.000Z</time>
      </trkpt>
      <trkpt lat="45.86253" lon="6.2169">
        <ele>681</ele>
        <time>2013-05-25T15:48:33.000Z</time>
      </trkpt>
      <trkpt lat="45.86255" lon="6.21692">
        <ele>681</ele>
        <time>2013-05-25T15:48:34.000Z</time>
      </trkpt>
      <trkpt lat="45.86257" lon="6.21695">
        <ele>681</ele>
        <time>2013-05-25T15:48:35.000Z</time>
      </trkpt>
      <trkpt lat="45.8626" lon="6.21697">
        <ele>681</ele>
        <time>2013-05-25T15:48:36.000Z</time>
      </trkpt>
      <trkpt lat="45.86262" lon="6.21699">
        <ele>682</ele>
        <time>2013-05-25T15:48:37.000Z</time>
      </trkpt>
      <trkpt lat="45.86265" lon="6.21702">
        <ele>682</ele>
        <time>2013-05-25T15:48:38.000Z</time>
      </trkpt>
      <trkpt lat="45.86267" lon="6.21705">
        <ele>682</ele>
        <time>2013-05-25T15:48:39.000Z</time>
      </trkpt>
      <trkpt lat="45.86269" lon="6.21707">
        <ele>682</ele>
        <time>2013-05-25T15:48:40.000Z</time>
      </trkpt>
      <trkpt lat="45.86272" lon="6.2171">
        <ele>682</ele>
        <time>2013-05-25T15:48:41.000Z</time>
      </trkpt>
      <trkpt lat="45.86274" lon="6.21712">
        <ele>683</ele>
        <time>2013-05-25T15:48:42.000Z</time>
      </trkpt>
      <trkpt lat="45.86277" lon="6.21714">
        <ele>683</ele>
        <time>2013-05-25T15:48:43.000Z</time>
      </trkpt>
      <trkpt lat="45.86279" lon="6.21716">
        <ele>683</ele>
        <time>2013-05-25T15:48:44.000Z</time>
      </trkpt>
      <trkpt lat="45.86282" lon="6.21718">
        <ele>683</ele>
        <time>2013-05-25T15:48:45.000Z</time>
      </trkpt>
      <trkpt lat="45.86284" lon="6.21719">
        <ele>683</ele>
        <time>2013-05-25T15:48:46.000Z</time>
      </trkpt>
      <trkpt lat="45.86286" lon="6.21721">
        <ele>683</ele>
        <time>2013-05-25T15:48:47.000Z</time>
      </trkpt>
      <trkpt lat="45.86289" lon="6.21723">
        <ele>683</ele>
        <time>2013-05-25T15:48:48.000Z</time>
      </trkpt>
      <trkpt lat="45.86291" lon="6.21725">
        <ele>683</ele>
        <time>2013-05-25T15:48:49.000Z</time>
      </trkpt>
      <trkpt lat="45.86294" lon="6.21727">
        <ele>683</ele>
        <time>2013-05-25T15:48:50.000Z</time>
      </trkpt>
      <trkpt lat="45.86296" lon="6.21729">
        <ele>683</ele>
        <time>2013-05-25T15:48:51.000Z</time>
      </trkpt>
      <trkpt lat="45.86299" lon="6.21731">
        <ele>682</ele>
        <time>2013-05-25T15:48:52.000Z</time>
      </trkpt>
      <trkpt lat="45.86301" lon="6.21733">
        <ele>682</ele>
        <time>2013-05-25T15:48:53.000Z</time>
      </trkpt>
      <trkpt lat="45.86304" lon="6.21734">
        <ele>682</ele>
        <time>2013-05-25T15:48:54.000Z</time>
      </trkpt>
      <trkpt lat="45.86306" lon="6.21736">
        <ele>682</ele>
        <time>2013-05-25T15:48:55.000Z</time>
      </trkpt>
      <trkpt lat="45.86309" lon="6.21737">
        <ele>682</ele>
        <time>2013-05-25T15:48:56.000Z</time>
      </trkpt>
      <trkpt lat="45.86312" lon="6.21739">
        <ele>682</ele>
        <time>2013-05-25T15:48:57.000Z</time>
      </trkpt>
      <trkpt lat="45.86314" lon="6.21741">
        <ele>682</ele>
        <time>2013-05-25T15:48:58.000Z</time>
      </trkpt>
      <trkpt lat="45.86317" lon="6.21743">
        <ele>682</ele>
        <time>2013-05-25T15:48:59.000Z</time>
      </trkpt>
      <trkpt lat="45.8632" lon="6.21744">
        <ele>682</ele>
        <time>2013-05-25T15:49:00.000Z</time>
      </trkpt>
      <trkpt lat="45.86322" lon="6.21746">
        <ele>682</ele>
        <time>2013-05-25T15:49:01.000Z</time>
      </trkpt>
      <trkpt lat="45.86325" lon="6.21748">
        <ele>683</ele>
        <time>2013-05-25T15:49:02.000Z</time>
      </trkpt>
      <trkpt lat="45.86327" lon="6.21749">
        <ele>683</ele>
        <time>2013-05-25T15:49:03.000Z</time>
      </trkpt>
      <trkpt lat="45.8633" lon="6.21751">
        <ele>686</ele>
        <time>2013-05-25T15:49:04.000Z</time>
      </trkpt>
      <trkpt lat="45.86332" lon="6.21753">
        <ele>685</ele>
        <time>2013-05-25T15:49:05.000Z</time>
      </trkpt>
      <trkpt lat="45.86335" lon="6.21755">
        <ele>685</ele>
        <time>2013-05-25T15:49:06.000Z</time>
      </trkpt>
      <trkpt lat="45.86337" lon="6.21756">
        <ele>686</ele>
        <time>2013-05-25T15:49:07.000Z</time>
      </trkpt>
      <trkpt lat="45.8634" lon="6.21758">
        <ele>686</ele>
        <time>2013-05-25T15:49:08.000Z</time>
      </trkpt>
      <trkpt lat="45.86342" lon="6.2176">
        <ele>687</ele>
        <time>2013-05-25T15:49:09.000Z</time>
      </trkpt>
      <trkpt lat="45.86345" lon="6.21761">
        <ele>688</ele>
        <time>2013-05-25T15:49:10.000Z</time>
      </trkpt>
      <trkpt lat="45.86347" lon="6.21763">
        <ele>688</ele>
        <time>2013-05-25T15:49:11.000Z</time>
      </trkpt>
      <trkpt lat="45.8635" lon="6.21765">
        <ele>689</ele>
        <time>2013-05-25T15:49:12.000Z</time>
      </trkpt>
      <trkpt lat="45.86352" lon="6.21766">
        <ele>689</ele>
        <time>2013-05-25T15:49:13.000Z</time>
      </trkpt>
      <trkpt lat="45.86355" lon="6.21768">
        <ele>689</ele>
        <time>2013-05-25T15:49:14.000Z</time>
      </trkpt>
      <trkpt lat="45.86357" lon="6.2177">
        <ele>690</ele>
        <time>2013-05-25T15:49:15.000Z</time>
      </trkpt>
      <trkpt lat="45.8636" lon="6.21772">
        <ele>690</ele>
        <time>2013-05-25T15:49:16.000Z</time>
      </trkpt>
      <trkpt lat="45.86363" lon="6.21773">
        <ele>690</ele>
        <time>2013-05-25T15:49:17.000Z</time>
      </trkpt>
      <trkpt lat="45.86365" lon="6.21775">
        <ele>690</ele>
        <time>2013-05-25T15:49:18.000Z</time>
      </trkpt>
      <trkpt lat="45.86367" lon="6.21777">
        <ele>690</ele>
        <time>2013-05-25T15:49:19.000Z</time>
      </trkpt>
      <trkpt lat="45.8637" lon="6.21778">
        <ele>691</ele>
        <time>2013-05-25T15:49:20.000Z</time>
      </trkpt>
      <trkpt lat="45.86373" lon="6.2178">
        <ele>691</ele>
        <time>2013-05-25T15:49:21.000Z</time>
      </trkpt>
      <trkpt lat="45.86375" lon="6.21782">
        <ele>691</ele>
        <time>2013-05-25T15:49:22.000Z</time>
      </trkpt>
      <trkpt lat="45.86378" lon="6.21783">
        <ele>691</ele>
        <time>2013-05-25T15:49:23.000Z</time>
      </trkpt>
      <trkpt lat="45.8638" lon="6.21785">
        <ele>691</ele>
        <time>2013-05-25T15:49:24.000Z</time>
      </trkpt>
      <trkpt lat="45.86383" lon="6.21786">
        <ele>691</ele>
        <time>2013-05-25T15:49:25.000Z</time>
      </trkpt>
      <trkpt lat="45.86386" lon="6.21787">
        <ele>691</ele>
        <time>2013-05-25T15:49:26.000Z</time>
      </trkpt>
      <trkpt lat="45.86389" lon="6.21788">
        <ele>691</ele>
        <time>2013-05-25T15:49:27.000Z</time>
      </trkpt>
      <trkpt lat="45.86392" lon="6.21789">
        <ele>691</ele>
        <time>2013-05-25T15:49:28.000Z</time>
      </trkpt>
      <trkpt lat="45.86395" lon="6.2179">
        <ele>691</ele>
        <time>2013-05-25T15:49:29.000Z</time>
      </trkpt>
      <trkpt lat="45.86398" lon="6.21791">
        <ele>691</ele>
        <time>2013-05-25T15:49:30.000Z</time>
      </trkpt>
      <trkpt lat="45.86401" lon="6.21792">
        <ele>691</ele>
        <time>2013-05-25T15:49:31.000Z</time>
      </trkpt>
      <trkpt lat="45.86404" lon="6.21793">
        <ele>691</ele>
        <time>2013-05-25T15:49:32.000Z</time>
      </trkpt>
      <trkpt lat="45.86407" lon="6.21793">
        <ele>691</ele>
        <time>2013-05-25T15:49:33.000Z</time>
      </trkpt>
      <trkpt lat="45.86409" lon="6.21793">
        <ele>691</ele>
        <time>2013-05-25T15:49:34.000Z</time>
      </trkpt>
      <trkpt lat="45.86412" lon="6.21794">
        <ele>691</ele>
        <time>2013-05-25T15:49:35.000Z</time>
      </trkpt>
      <trkpt lat="45.86415" lon="6.21793">
        <ele>691</ele>
        <time>2013-05-25T15:49:36.000Z</time>
      </trkpt>
      <trkpt lat="45.86417" lon="6.21794">
        <ele>687</ele>
        <time>2013-05-25T15:49:37.000Z</time>
      </trkpt>
      <trkpt lat="45.8642" lon="6.21794">
        <ele>687</ele>
        <time>2013-05-25T15:49:38.000Z</time>
      </trkpt>
      <trkpt lat="45.86423" lon="6.21795">
        <ele>687</ele>
        <time>2013-05-25T15:49:39.000Z</time>
      </trkpt>
      <trkpt lat="45.86425" lon="6.21796">
        <ele>687</ele>
        <time>2013-05-25T15:49:40.000Z</time>
      </trkpt>
      <trkpt lat="45.86428" lon="6.21797">
        <ele>687</ele>
        <time>2013-05-25T15:49:41.000Z</time>
      </trkpt>
      <trkpt lat="45.86431" lon="6.21797">
        <ele>687</ele>
        <time>2013-05-25T15:49:42.000Z</time>
      </trkpt>
      <trkpt lat="45.86433" lon="6.21798">
        <ele>687</ele>
        <time>2013-05-25T15:49:43.000Z</time>
      </trkpt>
      <trkpt lat="45.86436" lon="6.21798">
        <ele>687</ele>
        <time>2013-05-25T15:49:44.000Z</time>
      </trkpt>
      <trkpt lat="45.86439" lon="6.21799">
        <ele>687</ele>
        <time>2013-05-25T15:49:45.000Z</time>
      </trkpt>
      <trkpt lat="45.86441" lon="6.218">
        <ele>687</ele>
        <time>2013-05-25T15:49:46.000Z</time>
      </trkpt>
      <trkpt lat="45.86444" lon="6.218">
        <ele>687</ele>
        <time>2013-05-25T15:49:47.000Z</time>
      </trkpt>
      <trkpt lat="45.86446" lon="6.21801">
        <ele>687</ele>
        <time>2013-05-25T15:49:48.000Z</time>
      </trkpt>
      <trkpt lat="45.86449" lon="6.21802">
        <ele>687</ele>
        <time>2013-05-25T15:49:49.000Z</time>
      </trkpt>
      <trkpt lat="45.86452" lon="6.21803">
        <ele>686</ele>
        <time>2013-05-25T15:49:50.000Z</time>
      </trkpt>
      <trkpt lat="45.86455" lon="6.21803">
        <ele>686</ele>
        <time>2013-05-25T15:49:51.000Z</time>
      </trkpt>
      <trkpt lat="45.86458" lon="6.21803">
        <ele>686</ele>
        <time>2013-05-25T15:49:52.000Z</time>
      </trkpt>
      <trkpt lat="45.8646" lon="6.21804">
        <ele>686</ele>
        <time>2013-05-25T15:49:53.000Z</time>
      </trkpt>
      <trkpt lat="45.86463" lon="6.21805">
        <ele>686</ele>
        <time>2013-05-25T15:49:54.000Z</time>
      </trkpt>
      <trkpt lat="45.86466" lon="6.21806">
        <ele>686</ele>
        <time>2013-05-25T15:49:55.000Z</time>
      </trkpt>
      <trkpt lat="45.86469" lon="6.21807">
        <ele>686</ele>
        <time>2013-05-25T15:49:56.000Z</time>
      </trkpt>
      <trkpt lat="45.86471" lon="6.21807">
        <ele>686</ele>
        <time>2013-05-25T15:49:57.000Z</time>
      </trkpt>
      <trkpt lat="45.86473" lon="6.21808">
        <ele>686</ele>
        <time>2013-05-25T15:49:58.000Z</time>
      </trkpt>
      <trkpt lat="45.86476" lon="6.21809">
        <ele>686</ele>
        <time>2013-05-25T15:49:59.000Z</time>
      </trkpt>
      <trkpt lat="45.86478" lon="6.2181">
        <ele>686</ele>
        <time>2013-05-25T15:50:00.000Z</time>
      </trkpt>
      <trkpt lat="45.8648" lon="6.2181">
        <ele>686</ele>
        <time>2013-05-25T15:50:01.000Z</time>
      </trkpt>
      <trkpt lat="45.86482" lon="6.21811">
        <ele>686</ele>
        <time>2013-05-25T15:50:02.000Z</time>
      </trkpt>
      <trkpt lat="45.86485" lon="6.21812">
        <ele>686</ele>
        <time>2013-05-25T15:50:03.000Z</time>
      </trkpt>
      <trkpt lat="45.86487" lon="6.21813">
        <ele>686</ele>
        <time>2013-05-25T15:50:04.000Z</time>
      </trkpt>
      <trkpt lat="45.8649" lon="6.21814">
        <ele>686</ele>
        <time>2013-05-25T15:50:05.000Z</time>
      </trkpt>
      <trkpt lat="45.86493" lon="6.21816">
        <ele>687</ele>
        <time>2013-05-25T15:50:06.000Z</time>
      </trkpt>
      <trkpt lat="45.86496" lon="6.21818">
        <ele>687</ele>
        <time>2013-05-25T15:50:07.000Z</time>
      </trkpt>
      <trkpt lat="45.86498" lon="6.21819">
        <ele>687</ele>
        <time>2013-05-25T15:50:08.000Z</time>
      </trkpt>
      <trkpt lat="45.86501" lon="6.21821">
        <ele>685</ele>
        <time>2013-05-25T15:50:09.000Z</time>
      </trkpt>
      <trkpt lat="45.86504" lon="6.21823">
        <ele>685</ele>
        <time>2013-05-25T15:50:10.000Z</time>
      </trkpt>
      <trkpt lat="45.86507" lon="6.21824">
        <ele>685</ele>
        <time>2013-05-25T15:50:11.000Z</time>
      </trkpt>
      <trkpt lat="45.8651" lon="6.21826">
        <ele>685</ele>
        <time>2013-05-25T15:50:12.000Z</time>
      </trkpt>
      <trkpt lat="45.86513" lon="6.21827">
        <ele>684</ele>
        <time>2013-05-25T15:50:13.000Z</time>
      </trkpt>
      <trkpt lat="45.86516" lon="6.21829">
        <ele>684</ele>
        <time>2013-05-25T15:50:14.000Z</time>
      </trkpt>
      <trkpt lat="45.86519" lon="6.2183">
        <ele>683</ele>
        <time>2013-05-25T15:50:15.000Z</time>
      </trkpt>
      <trkpt lat="45.86522" lon="6.21832">
        <ele>683</ele>
        <time>2013-05-25T15:50:16.000Z</time>
      </trkpt>
      <trkpt lat="45.86524" lon="6.21833">
        <ele>683</ele>
        <time>2013-05-25T15:50:17.000Z</time>
      </trkpt>
      <trkpt lat="45.86527" lon="6.21835">
        <ele>692</ele>
        <time>2013-05-25T15:50:18.000Z</time>
      </trkpt>
      <trkpt lat="45.8653" lon="6.21836">
        <ele>692</ele>
        <time>2013-05-25T15:50:19.000Z</time>
      </trkpt>
      <trkpt lat="45.86532" lon="6.21837">
        <ele>692</ele>
        <time>2013-05-25T15:50:20.000Z</time>
      </trkpt>
      <trkpt lat="45.86535" lon="6.21839">
        <ele>692</ele>
        <time>2013-05-25T15:50:21.000Z</time>
      </trkpt>
      <trkpt lat="45.86537" lon="6.2184">
        <ele>692</ele>
        <time>2013-05-25T15:50:22.000Z</time>
      </trkpt>
      <trkpt lat="45.8654" lon="6.21842">
        <ele>692</ele>
        <time>2013-05-25T15:50:23.000Z</time>
      </trkpt>
      <trkpt lat="45.86543" lon="6.21843">
        <ele>692</ele>
        <time>2013-05-25T15:50:24.000Z</time>
      </trkpt>
      <trkpt lat="45.86545" lon="6.21845">
        <ele>692</ele>
        <time>2013-05-25T15:50:25.000Z</time>
      </trkpt>
      <trkpt lat="45.86548" lon="6.21846">
        <ele>692</ele>
        <time>2013-05-25T15:50:26.000Z</time>
      </trkpt>
      <trkpt lat="45.8655" lon="6.21848">
        <ele>692</ele>
        <time>2013-05-25T15:50:27.000Z</time>
      </trkpt>
      <trkpt lat="45.86553" lon="6.21849">
        <ele>692</ele>
        <time>2013-05-25T15:50:28.000Z</time>
      </trkpt>
      <trkpt lat="45.86555" lon="6.21849">
        <ele>692</ele>
        <time>2013-05-25T15:50:29.000Z</time>
      </trkpt>
      <trkpt lat="45.86557" lon="6.2185">
        <ele>691</ele>
        <time>2013-05-25T15:50:30.000Z</time>
      </trkpt>
      <trkpt lat="45.86559" lon="6.2185">
        <ele>691</ele>
        <time>2013-05-25T15:50:31.000Z</time>
      </trkpt>
      <trkpt lat="45.86561" lon="6.21851">
        <ele>691</ele>
        <time>2013-05-25T15:50:32.000Z</time>
      </trkpt>
      <trkpt lat="45.86563" lon="6.21852">
        <ele>691</ele>
        <time>2013-05-25T15:50:33.000Z</time>
      </trkpt>
      <trkpt lat="45.86565" lon="6.21852">
        <ele>691</ele>
        <time>2013-05-25T15:50:34.000Z</time>
      </trkpt>
      <trkpt lat="45.86567" lon="6.21852">
        <ele>690</ele>
        <time>2013-05-25T15:50:35.000Z</time>
      </trkpt>
      <trkpt lat="45.86569" lon="6.21852">
        <ele>690</ele>
        <time>2013-05-25T15:50:36.000Z</time>
      </trkpt>
      <trkpt lat="45.86571" lon="6.21851">
        <ele>690</ele>
        <time>2013-05-25T15:50:37.000Z</time>
      </trkpt>
      <trkpt lat="45.86573" lon="6.2185">
        <ele>689</ele>
        <time>2013-05-25T15:50:38.000Z</time>
      </trkpt>
      <trkpt lat="45.86576" lon="6.21849">
        <ele>689</ele>
        <time>2013-05-25T15:50:39.000Z</time>
      </trkpt>
      <trkpt lat="45.86578" lon="6.21848">
        <ele>688</ele>
        <time>2013-05-25T15:50:40.000Z</time>
      </trkpt>
      <trkpt lat="45.86581" lon="6.21847">
        <ele>688</ele>
        <time>2013-05-25T15:50:41.000Z</time>
      </trkpt>
      <trkpt lat="45.86583" lon="6.21845">
        <ele>687</ele>
        <time>2013-05-25T15:50:42.000Z</time>
      </trkpt>
      <trkpt lat="45.86585" lon="6.21844">
        <ele>685</ele>
        <time>2013-05-25T15:50:43.000Z</time>
      </trkpt>
      <trkpt lat="45.86587" lon="6.21842">
        <ele>685</ele>
        <time>2013-05-25T15:50:44.000Z</time>
      </trkpt>
      <trkpt lat="45.8659" lon="6.21841">
        <ele>685</ele>
        <time>2013-05-25T15:50:45.000Z</time>
      </trkpt>
      <trkpt lat="45.86593" lon="6.21839">
        <ele>685</ele>
        <time>2013-05-25T15:50:46.000Z</time>
      </trkpt>
      <trkpt lat="45.86595" lon="6.21839">
        <ele>685</ele>
        <time>2013-05-25T15:50:47.000Z</time>
      </trkpt>
      <trkpt lat="45.86597" lon="6.21838">
        <ele>685</ele>
        <time>2013-05-25T15:50:48.000Z</time>
      </trkpt>
      <trkpt lat="45.86599" lon="6.21838">
        <ele>686</ele>
        <time>2013-05-25T15:50:49.000Z</time>
      </trkpt>
      <trkpt lat="45.86602" lon="6.21838">
        <ele>686</ele>
        <time>2013-05-25T15:50:50.000Z</time>
      </trkpt>
      <trkpt lat="45.86605" lon="6.21838">
        <ele>686</ele>
        <time>2013-05-25T15:50:51.000Z</time>
      </trkpt>
      <trkpt lat="45.86608" lon="6.21837">
        <ele>686</ele>
        <time>2013-05-25T15:50:52.000Z</time>
      </trkpt>
      <trkpt lat="45.86611" lon="6.21837">
        <ele>687</ele>
        <time>2013-05-25T15:50:53.000Z</time>
      </trkpt>
      <trkpt lat="45.86614" lon="6.21838">
        <ele>687</ele>
        <time>2013-05-25T15:50:54.000Z</time>
      </trkpt>
      <trkpt lat="45.86617" lon="6.21839">
        <ele>687</ele>
        <time>2013-05-25T15:50:55.000Z</time>
      </trkpt>
      <trkpt lat="45.8662" lon="6.21839">
        <ele>687</ele>
        <time>2013-05-25T15:50:56.000Z</time>
      </trkpt>
      <trkpt lat="45.86623" lon="6.21839">
        <ele>687</ele>
        <time>2013-05-25T15:50:57.000Z</time>
      </trkpt>
      <trkpt lat="45.86626" lon="6.21839">
        <ele>687</ele>
        <time>2013-05-25T15:50:58.000Z</time>
      </trkpt>
      <trkpt lat="45.8663" lon="6.21839">
        <ele>687</ele>
        <time>2013-05-25T15:50:59.000Z</time>
      </trkpt>
      <trkpt lat="45.86633" lon="6.2184">
        <ele>687</ele>
        <time>2013-05-25T15:51:00.000Z</time>
      </trkpt>
      <trkpt lat="45.86635" lon="6.2184">
        <ele>686</ele>
        <time>2013-05-25T15:51:01.000Z</time>
      </trkpt>
      <trkpt lat="45.86638" lon="6.2184">
        <ele>686</ele>
        <time>2013-05-25T15:51:02.000Z</time>
      </trkpt>
      <trkpt lat="45.86641" lon="6.21841">
        <ele>686</ele>
        <time>2013-05-25T15:51:03.000Z</time>
      </trkpt>
      <trkpt lat="45.86644" lon="6.21841">
        <ele>686</ele>
        <time>2013-05-25T15:51:04.000Z</time>
      </trkpt>
      <trkpt lat="45.86647" lon="6.21841">
        <ele>685</ele>
        <time>2013-05-25T15:51:05.000Z</time>
      </trkpt>
      <trkpt lat="45.8665" lon="6.21841">
        <ele>685</ele>
        <time>2013-05-25T15:51:06.000Z</time>
      </trkpt>
      <trkpt lat="45.86653" lon="6.21842">
        <ele>685</ele>
        <time>2013-05-25T15:51:07.000Z</time>
      </trkpt>
      <trkpt lat="45.86656" lon="6.21842">
        <ele>684</ele>
        <time>2013-05-25T15:51:08.000Z</time>
      </trkpt>
      <trkpt lat="45.86659" lon="6.21842">
        <ele>684</ele>
        <time>2013-05-25T15:51:09.000Z</time>
      </trkpt>
      <trkpt lat="45.86662" lon="6.21842">
        <ele>683</ele>
        <time>2013-05-25T15:51:10.000Z</time>
      </trkpt>
      <trkpt lat="45.86665" lon="6.21843">
        <ele>683</ele>
        <time>2013-05-25T15:51:11.000Z</time>
      </trkpt>
      <trkpt lat="45.86668" lon="6.21843">
        <ele>682</ele>
        <time>2013-05-25T15:51:12.000Z</time>
      </trkpt>
      <trkpt lat="45.8667" lon="6.21843">
        <ele>683</ele>
        <time>2013-05-25T15:51:13.000Z</time>
      </trkpt>
      <trkpt lat="45.86673" lon="6.21843">
        <ele>683</ele>
        <time>2013-05-25T15:51:14.000Z</time>
      </trkpt>
      <trkpt lat="45.86676" lon="6.21844">
        <ele>683</ele>
        <time>2013-05-25T15:51:15.000Z</time>
      </trkpt>
      <trkpt lat="45.8668" lon="6.21844">
        <ele>683</ele>
        <time>2013-05-25T15:51:16.000Z</time>
      </trkpt>
      <trkpt lat="45.86683" lon="6.21844">
        <ele>684</ele>
        <time>2013-05-25T15:51:17.000Z</time>
      </trkpt>
      <trkpt lat="45.86685" lon="6.21845">
        <ele>684</ele>
        <time>2013-05-25T15:51:18.000Z</time>
      </trkpt>
      <trkpt lat="45.86688" lon="6.21845">
        <ele>684</ele>
        <time>2013-05-25T15:51:19.000Z</time>
      </trkpt>
      <trkpt lat="45.8669" lon="6.21846">
        <ele>684</ele>
        <time>2013-05-25T15:51:20.000Z</time>
      </trkpt>
      <trkpt lat="45.86692" lon="6.21847">
        <ele>684</ele>
        <time>2013-05-25T15:51:21.000Z</time>
      </trkpt>
      <trkpt lat="45.86694" lon="6.21848">
        <ele>685</ele>
        <time>2013-05-25T15:51:22.000Z</time>
      </trkpt>
      <trkpt lat="45.86697" lon="6.21848">
        <ele>685</ele>
        <time>2013-05-25T15:51:23.000Z</time>
      </trkpt>
      <trkpt lat="45.867" lon="6.21848">
        <ele>685</ele>
        <time>2013-05-25T15:51:24.000Z</time>
      </trkpt>
      <trkpt lat="45.86703" lon="6.21848">
        <ele>685</ele>
        <time>2013-05-25T15:51:25.000Z</time>
      </trkpt>
      <trkpt lat="45.86706" lon="6.21849">
        <ele>685</ele>
        <time>2013-05-25T15:51:26.000Z</time>
      </trkpt>
      <trkpt lat="45.86708" lon="6.2185">
        <ele>685</ele>
        <time>2013-05-25T15:51:27.000Z</time>
      </trkpt>
      <trkpt lat="45.86711" lon="6.2185">
        <ele>685</ele>
        <time>2013-05-25T15:51:28.000Z</time>
      </trkpt>
      <trkpt lat="45.86715" lon="6.21851">
        <ele>685</ele>
        <time>2013-05-25T15:51:29.000Z</time>
      </trkpt>
      <trkpt lat="45.86718" lon="6.21851">
        <ele>685</ele>
        <time>2013-05-25T15:51:30.000Z</time>
      </trkpt>
      <trkpt lat="45.86721" lon="6.21852">
        <ele>684</ele>
        <time>2013-05-25T15:51:31.000Z</time>
      </trkpt>
      <trkpt lat="45.86724" lon="6.21852">
        <ele>684</ele>
        <time>2013-05-25T15:51:32.000Z</time>
      </trkpt>
      <trkpt lat="45.86727" lon="6.21852">
        <ele>684</ele>
        <time>2013-05-25T15:51:33.000Z</time>
      </trkpt>
      <trkpt lat="45.86729" lon="6.21853">
        <ele>684</ele>
        <time>2013-05-25T15:51:34.000Z</time>
      </trkpt>
      <trkpt lat="45.86732" lon="6.21853">
        <ele>684</ele>
        <time>2013-05-25T15:51:35.000Z</time>
      </trkpt>
      <trkpt lat="45.86735" lon="6.21854">
        <ele>684</ele>
        <time>2013-05-25T15:51:36.000Z</time>
      </trkpt>
      <trkpt lat="45.86738" lon="6.21855">
        <ele>684</ele>
        <time>2013-05-25T15:51:37.000Z</time>
      </trkpt>
      <trkpt lat="45.86741" lon="6.21856">
        <ele>684</ele>
        <time>2013-05-25T15:51:38.000Z</time>
      </trkpt>
      <trkpt lat="45.86743" lon="6.21856">
        <ele>684</ele>
        <time>2013-05-25T15:51:39.000Z</time>
      </trkpt>
      <trkpt lat="45.86746" lon="6.21857">
        <ele>684</ele>
        <time>2013-05-25T15:51:40.000Z</time>
      </trkpt>
      <trkpt lat="45.86749" lon="6.21857">
        <ele>684</ele>
        <time>2013-05-25T15:51:41.000Z</time>
      </trkpt>
      <trkpt lat="45.86751" lon="6.21857">
        <ele>684</ele>
        <time>2013-05-25T15:51:42.000Z</time>
      </trkpt>
      <trkpt lat="45.86754" lon="6.21857">
        <ele>684</ele>
        <time>2013-05-25T15:51:43.000Z</time>
      </trkpt>
      <trkpt lat="45.86757" lon="6.21858">
        <ele>684</ele>
        <time>2013-05-25T15:51:44.000Z</time>
      </trkpt>
      <trkpt lat="45.8676" lon="6.21858">
        <ele>684</ele>
        <time>2013-05-25T15:51:45.000Z</time>
      </trkpt>
      <trkpt lat="45.86763" lon="6.21857">
        <ele>684</ele>
        <time>2013-05-25T15:51:46.000Z</time>
      </trkpt>
      <trkpt lat="45.86766" lon="6.21857">
        <ele>684</ele>
        <time>2013-05-25T15:51:47.000Z</time>
      </trkpt>
      <trkpt lat="45.86768" lon="6.21857">
        <ele>684</ele>
        <time>2013-05-25T15:51:48.000Z</time>
      </trkpt>
      <trkpt lat="45.86771" lon="6.21857">
        <ele>685</ele>
        <time>2013-05-25T15:51:49.000Z</time>
      </trkpt>
      <trkpt lat="45.86774" lon="6.21858">
        <ele>685</ele>
        <time>2013-05-25T15:51:50.000Z</time>
      </trkpt>
      <trkpt lat="45.86777" lon="6.21857">
        <ele>685</ele>
        <time>2013-05-25T15:51:51.000Z</time>
      </trkpt>
      <trkpt lat="45.86779" lon="6.21857">
        <ele>685</ele>
        <time>2013-05-25T15:51:52.000Z</time>
      </trkpt>
      <trkpt lat="45.86782" lon="6.21856">
        <ele>685</ele>
        <time>2013-05-25T15:51:53.000Z</time>
      </trkpt>
      <trkpt lat="45.86784" lon="6.21856">
        <ele>685</ele>
        <time>2013-05-25T15:51:54.000Z</time>
      </trkpt>
      <trkpt lat="45.86787" lon="6.21854">
        <ele>685</ele>
        <time>2013-05-25T15:51:55.000Z</time>
      </trkpt>
      <trkpt lat="45.8679" lon="6.21853">
        <ele>685</ele>
        <time>2013-05-25T15:51:56.000Z</time>
      </trkpt>
      <trkpt lat="45.86792" lon="6.21852">
        <ele>685</ele>
        <time>2013-05-25T15:51:57.000Z</time>
      </trkpt>
      <trkpt lat="45.86795" lon="6.21851">
        <ele>685</ele>
        <time>2013-05-25T15:51:58.000Z</time>
      </trkpt>
      <trkpt lat="45.86797" lon="6.2185">
        <ele>685</ele>
        <time>2013-05-25T15:51:59.000Z</time>
      </trkpt>
      <trkpt lat="45.86799" lon="6.2185">
        <ele>685</ele>
        <time>2013-05-25T15:52:00.000Z</time>
      </trkpt>
      <trkpt lat="45.86802" lon="6.2185">
        <ele>685</ele>
        <time>2013-05-25T15:52:01.000Z</time>
      </trkpt>
      <trkpt lat="45.86805" lon="6.2185">
        <ele>685</ele>
        <time>2013-05-25T15:52:02.000Z</time>
      </trkpt>
      <trkpt lat="45.86808" lon="6.21849">
        <ele>684</ele>
        <time>2013-05-25T15:52:03.000Z</time>
      </trkpt>
      <trkpt lat="45.8681" lon="6.21849">
        <ele>684</ele>
        <time>2013-05-25T15:52:04.000Z</time>
      </trkpt>
      <trkpt lat="45.86813" lon="6.21848">
        <ele>684</ele>
        <time>2013-05-25T15:52:05.000Z</time>
      </trkpt>
      <trkpt lat="45.86816" lon="6.21848">
        <ele>684</ele>
        <time>2013-05-25T15:52:06.000Z</time>
      </trkpt>
      <trkpt lat="45.86819" lon="6.21847">
        <ele>683</ele>
        <time>2013-05-25T15:52:07.000Z</time>
      </trkpt>
      <trkpt lat="45.86821" lon="6.21847">
        <ele>683</ele>
        <time>2013-05-25T15:52:08.000Z</time>
      </trkpt>
      <trkpt lat="45.86824" lon="6.21847">
        <ele>683</ele>
        <time>2013-05-25T15:52:09.000Z</time>
      </trkpt>
      <trkpt lat="45.86827" lon="6.21846">
        <ele>683</ele>
        <time>2013-05-25T15:52:10.000Z</time>
      </trkpt>
      <trkpt lat="45.8683" lon="6.21846">
        <ele>682</ele>
        <time>2013-05-25T15:52:11.000Z</time>
      </trkpt>
      <trkpt lat="45.86832" lon="6.21845">
        <ele>682</ele>
        <time>2013-05-25T15:52:12.000Z</time>
      </trkpt>
      <trkpt lat="45.86835" lon="6.21845">
        <ele>682</ele>
        <time>2013-05-25T15:52:13.000Z</time>
      </trkpt>
      <trkpt lat="45.86838" lon="6.21845">
        <ele>683</ele>
        <time>2013-05-25T15:52:14.000Z</time>
      </trkpt>
      <trkpt lat="45.86841" lon="6.21845">
        <ele>683</ele>
        <time>2013-05-25T15:52:15.000Z</time>
      </trkpt>
      <trkpt lat="45.86843" lon="6.21844">
        <ele>683</ele>
        <time>2013-05-25T15:52:16.000Z</time>
      </trkpt>
      <trkpt lat="45.86846" lon="6.21843">
        <ele>683</ele>
        <time>2013-05-25T15:52:17.000Z</time>
      </trkpt>
      <trkpt lat="45.86849" lon="6.21843">
        <ele>684</ele>
        <time>2013-05-25T15:52:18.000Z</time>
      </trkpt>
      <trkpt lat="45.86852" lon="6.21842">
        <ele>684</ele>
        <time>2013-05-25T15:52:19.000Z</time>
      </trkpt>
      <trkpt lat="45.86855" lon="6.21841">
        <ele>684</ele>
        <time>2013-05-25T15:52:20.000Z</time>
      </trkpt>
      <trkpt lat="45.86857" lon="6.2184">
        <ele>684</ele>
        <time>2013-05-25T15:52:21.000Z</time>
      </trkpt>
      <trkpt lat="45.8686" lon="6.2184">
        <ele>684</ele>
        <time>2013-05-25T15:52:22.000Z</time>
      </trkpt>
      <trkpt lat="45.86863" lon="6.21838">
        <ele>684</ele>
        <time>2013-05-25T15:52:23.000Z</time>
      </trkpt>
      <trkpt lat="45.86865" lon="6.21837">
        <ele>684</ele>
        <time>2013-05-25T15:52:24.000Z</time>
      </trkpt>
      <trkpt lat="45.86868" lon="6.21836">
        <ele>684</ele>
        <time>2013-05-25T15:52:25.000Z</time>
      </trkpt>
      <trkpt lat="45.86871" lon="6.21835">
        <ele>684</ele>
        <time>2013-05-25T15:52:26.000Z</time>
      </trkpt>
      <trkpt lat="45.86874" lon="6.21835">
        <ele>684</ele>
        <time>2013-05-25T15:52:27.000Z</time>
      </trkpt>
      <trkpt lat="45.86876" lon="6.21834">
        <ele>684</ele>
        <time>2013-05-25T15:52:28.000Z</time>
      </trkpt>
      <trkpt lat="45.86879" lon="6.21833">
        <ele>673</ele>
        <time>2013-05-25T15:52:29.000Z</time>
      </trkpt>
      <trkpt lat="45.86882" lon="6.21831">
        <ele>673</ele>
        <time>2013-05-25T15:52:30.000Z</time>
      </trkpt>
      <trkpt lat="45.86884" lon="6.2183">
        <ele>673</ele>
        <time>2013-05-25T15:52:31.000Z</time>
      </trkpt>
      <trkpt lat="45.86887" lon="6.21829">
        <ele>673</ele>
        <time>2013-05-25T15:52:32.000Z</time>
      </trkpt>
      <trkpt lat="45.8689" lon="6.21829">
        <ele>674</ele>
        <time>2013-05-25T15:52:33.000Z</time>
      </trkpt>
      <trkpt lat="45.86893" lon="6.21828">
        <ele>674</ele>
        <time>2013-05-25T15:52:34.000Z</time>
      </trkpt>
      <trkpt lat="45.86896" lon="6.21827">
        <ele>674</ele>
        <time>2013-05-25T15:52:35.000Z</time>
      </trkpt>
      <trkpt lat="45.86898" lon="6.21826">
        <ele>674</ele>
        <time>2013-05-25T15:52:36.000Z</time>
      </trkpt>
      <trkpt lat="45.86901" lon="6.21826">
        <ele>674</ele>
        <time>2013-05-25T15:52:37.000Z</time>
      </trkpt>
      <trkpt lat="45.86904" lon="6.21825">
        <ele>674</ele>
        <time>2013-05-25T15:52:38.000Z</time>
      </trkpt>
      <trkpt lat="45.86907" lon="6.21824">
        <ele>674</ele>
        <time>2013-05-25T15:52:39.000Z</time>
      </trkpt>
      <trkpt lat="45.86909" lon="6.21823">
        <ele>674</ele>
        <time>2013-05-25T15:52:40.000Z</time>
      </trkpt>
      <trkpt lat="45.86912" lon="6.21822">
        <ele>675</ele>
        <time>2013-05-25T15:52:41.000Z</time>
      </trkpt>
      <trkpt lat="45.86915" lon="6.21822">
        <ele>675</ele>
        <time>2013-05-25T15:52:42.000Z</time>
      </trkpt>
      <trkpt lat="45.86918" lon="6.21821">
        <ele>674</ele>
        <time>2013-05-25T15:52:43.000Z</time>
      </trkpt>
      <trkpt lat="45.86921" lon="6.2182">
        <ele>674</ele>
        <time>2013-05-25T15:52:44.000Z</time>
      </trkpt>
      <trkpt lat="45.86924" lon="6.21819">
        <ele>673</ele>
        <time>2013-05-25T15:52:45.000Z</time>
      </trkpt>
      <trkpt lat="45.86926" lon="6.21818">
        <ele>673</ele>
        <time>2013-05-25T15:52:46.000Z</time>
      </trkpt>
      <trkpt lat="45.86929" lon="6.21818">
        <ele>673</ele>
        <time>2013-05-25T15:52:47.000Z</time>
      </trkpt>
      <trkpt lat="45.86932" lon="6.21818">
        <ele>672</ele>
        <time>2013-05-25T15:52:48.000Z</time>
      </trkpt>
      <trkpt lat="45.86935" lon="6.21818">
        <ele>672</ele>
        <time>2013-05-25T15:52:49.000Z</time>
      </trkpt>
      <trkpt lat="45.86937" lon="6.21817">
        <ele>672</ele>
        <time>2013-05-25T15:52:50.000Z</time>
      </trkpt>
      <trkpt lat="45.8694" lon="6.21817">
        <ele>672</ele>
        <time>2013-05-25T15:52:51.000Z</time>
      </trkpt>
      <trkpt lat="45.86943" lon="6.21816">
        <ele>672</ele>
        <time>2013-05-25T15:52:52.000Z</time>
      </trkpt>
      <trkpt lat="45.86946" lon="6.21816">
        <ele>671</ele>
        <time>2013-05-25T15:52:53.000Z</time>
      </trkpt>
      <trkpt lat="45.86949" lon="6.21815">
        <ele>671</ele>
        <time>2013-05-25T15:52:54.000Z</time>
      </trkpt>
      <trkpt lat="45.86951" lon="6.21815">
        <ele>671</ele>
        <time>2013-05-25T15:52:55.000Z</time>
      </trkpt>
      <trkpt lat="45.86954" lon="6.21814">
        <ele>671</ele>
        <time>2013-05-25T15:52:56.000Z</time>
      </trkpt>
      <trkpt lat="45.86957" lon="6.21814">
        <ele>671</ele>
        <time>2013-05-25T15:52:57.000Z</time>
      </trkpt>
      <trkpt lat="45.8696" lon="6.21813">
        <ele>671</ele>
        <time>2013-05-25T15:52:58.000Z</time>
      </trkpt>
      <trkpt lat="45.86962" lon="6.21812">
        <ele>671</ele>
        <time>2013-05-25T15:52:59.000Z</time>
      </trkpt>
      <trkpt lat="45.86965" lon="6.21812">
        <ele>671</ele>
        <time>2013-05-25T15:53:00.000Z</time>
      </trkpt>
      <trkpt lat="45.86968" lon="6.21812">
        <ele>671</ele>
        <time>2013-05-25T15:53:01.000Z</time>
      </trkpt>
      <trkpt lat="45.8697" lon="6.21811">
        <ele>671</ele>
        <time>2013-05-25T15:53:02.000Z</time>
      </trkpt>
      <trkpt lat="45.86973" lon="6.21811">
        <ele>671</ele>
        <time>2013-05-25T15:53:03.000Z</time>
      </trkpt>
      <trkpt lat="45.86976" lon="6.21811">
        <ele>671</ele>
        <time>2013-05-25T15:53:04.000Z</time>
      </trkpt>
      <trkpt lat="45.86979" lon="6.21811">
        <ele>671</ele>
        <time>2013-05-25T15:53:05.000Z</time>
      </trkpt>
      <trkpt lat="45.86982" lon="6.2181">
        <ele>671</ele>
        <time>2013-05-25T15:53:06.000Z</time>
      </trkpt>
      <trkpt lat="45.86985" lon="6.21809">
        <ele>671</ele>
        <time>2013-05-25T15:53:07.000Z</time>
      </trkpt>
      <trkpt lat="45.86987" lon="6.21808">
        <ele>671</ele>
        <time>2013-05-25T15:53:08.000Z</time>
      </trkpt>
      <trkpt lat="45.8699" lon="6.21807">
        <ele>671</ele>
        <time>2013-05-25T15:53:09.000Z</time>
      </trkpt>
      <trkpt lat="45.86993" lon="6.21807">
        <ele>671</ele>
        <time>2013-05-25T15:53:10.000Z</time>
      </trkpt>
      <trkpt lat="45.86996" lon="6.21806">
        <ele>671</ele>
        <time>2013-05-25T15:53:11.000Z</time>
      </trkpt>
      <trkpt lat="45.86999" lon="6.21806">
        <ele>671</ele>
        <time>2013-05-25T15:53:12.000Z</time>
      </trkpt>
      <trkpt lat="45.87001" lon="6.21805">
        <ele>670</ele>
        <time>2013-05-25T15:53:13.000Z</time>
      </trkpt>
      <trkpt lat="45.87004" lon="6.21804">
        <ele>670</ele>
        <time>2013-05-25T15:53:14.000Z</time>
      </trkpt>
      <trkpt lat="45.87006" lon="6.21803">
        <ele>670</ele>
        <time>2013-05-25T15:53:15.000Z</time>
      </trkpt>
      <trkpt lat="45.87009" lon="6.21802">
        <ele>670</ele>
        <time>2013-05-25T15:53:16.000Z</time>
      </trkpt>
      <trkpt lat="45.87012" lon="6.21801">
        <ele>669</ele>
        <time>2013-05-25T15:53:17.000Z</time>
      </trkpt>
      <trkpt lat="45.87015" lon="6.218">
        <ele>669</ele>
        <time>2013-05-25T15:53:18.000Z</time>
      </trkpt>
      <trkpt lat="45.87017" lon="6.21799">
        <ele>669</ele>
        <time>2013-05-25T15:53:19.000Z</time>
      </trkpt>
      <trkpt lat="45.8702" lon="6.21798">
        <ele>669</ele>
        <time>2013-05-25T15:53:20.000Z</time>
      </trkpt>
      <trkpt lat="45.87022" lon="6.21797">
        <ele>669</ele>
        <time>2013-05-25T15:53:21.000Z</time>
      </trkpt>
      <trkpt lat="45.87024" lon="6.21796">
        <ele>669</ele>
        <time>2013-05-25T15:53:22.000Z</time>
      </trkpt>
      <trkpt lat="45.87026" lon="6.21795">
        <ele>669</ele>
        <time>2013-05-25T15:53:23.000Z</time>
      </trkpt>
      <trkpt lat="45.87028" lon="6.21795">
        <ele>669</ele>
        <time>2013-05-25T15:53:24.000Z</time>
      </trkpt>
      <trkpt lat="45.8703" lon="6.21794">
        <ele>669</ele>
        <time>2013-05-25T15:53:25.000Z</time>
      </trkpt>
      <trkpt lat="45.87032" lon="6.21794">
        <ele>669</ele>
        <time>2013-05-25T15:53:26.000Z</time>
      </trkpt>
      <trkpt lat="45.87034" lon="6.21794">
        <ele>668</ele>
        <time>2013-05-25T15:53:27.000Z</time>
      </trkpt>
      <trkpt lat="45.87036" lon="6.21793">
        <ele>668</ele>
        <time>2013-05-25T15:53:28.000Z</time>
      </trkpt>
      <trkpt lat="45.87038" lon="6.21793">
        <ele>668</ele>
        <time>2013-05-25T15:53:29.000Z</time>
      </trkpt>
      <trkpt lat="45.87041" lon="6.21792">
        <ele>668</ele>
        <time>2013-05-25T15:53:30.000Z</time>
      </trkpt>
      <trkpt lat="45.87043" lon="6.21792">
        <ele>668</ele>
        <time>2013-05-25T15:53:31.000Z</time>
      </trkpt>
      <trkpt lat="45.87046" lon="6.21792">
        <ele>668</ele>
        <time>2013-05-25T15:53:32.000Z</time>
      </trkpt>
      <trkpt lat="45.87048" lon="6.21791">
        <ele>668</ele>
        <time>2013-05-25T15:53:33.000Z</time>
      </trkpt>
      <trkpt lat="45.87052" lon="6.2179">
        <ele>668</ele>
        <time>2013-05-25T15:53:34.000Z</time>
      </trkpt>
      <trkpt lat="45.87054" lon="6.21789">
        <ele>668</ele>
        <time>2013-05-25T15:53:35.000Z</time>
      </trkpt>
      <trkpt lat="45.87057" lon="6.21787">
        <ele>668</ele>
        <time>2013-05-25T15:53:36.000Z</time>
      </trkpt>
      <trkpt lat="45.87059" lon="6.21786">
        <ele>668</ele>
        <time>2013-05-25T15:53:37.000Z</time>
      </trkpt>
      <trkpt lat="45.87062" lon="6.21785">
        <ele>667</ele>
        <time>2013-05-25T15:53:38.000Z</time>
      </trkpt>
      <trkpt lat="45.87065" lon="6.21784">
        <ele>667</ele>
        <time>2013-05-25T15:53:39.000Z</time>
      </trkpt>
      <trkpt lat="45.87068" lon="6.21784">
        <ele>667</ele>
        <time>2013-05-25T15:53:40.000Z</time>
      </trkpt>
      <trkpt lat="45.87071" lon="6.21783">
        <ele>667</ele>
        <time>2013-05-25T15:53:41.000Z</time>
      </trkpt>
      <trkpt lat="45.87075" lon="6.21782">
        <ele>667</ele>
        <time>2013-05-25T15:53:42.000Z</time>
      </trkpt>
      <trkpt lat="45.87078" lon="6.2178">
        <ele>666</ele>
        <time>2013-05-25T15:53:43.000Z</time>
      </trkpt>
      <trkpt lat="45.87081" lon="6.21779">
        <ele>666</ele>
        <time>2013-05-25T15:53:44.000Z</time>
      </trkpt>
      <trkpt lat="45.87084" lon="6.21778">
        <ele>665</ele>
        <time>2013-05-25T15:53:45.000Z</time>
      </trkpt>
      <trkpt lat="45.87087" lon="6.21777">
        <ele>665</ele>
        <time>2013-05-25T15:53:46.000Z</time>
      </trkpt>
      <trkpt lat="45.8709" lon="6.21776">
        <ele>665</ele>
        <time>2013-05-25T15:53:47.000Z</time>
      </trkpt>
      <trkpt lat="45.87094" lon="6.21776">
        <ele>665</ele>
        <time>2013-05-25T15:53:48.000Z</time>
      </trkpt>
      <trkpt lat="45.87097" lon="6.21775">
        <ele>665</ele>
        <time>2013-05-25T15:53:49.000Z</time>
      </trkpt>
      <trkpt lat="45.871" lon="6.21774">
        <ele>665</ele>
        <time>2013-05-25T15:53:50.000Z</time>
      </trkpt>
      <trkpt lat="45.87103" lon="6.21774">
        <ele>665</ele>
        <time>2013-05-25T15:53:51.000Z</time>
      </trkpt>
      <trkpt lat="45.87106" lon="6.21774">
        <ele>665</ele>
        <time>2013-05-25T15:53:52.000Z</time>
      </trkpt>
      <trkpt lat="45.87109" lon="6.21773">
        <ele>665</ele>
        <time>2013-05-25T15:53:53.000Z</time>
      </trkpt>
      <trkpt lat="45.87111" lon="6.21772">
        <ele>665</ele>
        <time>2013-05-25T15:53:54.000Z</time>
      </trkpt>
      <trkpt lat="45.87114" lon="6.21772">
        <ele>665</ele>
        <time>2013-05-25T15:53:55.000Z</time>
      </trkpt>
      <trkpt lat="45.87117" lon="6.21771">
        <ele>665</ele>
        <time>2013-05-25T15:53:56.000Z</time>
      </trkpt>
      <trkpt lat="45.87119" lon="6.2177">
        <ele>665</ele>
        <time>2013-05-25T15:53:57.000Z</time>
      </trkpt>
      <trkpt lat="45.87122" lon="6.21769">
        <ele>665</ele>
        <time>2013-05-25T15:53:58.000Z</time>
      </trkpt>
      <trkpt lat="45.87125" lon="6.21769">
        <ele>665</ele>
        <time>2013-05-25T15:53:59.000Z</time>
      </trkpt>
      <trkpt lat="45.87128" lon="6.21768">
        <ele>665</ele>
        <time>2013-05-25T15:54:00.000Z</time>
      </trkpt>
      <trkpt lat="45.87131" lon="6.21768">
        <ele>665</ele>
        <time>2013-05-25T15:54:01.000Z</time>
      </trkpt>
      <trkpt lat="45.87134" lon="6.21767">
        <ele>665</ele>
        <time>2013-05-25T15:54:02.000Z</time>
      </trkpt>
      <trkpt lat="45.87137" lon="6.21767">
        <ele>665</ele>
        <time>2013-05-25T15:54:03.000Z</time>
      </trkpt>
      <trkpt lat="45.87139" lon="6.21767">
        <ele>665</ele>
        <time>2013-05-25T15:54:04.000Z</time>
      </trkpt>
      <trkpt lat="45.87142" lon="6.21766">
        <ele>664</ele>
        <time>2013-05-25T15:54:05.000Z</time>
      </trkpt>
      <trkpt lat="45.87146" lon="6.21768">
        <ele>664</ele>
        <time>2013-05-25T15:54:06.000Z</time>
      </trkpt>
      <trkpt lat="45.87149" lon="6.2177">
        <ele>664</ele>
        <time>2013-05-25T15:54:07.000Z</time>
      </trkpt>
      <trkpt lat="45.87152" lon="6.21771">
        <ele>664</ele>
        <time>2013-05-25T15:54:08.000Z</time>
      </trkpt>
      <trkpt lat="45.87156" lon="6.21771">
        <ele>664</ele>
        <time>2013-05-25T15:54:09.000Z</time>
      </trkpt>
      <trkpt lat="45.87159" lon="6.21771">
        <ele>664</ele>
        <time>2013-05-25T15:54:10.000Z</time>
      </trkpt>
      <trkpt lat="45.87162" lon="6.2177">
        <ele>664</ele>
        <time>2013-05-25T15:54:11.000Z</time>
      </trkpt>
      <trkpt lat="45.87165" lon="6.2177">
        <ele>664</ele>
        <time>2013-05-25T15:54:12.000Z</time>
      </trkpt>
      <trkpt lat="45.87168" lon="6.2177">
        <ele>663</ele>
        <time>2013-05-25T15:54:13.000Z</time>
      </trkpt>
      <trkpt lat="45.87171" lon="6.21769">
        <ele>663</ele>
        <time>2013-05-25T15:54:14.000Z</time>
      </trkpt>
      <trkpt lat="45.87174" lon="6.21769">
        <ele>663</ele>
        <time>2013-05-25T15:54:15.000Z</time>
      </trkpt>
      <trkpt lat="45.87177" lon="6.21768">
        <ele>663</ele>
        <time>2013-05-25T15:54:16.000Z</time>
      </trkpt>
      <trkpt lat="45.87179" lon="6.21767">
        <ele>663</ele>
        <time>2013-05-25T15:54:17.000Z</time>
      </trkpt>
      <trkpt lat="45.87182" lon="6.21767">
        <ele>663</ele>
        <time>2013-05-25T15:54:18.000Z</time>
      </trkpt>
      <trkpt lat="45.87185" lon="6.21766">
        <ele>663</ele>
        <time>2013-05-25T15:54:19.000Z</time>
      </trkpt>
      <trkpt lat="45.87188" lon="6.21765">
        <ele>663</ele>
        <time>2013-05-25T15:54:20.000Z</time>
      </trkpt>
      <trkpt lat="45.87191" lon="6.21764">
        <ele>663</ele>
        <time>2013-05-25T15:54:21.000Z</time>
      </trkpt>
      <trkpt lat="45.87193" lon="6.21763">
        <ele>663</ele>
        <time>2013-05-25T15:54:22.000Z</time>
      </trkpt>
      <trkpt lat="45.87196" lon="6.21762">
        <ele>664</ele>
        <time>2013-05-25T15:54:23.000Z</time>
      </trkpt>
      <trkpt lat="45.87199" lon="6.21762">
        <ele>664</ele>
        <time>2013-05-25T15:54:24.000Z</time>
      </trkpt>
      <trkpt lat="45.87202" lon="6.21761">
        <ele>664</ele>
        <time>2013-05-25T15:54:25.000Z</time>
      </trkpt>
      <trkpt lat="45.87205" lon="6.2176">
        <ele>664</ele>
        <time>2013-05-25T15:54:26.000Z</time>
      </trkpt>
      <trkpt lat="45.87207" lon="6.2176">
        <ele>664</ele>
        <time>2013-05-25T15:54:27.000Z</time>
      </trkpt>
      <trkpt lat="45.8721" lon="6.2176">
        <ele>664</ele>
        <time>2013-05-25T15:54:28.000Z</time>
      </trkpt>
      <trkpt lat="45.87213" lon="6.2176">
        <ele>663</ele>
        <time>2013-05-25T15:54:29.000Z</time>
      </trkpt>
      <trkpt lat="45.87215" lon="6.21759">
        <ele>663</ele>
        <time>2013-05-25T15:54:30.000Z</time>
      </trkpt>
      <trkpt lat="45.87218" lon="6.21759">
        <ele>663</ele>
        <time>2013-05-25T15:54:31.000Z</time>
      </trkpt>
      <trkpt lat="45.87221" lon="6.21758">
        <ele>663</ele>
        <time>2013-05-25T15:54:32.000Z</time>
      </trkpt>
      <trkpt lat="45.87224" lon="6.21758">
        <ele>663</ele>
        <time>2013-05-25T15:54:33.000Z</time>
      </trkpt>
      <trkpt lat="45.87227" lon="6.21757">
        <ele>663</ele>
        <time>2013-05-25T15:54:34.000Z</time>
      </trkpt>
      <trkpt lat="45.8723" lon="6.21757">
        <ele>662</ele>
        <time>2013-05-25T15:54:35.000Z</time>
      </trkpt>
      <trkpt lat="45.87233" lon="6.21756">
        <ele>662</ele>
        <time>2013-05-25T15:54:36.000Z</time>
      </trkpt>
      <trkpt lat="45.87235" lon="6.21755">
        <ele>662</ele>
        <time>2013-05-25T15:54:37.000Z</time>
      </trkpt>
      <trkpt lat="45.87238" lon="6.21754">
        <ele>661</ele>
        <time>2013-05-25T15:54:38.000Z</time>
      </trkpt>
      <trkpt lat="45.87241" lon="6.21753">
        <ele>661</ele>
        <time>2013-05-25T15:54:39.000Z</time>
      </trkpt>
      <trkpt lat="45.87243" lon="6.21753">
        <ele>660</ele>
        <time>2013-05-25T15:54:40.000Z</time>
      </trkpt>
      <trkpt lat="45.87246" lon="6.21752">
        <ele>659</ele>
        <time>2013-05-25T15:54:41.000Z</time>
      </trkpt>
      <trkpt lat="45.87249" lon="6.21752">
        <ele>659</ele>
        <time>2013-05-25T15:54:42.000Z</time>
      </trkpt>
      <trkpt lat="45.87252" lon="6.21752">
        <ele>659</ele>
        <time>2013-05-25T15:54:43.000Z</time>
      </trkpt>
      <trkpt lat="45.87254" lon="6.21751">
        <ele>659</ele>
        <time>2013-05-25T15:54:44.000Z</time>
      </trkpt>
      <trkpt lat="45.87257" lon="6.2175">
        <ele>660</ele>
        <time>2013-05-25T15:54:45.000Z</time>
      </trkpt>
      <trkpt lat="45.8726" lon="6.2175">
        <ele>656</ele>
        <time>2013-05-25T15:54:46.000Z</time>
      </trkpt>
      <trkpt lat="45.87263" lon="6.21749">
        <ele>656</ele>
        <time>2013-05-25T15:54:47.000Z</time>
      </trkpt>
      <trkpt lat="45.87266" lon="6.21748">
        <ele>656</ele>
        <time>2013-05-25T15:54:48.000Z</time>
      </trkpt>
      <trkpt lat="45.87268" lon="6.21747">
        <ele>655</ele>
        <time>2013-05-25T15:54:49.000Z</time>
      </trkpt>
      <trkpt lat="45.87271" lon="6.21746">
        <ele>655</ele>
        <time>2013-05-25T15:54:50.000Z</time>
      </trkpt>
      <trkpt lat="45.87274" lon="6.21745">
        <ele>655</ele>
        <time>2013-05-25T15:54:51.000Z</time>
      </trkpt>
      <trkpt lat="45.87277" lon="6.21745">
        <ele>655</ele>
        <time>2013-05-25T15:54:52.000Z</time>
      </trkpt>
      <trkpt lat="45.8728" lon="6.21744">
        <ele>655</ele>
        <time>2013-05-25T15:54:53.000Z</time>
      </trkpt>
      <trkpt lat="45.87283" lon="6.21744">
        <ele>655</ele>
        <time>2013-05-25T15:54:54.000Z</time>
      </trkpt>
      <trkpt lat="45.87286" lon="6.21743">
        <ele>655</ele>
        <time>2013-05-25T15:54:55.000Z</time>
      </trkpt>
      <trkpt lat="45.87289" lon="6.21741">
        <ele>655</ele>
        <time>2013-05-25T15:54:56.000Z</time>
      </trkpt>
      <trkpt lat="45.87292" lon="6.2174">
        <ele>655</ele>
        <time>2013-05-25T15:54:57.000Z</time>
      </trkpt>
      <trkpt lat="45.87294" lon="6.2174">
        <ele>655</ele>
        <time>2013-05-25T15:54:58.000Z</time>
      </trkpt>
      <trkpt lat="45.87297" lon="6.21739">
        <ele>655</ele>
        <time>2013-05-25T15:54:59.000Z</time>
      </trkpt>
      <trkpt lat="45.873" lon="6.21738">
        <ele>655</ele>
        <time>2013-05-25T15:55:00.000Z</time>
      </trkpt>
      <trkpt lat="45.87303" lon="6.21737">
        <ele>655</ele>
        <time>2013-05-25T15:55:01.000Z</time>
      </trkpt>
      <trkpt lat="45.87306" lon="6.21736">
        <ele>655</ele>
        <time>2013-05-25T15:55:02.000Z</time>
      </trkpt>
      <trkpt lat="45.87309" lon="6.21734">
        <ele>655</ele>
        <time>2013-05-25T15:55:03.000Z</time>
      </trkpt>
      <trkpt lat="45.87311" lon="6.21733">
        <ele>655</ele>
        <time>2013-05-25T15:55:04.000Z</time>
      </trkpt>
      <trkpt lat="45.87314" lon="6.21732">
        <ele>655</ele>
        <time>2013-05-25T15:55:05.000Z</time>
      </trkpt>
      <trkpt lat="45.87317" lon="6.2173">
        <ele>655</ele>
        <time>2013-05-25T15:55:06.000Z</time>
      </trkpt>
      <trkpt lat="45.87319" lon="6.2173">
        <ele>655</ele>
        <time>2013-05-25T15:55:07.000Z</time>
      </trkpt>
      <trkpt lat="45.87322" lon="6.21729">
        <ele>656</ele>
        <time>2013-05-25T15:55:08.000Z</time>
      </trkpt>
      <trkpt lat="45.87325" lon="6.21728">
        <ele>656</ele>
        <time>2013-05-25T15:55:09.000Z</time>
      </trkpt>
      <trkpt lat="45.87328" lon="6.21728">
        <ele>656</ele>
        <time>2013-05-25T15:55:10.000Z</time>
      </trkpt>
      <trkpt lat="45.8733" lon="6.21726">
        <ele>655</ele>
        <time>2013-05-25T15:55:11.000Z</time>
      </trkpt>
      <trkpt lat="45.87333" lon="6.21725">
        <ele>655</ele>
        <time>2013-05-25T15:55:12.000Z</time>
      </trkpt>
      <trkpt lat="45.87336" lon="6.21724">
        <ele>657</ele>
        <time>2013-05-25T15:55:13.000Z</time>
      </trkpt>
      <trkpt lat="45.87338" lon="6.21723">
        <ele>657</ele>
        <time>2013-05-25T15:55:14.000Z</time>
      </trkpt>
      <trkpt lat="45.8734" lon="6.21722">
        <ele>657</ele>
        <time>2013-05-25T15:55:15.000Z</time>
      </trkpt>
      <trkpt lat="45.87343" lon="6.21721">
        <ele>657</ele>
        <time>2013-05-25T15:55:16.000Z</time>
      </trkpt>
      <trkpt lat="45.87346" lon="6.2172">
        <ele>657</ele>
        <time>2013-05-25T15:55:17.000Z</time>
      </trkpt>
      <trkpt lat="45.87349" lon="6.21718">
        <ele>657</ele>
        <time>2013-05-25T15:55:18.000Z</time>
      </trkpt>
      <trkpt lat="45.87351" lon="6.21717">
        <ele>657</ele>
        <time>2013-05-25T15:55:19.000Z</time>
      </trkpt>
      <trkpt lat="45.87354" lon="6.21716">
        <ele>656</ele>
        <time>2013-05-25T15:55:20.000Z</time>
      </trkpt>
      <trkpt lat="45.87357" lon="6.21714">
        <ele>656</ele>
        <time>2013-05-25T15:55:21.000Z</time>
      </trkpt>
      <trkpt lat="45.8736" lon="6.21714">
        <ele>656</ele>
        <time>2013-05-25T15:55:22.000Z</time>
      </trkpt>
      <trkpt lat="45.87363" lon="6.21713">
        <ele>656</ele>
        <time>2013-05-25T15:55:23.000Z</time>
      </trkpt>
      <trkpt lat="45.87365" lon="6.21712">
        <ele>656</ele>
        <time>2013-05-25T15:55:24.000Z</time>
      </trkpt>
      <trkpt lat="45.87368" lon="6.21711">
        <ele>656</ele>
        <time>2013-05-25T15:55:25.000Z</time>
      </trkpt>
      <trkpt lat="45.8737" lon="6.2171">
        <ele>656</ele>
        <time>2013-05-25T15:55:26.000Z</time>
      </trkpt>
      <trkpt lat="45.87373" lon="6.21709">
        <ele>656</ele>
        <time>2013-05-25T15:55:27.000Z</time>
      </trkpt>
      <trkpt lat="45.87376" lon="6.21707">
        <ele>656</ele>
        <time>2013-05-25T15:55:28.000Z</time>
      </trkpt>
      <trkpt lat="45.87378" lon="6.21706">
        <ele>656</ele>
        <time>2013-05-25T15:55:29.000Z</time>
      </trkpt>
      <trkpt lat="45.87381" lon="6.21706">
        <ele>656</ele>
        <time>2013-05-25T15:55:30.000Z</time>
      </trkpt>
      <trkpt lat="45.87383" lon="6.21705">
        <ele>656</ele>
        <time>2013-05-25T15:55:31.000Z</time>
      </trkpt>
      <trkpt lat="45.87386" lon="6.21704">
        <ele>656</ele>
        <time>2013-05-25T15:55:32.000Z</time>
      </trkpt>
      <trkpt lat="45.87389" lon="6.21702">
        <ele>656</ele>
        <time>2013-05-25T15:55:33.000Z</time>
      </trkpt>
      <trkpt lat="45.87392" lon="6.217">
        <ele>656</ele>
        <time>2013-05-25T15:55:34.000Z</time>
      </trkpt>
      <trkpt lat="45.87395" lon="6.217">
        <ele>656</ele>
        <time>2013-05-25T15:55:35.000Z</time>
      </trkpt>
      <trkpt lat="45.87397" lon="6.21699">
        <ele>656</ele>
        <time>2013-05-25T15:55:36.000Z</time>
      </trkpt>
      <trkpt lat="45.87401" lon="6.21698">
        <ele>656</ele>
        <time>2013-05-25T15:55:37.000Z</time>
      </trkpt>
      <trkpt lat="45.87403" lon="6.21697">
        <ele>656</ele>
        <time>2013-05-25T15:55:38.000Z</time>
      </trkpt>
      <trkpt lat="45.87406" lon="6.21696">
        <ele>656</ele>
        <time>2013-05-25T15:55:39.000Z</time>
      </trkpt>
      <trkpt lat="45.87409" lon="6.21694">
        <ele>656</ele>
        <time>2013-05-25T15:55:40.000Z</time>
      </trkpt>
      <trkpt lat="45.87411" lon="6.21693">
        <ele>656</ele>
        <time>2013-05-25T15:55:41.000Z</time>
      </trkpt>
      <trkpt lat="45.87414" lon="6.21692">
        <ele>655</ele>
        <time>2013-05-25T15:55:42.000Z</time>
      </trkpt>
      <trkpt lat="45.87417" lon="6.21692">
        <ele>655</ele>
        <time>2013-05-25T15:55:43.000Z</time>
      </trkpt>
      <trkpt lat="45.87419" lon="6.21691">
        <ele>655</ele>
        <time>2013-05-25T15:55:44.000Z</time>
      </trkpt>
      <trkpt lat="45.87422" lon="6.2169">
        <ele>655</ele>
        <time>2013-05-25T15:55:45.000Z</time>
      </trkpt>
      <trkpt lat="45.87425" lon="6.21689">
        <ele>655</ele>
        <time>2013-05-25T15:55:46.000Z</time>
      </trkpt>
      <trkpt lat="45.87428" lon="6.21689">
        <ele>655</ele>
        <time>2013-05-25T15:55:47.000Z</time>
      </trkpt>
      <trkpt lat="45.87431" lon="6.21688">
        <ele>655</ele>
        <time>2013-05-25T15:55:48.000Z</time>
      </trkpt>
      <trkpt lat="45.87433" lon="6.21686">
        <ele>655</ele>
        <time>2013-05-25T15:55:49.000Z</time>
      </trkpt>
      <trkpt lat="45.87436" lon="6.21685">
        <ele>655</ele>
        <time>2013-05-25T15:55:50.000Z</time>
      </trkpt>
      <trkpt lat="45.87438" lon="6.21683">
        <ele>655</ele>
        <time>2013-05-25T15:55:51.000Z</time>
      </trkpt>
      <trkpt lat="45.87441" lon="6.21681">
        <ele>655</ele>
        <time>2013-05-25T15:55:52.000Z</time>
      </trkpt>
      <trkpt lat="45.87443" lon="6.21679">
        <ele>654</ele>
        <time>2013-05-25T15:55:53.000Z</time>
      </trkpt>
      <trkpt lat="45.87446" lon="6.21678">
        <ele>654</ele>
        <time>2013-05-25T15:55:54.000Z</time>
      </trkpt>
      <trkpt lat="45.87448" lon="6.21676">
        <ele>654</ele>
        <time>2013-05-25T15:55:55.000Z</time>
      </trkpt>
      <trkpt lat="45.87451" lon="6.21674">
        <ele>654</ele>
        <time>2013-05-25T15:55:56.000Z</time>
      </trkpt>
      <trkpt lat="45.87453" lon="6.21673">
        <ele>654</ele>
        <time>2013-05-25T15:55:57.000Z</time>
      </trkpt>
      <trkpt lat="45.87456" lon="6.21671">
        <ele>654</ele>
        <time>2013-05-25T15:55:58.000Z</time>
      </trkpt>
      <trkpt lat="45.87458" lon="6.21668">
        <ele>654</ele>
        <time>2013-05-25T15:55:59.000Z</time>
      </trkpt>
      <trkpt lat="45.8746" lon="6.21666">
        <ele>650</ele>
        <time>2013-05-25T15:56:00.000Z</time>
      </trkpt>
      <trkpt lat="45.87462" lon="6.21663">
        <ele>650</ele>
        <time>2013-05-25T15:56:01.000Z</time>
      </trkpt>
      <trkpt lat="45.87463" lon="6.2166">
        <ele>650</ele>
        <time>2013-05-25T15:56:02.000Z</time>
      </trkpt>
      <trkpt lat="45.87465" lon="6.21657">
        <ele>650</ele>
        <time>2013-05-25T15:56:03.000Z</time>
      </trkpt>
      <trkpt lat="45.87467" lon="6.21654">
        <ele>650</ele>
        <time>2013-05-25T15:56:04.000Z</time>
      </trkpt>
      <trkpt lat="45.87468" lon="6.2165">
        <ele>650</ele>
        <time>2013-05-25T15:56:05.000Z</time>
      </trkpt>
      <trkpt lat="45.87469" lon="6.21647">
        <ele>649</ele>
        <time>2013-05-25T15:56:06.000Z</time>
      </trkpt>
      <trkpt lat="45.8747" lon="6.21643">
        <ele>649</ele>
        <time>2013-05-25T15:56:07.000Z</time>
      </trkpt>
      <trkpt lat="45.87472" lon="6.21641">
        <ele>649</ele>
        <time>2013-05-25T15:56:08.000Z</time>
      </trkpt>
      <trkpt lat="45.87472" lon="6.21638">
        <ele>649</ele>
        <time>2013-05-25T15:56:09.000Z</time>
      </trkpt>
      <trkpt lat="45.87473" lon="6.21634">
        <ele>649</ele>
        <time>2013-05-25T15:56:10.000Z</time>
      </trkpt>
      <trkpt lat="45.87474" lon="6.21631">
        <ele>649</ele>
        <time>2013-05-25T15:56:11.000Z</time>
      </trkpt>
      <trkpt lat="45.87474" lon="6.21627">
        <ele>649</ele>
        <time>2013-05-25T15:56:12.000Z</time>
      </trkpt>
      <trkpt lat="45.87474" lon="6.21624">
        <ele>649</ele>
        <time>2013-05-25T15:56:13.000Z</time>
      </trkpt>
      <trkpt lat="45.87474" lon="6.2162">
        <ele>649</ele>
        <time>2013-05-25T15:56:14.000Z</time>
      </trkpt>
      <trkpt lat="45.87474" lon="6.21616">
        <ele>649</ele>
        <time>2013-05-25T15:56:15.000Z</time>
      </trkpt>
      <trkpt lat="45.87475" lon="6.21611">
        <ele>649</ele>
        <time>2013-05-25T15:56:16.000Z</time>
      </trkpt>
      <trkpt lat="45.87475" lon="6.21607">
        <ele>649</ele>
        <time>2013-05-25T15:56:17.000Z</time>
      </trkpt>
      <trkpt lat="45.87476" lon="6.21604">
        <ele>648</ele>
        <time>2013-05-25T15:56:18.000Z</time>
      </trkpt>
      <trkpt lat="45.87477" lon="6.216">
        <ele>648</ele>
        <time>2013-05-25T15:56:19.000Z</time>
      </trkpt>
      <trkpt lat="45.87477" lon="6.21596">
        <ele>648</ele>
        <time>2013-05-25T15:56:20.000Z</time>
      </trkpt>
      <trkpt lat="45.87477" lon="6.21593">
        <ele>648</ele>
        <time>2013-05-25T15:56:21.000Z</time>
      </trkpt>
      <trkpt lat="45.87478" lon="6.21589">
        <ele>648</ele>
        <time>2013-05-25T15:56:22.000Z</time>
      </trkpt>
      <trkpt lat="45.87478" lon="6.21585">
        <ele>648</ele>
        <time>2013-05-25T15:56:23.000Z</time>
      </trkpt>
      <trkpt lat="45.87478" lon="6.21582">
        <ele>647</ele>
        <time>2013-05-25T15:56:24.000Z</time>
      </trkpt>
      <trkpt lat="45.87478" lon="6.21578">
        <ele>647</ele>
        <time>2013-05-25T15:56:25.000Z</time>
      </trkpt>
      <trkpt lat="45.87478" lon="6.21575">
        <ele>647</ele>
        <time>2013-05-25T15:56:26.000Z</time>
      </trkpt>
      <trkpt lat="45.87478" lon="6.21571">
        <ele>647</ele>
        <time>2013-05-25T15:56:27.000Z</time>
      </trkpt>
      <trkpt lat="45.87478" lon="6.21567">
        <ele>647</ele>
        <time>2013-05-25T15:56:28.000Z</time>
      </trkpt>
      <trkpt lat="45.87478" lon="6.21563">
        <ele>647</ele>
        <time>2013-05-25T15:56:29.000Z</time>
      </trkpt>
      <trkpt lat="45.87478" lon="6.21559">
        <ele>647</ele>
        <time>2013-05-25T15:56:30.000Z</time>
      </trkpt>
      <trkpt lat="45.87478" lon="6.21555">
        <ele>647</ele>
        <time>2013-05-25T15:56:31.000Z</time>
      </trkpt>
      <trkpt lat="45.87478" lon="6.21551">
        <ele>647</ele>
        <time>2013-05-25T15:56:32.000Z</time>
      </trkpt>
      <trkpt lat="45.87478" lon="6.21547">
        <ele>647</ele>
        <time>2013-05-25T15:56:33.000Z</time>
      </trkpt>
      <trkpt lat="45.87478" lon="6.21544">
        <ele>647</ele>
        <time>2013-05-25T15:56:34.000Z</time>
      </trkpt>
      <trkpt lat="45.87478" lon="6.2154">
        <ele>647</ele>
        <time>2013-05-25T15:56:35.000Z</time>
      </trkpt>
      <trkpt lat="45.87477" lon="6.21536">
        <ele>647</ele>
        <time>2013-05-25T15:56:36.000Z</time>
      </trkpt>
      <trkpt lat="45.87477" lon="6.21533">
        <ele>647</ele>
        <time>2013-05-25T15:56:37.000Z</time>
      </trkpt>
      <trkpt lat="45.87477" lon="6.21529">
        <ele>647</ele>
        <time>2013-05-25T15:56:38.000Z</time>
      </trkpt>
      <trkpt lat="45.87477" lon="6.21525">
        <ele>647</ele>
        <time>2013-05-25T15:56:39.000Z</time>
      </trkpt>
      <trkpt lat="45.87476" lon="6.21521">
        <ele>647</ele>
        <time>2013-05-25T15:56:40.000Z</time>
      </trkpt>
      <trkpt lat="45.87476" lon="6.21518">
        <ele>647</ele>
        <time>2013-05-25T15:56:41.000Z</time>
      </trkpt>
      <trkpt lat="45.87475" lon="6.21514">
        <ele>647</ele>
        <time>2013-05-25T15:56:42.000Z</time>
      </trkpt>
      <trkpt lat="45.87475" lon="6.2151">
        <ele>647</ele>
        <time>2013-05-25T15:56:43.000Z</time>
      </trkpt>
      <trkpt lat="45.87475" lon="6.21506">
        <ele>647</ele>
        <time>2013-05-25T15:56:44.000Z</time>
      </trkpt>
      <trkpt lat="45.87474" lon="6.21502">
        <ele>647</ele>
        <time>2013-05-25T15:56:45.000Z</time>
      </trkpt>
      <trkpt lat="45.87474" lon="6.21499">
        <ele>646</ele>
        <time>2013-05-25T15:56:46.000Z</time>
      </trkpt>
      <trkpt lat="45.87473" lon="6.21495">
        <ele>646</ele>
        <time>2013-05-25T15:56:47.000Z</time>
      </trkpt>
      <trkpt lat="45.87472" lon="6.21491">
        <ele>646</ele>
        <time>2013-05-25T15:56:48.000Z</time>
      </trkpt>
      <trkpt lat="45.87472" lon="6.21487">
        <ele>646</ele>
        <time>2013-05-25T15:56:49.000Z</time>
      </trkpt>
      <trkpt lat="45.87471" lon="6.21483">
        <ele>646</ele>
        <time>2013-05-25T15:56:50.000Z</time>
      </trkpt>
      <trkpt lat="45.8747" lon="6.2148">
        <ele>646</ele>
        <time>2013-05-25T15:56:51.000Z</time>
      </trkpt>
      <trkpt lat="45.87469" lon="6.21477">
        <ele>646</ele>
        <time>2013-05-25T15:56:52.000Z</time>
      </trkpt>
      <trkpt lat="45.87468" lon="6.21473">
        <ele>646</ele>
        <time>2013-05-25T15:56:53.000Z</time>
      </trkpt>
      <trkpt lat="45.87466" lon="6.2147">
        <ele>646</ele>
        <time>2013-05-25T15:56:54.000Z</time>
      </trkpt>
      <trkpt lat="45.87465" lon="6.21466">
        <ele>646</ele>
        <time>2013-05-25T15:56:55.000Z</time>
      </trkpt>
      <trkpt lat="45.87463" lon="6.21463">
        <ele>646</ele>
        <time>2013-05-25T15:56:56.000Z</time>
      </trkpt>
      <trkpt lat="45.87462" lon="6.2146">
        <ele>646</ele>
        <time>2013-05-25T15:56:57.000Z</time>
      </trkpt>
      <trkpt lat="45.8746" lon="6.21457">
        <ele>646</ele>
        <time>2013-05-25T15:56:58.000Z</time>
      </trkpt>
      <trkpt lat="45.87459" lon="6.21454">
        <ele>646</ele>
        <time>2013-05-25T15:56:59.000Z</time>
      </trkpt>
      <trkpt lat="45.87458" lon="6.21451">
        <ele>646</ele>
        <time>2013-05-25T15:57:00.000Z</time>
      </trkpt>
      <trkpt lat="45.87456" lon="6.21448">
        <ele>646</ele>
        <time>2013-05-25T15:57:01.000Z</time>
      </trkpt>
      <trkpt lat="45.87455" lon="6.21444">
        <ele>646</ele>
        <time>2013-05-25T15:57:02.000Z</time>
      </trkpt>
      <trkpt lat="45.87454" lon="6.21441">
        <ele>646</ele>
        <time>2013-05-25T15:57:03.000Z</time>
      </trkpt>
      <trkpt lat="45.87454" lon="6.21437">
        <ele>646</ele>
        <time>2013-05-25T15:57:04.000Z</time>
      </trkpt>
      <trkpt lat="45.87453" lon="6.21434">
        <ele>646</ele>
        <time>2013-05-25T15:57:05.000Z</time>
      </trkpt>
      <trkpt lat="45.87452" lon="6.21431">
        <ele>646</ele>
        <time>2013-05-25T15:57:06.000Z</time>
      </trkpt>
      <trkpt lat="45.87452" lon="6.21428">
        <ele>646</ele>
        <time>2013-05-25T15:57:07.000Z</time>
      </trkpt>
      <trkpt lat="45.87451" lon="6.21424">
        <ele>646</ele>
        <time>2013-05-25T15:57:08.000Z</time>
      </trkpt>
      <trkpt lat="45.87451" lon="6.21421">
        <ele>646</ele>
        <time>2013-05-25T15:57:09.000Z</time>
      </trkpt>
      <trkpt lat="45.87451" lon="6.21418">
        <ele>646</ele>
        <time>2013-05-25T15:57:10.000Z</time>
      </trkpt>
      <trkpt lat="45.87451" lon="6.21414">
        <ele>643</ele>
        <time>2013-05-25T15:57:11.000Z</time>
      </trkpt>
      <trkpt lat="45.87452" lon="6.2141">
        <ele>643</ele>
        <time>2013-05-25T15:57:12.000Z</time>
      </trkpt>
      <trkpt lat="45.87451" lon="6.21407">
        <ele>643</ele>
        <time>2013-05-25T15:57:13.000Z</time>
      </trkpt>
      <trkpt lat="45.8745" lon="6.21404">
        <ele>643</ele>
        <time>2013-05-25T15:57:14.000Z</time>
      </trkpt>
      <trkpt lat="45.87449" lon="6.21401">
        <ele>643</ele>
        <time>2013-05-25T15:57:15.000Z</time>
      </trkpt>
      <trkpt lat="45.87446" lon="6.21398">
        <ele>643</ele>
        <time>2013-05-25T15:57:16.000Z</time>
      </trkpt>
      <trkpt lat="45.87445" lon="6.21396">
        <ele>643</ele>
        <time>2013-05-25T15:57:17.000Z</time>
      </trkpt>
      <trkpt lat="45.87443" lon="6.21394">
        <ele>643</ele>
        <time>2013-05-25T15:57:18.000Z</time>
      </trkpt>
      <trkpt lat="45.87441" lon="6.21391">
        <ele>643</ele>
        <time>2013-05-25T15:57:19.000Z</time>
      </trkpt>
      <trkpt lat="45.8744" lon="6.21389">
        <ele>643</ele>
        <time>2013-05-25T15:57:20.000Z</time>
      </trkpt>
      <trkpt lat="45.87438" lon="6.21386">
        <ele>643</ele>
        <time>2013-05-25T15:57:21.000Z</time>
      </trkpt>
      <trkpt lat="45.87436" lon="6.21383">
        <ele>643</ele>
        <time>2013-05-25T15:57:22.000Z</time>
      </trkpt>
      <trkpt lat="45.87433" lon="6.21381">
        <ele>643</ele>
        <time>2013-05-25T15:57:23.000Z</time>
      </trkpt>
      <trkpt lat="45.87431" lon="6.21378">
        <ele>642</ele>
        <time>2013-05-25T15:57:24.000Z</time>
      </trkpt>
      <trkpt lat="45.87429" lon="6.21376">
        <ele>642</ele>
        <time>2013-05-25T15:57:25.000Z</time>
      </trkpt>
      <trkpt lat="45.87426" lon="6.21375">
        <ele>642</ele>
        <time>2013-05-25T15:57:26.000Z</time>
      </trkpt>
      <trkpt lat="45.87424" lon="6.21374">
        <ele>642</ele>
        <time>2013-05-25T15:57:27.000Z</time>
      </trkpt>
      <trkpt lat="45.87422" lon="6.21373">
        <ele>642</ele>
        <time>2013-05-25T15:57:28.000Z</time>
      </trkpt>
      <trkpt lat="45.87419" lon="6.21372">
        <ele>642</ele>
        <time>2013-05-25T15:57:29.000Z</time>
      </trkpt>
      <trkpt lat="45.87417" lon="6.21371">
        <ele>645</ele>
        <time>2013-05-25T15:57:30.000Z</time>
      </trkpt>
      <trkpt lat="45.87415" lon="6.2137">
        <ele>645</ele>
        <time>2013-05-25T15:57:31.000Z</time>
      </trkpt>
      <trkpt lat="45.87412" lon="6.21368">
        <ele>645</ele>
        <time>2013-05-25T15:57:32.000Z</time>
      </trkpt>
      <trkpt lat="45.8741" lon="6.21367">
        <ele>645</ele>
        <time>2013-05-25T15:57:33.000Z</time>
      </trkpt>
      <trkpt lat="45.87408" lon="6.21365">
        <ele>644</ele>
        <time>2013-05-25T15:57:34.000Z</time>
      </trkpt>
      <trkpt lat="45.87406" lon="6.21363">
        <ele>644</ele>
        <time>2013-05-25T15:57:35.000Z</time>
      </trkpt>
      <trkpt lat="45.87403" lon="6.21361">
        <ele>644</ele>
        <time>2013-05-25T15:57:36.000Z</time>
      </trkpt>
      <trkpt lat="45.874" lon="6.21359">
        <ele>644</ele>
        <time>2013-05-25T15:57:37.000Z</time>
      </trkpt>
      <trkpt lat="45.87398" lon="6.21357">
        <ele>644</ele>
        <time>2013-05-25T15:57:38.000Z</time>
      </trkpt>
      <trkpt lat="45.87395" lon="6.21356">
        <ele>644</ele>
        <time>2013-05-25T15:57:39.000Z</time>
      </trkpt>
      <trkpt lat="45.87392" lon="6.21355">
        <ele>644</ele>
        <time>2013-05-25T15:57:40.000Z</time>
      </trkpt>
      <trkpt lat="45.8739" lon="6.21353">
        <ele>644</ele>
        <time>2013-05-25T15:57:41.000Z</time>
      </trkpt>
      <trkpt lat="45.87388" lon="6.21351">
        <ele>644</ele>
        <time>2013-05-25T15:57:42.000Z</time>
      </trkpt>
      <trkpt lat="45.87386" lon="6.21349">
        <ele>644</ele>
        <time>2013-05-25T15:57:43.000Z</time>
      </trkpt>
      <trkpt lat="45.87384" lon="6.21347">
        <ele>644</ele>
        <time>2013-05-25T15:57:44.000Z</time>
      </trkpt>
      <trkpt lat="45.87382" lon="6.21344">
        <ele>644</ele>
        <time>2013-05-25T15:57:45.000Z</time>
      </trkpt>
      <trkpt lat="45.8738" lon="6.2134">
        <ele>644</ele>
        <time>2013-05-25T15:57:46.000Z</time>
      </trkpt>
      <trkpt lat="45.87379" lon="6.21337">
        <ele>644</ele>
        <time>2013-05-25T15:57:47.000Z</time>
      </trkpt>
      <trkpt lat="45.87376" lon="6.21334">
        <ele>644</ele>
        <time>2013-05-25T15:57:48.000Z</time>
      </trkpt>
      <trkpt lat="45.87374" lon="6.21331">
        <ele>639</ele>
        <time>2013-05-25T15:57:49.000Z</time>
      </trkpt>
      <trkpt lat="45.87372" lon="6.21328">
        <ele>639</ele>
        <time>2013-05-25T15:57:50.000Z</time>
      </trkpt>
      <trkpt lat="45.8737" lon="6.21325">
        <ele>639</ele>
        <time>2013-05-25T15:57:51.000Z</time>
      </trkpt>
      <trkpt lat="45.87368" lon="6.21323">
        <ele>639</ele>
        <time>2013-05-25T15:57:52.000Z</time>
      </trkpt>
      <trkpt lat="45.87366" lon="6.2132">
        <ele>639</ele>
        <time>2013-05-25T15:57:53.000Z</time>
      </trkpt>
      <trkpt lat="45.87364" lon="6.21317">
        <ele>639</ele>
        <time>2013-05-25T15:57:54.000Z</time>
      </trkpt>
      <trkpt lat="45.87361" lon="6.21314">
        <ele>639</ele>
        <time>2013-05-25T15:57:55.000Z</time>
      </trkpt>
      <trkpt lat="45.8736" lon="6.21311">
        <ele>639</ele>
        <time>2013-05-25T15:57:56.000Z</time>
      </trkpt>
      <trkpt lat="45.87358" lon="6.21308">
        <ele>639</ele>
        <time>2013-05-25T15:57:57.000Z</time>
      </trkpt>
      <trkpt lat="45.87357" lon="6.21304">
        <ele>639</ele>
        <time>2013-05-25T15:57:58.000Z</time>
      </trkpt>
      <trkpt lat="45.87355" lon="6.21301">
        <ele>639</ele>
        <time>2013-05-25T15:57:59.000Z</time>
      </trkpt>
      <trkpt lat="45.87353" lon="6.21297">
        <ele>639</ele>
        <time>2013-05-25T15:58:00.000Z</time>
      </trkpt>
      <trkpt lat="45.87352" lon="6.21293">
        <ele>638</ele>
        <time>2013-05-25T15:58:01.000Z</time>
      </trkpt>
      <trkpt lat="45.8735" lon="6.2129">
        <ele>638</ele>
        <time>2013-05-25T15:58:02.000Z</time>
      </trkpt>
      <trkpt lat="45.87349" lon="6.21286">
        <ele>638</ele>
        <time>2013-05-25T15:58:03.000Z</time>
      </trkpt>
      <trkpt lat="45.87346" lon="6.21282">
        <ele>638</ele>
        <time>2013-05-25T15:58:04.000Z</time>
      </trkpt>
      <trkpt lat="45.87345" lon="6.21278">
        <ele>637</ele>
        <time>2013-05-25T15:58:05.000Z</time>
      </trkpt>
      <trkpt lat="45.87343" lon="6.21274">
        <ele>637</ele>
        <time>2013-05-25T15:58:06.000Z</time>
      </trkpt>
      <trkpt lat="45.87341" lon="6.21271">
        <ele>637</ele>
        <time>2013-05-25T15:58:07.000Z</time>
      </trkpt>
      <trkpt lat="45.8734" lon="6.21267">
        <ele>637</ele>
        <time>2013-05-25T15:58:08.000Z</time>
      </trkpt>
      <trkpt lat="45.87338" lon="6.21263">
        <ele>636</ele>
        <time>2013-05-25T15:58:09.000Z</time>
      </trkpt>
      <trkpt lat="45.87336" lon="6.2126">
        <ele>636</ele>
        <time>2013-05-25T15:58:10.000Z</time>
      </trkpt>
      <trkpt lat="45.87335" lon="6.21256">
        <ele>636</ele>
        <time>2013-05-25T15:58:11.000Z</time>
      </trkpt>
      <trkpt lat="45.87333" lon="6.21253">
        <ele>635</ele>
        <time>2013-05-25T15:58:12.000Z</time>
      </trkpt>
      <trkpt lat="45.8733" lon="6.2125">
        <ele>635</ele>
        <time>2013-05-25T15:58:13.000Z</time>
      </trkpt>
      <trkpt lat="45.87329" lon="6.21246">
        <ele>634</ele>
        <time>2013-05-25T15:58:14.000Z</time>
      </trkpt>
      <trkpt lat="45.87327" lon="6.21243">
        <ele>634</ele>
        <time>2013-05-25T15:58:15.000Z</time>
      </trkpt>
      <trkpt lat="45.87325" lon="6.2124">
        <ele>634</ele>
        <time>2013-05-25T15:58:16.000Z</time>
      </trkpt>
      <trkpt lat="45.87323" lon="6.21238">
        <ele>634</ele>
        <time>2013-05-25T15:58:17.000Z</time>
      </trkpt>
      <trkpt lat="45.87322" lon="6.21235">
        <ele>633</ele>
        <time>2013-05-25T15:58:18.000Z</time>
      </trkpt>
      <trkpt lat="45.8732" lon="6.21232">
        <ele>633</ele>
        <time>2013-05-25T15:58:19.000Z</time>
      </trkpt>
      <trkpt lat="45.87318" lon="6.21229">
        <ele>633</ele>
        <time>2013-05-25T15:58:20.000Z</time>
      </trkpt>
      <trkpt lat="45.87316" lon="6.21226">
        <ele>633</ele>
        <time>2013-05-25T15:58:21.000Z</time>
      </trkpt>
      <trkpt lat="45.87315" lon="6.21222">
        <ele>633</ele>
        <time>2013-05-25T15:58:22.000Z</time>
      </trkpt>
      <trkpt lat="45.87313" lon="6.21218">
        <ele>633</ele>
        <time>2013-05-25T15:58:23.000Z</time>
      </trkpt>
      <trkpt lat="45.87313" lon="6.21214">
        <ele>632</ele>
        <time>2013-05-25T15:58:24.000Z</time>
      </trkpt>
      <trkpt lat="45.87311" lon="6.2121">
        <ele>632</ele>
        <time>2013-05-25T15:58:25.000Z</time>
      </trkpt>
      <trkpt lat="45.87309" lon="6.21207">
        <ele>632</ele>
        <time>2013-05-25T15:58:26.000Z</time>
      </trkpt>
      <trkpt lat="45.87308" lon="6.21203">
        <ele>632</ele>
        <time>2013-05-25T15:58:27.000Z</time>
      </trkpt>
      <trkpt lat="45.87306" lon="6.212">
        <ele>632</ele>
        <time>2013-05-25T15:58:28.000Z</time>
      </trkpt>
      <trkpt lat="45.87304" lon="6.21196">
        <ele>632</ele>
        <time>2013-05-25T15:58:29.000Z</time>
      </trkpt>
      <trkpt lat="45.87303" lon="6.21193">
        <ele>632</ele>
        <time>2013-05-25T15:58:30.000Z</time>
      </trkpt>
      <trkpt lat="45.87301" lon="6.2119">
        <ele>632</ele>
        <time>2013-05-25T15:58:31.000Z</time>
      </trkpt>
      <trkpt lat="45.87299" lon="6.21187">
        <ele>632</ele>
        <time>2013-05-25T15:58:32.000Z</time>
      </trkpt>
      <trkpt lat="45.87297" lon="6.21184">
        <ele>632</ele>
        <time>2013-05-25T15:58:33.000Z</time>
      </trkpt>
      <trkpt lat="45.87295" lon="6.21181">
        <ele>632</ele>
        <time>2013-05-25T15:58:34.000Z</time>
      </trkpt>
      <trkpt lat="45.87293" lon="6.21178">
        <ele>632</ele>
        <time>2013-05-25T15:58:35.000Z</time>
      </trkpt>
      <trkpt lat="45.87291" lon="6.21175">
        <ele>632</ele>
        <time>2013-05-25T15:58:36.000Z</time>
      </trkpt>
      <trkpt lat="45.8729" lon="6.21171">
        <ele>632</ele>
        <time>2013-05-25T15:58:37.000Z</time>
      </trkpt>
      <trkpt lat="45.87288" lon="6.21168">
        <ele>632</ele>
        <time>2013-05-25T15:58:38.000Z</time>
      </trkpt>
      <trkpt lat="45.87286" lon="6.21165">
        <ele>631</ele>
        <time>2013-05-25T15:58:39.000Z</time>
      </trkpt>
      <trkpt lat="45.87284" lon="6.21162">
        <ele>631</ele>
        <time>2013-05-25T15:58:40.000Z</time>
      </trkpt>
      <trkpt lat="45.87282" lon="6.21159">
        <ele>631</ele>
        <time>2013-05-25T15:58:41.000Z</time>
      </trkpt>
      <trkpt lat="45.8728" lon="6.21156">
        <ele>631</ele>
        <time>2013-05-25T15:58:42.000Z</time>
      </trkpt>
      <trkpt lat="45.87278" lon="6.21152">
        <ele>631</ele>
        <time>2013-05-25T15:58:43.000Z</time>
      </trkpt>
      <trkpt lat="45.87276" lon="6.21149">
        <ele>631</ele>
        <time>2013-05-25T15:58:44.000Z</time>
      </trkpt>
      <trkpt lat="45.87274" lon="6.21146">
        <ele>631</ele>
        <time>2013-05-25T15:58:45.000Z</time>
      </trkpt>
      <trkpt lat="45.87273" lon="6.21142">
        <ele>631</ele>
        <time>2013-05-25T15:58:46.000Z</time>
      </trkpt>
      <trkpt lat="45.8727" lon="6.21139">
        <ele>631</ele>
        <time>2013-05-25T15:58:47.000Z</time>
      </trkpt>
      <trkpt lat="45.87269" lon="6.21136">
        <ele>631</ele>
        <time>2013-05-25T15:58:48.000Z</time>
      </trkpt>
      <trkpt lat="45.87267" lon="6.21133">
        <ele>631</ele>
        <time>2013-05-25T15:58:49.000Z</time>
      </trkpt>
      <trkpt lat="45.87265" lon="6.2113">
        <ele>632</ele>
        <time>2013-05-25T15:58:50.000Z</time>
      </trkpt>
      <trkpt lat="45.87263" lon="6.21127">
        <ele>632</ele>
        <time>2013-05-25T15:58:51.000Z</time>
      </trkpt>
      <trkpt lat="45.87262" lon="6.21124">
        <ele>632</ele>
        <time>2013-05-25T15:58:52.000Z</time>
      </trkpt>
      <trkpt lat="45.8726" lon="6.21121">
        <ele>632</ele>
        <time>2013-05-25T15:58:53.000Z</time>
      </trkpt>
      <trkpt lat="45.87258" lon="6.21118">
        <ele>632</ele>
        <time>2013-05-25T15:58:54.000Z</time>
      </trkpt>
      <trkpt lat="45.87256" lon="6.21114">
        <ele>632</ele>
        <time>2013-05-25T15:58:55.000Z</time>
      </trkpt>
      <trkpt lat="45.87254" lon="6.21111">
        <ele>632</ele>
        <time>2013-05-25T15:58:56.000Z</time>
      </trkpt>
      <trkpt lat="45.87252" lon="6.21108">
        <ele>632</ele>
        <time>2013-05-25T15:58:57.000Z</time>
      </trkpt>
      <trkpt lat="45.87251" lon="6.21104">
        <ele>631</ele>
        <time>2013-05-25T15:58:58.000Z</time>
      </trkpt>
      <trkpt lat="45.87249" lon="6.21101">
        <ele>629</ele>
        <time>2013-05-25T15:58:59.000Z</time>
      </trkpt>
      <trkpt lat="45.87247" lon="6.21098">
        <ele>629</ele>
        <time>2013-05-25T15:59:00.000Z</time>
      </trkpt>
      <trkpt lat="45.87245" lon="6.21095">
        <ele>629</ele>
        <time>2013-05-25T15:59:01.000Z</time>
      </trkpt>
      <trkpt lat="45.87243" lon="6.21091">
        <ele>629</ele>
        <time>2013-05-25T15:59:02.000Z</time>
      </trkpt>
      <trkpt lat="45.87241" lon="6.21088">
        <ele>630</ele>
        <time>2013-05-25T15:59:03.000Z</time>
      </trkpt>
      <trkpt lat="45.87239" lon="6.21085">
        <ele>629</ele>
        <time>2013-05-25T15:59:04.000Z</time>
      </trkpt>
      <trkpt lat="45.87237" lon="6.21082">
        <ele>630</ele>
        <time>2013-05-25T15:59:05.000Z</time>
      </trkpt>
      <trkpt lat="45.87235" lon="6.21079">
        <ele>630</ele>
        <time>2013-05-25T15:59:06.000Z</time>
      </trkpt>
      <trkpt lat="45.87233" lon="6.21076">
        <ele>630</ele>
        <time>2013-05-25T15:59:07.000Z</time>
      </trkpt>
      <trkpt lat="45.87231" lon="6.21073">
        <ele>630</ele>
        <time>2013-05-25T15:59:08.000Z</time>
      </trkpt>
      <trkpt lat="45.8723" lon="6.2107">
        <ele>630</ele>
        <time>2013-05-25T15:59:09.000Z</time>
      </trkpt>
      <trkpt lat="45.87228" lon="6.21067">
        <ele>630</ele>
        <time>2013-05-25T15:59:10.000Z</time>
      </trkpt>
      <trkpt lat="45.87226" lon="6.21064">
        <ele>630</ele>
        <time>2013-05-25T15:59:11.000Z</time>
      </trkpt>
      <trkpt lat="45.87224" lon="6.2106">
        <ele>630</ele>
        <time>2013-05-25T15:59:12.000Z</time>
      </trkpt>
      <trkpt lat="45.87222" lon="6.21057">
        <ele>630</ele>
        <time>2013-05-25T15:59:13.000Z</time>
      </trkpt>
      <trkpt lat="45.8722" lon="6.21054">
        <ele>630</ele>
        <time>2013-05-25T15:59:14.000Z</time>
      </trkpt>
      <trkpt lat="45.87218" lon="6.21052">
        <ele>630</ele>
        <time>2013-05-25T15:59:15.000Z</time>
      </trkpt>
      <trkpt lat="45.87216" lon="6.21049">
        <ele>630</ele>
        <time>2013-05-25T15:59:16.000Z</time>
      </trkpt>
      <trkpt lat="45.87214" lon="6.21046">
        <ele>630</ele>
        <time>2013-05-25T15:59:17.000Z</time>
      </trkpt>
      <trkpt lat="45.87212" lon="6.21043">
        <ele>630</ele>
        <time>2013-05-25T15:59:18.000Z</time>
      </trkpt>
      <trkpt lat="45.8721" lon="6.2104">
        <ele>630</ele>
        <time>2013-05-25T15:59:19.000Z</time>
      </trkpt>
      <trkpt lat="45.87208" lon="6.21037">
        <ele>630</ele>
        <time>2013-05-25T15:59:20.000Z</time>
      </trkpt>
      <trkpt lat="45.87206" lon="6.21035">
        <ele>630</ele>
        <time>2013-05-25T15:59:21.000Z</time>
      </trkpt>
      <trkpt lat="45.87205" lon="6.21032">
        <ele>630</ele>
        <time>2013-05-25T15:59:22.000Z</time>
      </trkpt>
      <trkpt lat="45.87203" lon="6.21029">
        <ele>630</ele>
        <time>2013-05-25T15:59:23.000Z</time>
      </trkpt>
      <trkpt lat="45.87201" lon="6.21026">
        <ele>630</ele>
        <time>2013-05-25T15:59:24.000Z</time>
      </trkpt>
      <trkpt lat="45.87199" lon="6.21024">
        <ele>630</ele>
        <time>2013-05-25T15:59:25.000Z</time>
      </trkpt>
      <trkpt lat="45.87197" lon="6.21021">
        <ele>629</ele>
        <time>2013-05-25T15:59:26.000Z</time>
      </trkpt>
      <trkpt lat="45.87195" lon="6.21018">
        <ele>629</ele>
        <time>2013-05-25T15:59:27.000Z</time>
      </trkpt>
      <trkpt lat="45.87193" lon="6.21015">
        <ele>629</ele>
        <time>2013-05-25T15:59:28.000Z</time>
      </trkpt>
      <trkpt lat="45.87191" lon="6.21013">
        <ele>629</ele>
        <time>2013-05-25T15:59:29.000Z</time>
      </trkpt>
      <trkpt lat="45.87189" lon="6.2101">
        <ele>629</ele>
        <time>2013-05-25T15:59:30.000Z</time>
      </trkpt>
      <trkpt lat="45.87187" lon="6.21007">
        <ele>629</ele>
        <time>2013-05-25T15:59:31.000Z</time>
      </trkpt>
      <trkpt lat="45.87185" lon="6.21005">
        <ele>629</ele>
        <time>2013-05-25T15:59:32.000Z</time>
      </trkpt>
      <trkpt lat="45.87183" lon="6.21002">
        <ele>629</ele>
        <time>2013-05-25T15:59:33.000Z</time>
      </trkpt>
      <trkpt lat="45.87181" lon="6.20999">
        <ele>631</ele>
        <time>2013-05-25T15:59:34.000Z</time>
      </trkpt>
      <trkpt lat="45.87179" lon="6.20997">
        <ele>631</ele>
        <time>2013-05-25T15:59:35.000Z</time>
      </trkpt>
      <trkpt lat="45.87176" lon="6.20994">
        <ele>631</ele>
        <time>2013-05-25T15:59:36.000Z</time>
      </trkpt>
      <trkpt lat="45.87174" lon="6.20991">
        <ele>631</ele>
        <time>2013-05-25T15:59:37.000Z</time>
      </trkpt>
      <trkpt lat="45.87172" lon="6.20988">
        <ele>631</ele>
        <time>2013-05-25T15:59:38.000Z</time>
      </trkpt>
      <trkpt lat="45.8717" lon="6.20986">
        <ele>631</ele>
        <time>2013-05-25T15:59:39.000Z</time>
      </trkpt>
      <trkpt lat="45.87168" lon="6.20983">
        <ele>631</ele>
        <time>2013-05-25T15:59:40.000Z</time>
      </trkpt>
      <trkpt lat="45.87165" lon="6.2098">
        <ele>627</ele>
        <time>2013-05-25T15:59:41.000Z</time>
      </trkpt>
      <trkpt lat="45.87163" lon="6.20977">
        <ele>627</ele>
        <time>2013-05-25T15:59:42.000Z</time>
      </trkpt>
      <trkpt lat="45.87161" lon="6.20974">
        <ele>627</ele>
        <time>2013-05-25T15:59:43.000Z</time>
      </trkpt>
      <trkpt lat="45.87159" lon="6.20971">
        <ele>627</ele>
        <time>2013-05-25T15:59:44.000Z</time>
      </trkpt>
      <trkpt lat="45.87157" lon="6.20968">
        <ele>627</ele>
        <time>2013-05-25T15:59:45.000Z</time>
      </trkpt>
      <trkpt lat="45.87155" lon="6.20966">
        <ele>627</ele>
        <time>2013-05-25T15:59:46.000Z</time>
      </trkpt>
      <trkpt lat="45.87153" lon="6.20963">
        <ele>627</ele>
        <time>2013-05-25T15:59:47.000Z</time>
      </trkpt>
      <trkpt lat="45.87151" lon="6.2096">
        <ele>627</ele>
        <time>2013-05-25T15:59:48.000Z</time>
      </trkpt>
      <trkpt lat="45.87149" lon="6.20957">
        <ele>627</ele>
        <time>2013-05-25T15:59:49.000Z</time>
      </trkpt>
      <trkpt lat="45.87147" lon="6.20954">
        <ele>627</ele>
        <time>2013-05-25T15:59:50.000Z</time>
      </trkpt>
      <trkpt lat="45.87145" lon="6.20951">
        <ele>627</ele>
        <time>2013-05-25T15:59:51.000Z</time>
      </trkpt>
      <trkpt lat="45.87143" lon="6.20949">
        <ele>627</ele>
        <time>2013-05-25T15:59:52.000Z</time>
      </trkpt>
      <trkpt lat="45.87141" lon="6.20946">
        <ele>627</ele>
        <time>2013-05-25T15:59:53.000Z</time>
      </trkpt>
      <trkpt lat="45.87139" lon="6.20943">
        <ele>627</ele>
        <time>2013-05-25T15:59:54.000Z</time>
      </trkpt>
      <trkpt lat="45.87137" lon="6.20941">
        <ele>627</ele>
        <time>2013-05-25T15:59:55.000Z</time>
      </trkpt>
      <trkpt lat="45.87134" lon="6.20938">
        <ele>627</ele>
        <time>2013-05-25T15:59:56.000Z</time>
      </trkpt>
      <trkpt lat="45.87132" lon="6.20935">
        <ele>627</ele>
        <time>2013-05-25T15:59:57.000Z</time>
      </trkpt>
      <trkpt lat="45.8713" lon="6.20932">
        <ele>627</ele>
        <time>2013-05-25T15:59:58.000Z</time>
      </trkpt>
      <trkpt lat="45.87128" lon="6.20929">
        <ele>627</ele>
        <time>2013-05-25T15:59:59.000Z</time>
      </trkpt>
      <trkpt lat="45.87126" lon="6.20926">
        <ele>627</ele>
        <time>2013-05-25T16:00:00.000Z</time>
      </trkpt>
      <trkpt lat="45.87124" lon="6.20924">
        <ele>627</ele>
        <time>2013-05-25T16:00:01.000Z</time>
      </trkpt>
      <trkpt lat="45.87122" lon="6.20921">
        <ele>627</ele>
        <time>2013-05-25T16:00:02.000Z</time>
      </trkpt>
      <trkpt lat="45.8712" lon="6.20918">
        <ele>627</ele>
        <time>2013-05-25T16:00:03.000Z</time>
      </trkpt>
      <trkpt lat="45.87118" lon="6.20915">
        <ele>631</ele>
        <time>2013-05-25T16:00:04.000Z</time>
      </trkpt>
      <trkpt lat="45.87116" lon="6.20912">
        <ele>631</ele>
        <time>2013-05-25T16:00:05.000Z</time>
      </trkpt>
      <trkpt lat="45.87114" lon="6.20909">
        <ele>631</ele>
        <time>2013-05-25T16:00:06.000Z</time>
      </trkpt>
      <trkpt lat="45.87112" lon="6.20906">
        <ele>630</ele>
        <time>2013-05-25T16:00:07.000Z</time>
      </trkpt>
      <trkpt lat="45.8711" lon="6.20904">
        <ele>630</ele>
        <time>2013-05-25T16:00:08.000Z</time>
      </trkpt>
      <trkpt lat="45.87107" lon="6.20901">
        <ele>630</ele>
        <time>2013-05-25T16:00:09.000Z</time>
      </trkpt>
      <trkpt lat="45.87105" lon="6.20898">
        <ele>630</ele>
        <time>2013-05-25T16:00:10.000Z</time>
      </trkpt>
      <trkpt lat="45.87103" lon="6.20896">
        <ele>630</ele>
        <time>2013-05-25T16:00:11.000Z</time>
      </trkpt>
      <trkpt lat="45.87101" lon="6.20893">
        <ele>630</ele>
        <time>2013-05-25T16:00:12.000Z</time>
      </trkpt>
      <trkpt lat="45.87099" lon="6.2089">
        <ele>631</ele>
        <time>2013-05-25T16:00:13.000Z</time>
      </trkpt>
      <trkpt lat="45.87097" lon="6.20887">
        <ele>631</ele>
        <time>2013-05-25T16:00:14.000Z</time>
      </trkpt>
      <trkpt lat="45.87095" lon="6.20884">
        <ele>631</ele>
        <time>2013-05-25T16:00:15.000Z</time>
      </trkpt>
      <trkpt lat="45.87093" lon="6.20881">
        <ele>631</ele>
        <time>2013-05-25T16:00:16.000Z</time>
      </trkpt>
      <trkpt lat="45.87091" lon="6.20878">
        <ele>631</ele>
        <time>2013-05-25T16:00:17.000Z</time>
      </trkpt>
      <trkpt lat="45.87089" lon="6.20875">
        <ele>631</ele>
        <time>2013-05-25T16:00:18.000Z</time>
      </trkpt>
      <trkpt lat="45.87087" lon="6.20873">
        <ele>631</ele>
        <time>2013-05-25T16:00:19.000Z</time>
      </trkpt>
      <trkpt lat="45.87085" lon="6.2087">
        <ele>632</ele>
        <time>2013-05-25T16:00:20.000Z</time>
      </trkpt>
      <trkpt lat="45.87082" lon="6.20868">
        <ele>625</ele>
        <time>2013-05-25T16:00:21.000Z</time>
      </trkpt>
      <trkpt lat="45.8708" lon="6.20865">
        <ele>626</ele>
        <time>2013-05-25T16:00:22.000Z</time>
      </trkpt>
      <trkpt lat="45.87078" lon="6.20863">
        <ele>626</ele>
        <time>2013-05-25T16:00:23.000Z</time>
      </trkpt>
      <trkpt lat="45.87075" lon="6.2086">
        <ele>626</ele>
        <time>2013-05-25T16:00:24.000Z</time>
      </trkpt>
      <trkpt lat="45.87073" lon="6.20858">
        <ele>626</ele>
        <time>2013-05-25T16:00:25.000Z</time>
      </trkpt>
      <trkpt lat="45.87071" lon="6.20856">
        <ele>626</ele>
        <time>2013-05-25T16:00:26.000Z</time>
      </trkpt>
      <trkpt lat="45.87068" lon="6.20853">
        <ele>626</ele>
        <time>2013-05-25T16:00:27.000Z</time>
      </trkpt>
      <trkpt lat="45.87066" lon="6.20851">
        <ele>626</ele>
        <time>2013-05-25T16:00:28.000Z</time>
      </trkpt>
      <trkpt lat="45.87063" lon="6.20849">
        <ele>626</ele>
        <time>2013-05-25T16:00:29.000Z</time>
      </trkpt>
      <trkpt lat="45.8706" lon="6.20848">
        <ele>626</ele>
        <time>2013-05-25T16:00:30.000Z</time>
      </trkpt>
      <trkpt lat="45.87058" lon="6.20846">
        <ele>626</ele>
        <time>2013-05-25T16:00:31.000Z</time>
      </trkpt>
      <trkpt lat="45.87055" lon="6.20845">
        <ele>625</ele>
        <time>2013-05-25T16:00:32.000Z</time>
      </trkpt>
      <trkpt lat="45.87052" lon="6.20843">
        <ele>625</ele>
        <time>2013-05-25T16:00:33.000Z</time>
      </trkpt>
      <trkpt lat="45.8705" lon="6.20842">
        <ele>625</ele>
        <time>2013-05-25T16:00:34.000Z</time>
      </trkpt>
      <trkpt lat="45.87047" lon="6.20841">
        <ele>625</ele>
        <time>2013-05-25T16:00:35.000Z</time>
      </trkpt>
      <trkpt lat="45.87044" lon="6.20839">
        <ele>624</ele>
        <time>2013-05-25T16:00:36.000Z</time>
      </trkpt>
      <trkpt lat="45.87041" lon="6.20838">
        <ele>624</ele>
        <time>2013-05-25T16:00:37.000Z</time>
      </trkpt>
      <trkpt lat="45.87038" lon="6.20837">
        <ele>624</ele>
        <time>2013-05-25T16:00:38.000Z</time>
      </trkpt>
      <trkpt lat="45.87036" lon="6.20835">
        <ele>624</ele>
        <time>2013-05-25T16:00:39.000Z</time>
      </trkpt>
      <trkpt lat="45.87033" lon="6.20835">
        <ele>624</ele>
        <time>2013-05-25T16:00:40.000Z</time>
      </trkpt>
      <trkpt lat="45.87031" lon="6.20833">
        <ele>628</ele>
        <time>2013-05-25T16:00:41.000Z</time>
      </trkpt>
      <trkpt lat="45.87028" lon="6.20832">
        <ele>628</ele>
        <time>2013-05-25T16:00:42.000Z</time>
      </trkpt>
      <trkpt lat="45.87025" lon="6.20831">
        <ele>628</ele>
        <time>2013-05-25T16:00:43.000Z</time>
      </trkpt>
      <trkpt lat="45.87022" lon="6.2083">
        <ele>627</ele>
        <time>2013-05-25T16:00:44.000Z</time>
      </trkpt>
      <trkpt lat="45.8702" lon="6.20828">
        <ele>627</ele>
        <time>2013-05-25T16:00:45.000Z</time>
      </trkpt>
      <trkpt lat="45.87017" lon="6.20827">
        <ele>627</ele>
        <time>2013-05-25T16:00:46.000Z</time>
      </trkpt>
      <trkpt lat="45.87014" lon="6.20826">
        <ele>626</ele>
        <time>2013-05-25T16:00:47.000Z</time>
      </trkpt>
      <trkpt lat="45.87012" lon="6.20824">
        <ele>626</ele>
        <time>2013-05-25T16:00:48.000Z</time>
      </trkpt>
      <trkpt lat="45.87009" lon="6.20823">
        <ele>626</ele>
        <time>2013-05-25T16:00:49.000Z</time>
      </trkpt>
      <trkpt lat="45.87006" lon="6.20821">
        <ele>626</ele>
        <time>2013-05-25T16:00:50.000Z</time>
      </trkpt>
      <trkpt lat="45.87003" lon="6.20819">
        <ele>626</ele>
        <time>2013-05-25T16:00:51.000Z</time>
      </trkpt>
      <trkpt lat="45.87001" lon="6.20817">
        <ele>626</ele>
        <time>2013-05-25T16:00:52.000Z</time>
      </trkpt>
      <trkpt lat="45.86998" lon="6.20815">
        <ele>621</ele>
        <time>2013-05-25T16:00:53.000Z</time>
      </trkpt>
      <trkpt lat="45.86996" lon="6.20814">
        <ele>621</ele>
        <time>2013-05-25T16:00:54.000Z</time>
      </trkpt>
      <trkpt lat="45.86993" lon="6.20813">
        <ele>621</ele>
        <time>2013-05-25T16:00:55.000Z</time>
      </trkpt>
      <trkpt lat="45.8699" lon="6.20811">
        <ele>620</ele>
        <time>2013-05-25T16:00:56.000Z</time>
      </trkpt>
      <trkpt lat="45.86988" lon="6.20809">
        <ele>620</ele>
        <time>2013-05-25T16:00:57.000Z</time>
      </trkpt>
      <trkpt lat="45.86986" lon="6.20807">
        <ele>620</ele>
        <time>2013-05-25T16:00:58.000Z</time>
      </trkpt>
      <trkpt lat="45.86983" lon="6.20805">
        <ele>620</ele>
        <time>2013-05-25T16:00:59.000Z</time>
      </trkpt>
      <trkpt lat="45.8698" lon="6.20802">
        <ele>620</ele>
        <time>2013-05-25T16:01:00.000Z</time>
      </trkpt>
      <trkpt lat="45.86978" lon="6.20801">
        <ele>620</ele>
        <time>2013-05-25T16:01:01.000Z</time>
      </trkpt>
      <trkpt lat="45.86975" lon="6.20799">
        <ele>620</ele>
        <time>2013-05-25T16:01:02.000Z</time>
      </trkpt>
      <trkpt lat="45.86973" lon="6.20796">
        <ele>620</ele>
        <time>2013-05-25T16:01:03.000Z</time>
      </trkpt>
      <trkpt lat="45.86971" lon="6.20794">
        <ele>620</ele>
        <time>2013-05-25T16:01:04.000Z</time>
      </trkpt>
      <trkpt lat="45.86968" lon="6.20792">
        <ele>620</ele>
        <time>2013-05-25T16:01:05.000Z</time>
      </trkpt>
      <trkpt lat="45.86966" lon="6.2079">
        <ele>620</ele>
        <time>2013-05-25T16:01:06.000Z</time>
      </trkpt>
      <trkpt lat="45.86964" lon="6.20787">
        <ele>619</ele>
        <time>2013-05-25T16:01:07.000Z</time>
      </trkpt>
      <trkpt lat="45.86962" lon="6.20785">
        <ele>619</ele>
        <time>2013-05-25T16:01:08.000Z</time>
      </trkpt>
      <trkpt lat="45.86959" lon="6.20783">
        <ele>619</ele>
        <time>2013-05-25T16:01:09.000Z</time>
      </trkpt>
      <trkpt lat="45.86957" lon="6.2078">
        <ele>619</ele>
        <time>2013-05-25T16:01:10.000Z</time>
      </trkpt>
      <trkpt lat="45.86955" lon="6.20778">
        <ele>619</ele>
        <time>2013-05-25T16:01:11.000Z</time>
      </trkpt>
      <trkpt lat="45.86952" lon="6.20775">
        <ele>619</ele>
        <time>2013-05-25T16:01:12.000Z</time>
      </trkpt>
      <trkpt lat="45.8695" lon="6.20773">
        <ele>619</ele>
        <time>2013-05-25T16:01:13.000Z</time>
      </trkpt>
      <trkpt lat="45.86948" lon="6.2077">
        <ele>619</ele>
        <time>2013-05-25T16:01:14.000Z</time>
      </trkpt>
      <trkpt lat="45.86945" lon="6.20768">
        <ele>618</ele>
        <time>2013-05-25T16:01:15.000Z</time>
      </trkpt>
      <trkpt lat="45.86943" lon="6.20766">
        <ele>618</ele>
        <time>2013-05-25T16:01:16.000Z</time>
      </trkpt>
      <trkpt lat="45.86941" lon="6.20764">
        <ele>618</ele>
        <time>2013-05-25T16:01:17.000Z</time>
      </trkpt>
      <trkpt lat="45.86939" lon="6.20761">
        <ele>618</ele>
        <time>2013-05-25T16:01:18.000Z</time>
      </trkpt>
      <trkpt lat="45.86936" lon="6.20759">
        <ele>618</ele>
        <time>2013-05-25T16:01:19.000Z</time>
      </trkpt>
      <trkpt lat="45.86934" lon="6.20756">
        <ele>617</ele>
        <time>2013-05-25T16:01:20.000Z</time>
      </trkpt>
      <trkpt lat="45.86932" lon="6.20754">
        <ele>617</ele>
        <time>2013-05-25T16:01:21.000Z</time>
      </trkpt>
      <trkpt lat="45.86929" lon="6.20751">
        <ele>617</ele>
        <time>2013-05-25T16:01:22.000Z</time>
      </trkpt>
      <trkpt lat="45.86927" lon="6.20748">
        <ele>619</ele>
        <time>2013-05-25T16:01:23.000Z</time>
      </trkpt>
      <trkpt lat="45.86924" lon="6.20746">
        <ele>618</ele>
        <time>2013-05-25T16:01:24.000Z</time>
      </trkpt>
      <trkpt lat="45.86922" lon="6.20743">
        <ele>618</ele>
        <time>2013-05-25T16:01:25.000Z</time>
      </trkpt>
      <trkpt lat="45.8692" lon="6.20741">
        <ele>618</ele>
        <time>2013-05-25T16:01:26.000Z</time>
      </trkpt>
      <trkpt lat="45.86917" lon="6.20738">
        <ele>619</ele>
        <time>2013-05-25T16:01:27.000Z</time>
      </trkpt>
      <trkpt lat="45.86915" lon="6.20735">
        <ele>613</ele>
        <time>2013-05-25T16:01:28.000Z</time>
      </trkpt>
      <trkpt lat="45.86914" lon="6.20732">
        <ele>613</ele>
        <time>2013-05-25T16:01:29.000Z</time>
      </trkpt>
      <trkpt lat="45.86911" lon="6.20729">
        <ele>613</ele>
        <time>2013-05-25T16:01:30.000Z</time>
      </trkpt>
      <trkpt lat="45.86909" lon="6.20726">
        <ele>613</ele>
        <time>2013-05-25T16:01:31.000Z</time>
      </trkpt>
      <trkpt lat="45.86907" lon="6.20723">
        <ele>613</ele>
        <time>2013-05-25T16:01:32.000Z</time>
      </trkpt>
      <trkpt lat="45.86905" lon="6.2072">
        <ele>613</ele>
        <time>2013-05-25T16:01:33.000Z</time>
      </trkpt>
      <trkpt lat="45.86903" lon="6.20717">
        <ele>613</ele>
        <time>2013-05-25T16:01:34.000Z</time>
      </trkpt>
      <trkpt lat="45.86901" lon="6.20714">
        <ele>613</ele>
        <time>2013-05-25T16:01:35.000Z</time>
      </trkpt>
      <trkpt lat="45.86899" lon="6.20711">
        <ele>613</ele>
        <time>2013-05-25T16:01:36.000Z</time>
      </trkpt>
      <trkpt lat="45.86898" lon="6.20707">
        <ele>613</ele>
        <time>2013-05-25T16:01:37.000Z</time>
      </trkpt>
      <trkpt lat="45.86896" lon="6.20704">
        <ele>613</ele>
        <time>2013-05-25T16:01:38.000Z</time>
      </trkpt>
      <trkpt lat="45.86894" lon="6.20701">
        <ele>613</ele>
        <time>2013-05-25T16:01:39.000Z</time>
      </trkpt>
      <trkpt lat="45.86892" lon="6.20697">
        <ele>613</ele>
        <time>2013-05-25T16:01:40.000Z</time>
      </trkpt>
      <trkpt lat="45.8689" lon="6.20694">
        <ele>613</ele>
        <time>2013-05-25T16:01:41.000Z</time>
      </trkpt>
      <trkpt lat="45.86888" lon="6.20691">
        <ele>613</ele>
        <time>2013-05-25T16:01:42.000Z</time>
      </trkpt>
      <trkpt lat="45.86886" lon="6.20687">
        <ele>613</ele>
        <time>2013-05-25T16:01:43.000Z</time>
      </trkpt>
      <trkpt lat="45.86884" lon="6.20684">
        <ele>613</ele>
        <time>2013-05-25T16:01:44.000Z</time>
      </trkpt>
      <trkpt lat="45.86882" lon="6.2068">
        <ele>613</ele>
        <time>2013-05-25T16:01:45.000Z</time>
      </trkpt>
      <trkpt lat="45.8688" lon="6.20677">
        <ele>612</ele>
        <time>2013-05-25T16:01:46.000Z</time>
      </trkpt>
      <trkpt lat="45.86879" lon="6.20673">
        <ele>612</ele>
        <time>2013-05-25T16:01:47.000Z</time>
      </trkpt>
      <trkpt lat="45.86877" lon="6.20669">
        <ele>612</ele>
        <time>2013-05-25T16:01:48.000Z</time>
      </trkpt>
      <trkpt lat="45.86876" lon="6.20666">
        <ele>615</ele>
        <time>2013-05-25T16:01:49.000Z</time>
      </trkpt>
      <trkpt lat="45.86874" lon="6.20662">
        <ele>614</ele>
        <time>2013-05-25T16:01:50.000Z</time>
      </trkpt>
      <trkpt lat="45.86873" lon="6.20658">
        <ele>614</ele>
        <time>2013-05-25T16:01:51.000Z</time>
      </trkpt>
      <trkpt lat="45.86871" lon="6.20655">
        <ele>614</ele>
        <time>2013-05-25T16:01:52.000Z</time>
      </trkpt>
      <trkpt lat="45.8687" lon="6.20651">
        <ele>614</ele>
        <time>2013-05-25T16:01:53.000Z</time>
      </trkpt>
      <trkpt lat="45.86869" lon="6.20647">
        <ele>614</ele>
        <time>2013-05-25T16:01:54.000Z</time>
      </trkpt>
      <trkpt lat="45.86867" lon="6.20644">
        <ele>614</ele>
        <time>2013-05-25T16:01:55.000Z</time>
      </trkpt>
      <trkpt lat="45.86866" lon="6.2064">
        <ele>614</ele>
        <time>2013-05-25T16:01:56.000Z</time>
      </trkpt>
      <trkpt lat="45.86865" lon="6.20636">
        <ele>614</ele>
        <time>2013-05-25T16:01:57.000Z</time>
      </trkpt>
      <trkpt lat="45.86864" lon="6.20632">
        <ele>614</ele>
        <time>2013-05-25T16:01:58.000Z</time>
      </trkpt>
      <trkpt lat="45.86863" lon="6.20627">
        <ele>614</ele>
        <time>2013-05-25T16:01:59.000Z</time>
      </trkpt>
      <trkpt lat="45.86862" lon="6.20624">
        <ele>614</ele>
        <time>2013-05-25T16:02:00.000Z</time>
      </trkpt>
      <trkpt lat="45.86861" lon="6.2062">
        <ele>614</ele>
        <time>2013-05-25T16:02:01.000Z</time>
      </trkpt>
      <trkpt lat="45.8686" lon="6.20616">
        <ele>614</ele>
        <time>2013-05-25T16:02:02.000Z</time>
      </trkpt>
      <trkpt lat="45.86859" lon="6.20612">
        <ele>614</ele>
        <time>2013-05-25T16:02:03.000Z</time>
      </trkpt>
      <trkpt lat="45.86858" lon="6.20608">
        <ele>614</ele>
        <time>2013-05-25T16:02:04.000Z</time>
      </trkpt>
      <trkpt lat="45.86858" lon="6.20604">
        <ele>614</ele>
        <time>2013-05-25T16:02:05.000Z</time>
      </trkpt>
      <trkpt lat="45.86857" lon="6.206">
        <ele>614</ele>
        <time>2013-05-25T16:02:06.000Z</time>
      </trkpt>
      <trkpt lat="45.86857" lon="6.20595">
        <ele>613</ele>
        <time>2013-05-25T16:02:07.000Z</time>
      </trkpt>
      <trkpt lat="45.86857" lon="6.20591">
        <ele>613</ele>
        <time>2013-05-25T16:02:08.000Z</time>
      </trkpt>
      <trkpt lat="45.86856" lon="6.20587">
        <ele>613</ele>
        <time>2013-05-25T16:02:09.000Z</time>
      </trkpt>
      <trkpt lat="45.86855" lon="6.20583">
        <ele>615</ele>
        <time>2013-05-25T16:02:10.000Z</time>
      </trkpt>
      <trkpt lat="45.86855" lon="6.20579">
        <ele>615</ele>
        <time>2013-05-25T16:02:11.000Z</time>
      </trkpt>
      <trkpt lat="45.86855" lon="6.20575">
        <ele>615</ele>
        <time>2013-05-25T16:02:12.000Z</time>
      </trkpt>
      <trkpt lat="45.86854" lon="6.2057">
        <ele>615</ele>
        <time>2013-05-25T16:02:13.000Z</time>
      </trkpt>
      <trkpt lat="45.86854" lon="6.20566">
        <ele>616</ele>
        <time>2013-05-25T16:02:14.000Z</time>
      </trkpt>
      <trkpt lat="45.86854" lon="6.20562">
        <ele>616</ele>
        <time>2013-05-25T16:02:15.000Z</time>
      </trkpt>
      <trkpt lat="45.86854" lon="6.20558">
        <ele>616</ele>
        <time>2013-05-25T16:02:16.000Z</time>
      </trkpt>
      <trkpt lat="45.86853" lon="6.20554">
        <ele>616</ele>
        <time>2013-05-25T16:02:17.000Z</time>
      </trkpt>
      <trkpt lat="45.86853" lon="6.20549">
        <ele>616</ele>
        <time>2013-05-25T16:02:18.000Z</time>
      </trkpt>
      <trkpt lat="45.86853" lon="6.20546">
        <ele>617</ele>
        <time>2013-05-25T16:02:19.000Z</time>
      </trkpt>
      <trkpt lat="45.86852" lon="6.20541">
        <ele>617</ele>
        <time>2013-05-25T16:02:20.000Z</time>
      </trkpt>
      <trkpt lat="45.86852" lon="6.20537">
        <ele>617</ele>
        <time>2013-05-25T16:02:21.000Z</time>
      </trkpt>
      <trkpt lat="45.86851" lon="6.20533">
        <ele>617</ele>
        <time>2013-05-25T16:02:22.000Z</time>
      </trkpt>
      <trkpt lat="45.86851" lon="6.20528">
        <ele>616</ele>
        <time>2013-05-25T16:02:23.000Z</time>
      </trkpt>
      <trkpt lat="45.8685" lon="6.20524">
        <ele>616</ele>
        <time>2013-05-25T16:02:24.000Z</time>
      </trkpt>
      <trkpt lat="45.8685" lon="6.2052">
        <ele>616</ele>
        <time>2013-05-25T16:02:25.000Z</time>
      </trkpt>
      <trkpt lat="45.86849" lon="6.20516">
        <ele>615</ele>
        <time>2013-05-25T16:02:26.000Z</time>
      </trkpt>
      <trkpt lat="45.86849" lon="6.20511">
        <ele>615</ele>
        <time>2013-05-25T16:02:27.000Z</time>
      </trkpt>
      <trkpt lat="45.86848" lon="6.20507">
        <ele>615</ele>
        <time>2013-05-25T16:02:28.000Z</time>
      </trkpt>
      <trkpt lat="45.86847" lon="6.20503">
        <ele>614</ele>
        <time>2013-05-25T16:02:29.000Z</time>
      </trkpt>
      <trkpt lat="45.86846" lon="6.20499">
        <ele>617</ele>
        <time>2013-05-25T16:02:30.000Z</time>
      </trkpt>
      <trkpt lat="45.86845" lon="6.20496">
        <ele>617</ele>
        <time>2013-05-25T16:02:31.000Z</time>
      </trkpt>
      <trkpt lat="45.86844" lon="6.20492">
        <ele>618</ele>
        <time>2013-05-25T16:02:32.000Z</time>
      </trkpt>
      <trkpt lat="45.86843" lon="6.20488">
        <ele>619</ele>
        <time>2013-05-25T16:02:33.000Z</time>
      </trkpt>
      <trkpt lat="45.86842" lon="6.20484">
        <ele>620</ele>
        <time>2013-05-25T16:02:34.000Z</time>
      </trkpt>
      <trkpt lat="45.8684" lon="6.2048">
        <ele>620</ele>
        <time>2013-05-25T16:02:35.000Z</time>
      </trkpt>
      <trkpt lat="45.86839" lon="6.20476">
        <ele>621</ele>
        <time>2013-05-25T16:02:36.000Z</time>
      </trkpt>
      <trkpt lat="45.86837" lon="6.20473">
        <ele>622</ele>
        <time>2013-05-25T16:02:37.000Z</time>
      </trkpt>
      <trkpt lat="45.86835" lon="6.20469">
        <ele>623</ele>
        <time>2013-05-25T16:02:38.000Z</time>
      </trkpt>
      <trkpt lat="45.86834" lon="6.20466">
        <ele>623</ele>
        <time>2013-05-25T16:02:39.000Z</time>
      </trkpt>
      <trkpt lat="45.86832" lon="6.20463">
        <ele>608</ele>
        <time>2013-05-25T16:02:40.000Z</time>
      </trkpt>
      <trkpt lat="45.8683" lon="6.2046">
        <ele>608</ele>
        <time>2013-05-25T16:02:41.000Z</time>
      </trkpt>
      <trkpt lat="45.86828" lon="6.20456">
        <ele>609</ele>
        <time>2013-05-25T16:02:42.000Z</time>
      </trkpt>
      <trkpt lat="45.86826" lon="6.20454">
        <ele>609</ele>
        <time>2013-05-25T16:02:43.000Z</time>
      </trkpt>
      <trkpt lat="45.86824" lon="6.20451">
        <ele>609</ele>
        <time>2013-05-25T16:02:44.000Z</time>
      </trkpt>
      <trkpt lat="45.86822" lon="6.20448">
        <ele>609</ele>
        <time>2013-05-25T16:02:45.000Z</time>
      </trkpt>
      <trkpt lat="45.8682" lon="6.20445">
        <ele>609</ele>
        <time>2013-05-25T16:02:46.000Z</time>
      </trkpt>
      <trkpt lat="45.86817" lon="6.20442">
        <ele>609</ele>
        <time>2013-05-25T16:02:47.000Z</time>
      </trkpt>
      <trkpt lat="45.86815" lon="6.2044">
        <ele>609</ele>
        <time>2013-05-25T16:02:48.000Z</time>
      </trkpt>
      <trkpt lat="45.86813" lon="6.20437">
        <ele>609</ele>
        <time>2013-05-25T16:02:49.000Z</time>
      </trkpt>
      <trkpt lat="45.86812" lon="6.20434">
        <ele>610</ele>
        <time>2013-05-25T16:02:50.000Z</time>
      </trkpt>
      <trkpt lat="45.8681" lon="6.20432">
        <ele>609</ele>
        <time>2013-05-25T16:02:51.000Z</time>
      </trkpt>
      <trkpt lat="45.86808" lon="6.20429">
        <ele>609</ele>
        <time>2013-05-25T16:02:52.000Z</time>
      </trkpt>
      <trkpt lat="45.86806" lon="6.20427">
        <ele>609</ele>
        <time>2013-05-25T16:02:53.000Z</time>
      </trkpt>
      <trkpt lat="45.86804" lon="6.20425">
        <ele>608</ele>
        <time>2013-05-25T16:02:54.000Z</time>
      </trkpt>
      <trkpt lat="45.86802" lon="6.20423">
        <ele>608</ele>
        <time>2013-05-25T16:02:55.000Z</time>
      </trkpt>
      <trkpt lat="45.868" lon="6.20422">
        <ele>607</ele>
        <time>2013-05-25T16:02:56.000Z</time>
      </trkpt>
      <trkpt lat="45.86797" lon="6.2042">
        <ele>607</ele>
        <time>2013-05-25T16:02:57.000Z</time>
      </trkpt>
      <trkpt lat="45.86795" lon="6.20417">
        <ele>606</ele>
        <time>2013-05-25T16:02:58.000Z</time>
      </trkpt>
      <trkpt lat="45.86792" lon="6.20415">
        <ele>612</ele>
        <time>2013-05-25T16:02:59.000Z</time>
      </trkpt>
      <trkpt lat="45.8679" lon="6.20413">
        <ele>612</ele>
        <time>2013-05-25T16:03:00.000Z</time>
      </trkpt>
      <trkpt lat="45.86788" lon="6.2041">
        <ele>611</ele>
        <time>2013-05-25T16:03:01.000Z</time>
      </trkpt>
      <trkpt lat="45.86786" lon="6.20407">
        <ele>611</ele>
        <time>2013-05-25T16:03:02.000Z</time>
      </trkpt>
      <trkpt lat="45.86784" lon="6.20404">
        <ele>611</ele>
        <time>2013-05-25T16:03:03.000Z</time>
      </trkpt>
      <trkpt lat="45.86782" lon="6.20401">
        <ele>610</ele>
        <time>2013-05-25T16:03:04.000Z</time>
      </trkpt>
      <trkpt lat="45.8678" lon="6.20399">
        <ele>610</ele>
        <time>2013-05-25T16:03:05.000Z</time>
      </trkpt>
      <trkpt lat="45.86778" lon="6.20396">
        <ele>610</ele>
        <time>2013-05-25T16:03:06.000Z</time>
      </trkpt>
      <trkpt lat="45.86776" lon="6.20393">
        <ele>610</ele>
        <time>2013-05-25T16:03:07.000Z</time>
      </trkpt>
      <trkpt lat="45.86774" lon="6.2039">
        <ele>610</ele>
        <time>2013-05-25T16:03:08.000Z</time>
      </trkpt>
      <trkpt lat="45.86771" lon="6.20387">
        <ele>610</ele>
        <time>2013-05-25T16:03:09.000Z</time>
      </trkpt>
      <trkpt lat="45.86769" lon="6.20384">
        <ele>610</ele>
        <time>2013-05-25T16:03:10.000Z</time>
      </trkpt>
      <trkpt lat="45.86766" lon="6.20381">
        <ele>610</ele>
        <time>2013-05-25T16:03:11.000Z</time>
      </trkpt>
      <trkpt lat="45.86764" lon="6.20378">
        <ele>610</ele>
        <time>2013-05-25T16:03:12.000Z</time>
      </trkpt>
      <trkpt lat="45.86762" lon="6.20375">
        <ele>610</ele>
        <time>2013-05-25T16:03:13.000Z</time>
      </trkpt>
      <trkpt lat="45.86761" lon="6.20371">
        <ele>610</ele>
        <time>2013-05-25T16:03:14.000Z</time>
      </trkpt>
      <trkpt lat="45.86759" lon="6.20368">
        <ele>610</ele>
        <time>2013-05-25T16:03:15.000Z</time>
      </trkpt>
      <trkpt lat="45.86758" lon="6.20364">
        <ele>610</ele>
        <time>2013-05-25T16:03:16.000Z</time>
      </trkpt>
      <trkpt lat="45.86757" lon="6.2036">
        <ele>610</ele>
        <time>2013-05-25T16:03:17.000Z</time>
      </trkpt>
      <trkpt lat="45.86755" lon="6.20356">
        <ele>610</ele>
        <time>2013-05-25T16:03:18.000Z</time>
      </trkpt>
      <trkpt lat="45.86754" lon="6.20352">
        <ele>609</ele>
        <time>2013-05-25T16:03:19.000Z</time>
      </trkpt>
      <trkpt lat="45.86752" lon="6.20349">
        <ele>609</ele>
        <time>2013-05-25T16:03:20.000Z</time>
      </trkpt>
      <trkpt lat="45.86751" lon="6.20345">
        <ele>608</ele>
        <time>2013-05-25T16:03:21.000Z</time>
      </trkpt>
      <trkpt lat="45.86749" lon="6.20341">
        <ele>598</ele>
        <time>2013-05-25T16:03:22.000Z</time>
      </trkpt>
      <trkpt lat="45.86748" lon="6.20338">
        <ele>600</ele>
        <time>2013-05-25T16:03:23.000Z</time>
      </trkpt>
      <trkpt lat="45.86746" lon="6.20335">
        <ele>600</ele>
        <time>2013-05-25T16:03:24.000Z</time>
      </trkpt>
      <trkpt lat="45.86744" lon="6.20332">
        <ele>602</ele>
        <time>2013-05-25T16:03:25.000Z</time>
      </trkpt>
      <trkpt lat="45.86742" lon="6.20329">
        <ele>602</ele>
        <time>2013-05-25T16:03:26.000Z</time>
      </trkpt>
      <trkpt lat="45.8674" lon="6.20326">
        <ele>601</ele>
        <time>2013-05-25T16:03:27.000Z</time>
      </trkpt>
      <trkpt lat="45.86738" lon="6.20323">
        <ele>601</ele>
        <time>2013-05-25T16:03:28.000Z</time>
      </trkpt>
      <trkpt lat="45.86736" lon="6.2032">
        <ele>600</ele>
        <time>2013-05-25T16:03:29.000Z</time>
      </trkpt>
      <trkpt lat="45.86734" lon="6.20316">
        <ele>600</ele>
        <time>2013-05-25T16:03:30.000Z</time>
      </trkpt>
      <trkpt lat="45.86732" lon="6.20313">
        <ele>599</ele>
        <time>2013-05-25T16:03:31.000Z</time>
      </trkpt>
      <trkpt lat="45.8673" lon="6.20311">
        <ele>599</ele>
        <time>2013-05-25T16:03:32.000Z</time>
      </trkpt>
      <trkpt lat="45.86728" lon="6.20308">
        <ele>599</ele>
        <time>2013-05-25T16:03:33.000Z</time>
      </trkpt>
      <trkpt lat="45.86726" lon="6.20305">
        <ele>599</ele>
        <time>2013-05-25T16:03:34.000Z</time>
      </trkpt>
      <trkpt lat="45.86723" lon="6.20302">
        <ele>599</ele>
        <time>2013-05-25T16:03:35.000Z</time>
      </trkpt>
      <trkpt lat="45.86722" lon="6.20299">
        <ele>599</ele>
        <time>2013-05-25T16:03:36.000Z</time>
      </trkpt>
      <trkpt lat="45.8672" lon="6.20296">
        <ele>598</ele>
        <time>2013-05-25T16:03:37.000Z</time>
      </trkpt>
      <trkpt lat="45.86717" lon="6.20294">
        <ele>598</ele>
        <time>2013-05-25T16:03:38.000Z</time>
      </trkpt>
      <trkpt lat="45.86716" lon="6.20291">
        <ele>598</ele>
        <time>2013-05-25T16:03:39.000Z</time>
      </trkpt>
      <trkpt lat="45.86713" lon="6.20289">
        <ele>598</ele>
        <time>2013-05-25T16:03:40.000Z</time>
      </trkpt>
      <trkpt lat="45.86711" lon="6.20286">
        <ele>598</ele>
        <time>2013-05-25T16:03:41.000Z</time>
      </trkpt>
      <trkpt lat="45.86709" lon="6.20283">
        <ele>598</ele>
        <time>2013-05-25T16:03:42.000Z</time>
      </trkpt>
      <trkpt lat="45.86707" lon="6.2028">
        <ele>598</ele>
        <time>2013-05-25T16:03:43.000Z</time>
      </trkpt>
      <trkpt lat="45.86705" lon="6.20278">
        <ele>598</ele>
        <time>2013-05-25T16:03:44.000Z</time>
      </trkpt>
      <trkpt lat="45.86703" lon="6.20275">
        <ele>598</ele>
        <time>2013-05-25T16:03:45.000Z</time>
      </trkpt>
      <trkpt lat="45.86701" lon="6.20271">
        <ele>597</ele>
        <time>2013-05-25T16:03:46.000Z</time>
      </trkpt>
      <trkpt lat="45.86699" lon="6.20268">
        <ele>597</ele>
        <time>2013-05-25T16:03:47.000Z</time>
      </trkpt>
      <trkpt lat="45.86697" lon="6.20265">
        <ele>597</ele>
        <time>2013-05-25T16:03:48.000Z</time>
      </trkpt>
      <trkpt lat="45.86695" lon="6.20261">
        <ele>597</ele>
        <time>2013-05-25T16:03:49.000Z</time>
      </trkpt>
      <trkpt lat="45.86694" lon="6.20258">
        <ele>597</ele>
        <time>2013-05-25T16:03:50.000Z</time>
      </trkpt>
      <trkpt lat="45.86692" lon="6.20255">
        <ele>597</ele>
        <time>2013-05-25T16:03:51.000Z</time>
      </trkpt>
      <trkpt lat="45.86691" lon="6.20251">
        <ele>596</ele>
        <time>2013-05-25T16:03:52.000Z</time>
      </trkpt>
      <trkpt lat="45.8669" lon="6.20248">
        <ele>605</ele>
        <time>2013-05-25T16:03:53.000Z</time>
      </trkpt>
      <trkpt lat="45.86689" lon="6.20244">
        <ele>605</ele>
        <time>2013-05-25T16:03:54.000Z</time>
      </trkpt>
      <trkpt lat="45.86687" lon="6.2024">
        <ele>605</ele>
        <time>2013-05-25T16:03:55.000Z</time>
      </trkpt>
      <trkpt lat="45.86686" lon="6.20236">
        <ele>605</ele>
        <time>2013-05-25T16:03:56.000Z</time>
      </trkpt>
      <trkpt lat="45.86685" lon="6.20232">
        <ele>606</ele>
        <time>2013-05-25T16:03:57.000Z</time>
      </trkpt>
      <trkpt lat="45.86684" lon="6.20228">
        <ele>606</ele>
        <time>2013-05-25T16:03:58.000Z</time>
      </trkpt>
      <trkpt lat="45.86683" lon="6.20224">
        <ele>607</ele>
        <time>2013-05-25T16:03:59.000Z</time>
      </trkpt>
      <trkpt lat="45.86681" lon="6.2022">
        <ele>607</ele>
        <time>2013-05-25T16:04:00.000Z</time>
      </trkpt>
      <trkpt lat="45.8668" lon="6.20216">
        <ele>607</ele>
        <time>2013-05-25T16:04:01.000Z</time>
      </trkpt>
      <trkpt lat="45.86679" lon="6.20212">
        <ele>608</ele>
        <time>2013-05-25T16:04:02.000Z</time>
      </trkpt>
      <trkpt lat="45.86678" lon="6.20208">
        <ele>608</ele>
        <time>2013-05-25T16:04:03.000Z</time>
      </trkpt>
      <trkpt lat="45.86677" lon="6.20204">
        <ele>608</ele>
        <time>2013-05-25T16:04:04.000Z</time>
      </trkpt>
      <trkpt lat="45.86676" lon="6.202">
        <ele>608</ele>
        <time>2013-05-25T16:04:05.000Z</time>
      </trkpt>
      <trkpt lat="45.86674" lon="6.20196">
        <ele>608</ele>
        <time>2013-05-25T16:04:06.000Z</time>
      </trkpt>
      <trkpt lat="45.86673" lon="6.20192">
        <ele>607</ele>
        <time>2013-05-25T16:04:07.000Z</time>
      </trkpt>
      <trkpt lat="45.86672" lon="6.20188">
        <ele>607</ele>
        <time>2013-05-25T16:04:08.000Z</time>
      </trkpt>
      <trkpt lat="45.86671" lon="6.20184">
        <ele>606</ele>
        <time>2013-05-25T16:04:09.000Z</time>
      </trkpt>
      <trkpt lat="45.8667" lon="6.20179">
        <ele>605</ele>
        <time>2013-05-25T16:04:10.000Z</time>
      </trkpt>
      <trkpt lat="45.86669" lon="6.20175">
        <ele>603</ele>
        <time>2013-05-25T16:04:11.000Z</time>
      </trkpt>
      <trkpt lat="45.86667" lon="6.20171">
        <ele>601</ele>
        <time>2013-05-25T16:04:12.000Z</time>
      </trkpt>
      <trkpt lat="45.86666" lon="6.20167">
        <ele>599</ele>
        <time>2013-05-25T16:04:13.000Z</time>
      </trkpt>
      <trkpt lat="45.86665" lon="6.20163">
        <ele>598</ele>
        <time>2013-05-25T16:04:14.000Z</time>
      </trkpt>
      <trkpt lat="45.86664" lon="6.20159">
        <ele>597</ele>
        <time>2013-05-25T16:04:15.000Z</time>
      </trkpt>
      <trkpt lat="45.86663" lon="6.20155">
        <ele>597</ele>
        <time>2013-05-25T16:04:16.000Z</time>
      </trkpt>
      <trkpt lat="45.86662" lon="6.20151">
        <ele>597</ele>
        <time>2013-05-25T16:04:17.000Z</time>
      </trkpt>
      <trkpt lat="45.8666" lon="6.20148">
        <ele>597</ele>
        <time>2013-05-25T16:04:18.000Z</time>
      </trkpt>
      <trkpt lat="45.86659" lon="6.20144">
        <ele>597</ele>
        <time>2013-05-25T16:04:19.000Z</time>
      </trkpt>
      <trkpt lat="45.86657" lon="6.2014">
        <ele>597</ele>
        <time>2013-05-25T16:04:20.000Z</time>
      </trkpt>
      <trkpt lat="45.86655" lon="6.20136">
        <ele>597</ele>
        <time>2013-05-25T16:04:21.000Z</time>
      </trkpt>
      <trkpt lat="45.86654" lon="6.20133">
        <ele>597</ele>
        <time>2013-05-25T16:04:22.000Z</time>
      </trkpt>
      <trkpt lat="45.86652" lon="6.20129">
        <ele>598</ele>
        <time>2013-05-25T16:04:23.000Z</time>
      </trkpt>
      <trkpt lat="45.86651" lon="6.20125">
        <ele>598</ele>
        <time>2013-05-25T16:04:24.000Z</time>
      </trkpt>
      <trkpt lat="45.86649" lon="6.20121">
        <ele>599</ele>
        <time>2013-05-25T16:04:25.000Z</time>
      </trkpt>
      <trkpt lat="45.86648" lon="6.20117">
        <ele>599</ele>
        <time>2013-05-25T16:04:26.000Z</time>
      </trkpt>
      <trkpt lat="45.86647" lon="6.20113">
        <ele>600</ele>
        <time>2013-05-25T16:04:27.000Z</time>
      </trkpt>
      <trkpt lat="45.86646" lon="6.2011">
        <ele>601</ele>
        <time>2013-05-25T16:04:28.000Z</time>
      </trkpt>
      <trkpt lat="45.86644" lon="6.20106">
        <ele>601</ele>
        <time>2013-05-25T16:04:29.000Z</time>
      </trkpt>
      <trkpt lat="45.86642" lon="6.20103">
        <ele>601</ele>
        <time>2013-05-25T16:04:30.000Z</time>
      </trkpt>
      <trkpt lat="45.8664" lon="6.20099">
        <ele>602</ele>
        <time>2013-05-25T16:04:31.000Z</time>
      </trkpt>
      <trkpt lat="45.86638" lon="6.20095">
        <ele>601</ele>
        <time>2013-05-25T16:04:32.000Z</time>
      </trkpt>
      <trkpt lat="45.86637" lon="6.20092">
        <ele>601</ele>
        <time>2013-05-25T16:04:33.000Z</time>
      </trkpt>
      <trkpt lat="45.86635" lon="6.20088">
        <ele>601</ele>
        <time>2013-05-25T16:04:34.000Z</time>
      </trkpt>
      <trkpt lat="45.86634" lon="6.20085">
        <ele>600</ele>
        <time>2013-05-25T16:04:35.000Z</time>
      </trkpt>
      <trkpt lat="45.86633" lon="6.20081">
        <ele>610</ele>
        <time>2013-05-25T16:04:36.000Z</time>
      </trkpt>
      <trkpt lat="45.86631" lon="6.20078">
        <ele>610</ele>
        <time>2013-05-25T16:04:37.000Z</time>
      </trkpt>
      <trkpt lat="45.86629" lon="6.20074">
        <ele>609</ele>
        <time>2013-05-25T16:04:38.000Z</time>
      </trkpt>
      <trkpt lat="45.86627" lon="6.20071">
        <ele>608</ele>
        <time>2013-05-25T16:04:39.000Z</time>
      </trkpt>
      <trkpt lat="45.86626" lon="6.20067">
        <ele>608</ele>
        <time>2013-05-25T16:04:40.000Z</time>
      </trkpt>
      <trkpt lat="45.86625" lon="6.20063">
        <ele>608</ele>
        <time>2013-05-25T16:04:41.000Z</time>
      </trkpt>
      <trkpt lat="45.86623" lon="6.20059">
        <ele>607</ele>
        <time>2013-05-25T16:04:42.000Z</time>
      </trkpt>
      <trkpt lat="45.86622" lon="6.20055">
        <ele>607</ele>
        <time>2013-05-25T16:04:43.000Z</time>
      </trkpt>
      <trkpt lat="45.8662" lon="6.20051">
        <ele>607</ele>
        <time>2013-05-25T16:04:44.000Z</time>
      </trkpt>
      <trkpt lat="45.86619" lon="6.20047">
        <ele>607</ele>
        <time>2013-05-25T16:04:45.000Z</time>
      </trkpt>
      <trkpt lat="45.86618" lon="6.20043">
        <ele>607</ele>
        <time>2013-05-25T16:04:46.000Z</time>
      </trkpt>
      <trkpt lat="45.86616" lon="6.2004">
        <ele>607</ele>
        <time>2013-05-25T16:04:47.000Z</time>
      </trkpt>
      <trkpt lat="45.86614" lon="6.20036">
        <ele>606</ele>
        <time>2013-05-25T16:04:48.000Z</time>
      </trkpt>
      <trkpt lat="45.86613" lon="6.20032">
        <ele>606</ele>
        <time>2013-05-25T16:04:49.000Z</time>
      </trkpt>
      <trkpt lat="45.86612" lon="6.20028">
        <ele>606</ele>
        <time>2013-05-25T16:04:50.000Z</time>
      </trkpt>
      <trkpt lat="45.8661" lon="6.20024">
        <ele>605</ele>
        <time>2013-05-25T16:04:51.000Z</time>
      </trkpt>
      <trkpt lat="45.86609" lon="6.2002">
        <ele>605</ele>
        <time>2013-05-25T16:04:52.000Z</time>
      </trkpt>
      <trkpt lat="45.86607" lon="6.20016">
        <ele>604</ele>
        <time>2013-05-25T16:04:53.000Z</time>
      </trkpt>
      <trkpt lat="45.86606" lon="6.20012">
        <ele>603</ele>
        <time>2013-05-25T16:04:54.000Z</time>
      </trkpt>
      <trkpt lat="45.86605" lon="6.20008">
        <ele>602</ele>
        <time>2013-05-25T16:04:55.000Z</time>
      </trkpt>
      <trkpt lat="45.86604" lon="6.20004">
        <ele>602</ele>
        <time>2013-05-25T16:04:56.000Z</time>
      </trkpt>
      <trkpt lat="45.86603" lon="6.2">
        <ele>605</ele>
        <time>2013-05-25T16:04:57.000Z</time>
      </trkpt>
      <trkpt lat="45.86601" lon="6.19996">
        <ele>604</ele>
        <time>2013-05-25T16:04:58.000Z</time>
      </trkpt>
      <trkpt lat="45.86601" lon="6.19991">
        <ele>605</ele>
        <time>2013-05-25T16:04:59.000Z</time>
      </trkpt>
      <trkpt lat="45.86599" lon="6.19987">
        <ele>605</ele>
        <time>2013-05-25T16:05:00.000Z</time>
      </trkpt>
      <trkpt lat="45.86598" lon="6.19983">
        <ele>605</ele>
        <time>2013-05-25T16:05:01.000Z</time>
      </trkpt>
      <trkpt lat="45.86597" lon="6.19979">
        <ele>606</ele>
        <time>2013-05-25T16:05:02.000Z</time>
      </trkpt>
      <trkpt lat="45.86595" lon="6.19975">
        <ele>607</ele>
        <time>2013-05-25T16:05:03.000Z</time>
      </trkpt>
      <trkpt lat="45.86594" lon="6.19971">
        <ele>607</ele>
        <time>2013-05-25T16:05:04.000Z</time>
      </trkpt>
      <trkpt lat="45.86593" lon="6.19967">
        <ele>607</ele>
        <time>2013-05-25T16:05:05.000Z</time>
      </trkpt>
      <trkpt lat="45.86592" lon="6.19963">
        <ele>608</ele>
        <time>2013-05-25T16:05:06.000Z</time>
      </trkpt>
      <trkpt lat="45.86592" lon="6.19958">
        <ele>608</ele>
        <time>2013-05-25T16:05:07.000Z</time>
      </trkpt>
      <trkpt lat="45.86591" lon="6.19954">
        <ele>608</ele>
        <time>2013-05-25T16:05:08.000Z</time>
      </trkpt>
      <trkpt lat="45.86591" lon="6.19949">
        <ele>607</ele>
        <time>2013-05-25T16:05:09.000Z</time>
      </trkpt>
      <trkpt lat="45.86591" lon="6.19944">
        <ele>606</ele>
        <time>2013-05-25T16:05:10.000Z</time>
      </trkpt>
      <trkpt lat="45.8659" lon="6.19939">
        <ele>605</ele>
        <time>2013-05-25T16:05:11.000Z</time>
      </trkpt>
      <trkpt lat="45.8659" lon="6.19935">
        <ele>603</ele>
        <time>2013-05-25T16:05:12.000Z</time>
      </trkpt>
      <trkpt lat="45.8659" lon="6.19931">
        <ele>601</ele>
        <time>2013-05-25T16:05:13.000Z</time>
      </trkpt>
      <trkpt lat="45.8659" lon="6.19926">
        <ele>599</ele>
        <time>2013-05-25T16:05:14.000Z</time>
      </trkpt>
      <trkpt lat="45.8659" lon="6.19922">
        <ele>596</ele>
        <time>2013-05-25T16:05:15.000Z</time>
      </trkpt>
      <trkpt lat="45.8659" lon="6.19917">
        <ele>595</ele>
        <time>2013-05-25T16:05:16.000Z</time>
      </trkpt>
      <trkpt lat="45.8659" lon="6.19913">
        <ele>596</ele>
        <time>2013-05-25T16:05:17.000Z</time>
      </trkpt>
      <trkpt lat="45.86591" lon="6.19909">
        <ele>598</ele>
        <time>2013-05-25T16:05:18.000Z</time>
      </trkpt>
      <trkpt lat="45.86591" lon="6.19905">
        <ele>600</ele>
        <time>2013-05-25T16:05:19.000Z</time>
      </trkpt>
      <trkpt lat="45.86592" lon="6.19901">
        <ele>601</ele>
        <time>2013-05-25T16:05:20.000Z</time>
      </trkpt>
      <trkpt lat="45.86592" lon="6.19898">
        <ele>603</ele>
        <time>2013-05-25T16:05:21.000Z</time>
      </trkpt>
      <trkpt lat="45.86593" lon="6.19894">
        <ele>604</ele>
        <time>2013-05-25T16:05:22.000Z</time>
      </trkpt>
      <trkpt lat="45.86593" lon="6.1989">
        <ele>605</ele>
        <time>2013-05-25T16:05:23.000Z</time>
      </trkpt>
      <trkpt lat="45.86593" lon="6.19886">
        <ele>606</ele>
        <time>2013-05-25T16:05:24.000Z</time>
      </trkpt>
      <trkpt lat="45.86593" lon="6.19881">
        <ele>606</ele>
        <time>2013-05-25T16:05:25.000Z</time>
      </trkpt>
      <trkpt lat="45.86594" lon="6.19877">
        <ele>606</ele>
        <time>2013-05-25T16:05:26.000Z</time>
      </trkpt>
      <trkpt lat="45.86594" lon="6.19873">
        <ele>606</ele>
        <time>2013-05-25T16:05:27.000Z</time>
      </trkpt>
      <trkpt lat="45.86594" lon="6.19869">
        <ele>606</ele>
        <time>2013-05-25T16:05:28.000Z</time>
      </trkpt>
      <trkpt lat="45.86594" lon="6.19865">
        <ele>605</ele>
        <time>2013-05-25T16:05:29.000Z</time>
      </trkpt>
      <trkpt lat="45.86594" lon="6.19861">
        <ele>604</ele>
        <time>2013-05-25T16:05:30.000Z</time>
      </trkpt>
      <trkpt lat="45.86594" lon="6.19858">
        <ele>604</ele>
        <time>2013-05-25T16:05:31.000Z</time>
      </trkpt>
      <trkpt lat="45.86594" lon="6.19853">
        <ele>602</ele>
        <time>2013-05-25T16:05:32.000Z</time>
      </trkpt>
      <trkpt lat="45.86595" lon="6.1985">
        <ele>601</ele>
        <time>2013-05-25T16:05:33.000Z</time>
      </trkpt>
      <trkpt lat="45.86596" lon="6.19846">
        <ele>600</ele>
        <time>2013-05-25T16:05:34.000Z</time>
      </trkpt>
      <trkpt lat="45.86596" lon="6.19841">
        <ele>599</ele>
        <time>2013-05-25T16:05:35.000Z</time>
      </trkpt>
      <trkpt lat="45.86596" lon="6.19837">
        <ele>597</ele>
        <time>2013-05-25T16:05:36.000Z</time>
      </trkpt>
      <trkpt lat="45.86596" lon="6.19833">
        <ele>595</ele>
        <time>2013-05-25T16:05:37.000Z</time>
      </trkpt>
      <trkpt lat="45.86595" lon="6.19828">
        <ele>595</ele>
        <time>2013-05-25T16:05:38.000Z</time>
      </trkpt>
      <trkpt lat="45.86595" lon="6.19823">
        <ele>596</ele>
        <time>2013-05-25T16:05:39.000Z</time>
      </trkpt>
      <trkpt lat="45.86595" lon="6.19819">
        <ele>597</ele>
        <time>2013-05-25T16:05:40.000Z</time>
      </trkpt>
      <trkpt lat="45.86595" lon="6.19815">
        <ele>599</ele>
        <time>2013-05-25T16:05:41.000Z</time>
      </trkpt>
      <trkpt lat="45.86595" lon="6.19811">
        <ele>599</ele>
        <time>2013-05-25T16:05:42.000Z</time>
      </trkpt>
      <trkpt lat="45.86595" lon="6.19806">
        <ele>600</ele>
        <time>2013-05-25T16:05:43.000Z</time>
      </trkpt>
      <trkpt lat="45.86595" lon="6.19802">
        <ele>601</ele>
        <time>2013-05-25T16:05:44.000Z</time>
      </trkpt>
      <trkpt lat="45.86595" lon="6.19798">
        <ele>601</ele>
        <time>2013-05-25T16:05:45.000Z</time>
      </trkpt>
      <trkpt lat="45.86594" lon="6.19794">
        <ele>601</ele>
        <time>2013-05-25T16:05:46.000Z</time>
      </trkpt>
      <trkpt lat="45.86594" lon="6.19789">
        <ele>600</ele>
        <time>2013-05-25T16:05:47.000Z</time>
      </trkpt>
      <trkpt lat="45.86593" lon="6.19785">
        <ele>600</ele>
        <time>2013-05-25T16:05:48.000Z</time>
      </trkpt>
      <trkpt lat="45.86593" lon="6.1978">
        <ele>599</ele>
        <time>2013-05-25T16:05:49.000Z</time>
      </trkpt>
      <trkpt lat="45.86593" lon="6.19776">
        <ele>598</ele>
        <time>2013-05-25T16:05:50.000Z</time>
      </trkpt>
      <trkpt lat="45.86593" lon="6.19771">
        <ele>597</ele>
        <time>2013-05-25T16:05:51.000Z</time>
      </trkpt>
      <trkpt lat="45.86593" lon="6.19767">
        <ele>595</ele>
        <time>2013-05-25T16:05:52.000Z</time>
      </trkpt>
      <trkpt lat="45.86593" lon="6.19763">
        <ele>593</ele>
        <time>2013-05-25T16:05:53.000Z</time>
      </trkpt>
      <trkpt lat="45.86592" lon="6.19758">
        <ele>591</ele>
        <time>2013-05-25T16:05:54.000Z</time>
      </trkpt>
      <trkpt lat="45.86592" lon="6.19754">
        <ele>589</ele>
        <time>2013-05-25T16:05:55.000Z</time>
      </trkpt>
      <trkpt lat="45.86592" lon="6.1975">
        <ele>587</ele>
        <time>2013-05-25T16:05:56.000Z</time>
      </trkpt>
      <trkpt lat="45.86592" lon="6.19746">
        <ele>587</ele>
        <time>2013-05-25T16:05:57.000Z</time>
      </trkpt>
      <trkpt lat="45.86592" lon="6.19742">
        <ele>589</ele>
        <time>2013-05-25T16:05:58.000Z</time>
      </trkpt>
      <trkpt lat="45.86592" lon="6.19737">
        <ele>590</ele>
        <time>2013-05-25T16:05:59.000Z</time>
      </trkpt>
      <trkpt lat="45.86593" lon="6.19733">
        <ele>592</ele>
        <time>2013-05-25T16:06:00.000Z</time>
      </trkpt>
      <trkpt lat="45.86592" lon="6.19729">
        <ele>593</ele>
        <time>2013-05-25T16:06:01.000Z</time>
      </trkpt>
      <trkpt lat="45.86592" lon="6.19726">
        <ele>593</ele>
        <time>2013-05-25T16:06:02.000Z</time>
      </trkpt>
      <trkpt lat="45.86592" lon="6.19722">
        <ele>594</ele>
        <time>2013-05-25T16:06:03.000Z</time>
      </trkpt>
      <trkpt lat="45.86591" lon="6.19718">
        <ele>594</ele>
        <time>2013-05-25T16:06:04.000Z</time>
      </trkpt>
      <trkpt lat="45.86591" lon="6.19715">
        <ele>594</ele>
        <time>2013-05-25T16:06:05.000Z</time>
      </trkpt>
      <trkpt lat="45.86591" lon="6.19711">
        <ele>594</ele>
        <time>2013-05-25T16:06:06.000Z</time>
      </trkpt>
      <trkpt lat="45.86591" lon="6.19707">
        <ele>594</ele>
        <time>2013-05-25T16:06:07.000Z</time>
      </trkpt>
      <trkpt lat="45.86591" lon="6.19703">
        <ele>594</ele>
        <time>2013-05-25T16:06:08.000Z</time>
      </trkpt>
      <trkpt lat="45.86591" lon="6.19699">
        <ele>593</ele>
        <time>2013-05-25T16:06:09.000Z</time>
      </trkpt>
      <trkpt lat="45.86591" lon="6.19694">
        <ele>592</ele>
        <time>2013-05-25T16:06:10.000Z</time>
      </trkpt>
      <trkpt lat="45.86592" lon="6.19689">
        <ele>591</ele>
        <time>2013-05-25T16:06:11.000Z</time>
      </trkpt>
      <trkpt lat="45.86592" lon="6.19684">
        <ele>589</ele>
        <time>2013-05-25T16:06:12.000Z</time>
      </trkpt>
      <trkpt lat="45.86592" lon="6.19679">
        <ele>587</ele>
        <time>2013-05-25T16:06:13.000Z</time>
      </trkpt>
      <trkpt lat="45.86592" lon="6.19674">
        <ele>584</ele>
        <time>2013-05-25T16:06:14.000Z</time>
      </trkpt>
      <trkpt lat="45.86593" lon="6.19668">
        <ele>583</ele>
        <time>2013-05-25T16:06:15.000Z</time>
      </trkpt>
      <trkpt lat="45.86593" lon="6.19663">
        <ele>581</ele>
        <time>2013-05-25T16:06:16.000Z</time>
      </trkpt>
      <trkpt lat="45.86594" lon="6.19659">
        <ele>582</ele>
        <time>2013-05-25T16:06:17.000Z</time>
      </trkpt>
      <trkpt lat="45.86594" lon="6.19654">
        <ele>584</ele>
        <time>2013-05-25T16:06:18.000Z</time>
      </trkpt>
      <trkpt lat="45.86595" lon="6.1965">
        <ele>585</ele>
        <time>2013-05-25T16:06:19.000Z</time>
      </trkpt>
      <trkpt lat="45.86596" lon="6.19646">
        <ele>586</ele>
        <time>2013-05-25T16:06:20.000Z</time>
      </trkpt>
      <trkpt lat="45.86596" lon="6.19641">
        <ele>586</ele>
        <time>2013-05-25T16:06:21.000Z</time>
      </trkpt>
      <trkpt lat="45.86596" lon="6.19638">
        <ele>587</ele>
        <time>2013-05-25T16:06:22.000Z</time>
      </trkpt>
      <trkpt lat="45.86597" lon="6.19634">
        <ele>587</ele>
        <time>2013-05-25T16:06:23.000Z</time>
      </trkpt>
      <trkpt lat="45.86597" lon="6.19629">
        <ele>587</ele>
        <time>2013-05-25T16:06:24.000Z</time>
      </trkpt>
      <trkpt lat="45.86598" lon="6.19625">
        <ele>587</ele>
        <time>2013-05-25T16:06:25.000Z</time>
      </trkpt>
      <trkpt lat="45.86598" lon="6.19621">
        <ele>587</ele>
        <time>2013-05-25T16:06:26.000Z</time>
      </trkpt>
      <trkpt lat="45.86599" lon="6.19616">
        <ele>586</ele>
        <time>2013-05-25T16:06:27.000Z</time>
      </trkpt>
      <trkpt lat="45.86599" lon="6.19612">
        <ele>586</ele>
        <time>2013-05-25T16:06:28.000Z</time>
      </trkpt>
      <trkpt lat="45.86599" lon="6.19608">
        <ele>585</ele>
        <time>2013-05-25T16:06:29.000Z</time>
      </trkpt>
      <trkpt lat="45.866" lon="6.19604">
        <ele>584</ele>
        <time>2013-05-25T16:06:30.000Z</time>
      </trkpt>
      <trkpt lat="45.86601" lon="6.196">
        <ele>583</ele>
        <time>2013-05-25T16:06:31.000Z</time>
      </trkpt>
      <trkpt lat="45.86601" lon="6.19595">
        <ele>583</ele>
        <time>2013-05-25T16:06:32.000Z</time>
      </trkpt>
      <trkpt lat="45.86602" lon="6.19591">
        <ele>582</ele>
        <time>2013-05-25T16:06:33.000Z</time>
      </trkpt>
      <trkpt lat="45.86602" lon="6.19587">
        <ele>582</ele>
        <time>2013-05-25T16:06:34.000Z</time>
      </trkpt>
      <trkpt lat="45.86603" lon="6.19582">
        <ele>576</ele>
        <time>2013-05-25T16:06:35.000Z</time>
      </trkpt>
      <trkpt lat="45.86604" lon="6.19578">
        <ele>576</ele>
        <time>2013-05-25T16:06:36.000Z</time>
      </trkpt>
      <trkpt lat="45.86605" lon="6.19573">
        <ele>577</ele>
        <time>2013-05-25T16:06:37.000Z</time>
      </trkpt>
      <trkpt lat="45.86605" lon="6.19568">
        <ele>577</ele>
        <time>2013-05-25T16:06:38.000Z</time>
      </trkpt>
      <trkpt lat="45.86606" lon="6.19564">
        <ele>578</ele>
        <time>2013-05-25T16:06:39.000Z</time>
      </trkpt>
      <trkpt lat="45.86607" lon="6.1956">
        <ele>578</ele>
        <time>2013-05-25T16:06:40.000Z</time>
      </trkpt>
      <trkpt lat="45.86608" lon="6.19555">
        <ele>578</ele>
        <time>2013-05-25T16:06:41.000Z</time>
      </trkpt>
      <trkpt lat="45.86609" lon="6.19551">
        <ele>578</ele>
        <time>2013-05-25T16:06:42.000Z</time>
      </trkpt>
      <trkpt lat="45.86609" lon="6.19547">
        <ele>578</ele>
        <time>2013-05-25T16:06:43.000Z</time>
      </trkpt>
      <trkpt lat="45.8661" lon="6.19543">
        <ele>578</ele>
        <time>2013-05-25T16:06:44.000Z</time>
      </trkpt>
      <trkpt lat="45.86612" lon="6.19538">
        <ele>578</ele>
        <time>2013-05-25T16:06:45.000Z</time>
      </trkpt>
      <trkpt lat="45.86613" lon="6.19533">
        <ele>578</ele>
        <time>2013-05-25T16:06:46.000Z</time>
      </trkpt>
      <trkpt lat="45.86614" lon="6.19529">
        <ele>577</ele>
        <time>2013-05-25T16:06:47.000Z</time>
      </trkpt>
      <trkpt lat="45.86615" lon="6.19525">
        <ele>577</ele>
        <time>2013-05-25T16:06:48.000Z</time>
      </trkpt>
      <trkpt lat="45.86616" lon="6.19521">
        <ele>577</ele>
        <time>2013-05-25T16:06:49.000Z</time>
      </trkpt>
      <trkpt lat="45.86617" lon="6.19516">
        <ele>576</ele>
        <time>2013-05-25T16:06:50.000Z</time>
      </trkpt>
      <trkpt lat="45.86618" lon="6.19512">
        <ele>576</ele>
        <time>2013-05-25T16:06:51.000Z</time>
      </trkpt>
      <trkpt lat="45.86619" lon="6.19508">
        <ele>577</ele>
        <time>2013-05-25T16:06:52.000Z</time>
      </trkpt>
      <trkpt lat="45.8662" lon="6.19504">
        <ele>577</ele>
        <time>2013-05-25T16:06:53.000Z</time>
      </trkpt>
      <trkpt lat="45.86621" lon="6.195">
        <ele>577</ele>
        <time>2013-05-25T16:06:54.000Z</time>
      </trkpt>
      <trkpt lat="45.86622" lon="6.19496">
        <ele>568</ele>
        <time>2013-05-25T16:06:55.000Z</time>
      </trkpt>
      <trkpt lat="45.86624" lon="6.19492">
        <ele>568</ele>
        <time>2013-05-25T16:06:56.000Z</time>
      </trkpt>
      <trkpt lat="45.86625" lon="6.19488">
        <ele>568</ele>
        <time>2013-05-25T16:06:57.000Z</time>
      </trkpt>
      <trkpt lat="45.86626" lon="6.19484">
        <ele>568</ele>
        <time>2013-05-25T16:06:58.000Z</time>
      </trkpt>
      <trkpt lat="45.86628" lon="6.19479">
        <ele>568</ele>
        <time>2013-05-25T16:06:59.000Z</time>
      </trkpt>
      <trkpt lat="45.86629" lon="6.19475">
        <ele>568</ele>
        <time>2013-05-25T16:07:00.000Z</time>
      </trkpt>
      <trkpt lat="45.86631" lon="6.19471">
        <ele>568</ele>
        <time>2013-05-25T16:07:01.000Z</time>
      </trkpt>
      <trkpt lat="45.86632" lon="6.19467">
        <ele>568</ele>
        <time>2013-05-25T16:07:02.000Z</time>
      </trkpt>
      <trkpt lat="45.86634" lon="6.19464">
        <ele>568</ele>
        <time>2013-05-25T16:07:03.000Z</time>
      </trkpt>
      <trkpt lat="45.86635" lon="6.1946">
        <ele>568</ele>
        <time>2013-05-25T16:07:04.000Z</time>
      </trkpt>
      <trkpt lat="45.86637" lon="6.19456">
        <ele>568</ele>
        <time>2013-05-25T16:07:05.000Z</time>
      </trkpt>
      <trkpt lat="45.86639" lon="6.19453">
        <ele>568</ele>
        <time>2013-05-25T16:07:06.000Z</time>
      </trkpt>
      <trkpt lat="45.8664" lon="6.19449">
        <ele>568</ele>
        <time>2013-05-25T16:07:07.000Z</time>
      </trkpt>
      <trkpt lat="45.86641" lon="6.19445">
        <ele>568</ele>
        <time>2013-05-25T16:07:08.000Z</time>
      </trkpt>
      <trkpt lat="45.86643" lon="6.1944">
        <ele>568</ele>
        <time>2013-05-25T16:07:09.000Z</time>
      </trkpt>
      <trkpt lat="45.86644" lon="6.19436">
        <ele>568</ele>
        <time>2013-05-25T16:07:10.000Z</time>
      </trkpt>
      <trkpt lat="45.86645" lon="6.19431">
        <ele>568</ele>
        <time>2013-05-25T16:07:11.000Z</time>
      </trkpt>
      <trkpt lat="45.86647" lon="6.19427">
        <ele>569</ele>
        <time>2013-05-25T16:07:12.000Z</time>
      </trkpt>
      <trkpt lat="45.86648" lon="6.19423">
        <ele>569</ele>
        <time>2013-05-25T16:07:13.000Z</time>
      </trkpt>
      <trkpt lat="45.8665" lon="6.19419">
        <ele>569</ele>
        <time>2013-05-25T16:07:14.000Z</time>
      </trkpt>
      <trkpt lat="45.86652" lon="6.19416">
        <ele>564</ele>
        <time>2013-05-25T16:07:15.000Z</time>
      </trkpt>
      <trkpt lat="45.86653" lon="6.19412">
        <ele>564</ele>
        <time>2013-05-25T16:07:16.000Z</time>
      </trkpt>
      <trkpt lat="45.86655" lon="6.19408">
        <ele>564</ele>
        <time>2013-05-25T16:07:17.000Z</time>
      </trkpt>
      <trkpt lat="45.86657" lon="6.19404">
        <ele>563</ele>
        <time>2013-05-25T16:07:18.000Z</time>
      </trkpt>
      <trkpt lat="45.86659" lon="6.19401">
        <ele>562</ele>
        <time>2013-05-25T16:07:19.000Z</time>
      </trkpt>
      <trkpt lat="45.86661" lon="6.19397">
        <ele>562</ele>
        <time>2013-05-25T16:07:20.000Z</time>
      </trkpt>
      <trkpt lat="45.86663" lon="6.19394">
        <ele>561</ele>
        <time>2013-05-25T16:07:21.000Z</time>
      </trkpt>
      <trkpt lat="45.86665" lon="6.1939">
        <ele>560</ele>
        <time>2013-05-25T16:07:22.000Z</time>
      </trkpt>
      <trkpt lat="45.86667" lon="6.19387">
        <ele>559</ele>
        <time>2013-05-25T16:07:23.000Z</time>
      </trkpt>
      <trkpt lat="45.86668" lon="6.19384">
        <ele>581</ele>
        <time>2013-05-25T16:07:24.000Z</time>
      </trkpt>
      <trkpt lat="45.8667" lon="6.1938">
        <ele>581</ele>
        <time>2013-05-25T16:07:25.000Z</time>
      </trkpt>
      <trkpt lat="45.86672" lon="6.19376">
        <ele>581</ele>
        <time>2013-05-25T16:07:26.000Z</time>
      </trkpt>
      <trkpt lat="45.86674" lon="6.19373">
        <ele>581</ele>
        <time>2013-05-25T16:07:27.000Z</time>
      </trkpt>
      <trkpt lat="45.86676" lon="6.1937">
        <ele>580</ele>
        <time>2013-05-25T16:07:28.000Z</time>
      </trkpt>
      <trkpt lat="45.86678" lon="6.19367">
        <ele>580</ele>
        <time>2013-05-25T16:07:29.000Z</time>
      </trkpt>
      <trkpt lat="45.8668" lon="6.19364">
        <ele>580</ele>
        <time>2013-05-25T16:07:30.000Z</time>
      </trkpt>
      <trkpt lat="45.86682" lon="6.19361">
        <ele>579</ele>
        <time>2013-05-25T16:07:31.000Z</time>
      </trkpt>
      <trkpt lat="45.86683" lon="6.19358">
        <ele>579</ele>
        <time>2013-05-25T16:07:32.000Z</time>
      </trkpt>
      <trkpt lat="45.86684" lon="6.19354">
        <ele>578</ele>
        <time>2013-05-25T16:07:33.000Z</time>
      </trkpt>
      <trkpt lat="45.86686" lon="6.19351">
        <ele>578</ele>
        <time>2013-05-25T16:07:34.000Z</time>
      </trkpt>
      <trkpt lat="45.86687" lon="6.19347">
        <ele>577</ele>
        <time>2013-05-25T16:07:35.000Z</time>
      </trkpt>
      <trkpt lat="45.86689" lon="6.19344">
        <ele>577</ele>
        <time>2013-05-25T16:07:36.000Z</time>
      </trkpt>
      <trkpt lat="45.8669" lon="6.1934">
        <ele>578</ele>
        <time>2013-05-25T16:07:37.000Z</time>
      </trkpt>
      <trkpt lat="45.86692" lon="6.19337">
        <ele>578</ele>
        <time>2013-05-25T16:07:38.000Z</time>
      </trkpt>
      <trkpt lat="45.86694" lon="6.19334">
        <ele>579</ele>
        <time>2013-05-25T16:07:39.000Z</time>
      </trkpt>
      <trkpt lat="45.86695" lon="6.19331">
        <ele>568</ele>
        <time>2013-05-25T16:07:40.000Z</time>
      </trkpt>
      <trkpt lat="45.86697" lon="6.19328">
        <ele>568</ele>
        <time>2013-05-25T16:07:41.000Z</time>
      </trkpt>
      <trkpt lat="45.86699" lon="6.19325">
        <ele>568</ele>
        <time>2013-05-25T16:07:42.000Z</time>
      </trkpt>
      <trkpt lat="45.867" lon="6.19322">
        <ele>569</ele>
        <time>2013-05-25T16:07:43.000Z</time>
      </trkpt>
      <trkpt lat="45.86702" lon="6.19318">
        <ele>569</ele>
        <time>2013-05-25T16:07:44.000Z</time>
      </trkpt>
      <trkpt lat="45.86704" lon="6.19315">
        <ele>569</ele>
        <time>2013-05-25T16:07:45.000Z</time>
      </trkpt>
      <trkpt lat="45.86706" lon="6.19312">
        <ele>570</ele>
        <time>2013-05-25T16:07:46.000Z</time>
      </trkpt>
      <trkpt lat="45.86708" lon="6.19309">
        <ele>570</ele>
        <time>2013-05-25T16:07:47.000Z</time>
      </trkpt>
      <trkpt lat="45.8671" lon="6.19306">
        <ele>570</ele>
        <time>2013-05-25T16:07:48.000Z</time>
      </trkpt>
      <trkpt lat="45.86712" lon="6.19302">
        <ele>570</ele>
        <time>2013-05-25T16:07:49.000Z</time>
      </trkpt>
      <trkpt lat="45.86715" lon="6.19298">
        <ele>570</ele>
        <time>2013-05-25T16:07:50.000Z</time>
      </trkpt>
      <trkpt lat="45.86717" lon="6.19295">
        <ele>570</ele>
        <time>2013-05-25T16:07:51.000Z</time>
      </trkpt>
      <trkpt lat="45.86719" lon="6.19291">
        <ele>570</ele>
        <time>2013-05-25T16:07:52.000Z</time>
      </trkpt>
      <trkpt lat="45.86721" lon="6.19288">
        <ele>570</ele>
        <time>2013-05-25T16:07:53.000Z</time>
      </trkpt>
      <trkpt lat="45.86724" lon="6.19284">
        <ele>570</ele>
        <time>2013-05-25T16:07:54.000Z</time>
      </trkpt>
      <trkpt lat="45.86726" lon="6.1928">
        <ele>570</ele>
        <time>2013-05-25T16:07:55.000Z</time>
      </trkpt>
      <trkpt lat="45.86728" lon="6.19276">
        <ele>570</ele>
        <time>2013-05-25T16:07:56.000Z</time>
      </trkpt>
      <trkpt lat="45.8673" lon="6.19273">
        <ele>570</ele>
        <time>2013-05-25T16:07:57.000Z</time>
      </trkpt>
      <trkpt lat="45.86732" lon="6.1927">
        <ele>570</ele>
        <time>2013-05-25T16:07:58.000Z</time>
      </trkpt>
      <trkpt lat="45.86734" lon="6.19267">
        <ele>570</ele>
        <time>2013-05-25T16:07:59.000Z</time>
      </trkpt>
      <trkpt lat="45.86736" lon="6.19263">
        <ele>570</ele>
        <time>2013-05-25T16:08:00.000Z</time>
      </trkpt>
      <trkpt lat="45.86738" lon="6.19259">
        <ele>571</ele>
        <time>2013-05-25T16:08:01.000Z</time>
      </trkpt>
      <trkpt lat="45.8674" lon="6.19255">
        <ele>571</ele>
        <time>2013-05-25T16:08:02.000Z</time>
      </trkpt>
      <trkpt lat="45.86742" lon="6.19252">
        <ele>572</ele>
        <time>2013-05-25T16:08:03.000Z</time>
      </trkpt>
      <trkpt lat="45.86744" lon="6.19247">
        <ele>567</ele>
        <time>2013-05-25T16:08:04.000Z</time>
      </trkpt>
      <trkpt lat="45.86746" lon="6.19244">
        <ele>567</ele>
        <time>2013-05-25T16:08:05.000Z</time>
      </trkpt>
      <trkpt lat="45.86748" lon="6.19241">
        <ele>565</ele>
        <time>2013-05-25T16:08:06.000Z</time>
      </trkpt>
      <trkpt lat="45.8675" lon="6.19237">
        <ele>563</ele>
        <time>2013-05-25T16:08:07.000Z</time>
      </trkpt>
      <trkpt lat="45.86752" lon="6.19234">
        <ele>578</ele>
        <time>2013-05-25T16:08:08.000Z</time>
      </trkpt>
      <trkpt lat="45.86754" lon="6.1923">
        <ele>578</ele>
        <time>2013-05-25T16:08:09.000Z</time>
      </trkpt>
      <trkpt lat="45.86756" lon="6.19226">
        <ele>579</ele>
        <time>2013-05-25T16:08:10.000Z</time>
      </trkpt>
      <trkpt lat="45.86757" lon="6.19222">
        <ele>579</ele>
        <time>2013-05-25T16:08:11.000Z</time>
      </trkpt>
      <trkpt lat="45.86759" lon="6.19219">
        <ele>579</ele>
        <time>2013-05-25T16:08:12.000Z</time>
      </trkpt>
      <trkpt lat="45.8676" lon="6.19216">
        <ele>579</ele>
        <time>2013-05-25T16:08:13.000Z</time>
      </trkpt>
      <trkpt lat="45.86762" lon="6.19212">
        <ele>578</ele>
        <time>2013-05-25T16:08:14.000Z</time>
      </trkpt>
      <trkpt lat="45.86763" lon="6.19208">
        <ele>578</ele>
        <time>2013-05-25T16:08:15.000Z</time>
      </trkpt>
      <trkpt lat="45.86764" lon="6.19204">
        <ele>577</ele>
        <time>2013-05-25T16:08:16.000Z</time>
      </trkpt>
      <trkpt lat="45.86766" lon="6.19201">
        <ele>577</ele>
        <time>2013-05-25T16:08:17.000Z</time>
      </trkpt>
      <trkpt lat="45.86768" lon="6.19198">
        <ele>577</ele>
        <time>2013-05-25T16:08:18.000Z</time>
      </trkpt>
      <trkpt lat="45.8677" lon="6.19195">
        <ele>577</ele>
        <time>2013-05-25T16:08:19.000Z</time>
      </trkpt>
      <trkpt lat="45.86772" lon="6.19192">
        <ele>576</ele>
        <time>2013-05-25T16:08:20.000Z</time>
      </trkpt>
      <trkpt lat="45.86774" lon="6.19188">
        <ele>576</ele>
        <time>2013-05-25T16:08:21.000Z</time>
      </trkpt>
      <trkpt lat="45.86775" lon="6.19184">
        <ele>576</ele>
        <time>2013-05-25T16:08:22.000Z</time>
      </trkpt>
      <trkpt lat="45.86777" lon="6.19181">
        <ele>576</ele>
        <time>2013-05-25T16:08:23.000Z</time>
      </trkpt>
      <trkpt lat="45.86779" lon="6.19177">
        <ele>576</ele>
        <time>2013-05-25T16:08:24.000Z</time>
      </trkpt>
      <trkpt lat="45.8678" lon="6.19173">
        <ele>576</ele>
        <time>2013-05-25T16:08:25.000Z</time>
      </trkpt>
      <trkpt lat="45.86782" lon="6.1917">
        <ele>576</ele>
        <time>2013-05-25T16:08:26.000Z</time>
      </trkpt>
      <trkpt lat="45.86784" lon="6.19167">
        <ele>577</ele>
        <time>2013-05-25T16:08:27.000Z</time>
      </trkpt>
      <trkpt lat="45.86786" lon="6.19163">
        <ele>562</ele>
        <time>2013-05-25T16:08:28.000Z</time>
      </trkpt>
      <trkpt lat="45.86788" lon="6.19159">
        <ele>563</ele>
        <time>2013-05-25T16:08:29.000Z</time>
      </trkpt>
      <trkpt lat="45.8679" lon="6.19156">
        <ele>563</ele>
        <time>2013-05-25T16:08:30.000Z</time>
      </trkpt>
      <trkpt lat="45.86792" lon="6.19153">
        <ele>563</ele>
        <time>2013-05-25T16:08:31.000Z</time>
      </trkpt>
      <trkpt lat="45.86794" lon="6.19149">
        <ele>564</ele>
        <time>2013-05-25T16:08:32.000Z</time>
      </trkpt>
      <trkpt lat="45.86797" lon="6.19147">
        <ele>564</ele>
        <time>2013-05-25T16:08:33.000Z</time>
      </trkpt>
      <trkpt lat="45.86799" lon="6.19144">
        <ele>565</ele>
        <time>2013-05-25T16:08:34.000Z</time>
      </trkpt>
      <trkpt lat="45.86802" lon="6.1914">
        <ele>565</ele>
        <time>2013-05-25T16:08:35.000Z</time>
      </trkpt>
      <trkpt lat="45.86804" lon="6.19138">
        <ele>565</ele>
        <time>2013-05-25T16:08:36.000Z</time>
      </trkpt>
      <trkpt lat="45.86807" lon="6.19134">
        <ele>565</ele>
        <time>2013-05-25T16:08:37.000Z</time>
      </trkpt>
      <trkpt lat="45.86809" lon="6.19131">
        <ele>565</ele>
        <time>2013-05-25T16:08:38.000Z</time>
      </trkpt>
      <trkpt lat="45.86812" lon="6.19129">
        <ele>564</ele>
        <time>2013-05-25T16:08:39.000Z</time>
      </trkpt>
      <trkpt lat="45.86814" lon="6.19126">
        <ele>564</ele>
        <time>2013-05-25T16:08:40.000Z</time>
      </trkpt>
      <trkpt lat="45.86816" lon="6.19123">
        <ele>564</ele>
        <time>2013-05-25T16:08:41.000Z</time>
      </trkpt>
      <trkpt lat="45.86818" lon="6.19119">
        <ele>563</ele>
        <time>2013-05-25T16:08:42.000Z</time>
      </trkpt>
      <trkpt lat="45.8682" lon="6.19115">
        <ele>563</ele>
        <time>2013-05-25T16:08:43.000Z</time>
      </trkpt>
      <trkpt lat="45.86821" lon="6.19111">
        <ele>562</ele>
        <time>2013-05-25T16:08:44.000Z</time>
      </trkpt>
      <trkpt lat="45.86823" lon="6.19107">
        <ele>562</ele>
        <time>2013-05-25T16:08:45.000Z</time>
      </trkpt>
      <trkpt lat="45.86825" lon="6.19103">
        <ele>562</ele>
        <time>2013-05-25T16:08:46.000Z</time>
      </trkpt>
      <trkpt lat="45.86827" lon="6.19099">
        <ele>562</ele>
        <time>2013-05-25T16:08:47.000Z</time>
      </trkpt>
      <trkpt lat="45.86829" lon="6.19095">
        <ele>562</ele>
        <time>2013-05-25T16:08:48.000Z</time>
      </trkpt>
      <trkpt lat="45.8683" lon="6.19091">
        <ele>562</ele>
        <time>2013-05-25T16:08:49.000Z</time>
      </trkpt>
      <trkpt lat="45.86832" lon="6.19087">
        <ele>562</ele>
        <time>2013-05-25T16:08:50.000Z</time>
      </trkpt>
      <trkpt lat="45.86834" lon="6.19083">
        <ele>562</ele>
        <time>2013-05-25T16:08:51.000Z</time>
      </trkpt>
      <trkpt lat="45.86835" lon="6.19079">
        <ele>563</ele>
        <time>2013-05-25T16:08:52.000Z</time>
      </trkpt>
      <trkpt lat="45.86837" lon="6.19075">
        <ele>564</ele>
        <time>2013-05-25T16:08:53.000Z</time>
      </trkpt>
      <trkpt lat="45.86839" lon="6.19072">
        <ele>565</ele>
        <time>2013-05-25T16:08:54.000Z</time>
      </trkpt>
      <trkpt lat="45.86841" lon="6.19068">
        <ele>565</ele>
        <time>2013-05-25T16:08:55.000Z</time>
      </trkpt>
      <trkpt lat="45.86842" lon="6.19064">
        <ele>565</ele>
        <time>2013-05-25T16:08:56.000Z</time>
      </trkpt>
      <trkpt lat="45.86844" lon="6.19061">
        <ele>565</ele>
        <time>2013-05-25T16:08:57.000Z</time>
      </trkpt>
      <trkpt lat="45.86846" lon="6.19057">
        <ele>565</ele>
        <time>2013-05-25T16:08:58.000Z</time>
      </trkpt>
      <trkpt lat="45.86848" lon="6.19053">
        <ele>565</ele>
        <time>2013-05-25T16:08:59.000Z</time>
      </trkpt>
      <trkpt lat="45.86849" lon="6.1905">
        <ele>565</ele>
        <time>2013-05-25T16:09:00.000Z</time>
      </trkpt>
      <trkpt lat="45.86851" lon="6.19047">
        <ele>565</ele>
        <time>2013-05-25T16:09:01.000Z</time>
      </trkpt>
      <trkpt lat="45.86853" lon="6.19043">
        <ele>564</ele>
        <time>2013-05-25T16:09:02.000Z</time>
      </trkpt>
      <trkpt lat="45.86855" lon="6.1904">
        <ele>564</ele>
        <time>2013-05-25T16:09:03.000Z</time>
      </trkpt>
      <trkpt lat="45.86857" lon="6.19036">
        <ele>564</ele>
        <time>2013-05-25T16:09:04.000Z</time>
      </trkpt>
      <trkpt lat="45.86859" lon="6.19033">
        <ele>563</ele>
        <time>2013-05-25T16:09:05.000Z</time>
      </trkpt>
      <trkpt lat="45.86861" lon="6.1903">
        <ele>563</ele>
        <time>2013-05-25T16:09:06.000Z</time>
      </trkpt>
      <trkpt lat="45.86863" lon="6.19027">
        <ele>563</ele>
        <time>2013-05-25T16:09:07.000Z</time>
      </trkpt>
      <trkpt lat="45.86865" lon="6.19024">
        <ele>563</ele>
        <time>2013-05-25T16:09:08.000Z</time>
      </trkpt>
      <trkpt lat="45.86867" lon="6.1902">
        <ele>563</ele>
        <time>2013-05-25T16:09:09.000Z</time>
      </trkpt>
      <trkpt lat="45.86869" lon="6.19017">
        <ele>563</ele>
        <time>2013-05-25T16:09:10.000Z</time>
      </trkpt>
      <trkpt lat="45.86871" lon="6.19014">
        <ele>563</ele>
        <time>2013-05-25T16:09:11.000Z</time>
      </trkpt>
      <trkpt lat="45.86874" lon="6.19011">
        <ele>563</ele>
        <time>2013-05-25T16:09:12.000Z</time>
      </trkpt>
      <trkpt lat="45.86876" lon="6.19008">
        <ele>564</ele>
        <time>2013-05-25T16:09:13.000Z</time>
      </trkpt>
      <trkpt lat="45.86879" lon="6.19005">
        <ele>564</ele>
        <time>2013-05-25T16:09:14.000Z</time>
      </trkpt>
      <trkpt lat="45.86881" lon="6.19002">
        <ele>565</ele>
        <time>2013-05-25T16:09:15.000Z</time>
      </trkpt>
      <trkpt lat="45.86884" lon="6.18999">
        <ele>548</ele>
        <time>2013-05-25T16:09:16.000Z</time>
      </trkpt>
      <trkpt lat="45.86886" lon="6.18996">
        <ele>549</ele>
        <time>2013-05-25T16:09:17.000Z</time>
      </trkpt>
      <trkpt lat="45.86888" lon="6.18993">
        <ele>549</ele>
        <time>2013-05-25T16:09:18.000Z</time>
      </trkpt>
      <trkpt lat="45.8689" lon="6.18989">
        <ele>550</ele>
        <time>2013-05-25T16:09:19.000Z</time>
      </trkpt>
      <trkpt lat="45.86892" lon="6.18986">
        <ele>550</ele>
        <time>2013-05-25T16:09:20.000Z</time>
      </trkpt>
      <trkpt lat="45.86894" lon="6.18983">
        <ele>550</ele>
        <time>2013-05-25T16:09:21.000Z</time>
      </trkpt>
      <trkpt lat="45.86895" lon="6.1898">
        <ele>549</ele>
        <time>2013-05-25T16:09:22.000Z</time>
      </trkpt>
      <trkpt lat="45.86897" lon="6.18976">
        <ele>549</ele>
        <time>2013-05-25T16:09:23.000Z</time>
      </trkpt>
      <trkpt lat="45.86899" lon="6.18973">
        <ele>548</ele>
        <time>2013-05-25T16:09:24.000Z</time>
      </trkpt>
      <trkpt lat="45.86901" lon="6.1897">
        <ele>548</ele>
        <time>2013-05-25T16:09:25.000Z</time>
      </trkpt>
      <trkpt lat="45.86903" lon="6.18966">
        <ele>547</ele>
        <time>2013-05-25T16:09:26.000Z</time>
      </trkpt>
      <trkpt lat="45.86905" lon="6.18963">
        <ele>547</ele>
        <time>2013-05-25T16:09:27.000Z</time>
      </trkpt>
      <trkpt lat="45.86907" lon="6.1896">
        <ele>546</ele>
        <time>2013-05-25T16:09:28.000Z</time>
      </trkpt>
      <trkpt lat="45.86909" lon="6.18957">
        <ele>545</ele>
        <time>2013-05-25T16:09:29.000Z</time>
      </trkpt>
      <trkpt lat="45.86911" lon="6.18955">
        <ele>545</ele>
        <time>2013-05-25T16:09:30.000Z</time>
      </trkpt>
      <trkpt lat="45.86913" lon="6.18952">
        <ele>545</ele>
        <time>2013-05-25T16:09:31.000Z</time>
      </trkpt>
      <trkpt lat="45.86915" lon="6.1895">
        <ele>544</ele>
        <time>2013-05-25T16:09:32.000Z</time>
      </trkpt>
      <trkpt lat="45.86918" lon="6.18947">
        <ele>564</ele>
        <time>2013-05-25T16:09:33.000Z</time>
      </trkpt>
      <trkpt lat="45.8692" lon="6.18945">
        <ele>563</ele>
        <time>2013-05-25T16:09:34.000Z</time>
      </trkpt>
      <trkpt lat="45.86922" lon="6.18943">
        <ele>562</ele>
        <time>2013-05-25T16:09:35.000Z</time>
      </trkpt>
      <trkpt lat="45.86924" lon="6.1894">
        <ele>562</ele>
        <time>2013-05-25T16:09:36.000Z</time>
      </trkpt>
      <trkpt lat="45.86927" lon="6.18937">
        <ele>561</ele>
        <time>2013-05-25T16:09:37.000Z</time>
      </trkpt>
      <trkpt lat="45.86929" lon="6.18934">
        <ele>560</ele>
        <time>2013-05-25T16:09:38.000Z</time>
      </trkpt>
      <trkpt lat="45.86932" lon="6.18931">
        <ele>560</ele>
        <time>2013-05-25T16:09:39.000Z</time>
      </trkpt>
      <trkpt lat="45.86934" lon="6.18928">
        <ele>560</ele>
        <time>2013-05-25T16:09:40.000Z</time>
      </trkpt>
      <trkpt lat="45.86936" lon="6.18926">
        <ele>560</ele>
        <time>2013-05-25T16:09:41.000Z</time>
      </trkpt>
      <trkpt lat="45.86938" lon="6.18923">
        <ele>561</ele>
        <time>2013-05-25T16:09:42.000Z</time>
      </trkpt>
      <trkpt lat="45.8694" lon="6.1892">
        <ele>561</ele>
        <time>2013-05-25T16:09:43.000Z</time>
      </trkpt>
      <trkpt lat="45.86943" lon="6.18917">
        <ele>562</ele>
        <time>2013-05-25T16:09:44.000Z</time>
      </trkpt>
      <trkpt lat="45.86945" lon="6.18914">
        <ele>547</ele>
        <time>2013-05-25T16:09:45.000Z</time>
      </trkpt>
      <trkpt lat="45.86947" lon="6.18912">
        <ele>547</ele>
        <time>2013-05-25T16:09:46.000Z</time>
      </trkpt>
      <trkpt lat="45.86949" lon="6.18909">
        <ele>548</ele>
        <time>2013-05-25T16:09:47.000Z</time>
      </trkpt>
      <trkpt lat="45.86952" lon="6.18905">
        <ele>548</ele>
        <time>2013-05-25T16:09:48.000Z</time>
      </trkpt>
      <trkpt lat="45.86954" lon="6.18902">
        <ele>549</ele>
        <time>2013-05-25T16:09:49.000Z</time>
      </trkpt>
      <trkpt lat="45.86957" lon="6.189">
        <ele>549</ele>
        <time>2013-05-25T16:09:50.000Z</time>
      </trkpt>
      <trkpt lat="45.86959" lon="6.18898">
        <ele>550</ele>
        <time>2013-05-25T16:09:51.000Z</time>
      </trkpt>
      <trkpt lat="45.86962" lon="6.18896">
        <ele>550</ele>
        <time>2013-05-25T16:09:52.000Z</time>
      </trkpt>
      <trkpt lat="45.86964" lon="6.18894">
        <ele>550</ele>
        <time>2013-05-25T16:09:53.000Z</time>
      </trkpt>
      <trkpt lat="45.86966" lon="6.18892">
        <ele>550</ele>
        <time>2013-05-25T16:09:54.000Z</time>
      </trkpt>
      <trkpt lat="45.86968" lon="6.18889">
        <ele>550</ele>
        <time>2013-05-25T16:09:55.000Z</time>
      </trkpt>
      <trkpt lat="45.86971" lon="6.18886">
        <ele>550</ele>
        <time>2013-05-25T16:09:56.000Z</time>
      </trkpt>
      <trkpt lat="45.86973" lon="6.18883">
        <ele>550</ele>
        <time>2013-05-25T16:09:57.000Z</time>
      </trkpt>
      <trkpt lat="45.86976" lon="6.18881">
        <ele>550</ele>
        <time>2013-05-25T16:09:58.000Z</time>
      </trkpt>
      <trkpt lat="45.86979" lon="6.18878">
        <ele>550</ele>
        <time>2013-05-25T16:09:59.000Z</time>
      </trkpt>
      <trkpt lat="45.86981" lon="6.18876">
        <ele>550</ele>
        <time>2013-05-25T16:10:00.000Z</time>
      </trkpt>
      <trkpt lat="45.86984" lon="6.18874">
        <ele>550</ele>
        <time>2013-05-25T16:10:01.000Z</time>
      </trkpt>
      <trkpt lat="45.86986" lon="6.18871">
        <ele>550</ele>
        <time>2013-05-25T16:10:02.000Z</time>
      </trkpt>
      <trkpt lat="45.86989" lon="6.18869">
        <ele>549</ele>
        <time>2013-05-25T16:10:03.000Z</time>
      </trkpt>
      <trkpt lat="45.86991" lon="6.18866">
        <ele>549</ele>
        <time>2013-05-25T16:10:04.000Z</time>
      </trkpt>
      <trkpt lat="45.86993" lon="6.18863">
        <ele>548</ele>
        <time>2013-05-25T16:10:05.000Z</time>
      </trkpt>
      <trkpt lat="45.86995" lon="6.1886">
        <ele>548</ele>
        <time>2013-05-25T16:10:06.000Z</time>
      </trkpt>
      <trkpt lat="45.86998" lon="6.18857">
        <ele>547</ele>
        <time>2013-05-25T16:10:07.000Z</time>
      </trkpt>
      <trkpt lat="45.87" lon="6.18854">
        <ele>561</ele>
        <time>2013-05-25T16:10:08.000Z</time>
      </trkpt>
      <trkpt lat="45.87002" lon="6.18851">
        <ele>560</ele>
        <time>2013-05-25T16:10:09.000Z</time>
      </trkpt>
      <trkpt lat="45.87004" lon="6.18848">
        <ele>558</ele>
        <time>2013-05-25T16:10:10.000Z</time>
      </trkpt>
      <trkpt lat="45.87006" lon="6.18845">
        <ele>556</ele>
        <time>2013-05-25T16:10:11.000Z</time>
      </trkpt>
      <trkpt lat="45.87008" lon="6.18842">
        <ele>555</ele>
        <time>2013-05-25T16:10:12.000Z</time>
      </trkpt>
      <trkpt lat="45.8701" lon="6.18839">
        <ele>555</ele>
        <time>2013-05-25T16:10:13.000Z</time>
      </trkpt>
      <trkpt lat="45.87011" lon="6.18836">
        <ele>555</ele>
        <time>2013-05-25T16:10:14.000Z</time>
      </trkpt>
      <trkpt lat="45.87013" lon="6.18833">
        <ele>545</ele>
        <time>2013-05-25T16:10:15.000Z</time>
      </trkpt>
      <trkpt lat="45.87015" lon="6.1883">
        <ele>546</ele>
        <time>2013-05-25T16:10:16.000Z</time>
      </trkpt>
      <trkpt lat="45.87017" lon="6.18827">
        <ele>546</ele>
        <time>2013-05-25T16:10:17.000Z</time>
      </trkpt>
      <trkpt lat="45.87019" lon="6.18824">
        <ele>546</ele>
        <time>2013-05-25T16:10:18.000Z</time>
      </trkpt>
      <trkpt lat="45.87021" lon="6.18821">
        <ele>546</ele>
        <time>2013-05-25T16:10:19.000Z</time>
      </trkpt>
      <trkpt lat="45.87023" lon="6.18818">
        <ele>546</ele>
        <time>2013-05-25T16:10:20.000Z</time>
      </trkpt>
      <trkpt lat="45.87025" lon="6.18815">
        <ele>546</ele>
        <time>2013-05-25T16:10:21.000Z</time>
      </trkpt>
      <trkpt lat="45.87027" lon="6.18812">
        <ele>546</ele>
        <time>2013-05-25T16:10:22.000Z</time>
      </trkpt>
      <trkpt lat="45.87029" lon="6.18809">
        <ele>546</ele>
        <time>2013-05-25T16:10:23.000Z</time>
      </trkpt>
      <trkpt lat="45.87031" lon="6.18806">
        <ele>546</ele>
        <time>2013-05-25T16:10:24.000Z</time>
      </trkpt>
      <trkpt lat="45.87034" lon="6.18803">
        <ele>546</ele>
        <time>2013-05-25T16:10:25.000Z</time>
      </trkpt>
      <trkpt lat="45.87036" lon="6.18799">
        <ele>546</ele>
        <time>2013-05-25T16:10:26.000Z</time>
      </trkpt>
      <trkpt lat="45.87038" lon="6.18796">
        <ele>546</ele>
        <time>2013-05-25T16:10:27.000Z</time>
      </trkpt>
      <trkpt lat="45.87041" lon="6.18794">
        <ele>546</ele>
        <time>2013-05-25T16:10:28.000Z</time>
      </trkpt>
      <trkpt lat="45.87043" lon="6.18791">
        <ele>546</ele>
        <time>2013-05-25T16:10:29.000Z</time>
      </trkpt>
      <trkpt lat="45.87045" lon="6.18789">
        <ele>546</ele>
        <time>2013-05-25T16:10:30.000Z</time>
      </trkpt>
      <trkpt lat="45.87048" lon="6.18786">
        <ele>546</ele>
        <time>2013-05-25T16:10:31.000Z</time>
      </trkpt>
      <trkpt lat="45.8705" lon="6.18783">
        <ele>546</ele>
        <time>2013-05-25T16:10:32.000Z</time>
      </trkpt>
      <trkpt lat="45.87052" lon="6.18781">
        <ele>546</ele>
        <time>2013-05-25T16:10:33.000Z</time>
      </trkpt>
      <trkpt lat="45.87054" lon="6.18778">
        <ele>545</ele>
        <time>2013-05-25T16:10:34.000Z</time>
      </trkpt>
      <trkpt lat="45.87056" lon="6.18774">
        <ele>545</ele>
        <time>2013-05-25T16:10:35.000Z</time>
      </trkpt>
      <trkpt lat="45.87059" lon="6.18771">
        <ele>545</ele>
        <time>2013-05-25T16:10:36.000Z</time>
      </trkpt>
      <trkpt lat="45.87061" lon="6.18768">
        <ele>544</ele>
        <time>2013-05-25T16:10:37.000Z</time>
      </trkpt>
      <trkpt lat="45.87063" lon="6.18765">
        <ele>544</ele>
        <time>2013-05-25T16:10:38.000Z</time>
      </trkpt>
      <trkpt lat="45.87065" lon="6.18763">
        <ele>544</ele>
        <time>2013-05-25T16:10:39.000Z</time>
      </trkpt>
      <trkpt lat="45.87068" lon="6.1876">
        <ele>544</ele>
        <time>2013-05-25T16:10:40.000Z</time>
      </trkpt>
      <trkpt lat="45.8707" lon="6.18757">
        <ele>543</ele>
        <time>2013-05-25T16:10:41.000Z</time>
      </trkpt>
      <trkpt lat="45.87073" lon="6.18754">
        <ele>543</ele>
        <time>2013-05-25T16:10:42.000Z</time>
      </trkpt>
      <trkpt lat="45.87075" lon="6.18751">
        <ele>542</ele>
        <time>2013-05-25T16:10:43.000Z</time>
      </trkpt>
      <trkpt lat="45.87078" lon="6.18748">
        <ele>538</ele>
        <time>2013-05-25T16:10:44.000Z</time>
      </trkpt>
      <trkpt lat="45.8708" lon="6.18745">
        <ele>538</ele>
        <time>2013-05-25T16:10:45.000Z</time>
      </trkpt>
      <trkpt lat="45.87083" lon="6.18743">
        <ele>537</ele>
        <time>2013-05-25T16:10:46.000Z</time>
      </trkpt>
      <trkpt lat="45.87086" lon="6.1874">
        <ele>541</ele>
        <time>2013-05-25T16:10:47.000Z</time>
      </trkpt>
      <trkpt lat="45.87089" lon="6.18738">
        <ele>542</ele>
        <time>2013-05-25T16:10:48.000Z</time>
      </trkpt>
      <trkpt lat="45.87091" lon="6.18736">
        <ele>542</ele>
        <time>2013-05-25T16:10:49.000Z</time>
      </trkpt>
      <trkpt lat="45.87094" lon="6.18733">
        <ele>542</ele>
        <time>2013-05-25T16:10:50.000Z</time>
      </trkpt>
      <trkpt lat="45.87097" lon="6.18731">
        <ele>542</ele>
        <time>2013-05-25T16:10:51.000Z</time>
      </trkpt>
      <trkpt lat="45.87099" lon="6.18728">
        <ele>542</ele>
        <time>2013-05-25T16:10:52.000Z</time>
      </trkpt>
      <trkpt lat="45.87102" lon="6.18726">
        <ele>542</ele>
        <time>2013-05-25T16:10:53.000Z</time>
      </trkpt>
      <trkpt lat="45.87105" lon="6.18723">
        <ele>542</ele>
        <time>2013-05-25T16:10:54.000Z</time>
      </trkpt>
      <trkpt lat="45.87107" lon="6.18721">
        <ele>542</ele>
        <time>2013-05-25T16:10:55.000Z</time>
      </trkpt>
      <trkpt lat="45.8711" lon="6.18718">
        <ele>542</ele>
        <time>2013-05-25T16:10:56.000Z</time>
      </trkpt>
      <trkpt lat="45.87112" lon="6.18716">
        <ele>542</ele>
        <time>2013-05-25T16:10:57.000Z</time>
      </trkpt>
      <trkpt lat="45.87115" lon="6.18714">
        <ele>542</ele>
        <time>2013-05-25T16:10:58.000Z</time>
      </trkpt>
      <trkpt lat="45.87117" lon="6.18712">
        <ele>542</ele>
        <time>2013-05-25T16:10:59.000Z</time>
      </trkpt>
      <trkpt lat="45.8712" lon="6.1871">
        <ele>542</ele>
        <time>2013-05-25T16:11:00.000Z</time>
      </trkpt>
      <trkpt lat="45.87122" lon="6.18708">
        <ele>542</ele>
        <time>2013-05-25T16:11:01.000Z</time>
      </trkpt>
      <trkpt lat="45.87125" lon="6.18706">
        <ele>542</ele>
        <time>2013-05-25T16:11:02.000Z</time>
      </trkpt>
      <trkpt lat="45.87127" lon="6.18704">
        <ele>542</ele>
        <time>2013-05-25T16:11:03.000Z</time>
      </trkpt>
      <trkpt lat="45.8713" lon="6.18701">
        <ele>542</ele>
        <time>2013-05-25T16:11:04.000Z</time>
      </trkpt>
      <trkpt lat="45.87133" lon="6.18698">
        <ele>542</ele>
        <time>2013-05-25T16:11:05.000Z</time>
      </trkpt>
      <trkpt lat="45.87135" lon="6.18696">
        <ele>542</ele>
        <time>2013-05-25T16:11:06.000Z</time>
      </trkpt>
      <trkpt lat="45.87137" lon="6.18694">
        <ele>542</ele>
        <time>2013-05-25T16:11:07.000Z</time>
      </trkpt>
      <trkpt lat="45.8714" lon="6.18692">
        <ele>542</ele>
        <time>2013-05-25T16:11:08.000Z</time>
      </trkpt>
      <trkpt lat="45.87142" lon="6.18689">
        <ele>542</ele>
        <time>2013-05-25T16:11:09.000Z</time>
      </trkpt>
      <trkpt lat="45.87144" lon="6.18687">
        <ele>542</ele>
        <time>2013-05-25T16:11:10.000Z</time>
      </trkpt>
      <trkpt lat="45.87147" lon="6.18684">
        <ele>542</ele>
        <time>2013-05-25T16:11:11.000Z</time>
      </trkpt>
      <trkpt lat="45.8715" lon="6.18682">
        <ele>542</ele>
        <time>2013-05-25T16:11:12.000Z</time>
      </trkpt>
      <trkpt lat="45.87152" lon="6.18679">
        <ele>541</ele>
        <time>2013-05-25T16:11:13.000Z</time>
      </trkpt>
      <trkpt lat="45.87155" lon="6.18676">
        <ele>541</ele>
        <time>2013-05-25T16:11:14.000Z</time>
      </trkpt>
      <trkpt lat="45.87157" lon="6.18673">
        <ele>541</ele>
        <time>2013-05-25T16:11:15.000Z</time>
      </trkpt>
      <trkpt lat="45.87159" lon="6.1867">
        <ele>541</ele>
        <time>2013-05-25T16:11:16.000Z</time>
      </trkpt>
      <trkpt lat="45.87161" lon="6.18667">
        <ele>537</ele>
        <time>2013-05-25T16:11:17.000Z</time>
      </trkpt>
      <trkpt lat="45.87164" lon="6.18663">
        <ele>537</ele>
        <time>2013-05-25T16:11:18.000Z</time>
      </trkpt>
      <trkpt lat="45.87166" lon="6.1866">
        <ele>537</ele>
        <time>2013-05-25T16:11:19.000Z</time>
      </trkpt>
      <trkpt lat="45.87168" lon="6.18658">
        <ele>540</ele>
        <time>2013-05-25T16:11:20.000Z</time>
      </trkpt>
      <trkpt lat="45.87171" lon="6.18655">
        <ele>539</ele>
        <time>2013-05-25T16:11:21.000Z</time>
      </trkpt>
      <trkpt lat="45.87173" lon="6.18652">
        <ele>539</ele>
        <time>2013-05-25T16:11:22.000Z</time>
      </trkpt>
      <trkpt lat="45.87175" lon="6.18649">
        <ele>539</ele>
        <time>2013-05-25T16:11:23.000Z</time>
      </trkpt>
      <trkpt lat="45.87178" lon="6.18646">
        <ele>539</ele>
        <time>2013-05-25T16:11:24.000Z</time>
      </trkpt>
      <trkpt lat="45.8718" lon="6.18643">
        <ele>539</ele>
        <time>2013-05-25T16:11:25.000Z</time>
      </trkpt>
      <trkpt lat="45.87182" lon="6.18641">
        <ele>539</ele>
        <time>2013-05-25T16:11:26.000Z</time>
      </trkpt>
      <trkpt lat="45.87184" lon="6.18638">
        <ele>539</ele>
        <time>2013-05-25T16:11:27.000Z</time>
      </trkpt>
      <trkpt lat="45.87186" lon="6.18635">
        <ele>538</ele>
        <time>2013-05-25T16:11:28.000Z</time>
      </trkpt>
      <trkpt lat="45.87189" lon="6.18633">
        <ele>538</ele>
        <time>2013-05-25T16:11:29.000Z</time>
      </trkpt>
      <trkpt lat="45.87191" lon="6.1863">
        <ele>538</ele>
        <time>2013-05-25T16:11:30.000Z</time>
      </trkpt>
      <trkpt lat="45.87193" lon="6.18628">
        <ele>538</ele>
        <time>2013-05-25T16:11:31.000Z</time>
      </trkpt>
      <trkpt lat="45.87195" lon="6.18625">
        <ele>538</ele>
        <time>2013-05-25T16:11:32.000Z</time>
      </trkpt>
      <trkpt lat="45.87197" lon="6.18623">
        <ele>538</ele>
        <time>2013-05-25T16:11:33.000Z</time>
      </trkpt>
      <trkpt lat="45.87199" lon="6.1862">
        <ele>538</ele>
        <time>2013-05-25T16:11:34.000Z</time>
      </trkpt>
      <trkpt lat="45.87201" lon="6.18617">
        <ele>538</ele>
        <time>2013-05-25T16:11:35.000Z</time>
      </trkpt>
      <trkpt lat="45.87203" lon="6.18613">
        <ele>537</ele>
        <time>2013-05-25T16:11:36.000Z</time>
      </trkpt>
      <trkpt lat="45.87205" lon="6.1861">
        <ele>537</ele>
        <time>2013-05-25T16:11:37.000Z</time>
      </trkpt>
      <trkpt lat="45.87207" lon="6.18606">
        <ele>537</ele>
        <time>2013-05-25T16:11:38.000Z</time>
      </trkpt>
      <trkpt lat="45.87209" lon="6.18603">
        <ele>537</ele>
        <time>2013-05-25T16:11:39.000Z</time>
      </trkpt>
      <trkpt lat="45.87211" lon="6.186">
        <ele>537</ele>
        <time>2013-05-25T16:11:40.000Z</time>
      </trkpt>
      <trkpt lat="45.87213" lon="6.18598">
        <ele>537</ele>
        <time>2013-05-25T16:11:41.000Z</time>
      </trkpt>
      <trkpt lat="45.87215" lon="6.18594">
        <ele>537</ele>
        <time>2013-05-25T16:11:42.000Z</time>
      </trkpt>
      <trkpt lat="45.87217" lon="6.18591">
        <ele>537</ele>
        <time>2013-05-25T16:11:43.000Z</time>
      </trkpt>
      <trkpt lat="45.87219" lon="6.18589">
        <ele>537</ele>
        <time>2013-05-25T16:11:44.000Z</time>
      </trkpt>
      <trkpt lat="45.87221" lon="6.18585">
        <ele>537</ele>
        <time>2013-05-25T16:11:45.000Z</time>
      </trkpt>
      <trkpt lat="45.87223" lon="6.18582">
        <ele>528</ele>
        <time>2013-05-25T16:11:46.000Z</time>
      </trkpt>
      <trkpt lat="45.87225" lon="6.18579">
        <ele>529</ele>
        <time>2013-05-25T16:11:47.000Z</time>
      </trkpt>
      <trkpt lat="45.87227" lon="6.18576">
        <ele>529</ele>
        <time>2013-05-25T16:11:48.000Z</time>
      </trkpt>
      <trkpt lat="45.87229" lon="6.18573">
        <ele>529</ele>
        <time>2013-05-25T16:11:49.000Z</time>
      </trkpt>
      <trkpt lat="45.87231" lon="6.1857">
        <ele>529</ele>
        <time>2013-05-25T16:11:50.000Z</time>
      </trkpt>
      <trkpt lat="45.87233" lon="6.18567">
        <ele>529</ele>
        <time>2013-05-25T16:11:51.000Z</time>
      </trkpt>
      <trkpt lat="45.87235" lon="6.18564">
        <ele>528</ele>
        <time>2013-05-25T16:11:52.000Z</time>
      </trkpt>
      <trkpt lat="45.87237" lon="6.18561">
        <ele>528</ele>
        <time>2013-05-25T16:11:53.000Z</time>
      </trkpt>
      <trkpt lat="45.87239" lon="6.18557">
        <ele>528</ele>
        <time>2013-05-25T16:11:54.000Z</time>
      </trkpt>
      <trkpt lat="45.87241" lon="6.18555">
        <ele>527</ele>
        <time>2013-05-25T16:11:55.000Z</time>
      </trkpt>
      <trkpt lat="45.87244" lon="6.18552">
        <ele>527</ele>
        <time>2013-05-25T16:11:56.000Z</time>
      </trkpt>
      <trkpt lat="45.87246" lon="6.1855">
        <ele>527</ele>
        <time>2013-05-25T16:11:57.000Z</time>
      </trkpt>
      <trkpt lat="45.87249" lon="6.18547">
        <ele>527</ele>
        <time>2013-05-25T16:11:58.000Z</time>
      </trkpt>
      <trkpt lat="45.87251" lon="6.18545">
        <ele>532</ele>
        <time>2013-05-25T16:11:59.000Z</time>
      </trkpt>
      <trkpt lat="45.87254" lon="6.18542">
        <ele>532</ele>
        <time>2013-05-25T16:12:00.000Z</time>
      </trkpt>
      <trkpt lat="45.87256" lon="6.1854">
        <ele>532</ele>
        <time>2013-05-25T16:12:01.000Z</time>
      </trkpt>
      <trkpt lat="45.87259" lon="6.18537">
        <ele>531</ele>
        <time>2013-05-25T16:12:02.000Z</time>
      </trkpt>
      <trkpt lat="45.87261" lon="6.18535">
        <ele>531</ele>
        <time>2013-05-25T16:12:03.000Z</time>
      </trkpt>
      <trkpt lat="45.87264" lon="6.18532">
        <ele>531</ele>
        <time>2013-05-25T16:12:04.000Z</time>
      </trkpt>
      <trkpt lat="45.87266" lon="6.1853">
        <ele>531</ele>
        <time>2013-05-25T16:12:05.000Z</time>
      </trkpt>
      <trkpt lat="45.87269" lon="6.18527">
        <ele>530</ele>
        <time>2013-05-25T16:12:06.000Z</time>
      </trkpt>
      <trkpt lat="45.87271" lon="6.18524">
        <ele>530</ele>
        <time>2013-05-25T16:12:07.000Z</time>
      </trkpt>
      <trkpt lat="45.87273" lon="6.18522">
        <ele>530</ele>
        <time>2013-05-25T16:12:08.000Z</time>
      </trkpt>
      <trkpt lat="45.87276" lon="6.1852">
        <ele>530</ele>
        <time>2013-05-25T16:12:09.000Z</time>
      </trkpt>
      <trkpt lat="45.87278" lon="6.18518">
        <ele>530</ele>
        <time>2013-05-25T16:12:10.000Z</time>
      </trkpt>
      <trkpt lat="45.8728" lon="6.18516">
        <ele>530</ele>
        <time>2013-05-25T16:12:11.000Z</time>
      </trkpt>
      <trkpt lat="45.87283" lon="6.18514">
        <ele>530</ele>
        <time>2013-05-25T16:12:12.000Z</time>
      </trkpt>
      <trkpt lat="45.87285" lon="6.18511">
        <ele>530</ele>
        <time>2013-05-25T16:12:13.000Z</time>
      </trkpt>
      <trkpt lat="45.87288" lon="6.18508">
        <ele>530</ele>
        <time>2013-05-25T16:12:14.000Z</time>
      </trkpt>
      <trkpt lat="45.8729" lon="6.18505">
        <ele>530</ele>
        <time>2013-05-25T16:12:15.000Z</time>
      </trkpt>
      <trkpt lat="45.87292" lon="6.18503">
        <ele>530</ele>
        <time>2013-05-25T16:12:16.000Z</time>
      </trkpt>
      <trkpt lat="45.87295" lon="6.18501">
        <ele>530</ele>
        <time>2013-05-25T16:12:17.000Z</time>
      </trkpt>
      <trkpt lat="45.87297" lon="6.18499">
        <ele>521</ele>
        <time>2013-05-25T16:12:18.000Z</time>
      </trkpt>
      <trkpt lat="45.873" lon="6.18497">
        <ele>521</ele>
        <time>2013-05-25T16:12:19.000Z</time>
      </trkpt>
      <trkpt lat="45.87303" lon="6.18495">
        <ele>521</ele>
        <time>2013-05-25T16:12:20.000Z</time>
      </trkpt>
      <trkpt lat="45.87306" lon="6.18493">
        <ele>522</ele>
        <time>2013-05-25T16:12:21.000Z</time>
      </trkpt>
      <trkpt lat="45.87308" lon="6.18491">
        <ele>522</ele>
        <time>2013-05-25T16:12:22.000Z</time>
      </trkpt>
      <trkpt lat="45.87311" lon="6.18489">
        <ele>522</ele>
        <time>2013-05-25T16:12:23.000Z</time>
      </trkpt>
      <trkpt lat="45.87314" lon="6.18487">
        <ele>522</ele>
        <time>2013-05-25T16:12:24.000Z</time>
      </trkpt>
      <trkpt lat="45.87317" lon="6.18485">
        <ele>522</ele>
        <time>2013-05-25T16:12:25.000Z</time>
      </trkpt>
      <trkpt lat="45.8732" lon="6.18484">
        <ele>523</ele>
        <time>2013-05-25T16:12:26.000Z</time>
      </trkpt>
      <trkpt lat="45.87323" lon="6.18482">
        <ele>523</ele>
        <time>2013-05-25T16:12:27.000Z</time>
      </trkpt>
      <trkpt lat="45.87326" lon="6.18481">
        <ele>523</ele>
        <time>2013-05-25T16:12:28.000Z</time>
      </trkpt>
      <trkpt lat="45.87329" lon="6.1848">
        <ele>523</ele>
        <time>2013-05-25T16:12:29.000Z</time>
      </trkpt>
      <trkpt lat="45.87332" lon="6.18479">
        <ele>523</ele>
        <time>2013-05-25T16:12:30.000Z</time>
      </trkpt>
      <trkpt lat="45.87334" lon="6.18478">
        <ele>525</ele>
        <time>2013-05-25T16:12:31.000Z</time>
      </trkpt>
      <trkpt lat="45.87337" lon="6.18477">
        <ele>525</ele>
        <time>2013-05-25T16:12:32.000Z</time>
      </trkpt>
      <trkpt lat="45.8734" lon="6.18475">
        <ele>525</ele>
        <time>2013-05-25T16:12:33.000Z</time>
      </trkpt>
      <trkpt lat="45.87342" lon="6.18475">
        <ele>525</ele>
        <time>2013-05-25T16:12:34.000Z</time>
      </trkpt>
      <trkpt lat="45.87345" lon="6.18474">
        <ele>525</ele>
        <time>2013-05-25T16:12:35.000Z</time>
      </trkpt>
      <trkpt lat="45.87348" lon="6.18472">
        <ele>525</ele>
        <time>2013-05-25T16:12:36.000Z</time>
      </trkpt>
      <trkpt lat="45.87351" lon="6.18472">
        <ele>524</ele>
        <time>2013-05-25T16:12:37.000Z</time>
      </trkpt>
      <trkpt lat="45.87354" lon="6.1847">
        <ele>524</ele>
        <time>2013-05-25T16:12:38.000Z</time>
      </trkpt>
      <trkpt lat="45.87357" lon="6.18469">
        <ele>524</ele>
        <time>2013-05-25T16:12:39.000Z</time>
      </trkpt>
      <trkpt lat="45.8736" lon="6.18468">
        <ele>524</ele>
        <time>2013-05-25T16:12:40.000Z</time>
      </trkpt>
      <trkpt lat="45.87363" lon="6.18467">
        <ele>524</ele>
        <time>2013-05-25T16:12:41.000Z</time>
      </trkpt>
      <trkpt lat="45.87366" lon="6.18465">
        <ele>524</ele>
        <time>2013-05-25T16:12:42.000Z</time>
      </trkpt>
      <trkpt lat="45.87369" lon="6.18464">
        <ele>524</ele>
        <time>2013-05-25T16:12:43.000Z</time>
      </trkpt>
      <trkpt lat="45.87372" lon="6.18463">
        <ele>524</ele>
        <time>2013-05-25T16:12:44.000Z</time>
      </trkpt>
      <trkpt lat="45.87375" lon="6.18463">
        <ele>524</ele>
        <time>2013-05-25T16:12:45.000Z</time>
      </trkpt>
      <trkpt lat="45.87377" lon="6.18462">
        <ele>524</ele>
        <time>2013-05-25T16:12:46.000Z</time>
      </trkpt>
      <trkpt lat="45.87381" lon="6.1846">
        <ele>524</ele>
        <time>2013-05-25T16:12:47.000Z</time>
      </trkpt>
      <trkpt lat="45.87383" lon="6.18459">
        <ele>524</ele>
        <time>2013-05-25T16:12:48.000Z</time>
      </trkpt>
      <trkpt lat="45.87386" lon="6.18457">
        <ele>524</ele>
        <time>2013-05-25T16:12:49.000Z</time>
      </trkpt>
      <trkpt lat="45.87389" lon="6.18456">
        <ele>524</ele>
        <time>2013-05-25T16:12:50.000Z</time>
      </trkpt>
      <trkpt lat="45.87392" lon="6.18455">
        <ele>523</ele>
        <time>2013-05-25T16:12:51.000Z</time>
      </trkpt>
      <trkpt lat="45.87395" lon="6.18453">
        <ele>523</ele>
        <time>2013-05-25T16:12:52.000Z</time>
      </trkpt>
      <trkpt lat="45.87398" lon="6.18452">
        <ele>523</ele>
        <time>2013-05-25T16:12:53.000Z</time>
      </trkpt>
      <trkpt lat="45.87401" lon="6.1845">
        <ele>523</ele>
        <time>2013-05-25T16:12:54.000Z</time>
      </trkpt>
      <trkpt lat="45.87404" lon="6.18449">
        <ele>523</ele>
        <time>2013-05-25T16:12:55.000Z</time>
      </trkpt>
      <trkpt lat="45.87407" lon="6.18447">
        <ele>523</ele>
        <time>2013-05-25T16:12:56.000Z</time>
      </trkpt>
      <trkpt lat="45.87409" lon="6.18445">
        <ele>522</ele>
        <time>2013-05-25T16:12:57.000Z</time>
      </trkpt>
      <trkpt lat="45.87412" lon="6.18444">
        <ele>522</ele>
        <time>2013-05-25T16:12:58.000Z</time>
      </trkpt>
      <trkpt lat="45.87414" lon="6.18442">
        <ele>522</ele>
        <time>2013-05-25T16:12:59.000Z</time>
      </trkpt>
      <trkpt lat="45.87417" lon="6.1844">
        <ele>521</ele>
        <time>2013-05-25T16:13:00.000Z</time>
      </trkpt>
      <trkpt lat="45.87419" lon="6.18438">
        <ele>522</ele>
        <time>2013-05-25T16:13:01.000Z</time>
      </trkpt>
      <trkpt lat="45.87422" lon="6.18437">
        <ele>522</ele>
        <time>2013-05-25T16:13:02.000Z</time>
      </trkpt>
      <trkpt lat="45.87424" lon="6.18434">
        <ele>522</ele>
        <time>2013-05-25T16:13:03.000Z</time>
      </trkpt>
      <trkpt lat="45.87427" lon="6.18432">
        <ele>522</ele>
        <time>2013-05-25T16:13:04.000Z</time>
      </trkpt>
      <trkpt lat="45.87429" lon="6.1843">
        <ele>521</ele>
        <time>2013-05-25T16:13:05.000Z</time>
      </trkpt>
      <trkpt lat="45.87431" lon="6.18428">
        <ele>521</ele>
        <time>2013-05-25T16:13:06.000Z</time>
      </trkpt>
      <trkpt lat="45.87434" lon="6.18427">
        <ele>522</ele>
        <time>2013-05-25T16:13:07.000Z</time>
      </trkpt>
      <trkpt lat="45.87438" lon="6.18425">
        <ele>522</ele>
        <time>2013-05-25T16:13:08.000Z</time>
      </trkpt>
      <trkpt lat="45.87441" lon="6.18424">
        <ele>522</ele>
        <time>2013-05-25T16:13:09.000Z</time>
      </trkpt>
      <trkpt lat="45.87443" lon="6.18422">
        <ele>522</ele>
        <time>2013-05-25T16:13:10.000Z</time>
      </trkpt>
      <trkpt lat="45.87445" lon="6.18421">
        <ele>522</ele>
        <time>2013-05-25T16:13:11.000Z</time>
      </trkpt>
      <trkpt lat="45.87449" lon="6.18419">
        <ele>522</ele>
        <time>2013-05-25T16:13:12.000Z</time>
      </trkpt>
      <trkpt lat="45.87452" lon="6.18418">
        <ele>522</ele>
        <time>2013-05-25T16:13:13.000Z</time>
      </trkpt>
      <trkpt lat="45.87455" lon="6.18416">
        <ele>514</ele>
        <time>2013-05-25T16:13:14.000Z</time>
      </trkpt>
      <trkpt lat="45.87457" lon="6.18414">
        <ele>514</ele>
        <time>2013-05-25T16:13:15.000Z</time>
      </trkpt>
      <trkpt lat="45.8746" lon="6.18412">
        <ele>514</ele>
        <time>2013-05-25T16:13:16.000Z</time>
      </trkpt>
      <trkpt lat="45.87462" lon="6.18411">
        <ele>514</ele>
        <time>2013-05-25T16:13:17.000Z</time>
      </trkpt>
      <trkpt lat="45.87465" lon="6.18409">
        <ele>514</ele>
        <time>2013-05-25T16:13:18.000Z</time>
      </trkpt>
      <trkpt lat="45.87469" lon="6.18407">
        <ele>514</ele>
        <time>2013-05-25T16:13:19.000Z</time>
      </trkpt>
      <trkpt lat="45.87472" lon="6.18405">
        <ele>514</ele>
        <time>2013-05-25T16:13:20.000Z</time>
      </trkpt>
      <trkpt lat="45.87475" lon="6.18403">
        <ele>514</ele>
        <time>2013-05-25T16:13:21.000Z</time>
      </trkpt>
      <trkpt lat="45.87478" lon="6.18402">
        <ele>514</ele>
        <time>2013-05-25T16:13:22.000Z</time>
      </trkpt>
      <trkpt lat="45.8748" lon="6.184">
        <ele>514</ele>
        <time>2013-05-25T16:13:23.000Z</time>
      </trkpt>
      <trkpt lat="45.87482" lon="6.18399">
        <ele>514</ele>
        <time>2013-05-25T16:13:24.000Z</time>
      </trkpt>
      <trkpt lat="45.87484" lon="6.18398">
        <ele>514</ele>
        <time>2013-05-25T16:13:25.000Z</time>
      </trkpt>
      <trkpt lat="45.87486" lon="6.18397">
        <ele>514</ele>
        <time>2013-05-25T16:13:26.000Z</time>
      </trkpt>
      <trkpt lat="45.87487" lon="6.18395">
        <ele>514</ele>
        <time>2013-05-25T16:13:27.000Z</time>
      </trkpt>
      <trkpt lat="45.8749" lon="6.18393">
        <ele>514</ele>
        <time>2013-05-25T16:13:28.000Z</time>
      </trkpt>
      <trkpt lat="45.87492" lon="6.18391">
        <ele>514</ele>
        <time>2013-05-25T16:13:29.000Z</time>
      </trkpt>
      <trkpt lat="45.87494" lon="6.1839">
        <ele>514</ele>
        <time>2013-05-25T16:13:30.000Z</time>
      </trkpt>
      <trkpt lat="45.87497" lon="6.18389">
        <ele>514</ele>
        <time>2013-05-25T16:13:31.000Z</time>
      </trkpt>
      <trkpt lat="45.875" lon="6.18387">
        <ele>513</ele>
        <time>2013-05-25T16:13:32.000Z</time>
      </trkpt>
      <trkpt lat="45.87502" lon="6.18385">
        <ele>515</ele>
        <time>2013-05-25T16:13:33.000Z</time>
      </trkpt>
      <trkpt lat="45.87505" lon="6.18383">
        <ele>515</ele>
        <time>2013-05-25T16:13:34.000Z</time>
      </trkpt>
      <trkpt lat="45.87508" lon="6.18381">
        <ele>515</ele>
        <time>2013-05-25T16:13:35.000Z</time>
      </trkpt>
      <trkpt lat="45.8751" lon="6.18379">
        <ele>515</ele>
        <time>2013-05-25T16:13:36.000Z</time>
      </trkpt>
      <trkpt lat="45.87514" lon="6.18378">
        <ele>515</ele>
        <time>2013-05-25T16:13:37.000Z</time>
      </trkpt>
      <trkpt lat="45.87517" lon="6.18376">
        <ele>515</ele>
        <time>2013-05-25T16:13:38.000Z</time>
      </trkpt>
      <trkpt lat="45.8752" lon="6.18375">
        <ele>515</ele>
        <time>2013-05-25T16:13:39.000Z</time>
      </trkpt>
      <trkpt lat="45.87523" lon="6.18374">
        <ele>515</ele>
        <time>2013-05-25T16:13:40.000Z</time>
      </trkpt>
      <trkpt lat="45.87526" lon="6.18373">
        <ele>515</ele>
        <time>2013-05-25T16:13:41.000Z</time>
      </trkpt>
      <trkpt lat="45.87529" lon="6.18373">
        <ele>515</ele>
        <time>2013-05-25T16:13:42.000Z</time>
      </trkpt>
      <trkpt lat="45.87531" lon="6.18372">
        <ele>515</ele>
        <time>2013-05-25T16:13:43.000Z</time>
      </trkpt>
      <trkpt lat="45.87535" lon="6.1837">
        <ele>515</ele>
        <time>2013-05-25T16:13:44.000Z</time>
      </trkpt>
      <trkpt lat="45.87538" lon="6.18368">
        <ele>515</ele>
        <time>2013-05-25T16:13:45.000Z</time>
      </trkpt>
      <trkpt lat="45.87541" lon="6.18367">
        <ele>515</ele>
        <time>2013-05-25T16:13:46.000Z</time>
      </trkpt>
      <trkpt lat="45.87544" lon="6.18365">
        <ele>515</ele>
        <time>2013-05-25T16:13:47.000Z</time>
      </trkpt>
      <trkpt lat="45.87546" lon="6.18364">
        <ele>514</ele>
        <time>2013-05-25T16:13:48.000Z</time>
      </trkpt>
      <trkpt lat="45.87549" lon="6.18362">
        <ele>514</ele>
        <time>2013-05-25T16:13:49.000Z</time>
      </trkpt>
      <trkpt lat="45.87552" lon="6.1836">
        <ele>514</ele>
        <time>2013-05-25T16:13:50.000Z</time>
      </trkpt>
      <trkpt lat="45.87555" lon="6.18359">
        <ele>514</ele>
        <time>2013-05-25T16:13:51.000Z</time>
      </trkpt>
      <trkpt lat="45.87558" lon="6.18357">
        <ele>514</ele>
        <time>2013-05-25T16:13:52.000Z</time>
      </trkpt>
      <trkpt lat="45.87561" lon="6.18355">
        <ele>514</ele>
        <time>2013-05-25T16:13:53.000Z</time>
      </trkpt>
      <trkpt lat="45.87563" lon="6.18354">
        <ele>514</ele>
        <time>2013-05-25T16:13:54.000Z</time>
      </trkpt>
      <trkpt lat="45.87566" lon="6.18353">
        <ele>514</ele>
        <time>2013-05-25T16:13:55.000Z</time>
      </trkpt>
      <trkpt lat="45.87569" lon="6.18351">
        <ele>514</ele>
        <time>2013-05-25T16:13:56.000Z</time>
      </trkpt>
      <trkpt lat="45.87572" lon="6.18349">
        <ele>513</ele>
        <time>2013-05-25T16:13:57.000Z</time>
      </trkpt>
      <trkpt lat="45.87575" lon="6.18347">
        <ele>513</ele>
        <time>2013-05-25T16:13:58.000Z</time>
      </trkpt>
      <trkpt lat="45.87577" lon="6.18345">
        <ele>513</ele>
        <time>2013-05-25T16:13:59.000Z</time>
      </trkpt>
      <trkpt lat="45.8758" lon="6.18344">
        <ele>513</ele>
        <time>2013-05-25T16:14:00.000Z</time>
      </trkpt>
      <trkpt lat="45.87583" lon="6.18342">
        <ele>512</ele>
        <time>2013-05-25T16:14:01.000Z</time>
      </trkpt>
      <trkpt lat="45.87586" lon="6.1834">
        <ele>514</ele>
        <time>2013-05-25T16:14:02.000Z</time>
      </trkpt>
      <trkpt lat="45.87589" lon="6.18339">
        <ele>514</ele>
        <time>2013-05-25T16:14:03.000Z</time>
      </trkpt>
      <trkpt lat="45.87592" lon="6.18337">
        <ele>514</ele>
        <time>2013-05-25T16:14:04.000Z</time>
      </trkpt>
      <trkpt lat="45.87594" lon="6.18336">
        <ele>515</ele>
        <time>2013-05-25T16:14:05.000Z</time>
      </trkpt>
      <trkpt lat="45.87597" lon="6.18335">
        <ele>515</ele>
        <time>2013-05-25T16:14:06.000Z</time>
      </trkpt>
      <trkpt lat="45.87599" lon="6.18333">
        <ele>511</ele>
        <time>2013-05-25T16:14:07.000Z</time>
      </trkpt>
      <trkpt lat="45.87602" lon="6.18332">
        <ele>510</ele>
        <time>2013-05-25T16:14:08.000Z</time>
      </trkpt>
      <trkpt lat="45.87604" lon="6.1833">
        <ele>510</ele>
        <time>2013-05-25T16:14:09.000Z</time>
      </trkpt>
      <trkpt lat="45.87607" lon="6.18328">
        <ele>510</ele>
        <time>2013-05-25T16:14:10.000Z</time>
      </trkpt>
      <trkpt lat="45.8761" lon="6.18326">
        <ele>510</ele>
        <time>2013-05-25T16:14:11.000Z</time>
      </trkpt>
      <trkpt lat="45.87613" lon="6.18324">
        <ele>511</ele>
        <time>2013-05-25T16:14:12.000Z</time>
      </trkpt>
      <trkpt lat="45.87616" lon="6.18322">
        <ele>511</ele>
        <time>2013-05-25T16:14:13.000Z</time>
      </trkpt>
      <trkpt lat="45.87618" lon="6.18321">
        <ele>511</ele>
        <time>2013-05-25T16:14:14.000Z</time>
      </trkpt>
      <trkpt lat="45.87621" lon="6.18318">
        <ele>511</ele>
        <time>2013-05-25T16:14:15.000Z</time>
      </trkpt>
      <trkpt lat="45.87624" lon="6.18316">
        <ele>511</ele>
        <time>2013-05-25T16:14:16.000Z</time>
      </trkpt>
      <trkpt lat="45.87626" lon="6.18314">
        <ele>511</ele>
        <time>2013-05-25T16:14:17.000Z</time>
      </trkpt>
      <trkpt lat="45.87629" lon="6.18312">
        <ele>511</ele>
        <time>2013-05-25T16:14:18.000Z</time>
      </trkpt>
      <trkpt lat="45.87632" lon="6.1831">
        <ele>511</ele>
        <time>2013-05-25T16:14:19.000Z</time>
      </trkpt>
      <trkpt lat="45.87635" lon="6.18307">
        <ele>511</ele>
        <time>2013-05-25T16:14:20.000Z</time>
      </trkpt>
      <trkpt lat="45.87637" lon="6.18305">
        <ele>511</ele>
        <time>2013-05-25T16:14:21.000Z</time>
      </trkpt>
      <trkpt lat="45.8764" lon="6.18303">
        <ele>511</ele>
        <time>2013-05-25T16:14:22.000Z</time>
      </trkpt>
      <trkpt lat="45.87643" lon="6.18301">
        <ele>511</ele>
        <time>2013-05-25T16:14:23.000Z</time>
      </trkpt>
      <trkpt lat="45.87646" lon="6.18299">
        <ele>511</ele>
        <time>2013-05-25T16:14:24.000Z</time>
      </trkpt>
      <trkpt lat="45.87648" lon="6.18296">
        <ele>511</ele>
        <time>2013-05-25T16:14:25.000Z</time>
      </trkpt>
      <trkpt lat="45.87651" lon="6.18293">
        <ele>510</ele>
        <time>2013-05-25T16:14:26.000Z</time>
      </trkpt>
      <trkpt lat="45.87653" lon="6.1829">
        <ele>510</ele>
        <time>2013-05-25T16:14:27.000Z</time>
      </trkpt>
      <trkpt lat="45.87656" lon="6.18286">
        <ele>510</ele>
        <time>2013-05-25T16:14:28.000Z</time>
      </trkpt>
      <trkpt lat="45.87658" lon="6.18283">
        <ele>510</ele>
        <time>2013-05-25T16:14:29.000Z</time>
      </trkpt>
      <trkpt lat="45.8766" lon="6.1828">
        <ele>509</ele>
        <time>2013-05-25T16:14:30.000Z</time>
      </trkpt>
      <trkpt lat="45.87663" lon="6.18277">
        <ele>509</ele>
        <time>2013-05-25T16:14:31.000Z</time>
      </trkpt>
      <trkpt lat="45.87665" lon="6.18274">
        <ele>509</ele>
        <time>2013-05-25T16:14:32.000Z</time>
      </trkpt>
      <trkpt lat="45.87667" lon="6.18271">
        <ele>512</ele>
        <time>2013-05-25T16:14:33.000Z</time>
      </trkpt>
      <trkpt lat="45.8767" lon="6.18269">
        <ele>512</ele>
        <time>2013-05-25T16:14:34.000Z</time>
      </trkpt>
      <trkpt lat="45.87672" lon="6.18267">
        <ele>511</ele>
        <time>2013-05-25T16:14:35.000Z</time>
      </trkpt>
      <trkpt lat="45.87674" lon="6.18264">
        <ele>511</ele>
        <time>2013-05-25T16:14:36.000Z</time>
      </trkpt>
      <trkpt lat="45.87677" lon="6.18262">
        <ele>511</ele>
        <time>2013-05-25T16:14:37.000Z</time>
      </trkpt>
      <trkpt lat="45.87679" lon="6.18259">
        <ele>511</ele>
        <time>2013-05-25T16:14:38.000Z</time>
      </trkpt>
      <trkpt lat="45.87682" lon="6.18256">
        <ele>511</ele>
        <time>2013-05-25T16:14:39.000Z</time>
      </trkpt>
      <trkpt lat="45.87684" lon="6.18254">
        <ele>511</ele>
        <time>2013-05-25T16:14:40.000Z</time>
      </trkpt>
      <trkpt lat="45.87686" lon="6.18252">
        <ele>511</ele>
        <time>2013-05-25T16:14:41.000Z</time>
      </trkpt>
      <trkpt lat="45.87688" lon="6.1825">
        <ele>512</ele>
        <time>2013-05-25T16:14:42.000Z</time>
      </trkpt>
      <trkpt lat="45.87691" lon="6.18248">
        <ele>505</ele>
        <time>2013-05-25T16:14:43.000Z</time>
      </trkpt>
      <trkpt lat="45.87693" lon="6.18246">
        <ele>505</ele>
        <time>2013-05-25T16:14:44.000Z</time>
      </trkpt>
      <trkpt lat="45.87695" lon="6.18244">
        <ele>505</ele>
        <time>2013-05-25T16:14:45.000Z</time>
      </trkpt>
      <trkpt lat="45.87697" lon="6.18242">
        <ele>505</ele>
        <time>2013-05-25T16:14:46.000Z</time>
      </trkpt>
      <trkpt lat="45.877" lon="6.18239">
        <ele>505</ele>
        <time>2013-05-25T16:14:47.000Z</time>
      </trkpt>
      <trkpt lat="45.87702" lon="6.18237">
        <ele>505</ele>
        <time>2013-05-25T16:14:48.000Z</time>
      </trkpt>
      <trkpt lat="45.87705" lon="6.18235">
        <ele>505</ele>
        <time>2013-05-25T16:14:49.000Z</time>
      </trkpt>
      <trkpt lat="45.87708" lon="6.18233">
        <ele>505</ele>
        <time>2013-05-25T16:14:50.000Z</time>
      </trkpt>
      <trkpt lat="45.8771" lon="6.1823">
        <ele>505</ele>
        <time>2013-05-25T16:14:51.000Z</time>
      </trkpt>
      <trkpt lat="45.87713" lon="6.18228">
        <ele>505</ele>
        <time>2013-05-25T16:14:52.000Z</time>
      </trkpt>
      <trkpt lat="45.87716" lon="6.18226">
        <ele>505</ele>
        <time>2013-05-25T16:14:53.000Z</time>
      </trkpt>
      <trkpt lat="45.87719" lon="6.18223">
        <ele>505</ele>
        <time>2013-05-25T16:14:54.000Z</time>
      </trkpt>
      <trkpt lat="45.87722" lon="6.18221">
        <ele>505</ele>
        <time>2013-05-25T16:14:55.000Z</time>
      </trkpt>
      <trkpt lat="45.87725" lon="6.18218">
        <ele>505</ele>
        <time>2013-05-25T16:14:56.000Z</time>
      </trkpt>
      <trkpt lat="45.87727" lon="6.18216">
        <ele>504</ele>
        <time>2013-05-25T16:14:57.000Z</time>
      </trkpt>
      <trkpt lat="45.8773" lon="6.18214">
        <ele>504</ele>
        <time>2013-05-25T16:14:58.000Z</time>
      </trkpt>
      <trkpt lat="45.87733" lon="6.18213">
        <ele>504</ele>
        <time>2013-05-25T16:14:59.000Z</time>
      </trkpt>
      <trkpt lat="45.87736" lon="6.18211">
        <ele>504</ele>
        <time>2013-05-25T16:15:00.000Z</time>
      </trkpt>
      <trkpt lat="45.87739" lon="6.18209">
        <ele>504</ele>
        <time>2013-05-25T16:15:01.000Z</time>
      </trkpt>
      <trkpt lat="45.87742" lon="6.18207">
        <ele>504</ele>
        <time>2013-05-25T16:15:02.000Z</time>
      </trkpt>
      <trkpt lat="45.87745" lon="6.18205">
        <ele>504</ele>
        <time>2013-05-25T16:15:03.000Z</time>
      </trkpt>
      <trkpt lat="45.87748" lon="6.18204">
        <ele>504</ele>
        <time>2013-05-25T16:15:04.000Z</time>
      </trkpt>
      <trkpt lat="45.87751" lon="6.18203">
        <ele>506</ele>
        <time>2013-05-25T16:15:05.000Z</time>
      </trkpt>
      <trkpt lat="45.87754" lon="6.18201">
        <ele>506</ele>
        <time>2013-05-25T16:15:06.000Z</time>
      </trkpt>
      <trkpt lat="45.87757" lon="6.182">
        <ele>506</ele>
        <time>2013-05-25T16:15:07.000Z</time>
      </trkpt>
      <trkpt lat="45.8776" lon="6.18198">
        <ele>506</ele>
        <time>2013-05-25T16:15:08.000Z</time>
      </trkpt>
      <trkpt lat="45.87763" lon="6.18197">
        <ele>506</ele>
        <time>2013-05-25T16:15:09.000Z</time>
      </trkpt>
      <trkpt lat="45.87767" lon="6.18195">
        <ele>506</ele>
        <time>2013-05-25T16:15:10.000Z</time>
      </trkpt>
      <trkpt lat="45.8777" lon="6.18194">
        <ele>506</ele>
        <time>2013-05-25T16:15:11.000Z</time>
      </trkpt>
      <trkpt lat="45.87773" lon="6.18192">
        <ele>506</ele>
        <time>2013-05-25T16:15:12.000Z</time>
      </trkpt>
      <trkpt lat="45.87776" lon="6.18191">
        <ele>506</ele>
        <time>2013-05-25T16:15:13.000Z</time>
      </trkpt>
      <trkpt lat="45.87779" lon="6.1819">
        <ele>506</ele>
        <time>2013-05-25T16:15:14.000Z</time>
      </trkpt>
      <trkpt lat="45.87782" lon="6.18189">
        <ele>506</ele>
        <time>2013-05-25T16:15:15.000Z</time>
      </trkpt>
      <trkpt lat="45.87785" lon="6.18187">
        <ele>506</ele>
        <time>2013-05-25T16:15:16.000Z</time>
      </trkpt>
      <trkpt lat="45.87788" lon="6.18186">
        <ele>506</ele>
        <time>2013-05-25T16:15:17.000Z</time>
      </trkpt>
      <trkpt lat="45.8779" lon="6.18184">
        <ele>506</ele>
        <time>2013-05-25T16:15:18.000Z</time>
      </trkpt>
      <trkpt lat="45.87793" lon="6.18182">
        <ele>506</ele>
        <time>2013-05-25T16:15:19.000Z</time>
      </trkpt>
      <trkpt lat="45.87795" lon="6.1818">
        <ele>506</ele>
        <time>2013-05-25T16:15:20.000Z</time>
      </trkpt>
      <trkpt lat="45.87798" lon="6.18178">
        <ele>506</ele>
        <time>2013-05-25T16:15:21.000Z</time>
      </trkpt>
      <trkpt lat="45.87801" lon="6.18177">
        <ele>506</ele>
        <time>2013-05-25T16:15:22.000Z</time>
      </trkpt>
      <trkpt lat="45.87804" lon="6.18175">
        <ele>505</ele>
        <time>2013-05-25T16:15:23.000Z</time>
      </trkpt>
      <trkpt lat="45.87806" lon="6.18173">
        <ele>505</ele>
        <time>2013-05-25T16:15:24.000Z</time>
      </trkpt>
      <trkpt lat="45.87809" lon="6.18171">
        <ele>505</ele>
        <time>2013-05-25T16:15:25.000Z</time>
      </trkpt>
      <trkpt lat="45.87812" lon="6.1817">
        <ele>505</ele>
        <time>2013-05-25T16:15:26.000Z</time>
      </trkpt>
      <trkpt lat="45.87814" lon="6.18168">
        <ele>505</ele>
        <time>2013-05-25T16:15:27.000Z</time>
      </trkpt>
      <trkpt lat="45.87817" lon="6.18167">
        <ele>505</ele>
        <time>2013-05-25T16:15:28.000Z</time>
      </trkpt>
      <trkpt lat="45.8782" lon="6.18165">
        <ele>500</ele>
        <time>2013-05-25T16:15:29.000Z</time>
      </trkpt>
      <trkpt lat="45.87822" lon="6.18163">
        <ele>501</ele>
        <time>2013-05-25T16:15:30.000Z</time>
      </trkpt>
      <trkpt lat="45.87825" lon="6.18161">
        <ele>501</ele>
        <time>2013-05-25T16:15:31.000Z</time>
      </trkpt>
      <trkpt lat="45.87828" lon="6.18159">
        <ele>501</ele>
        <time>2013-05-25T16:15:32.000Z</time>
      </trkpt>
      <trkpt lat="45.8783" lon="6.18157">
        <ele>501</ele>
        <time>2013-05-25T16:15:33.000Z</time>
      </trkpt>
      <trkpt lat="45.87833" lon="6.18155">
        <ele>500</ele>
        <time>2013-05-25T16:15:34.000Z</time>
      </trkpt>
      <trkpt lat="45.87836" lon="6.18153">
        <ele>502</ele>
        <time>2013-05-25T16:15:35.000Z</time>
      </trkpt>
      <trkpt lat="45.87838" lon="6.18152">
        <ele>502</ele>
        <time>2013-05-25T16:15:36.000Z</time>
      </trkpt>
      <trkpt lat="45.87841" lon="6.1815">
        <ele>502</ele>
        <time>2013-05-25T16:15:37.000Z</time>
      </trkpt>
      <trkpt lat="45.87844" lon="6.18148">
        <ele>502</ele>
        <time>2013-05-25T16:15:38.000Z</time>
      </trkpt>
      <trkpt lat="45.87846" lon="6.18146">
        <ele>502</ele>
        <time>2013-05-25T16:15:39.000Z</time>
      </trkpt>
      <trkpt lat="45.87849" lon="6.18145">
        <ele>502</ele>
        <time>2013-05-25T16:15:40.000Z</time>
      </trkpt>
      <trkpt lat="45.87851" lon="6.18143">
        <ele>501</ele>
        <time>2013-05-25T16:15:41.000Z</time>
      </trkpt>
      <trkpt lat="45.87854" lon="6.18141">
        <ele>501</ele>
        <time>2013-05-25T16:15:42.000Z</time>
      </trkpt>
      <trkpt lat="45.87857" lon="6.18139">
        <ele>501</ele>
        <time>2013-05-25T16:15:43.000Z</time>
      </trkpt>
      <trkpt lat="45.8786" lon="6.18137">
        <ele>501</ele>
        <time>2013-05-25T16:15:44.000Z</time>
      </trkpt>
      <trkpt lat="45.87862" lon="6.18136">
        <ele>501</ele>
        <time>2013-05-25T16:15:45.000Z</time>
      </trkpt>
      <trkpt lat="45.87865" lon="6.18134">
        <ele>501</ele>
        <time>2013-05-25T16:15:46.000Z</time>
      </trkpt>
      <trkpt lat="45.87867" lon="6.18132">
        <ele>501</ele>
        <time>2013-05-25T16:15:47.000Z</time>
      </trkpt>
      <trkpt lat="45.8787" lon="6.1813">
        <ele>501</ele>
        <time>2013-05-25T16:15:48.000Z</time>
      </trkpt>
      <trkpt lat="45.87872" lon="6.18128">
        <ele>501</ele>
        <time>2013-05-25T16:15:49.000Z</time>
      </trkpt>
      <trkpt lat="45.87875" lon="6.18126">
        <ele>501</ele>
        <time>2013-05-25T16:15:50.000Z</time>
      </trkpt>
      <trkpt lat="45.87878" lon="6.18124">
        <ele>501</ele>
        <time>2013-05-25T16:15:51.000Z</time>
      </trkpt>
      <trkpt lat="45.8788" lon="6.18122">
        <ele>501</ele>
        <time>2013-05-25T16:15:52.000Z</time>
      </trkpt>
      <trkpt lat="45.87883" lon="6.1812">
        <ele>501</ele>
        <time>2013-05-25T16:15:53.000Z</time>
      </trkpt>
      <trkpt lat="45.87885" lon="6.18117">
        <ele>501</ele>
        <time>2013-05-25T16:15:54.000Z</time>
      </trkpt>
      <trkpt lat="45.87888" lon="6.18114">
        <ele>501</ele>
        <time>2013-05-25T16:15:55.000Z</time>
      </trkpt>
      <trkpt lat="45.8789" lon="6.18111">
        <ele>501</ele>
        <time>2013-05-25T16:15:56.000Z</time>
      </trkpt>
      <trkpt lat="45.87892" lon="6.18109">
        <ele>500</ele>
        <time>2013-05-25T16:15:57.000Z</time>
      </trkpt>
      <trkpt lat="45.87895" lon="6.18107">
        <ele>500</ele>
        <time>2013-05-25T16:15:58.000Z</time>
      </trkpt>
      <trkpt lat="45.87897" lon="6.18105">
        <ele>500</ele>
        <time>2013-05-25T16:15:59.000Z</time>
      </trkpt>
      <trkpt lat="45.87899" lon="6.18102">
        <ele>500</ele>
        <time>2013-05-25T16:16:00.000Z</time>
      </trkpt>
      <trkpt lat="45.87902" lon="6.181">
        <ele>500</ele>
        <time>2013-05-25T16:16:01.000Z</time>
      </trkpt>
      <trkpt lat="45.87905" lon="6.18098">
        <ele>500</ele>
        <time>2013-05-25T16:16:02.000Z</time>
      </trkpt>
      <trkpt lat="45.87907" lon="6.18096">
        <ele>499</ele>
        <time>2013-05-25T16:16:03.000Z</time>
      </trkpt>
      <trkpt lat="45.87909" lon="6.18094">
        <ele>499</ele>
        <time>2013-05-25T16:16:04.000Z</time>
      </trkpt>
      <trkpt lat="45.87912" lon="6.18092">
        <ele>499</ele>
        <time>2013-05-25T16:16:05.000Z</time>
      </trkpt>
      <trkpt lat="45.87915" lon="6.1809">
        <ele>499</ele>
        <time>2013-05-25T16:16:06.000Z</time>
      </trkpt>
      <trkpt lat="45.87917" lon="6.18088">
        <ele>499</ele>
        <time>2013-05-25T16:16:07.000Z</time>
      </trkpt>
      <trkpt lat="45.8792" lon="6.18086">
        <ele>499</ele>
        <time>2013-05-25T16:16:08.000Z</time>
      </trkpt>
      <trkpt lat="45.87923" lon="6.18084">
        <ele>500</ele>
        <time>2013-05-25T16:16:09.000Z</time>
      </trkpt>
      <trkpt lat="45.87925" lon="6.18083">
        <ele>498</ele>
        <time>2013-05-25T16:16:10.000Z</time>
      </trkpt>
      <trkpt lat="45.87928" lon="6.18081">
        <ele>498</ele>
        <time>2013-05-25T16:16:11.000Z</time>
      </trkpt>
      <trkpt lat="45.8793" lon="6.18079">
        <ele>498</ele>
        <time>2013-05-25T16:16:12.000Z</time>
      </trkpt>
      <trkpt lat="45.87933" lon="6.18077">
        <ele>498</ele>
        <time>2013-05-25T16:16:13.000Z</time>
      </trkpt>
      <trkpt lat="45.87935" lon="6.18075">
        <ele>498</ele>
        <time>2013-05-25T16:16:14.000Z</time>
      </trkpt>
      <trkpt lat="45.87937" lon="6.18073">
        <ele>498</ele>
        <time>2013-05-25T16:16:15.000Z</time>
      </trkpt>
      <trkpt lat="45.87941" lon="6.18072">
        <ele>498</ele>
        <time>2013-05-25T16:16:16.000Z</time>
      </trkpt>
      <trkpt lat="45.87943" lon="6.18069">
        <ele>498</ele>
        <time>2013-05-25T16:16:17.000Z</time>
      </trkpt>
      <trkpt lat="45.87946" lon="6.18067">
        <ele>498</ele>
        <time>2013-05-25T16:16:18.000Z</time>
      </trkpt>
      <trkpt lat="45.87949" lon="6.18065">
        <ele>498</ele>
        <time>2013-05-25T16:16:19.000Z</time>
      </trkpt>
      <trkpt lat="45.87951" lon="6.18064">
        <ele>498</ele>
        <time>2013-05-25T16:16:20.000Z</time>
      </trkpt>
      <trkpt lat="45.87954" lon="6.18062">
        <ele>498</ele>
        <time>2013-05-25T16:16:21.000Z</time>
      </trkpt>
      <trkpt lat="45.87956" lon="6.1806">
        <ele>499</ele>
        <time>2013-05-25T16:16:22.000Z</time>
      </trkpt>
      <trkpt lat="45.87959" lon="6.18057">
        <ele>499</ele>
        <time>2013-05-25T16:16:23.000Z</time>
      </trkpt>
      <trkpt lat="45.87962" lon="6.18055">
        <ele>499</ele>
        <time>2013-05-25T16:16:24.000Z</time>
      </trkpt>
      <trkpt lat="45.87964" lon="6.18052">
        <ele>499</ele>
        <time>2013-05-25T16:16:25.000Z</time>
      </trkpt>
      <trkpt lat="45.87967" lon="6.1805">
        <ele>499</ele>
        <time>2013-05-25T16:16:26.000Z</time>
      </trkpt>
      <trkpt lat="45.87969" lon="6.18047">
        <ele>499</ele>
        <time>2013-05-25T16:16:27.000Z</time>
      </trkpt>
      <trkpt lat="45.87972" lon="6.18044">
        <ele>499</ele>
        <time>2013-05-25T16:16:28.000Z</time>
      </trkpt>
      <trkpt lat="45.87974" lon="6.18042">
        <ele>499</ele>
        <time>2013-05-25T16:16:29.000Z</time>
      </trkpt>
      <trkpt lat="45.87976" lon="6.18039">
        <ele>499</ele>
        <time>2013-05-25T16:16:30.000Z</time>
      </trkpt>
      <trkpt lat="45.87978" lon="6.18037">
        <ele>499</ele>
        <time>2013-05-25T16:16:31.000Z</time>
      </trkpt>
      <trkpt lat="45.87981" lon="6.18034">
        <ele>499</ele>
        <time>2013-05-25T16:16:32.000Z</time>
      </trkpt>
      <trkpt lat="45.87983" lon="6.18031">
        <ele>499</ele>
        <time>2013-05-25T16:16:33.000Z</time>
      </trkpt>
      <trkpt lat="45.87985" lon="6.18029">
        <ele>499</ele>
        <time>2013-05-25T16:16:34.000Z</time>
      </trkpt>
      <trkpt lat="45.87988" lon="6.18027">
        <ele>499</ele>
        <time>2013-05-25T16:16:35.000Z</time>
      </trkpt>
      <trkpt lat="45.8799" lon="6.18024">
        <ele>499</ele>
        <time>2013-05-25T16:16:36.000Z</time>
      </trkpt>
      <trkpt lat="45.87992" lon="6.18021">
        <ele>499</ele>
        <time>2013-05-25T16:16:37.000Z</time>
      </trkpt>
      <trkpt lat="45.87995" lon="6.18019">
        <ele>499</ele>
        <time>2013-05-25T16:16:38.000Z</time>
      </trkpt>
      <trkpt lat="45.87997" lon="6.18016">
        <ele>499</ele>
        <time>2013-05-25T16:16:39.000Z</time>
      </trkpt>
      <trkpt lat="45.87999" lon="6.18014">
        <ele>499</ele>
        <time>2013-05-25T16:16:40.000Z</time>
      </trkpt>
      <trkpt lat="45.88001" lon="6.18011">
        <ele>501</ele>
        <time>2013-05-25T16:16:41.000Z</time>
      </trkpt>
      <trkpt lat="45.88003" lon="6.18009">
        <ele>500</ele>
        <time>2013-05-25T16:16:42.000Z</time>
      </trkpt>
      <trkpt lat="45.88006" lon="6.18007">
        <ele>500</ele>
        <time>2013-05-25T16:16:43.000Z</time>
      </trkpt>
      <trkpt lat="45.88007" lon="6.18005">
        <ele>500</ele>
        <time>2013-05-25T16:16:44.000Z</time>
      </trkpt>
      <trkpt lat="45.88009" lon="6.18002">
        <ele>500</ele>
        <time>2013-05-25T16:16:45.000Z</time>
      </trkpt>
      <trkpt lat="45.88009" lon="6.17999">
        <ele>499</ele>
        <time>2013-05-25T16:16:46.000Z</time>
      </trkpt>
      <trkpt lat="45.88008" lon="6.17997">
        <ele>499</ele>
        <time>2013-05-25T16:16:47.000Z</time>
      </trkpt>
      <trkpt lat="45.88005" lon="6.17995">
        <ele>499</ele>
        <time>2013-05-25T16:16:48.000Z</time>
      </trkpt>
      <trkpt lat="45.88003" lon="6.17995">
        <ele>499</ele>
        <time>2013-05-25T16:16:49.000Z</time>
      </trkpt>
      <trkpt lat="45.88" lon="6.17996">
        <ele>498</ele>
        <time>2013-05-25T16:16:50.000Z</time>
      </trkpt>
      <trkpt lat="45.87996" lon="6.17996">
        <ele>497</ele>
        <time>2013-05-25T16:16:51.000Z</time>
      </trkpt>
      <trkpt lat="45.87993" lon="6.17995">
        <ele>497</ele>
        <time>2013-05-25T16:16:52.000Z</time>
      </trkpt>
      <trkpt lat="45.8799" lon="6.17995">
        <ele>496</ele>
        <time>2013-05-25T16:16:53.000Z</time>
      </trkpt>
      <trkpt lat="45.87987" lon="6.17996">
        <ele>496</ele>
        <time>2013-05-25T16:16:54.000Z</time>
      </trkpt>
      <trkpt lat="45.87984" lon="6.17998">
        <ele>495</ele>
        <time>2013-05-25T16:16:55.000Z</time>
      </trkpt>
      <trkpt lat="45.87981" lon="6.17998">
        <ele>495</ele>
        <time>2013-05-25T16:16:56.000Z</time>
      </trkpt>
      <trkpt lat="45.87978" lon="6.18">
        <ele>495</ele>
        <time>2013-05-25T16:16:57.000Z</time>
      </trkpt>
      <trkpt lat="45.87976" lon="6.18001">
        <ele>498</ele>
        <time>2013-05-25T16:16:58.000Z</time>
      </trkpt>
      <trkpt lat="45.87973" lon="6.18003">
        <ele>498</ele>
        <time>2013-05-25T16:16:59.000Z</time>
      </trkpt>
      <trkpt lat="45.8797" lon="6.18004">
        <ele>498</ele>
        <time>2013-05-25T16:17:00.000Z</time>
      </trkpt>
      <trkpt lat="45.87967" lon="6.18004">
        <ele>497</ele>
        <time>2013-05-25T16:17:01.000Z</time>
      </trkpt>
      <trkpt lat="45.87965" lon="6.18006">
        <ele>497</ele>
        <time>2013-05-25T16:17:02.000Z</time>
      </trkpt>
      <trkpt lat="45.87962" lon="6.18008">
        <ele>497</ele>
        <time>2013-05-25T16:17:03.000Z</time>
      </trkpt>
      <trkpt lat="45.87959" lon="6.1801">
        <ele>497</ele>
        <time>2013-05-25T16:17:04.000Z</time>
      </trkpt>
      <trkpt lat="45.87956" lon="6.18011">
        <ele>497</ele>
        <time>2013-05-25T16:17:05.000Z</time>
      </trkpt>
      <trkpt lat="45.87953" lon="6.18013">
        <ele>497</ele>
        <time>2013-05-25T16:17:06.000Z</time>
      </trkpt>
      <trkpt lat="45.87951" lon="6.18014">
        <ele>497</ele>
        <time>2013-05-25T16:17:07.000Z</time>
      </trkpt>
      <trkpt lat="45.87948" lon="6.18016">
        <ele>496</ele>
        <time>2013-05-25T16:17:08.000Z</time>
      </trkpt>
      <trkpt lat="45.87945" lon="6.18018">
        <ele>496</ele>
        <time>2013-05-25T16:17:09.000Z</time>
      </trkpt>
      <trkpt lat="45.87942" lon="6.18019">
        <ele>496</ele>
        <time>2013-05-25T16:17:10.000Z</time>
      </trkpt>
      <trkpt lat="45.87939" lon="6.18021">
        <ele>496</ele>
        <time>2013-05-25T16:17:11.000Z</time>
      </trkpt>
      <trkpt lat="45.87936" lon="6.18022">
        <ele>496</ele>
        <time>2013-05-25T16:17:12.000Z</time>
      </trkpt>
      <trkpt lat="45.87934" lon="6.18024">
        <ele>496</ele>
        <time>2013-05-25T16:17:13.000Z</time>
      </trkpt>
      <trkpt lat="45.87931" lon="6.18026">
        <ele>496</ele>
        <time>2013-05-25T16:17:14.000Z</time>
      </trkpt>
      <trkpt lat="45.87928" lon="6.18028">
        <ele>496</ele>
        <time>2013-05-25T16:17:15.000Z</time>
      </trkpt>
      <trkpt lat="45.87926" lon="6.1803">
        <ele>496</ele>
        <time>2013-05-25T16:17:16.000Z</time>
      </trkpt>
      <trkpt lat="45.87924" lon="6.18031">
        <ele>496</ele>
        <time>2013-05-25T16:17:17.000Z</time>
      </trkpt>
      <trkpt lat="45.87921" lon="6.18033">
        <ele>496</ele>
        <time>2013-05-25T16:17:18.000Z</time>
      </trkpt>
      <trkpt lat="45.87919" lon="6.18035">
        <ele>496</ele>
        <time>2013-05-25T16:17:19.000Z</time>
      </trkpt>
      <trkpt lat="45.87916" lon="6.18036">
        <ele>492</ele>
        <time>2013-05-25T16:17:20.000Z</time>
      </trkpt>
      <trkpt lat="45.87913" lon="6.18038">
        <ele>492</ele>
        <time>2013-05-25T16:17:21.000Z</time>
      </trkpt>
      <trkpt lat="45.87911" lon="6.1804">
        <ele>492</ele>
        <time>2013-05-25T16:17:22.000Z</time>
      </trkpt>
      <trkpt lat="45.87908" lon="6.18041">
        <ele>492</ele>
        <time>2013-05-25T16:17:23.000Z</time>
      </trkpt>
      <trkpt lat="45.87905" lon="6.18042">
        <ele>492</ele>
        <time>2013-05-25T16:17:24.000Z</time>
      </trkpt>
      <trkpt lat="45.87903" lon="6.18044">
        <ele>492</ele>
        <time>2013-05-25T16:17:25.000Z</time>
      </trkpt>
      <trkpt lat="45.879" lon="6.18045">
        <ele>492</ele>
        <time>2013-05-25T16:17:26.000Z</time>
      </trkpt>
      <trkpt lat="45.87898" lon="6.18046">
        <ele>492</ele>
        <time>2013-05-25T16:17:27.000Z</time>
      </trkpt>
      <trkpt lat="45.87895" lon="6.18047">
        <ele>492</ele>
        <time>2013-05-25T16:17:28.000Z</time>
      </trkpt>
      <trkpt lat="45.87892" lon="6.18049">
        <ele>492</ele>
        <time>2013-05-25T16:17:29.000Z</time>
      </trkpt>
      <trkpt lat="45.8789" lon="6.18051">
        <ele>492</ele>
        <time>2013-05-25T16:17:30.000Z</time>
      </trkpt>
      <trkpt lat="45.87887" lon="6.18052">
        <ele>492</ele>
        <time>2013-05-25T16:17:31.000Z</time>
      </trkpt>
      <trkpt lat="45.87884" lon="6.18053">
        <ele>492</ele>
        <time>2013-05-25T16:17:32.000Z</time>
      </trkpt>
      <trkpt lat="45.87881" lon="6.18055">
        <ele>492</ele>
        <time>2013-05-25T16:17:33.000Z</time>
      </trkpt>
      <trkpt lat="45.87878" lon="6.18057">
        <ele>492</ele>
        <time>2013-05-25T16:17:34.000Z</time>
      </trkpt>
      <trkpt lat="45.87875" lon="6.18058">
        <ele>492</ele>
        <time>2013-05-25T16:17:35.000Z</time>
      </trkpt>
      <trkpt lat="45.87872" lon="6.18059">
        <ele>492</ele>
        <time>2013-05-25T16:17:36.000Z</time>
      </trkpt>
      <trkpt lat="45.87869" lon="6.18061">
        <ele>492</ele>
        <time>2013-05-25T16:17:37.000Z</time>
      </trkpt>
      <trkpt lat="45.87866" lon="6.18062">
        <ele>492</ele>
        <time>2013-05-25T16:17:38.000Z</time>
      </trkpt>
      <trkpt lat="45.87864" lon="6.18063">
        <ele>492</ele>
        <time>2013-05-25T16:17:39.000Z</time>
      </trkpt>
      <trkpt lat="45.87861" lon="6.18064">
        <ele>492</ele>
        <time>2013-05-25T16:17:40.000Z</time>
      </trkpt>
      <trkpt lat="45.87859" lon="6.18065">
        <ele>492</ele>
        <time>2013-05-25T16:17:41.000Z</time>
      </trkpt>
      <trkpt lat="45.87856" lon="6.18067">
        <ele>492</ele>
        <time>2013-05-25T16:17:42.000Z</time>
      </trkpt>
      <trkpt lat="45.87853" lon="6.18068">
        <ele>492</ele>
        <time>2013-05-25T16:17:43.000Z</time>
      </trkpt>
      <trkpt lat="45.87851" lon="6.18069">
        <ele>492</ele>
        <time>2013-05-25T16:17:44.000Z</time>
      </trkpt>
      <trkpt lat="45.87848" lon="6.18071">
        <ele>492</ele>
        <time>2013-05-25T16:17:45.000Z</time>
      </trkpt>
      <trkpt lat="45.87845" lon="6.18074">
        <ele>492</ele>
        <time>2013-05-25T16:17:46.000Z</time>
      </trkpt>
      <trkpt lat="45.87842" lon="6.18076">
        <ele>492</ele>
        <time>2013-05-25T16:17:47.000Z</time>
      </trkpt>
      <trkpt lat="45.8784" lon="6.18078">
        <ele>492</ele>
        <time>2013-05-25T16:17:48.000Z</time>
      </trkpt>
      <trkpt lat="45.87837" lon="6.18079">
        <ele>493</ele>
        <time>2013-05-25T16:17:49.000Z</time>
      </trkpt>
      <trkpt lat="45.87834" lon="6.18082">
        <ele>493</ele>
        <time>2013-05-25T16:17:50.000Z</time>
      </trkpt>
      <trkpt lat="45.87832" lon="6.18085">
        <ele>493</ele>
        <time>2013-05-25T16:17:51.000Z</time>
      </trkpt>
      <trkpt lat="45.8783" lon="6.18087">
        <ele>494</ele>
        <time>2013-05-25T16:17:52.000Z</time>
      </trkpt>
      <trkpt lat="45.87827" lon="6.18089">
        <ele>494</ele>
        <time>2013-05-25T16:17:53.000Z</time>
      </trkpt>
      <trkpt lat="45.87824" lon="6.18091">
        <ele>494</ele>
        <time>2013-05-25T16:17:54.000Z</time>
      </trkpt>
      <trkpt lat="45.87821" lon="6.18093">
        <ele>494</ele>
        <time>2013-05-25T16:17:55.000Z</time>
      </trkpt>
      <trkpt lat="45.87819" lon="6.18094">
        <ele>494</ele>
        <time>2013-05-25T16:17:56.000Z</time>
      </trkpt>
      <trkpt lat="45.87816" lon="6.18095">
        <ele>494</ele>
        <time>2013-05-25T16:17:57.000Z</time>
      </trkpt>
      <trkpt lat="45.87813" lon="6.18096">
        <ele>495</ele>
        <time>2013-05-25T16:17:58.000Z</time>
      </trkpt>
      <trkpt lat="45.8781" lon="6.18098">
        <ele>495</ele>
        <time>2013-05-25T16:17:59.000Z</time>
      </trkpt>
      <trkpt lat="45.87808" lon="6.18099">
        <ele>495</ele>
        <time>2013-05-25T16:18:00.000Z</time>
      </trkpt>
      <trkpt lat="45.87805" lon="6.181">
        <ele>495</ele>
        <time>2013-05-25T16:18:01.000Z</time>
      </trkpt>
      <trkpt lat="45.87803" lon="6.18102">
        <ele>495</ele>
        <time>2013-05-25T16:18:02.000Z</time>
      </trkpt>
      <trkpt lat="45.878" lon="6.18103">
        <ele>495</ele>
        <time>2013-05-25T16:18:03.000Z</time>
      </trkpt>
      <trkpt lat="45.87797" lon="6.18104">
        <ele>495</ele>
        <time>2013-05-25T16:18:04.000Z</time>
      </trkpt>
      <trkpt lat="45.87794" lon="6.18105">
        <ele>495</ele>
        <time>2013-05-25T16:18:05.000Z</time>
      </trkpt>
      <trkpt lat="45.87791" lon="6.18106">
        <ele>495</ele>
        <time>2013-05-25T16:18:06.000Z</time>
      </trkpt>
      <trkpt lat="45.87788" lon="6.18107">
        <ele>495</ele>
        <time>2013-05-25T16:18:07.000Z</time>
      </trkpt>
      <trkpt lat="45.87786" lon="6.18108">
        <ele>495</ele>
        <time>2013-05-25T16:18:08.000Z</time>
      </trkpt>
      <trkpt lat="45.87783" lon="6.18109">
        <ele>495</ele>
        <time>2013-05-25T16:18:09.000Z</time>
      </trkpt>
      <trkpt lat="45.8778" lon="6.1811">
        <ele>494</ele>
        <time>2013-05-25T16:18:10.000Z</time>
      </trkpt>
      <trkpt lat="45.87777" lon="6.18111">
        <ele>494</ele>
        <time>2013-05-25T16:18:11.000Z</time>
      </trkpt>
      <trkpt lat="45.87774" lon="6.18113">
        <ele>494</ele>
        <time>2013-05-25T16:18:12.000Z</time>
      </trkpt>
      <trkpt lat="45.87772" lon="6.18114">
        <ele>494</ele>
        <time>2013-05-25T16:18:13.000Z</time>
      </trkpt>
      <trkpt lat="45.87769" lon="6.18115">
        <ele>494</ele>
        <time>2013-05-25T16:18:14.000Z</time>
      </trkpt>
      <trkpt lat="45.87766" lon="6.18116">
        <ele>494</ele>
        <time>2013-05-25T16:18:15.000Z</time>
      </trkpt>
      <trkpt lat="45.87764" lon="6.18117">
        <ele>494</ele>
        <time>2013-05-25T16:18:16.000Z</time>
      </trkpt>
      <trkpt lat="45.87761" lon="6.18117">
        <ele>494</ele>
        <time>2013-05-25T16:18:17.000Z</time>
      </trkpt>
      <trkpt lat="45.87759" lon="6.18119">
        <ele>495</ele>
        <time>2013-05-25T16:18:18.000Z</time>
      </trkpt>
      <trkpt lat="45.87756" lon="6.1812">
        <ele>495</ele>
        <time>2013-05-25T16:18:19.000Z</time>
      </trkpt>
      <trkpt lat="45.87753" lon="6.18121">
        <ele>495</ele>
        <time>2013-05-25T16:18:20.000Z</time>
      </trkpt>
      <trkpt lat="45.87751" lon="6.18123">
        <ele>495</ele>
        <time>2013-05-25T16:18:21.000Z</time>
      </trkpt>
      <trkpt lat="45.87748" lon="6.18124">
        <ele>492</ele>
        <time>2013-05-25T16:18:22.000Z</time>
      </trkpt>
      <trkpt lat="45.87745" lon="6.18125">
        <ele>492</ele>
        <time>2013-05-25T16:18:23.000Z</time>
      </trkpt>
      <trkpt lat="45.87742" lon="6.18127">
        <ele>493</ele>
        <time>2013-05-25T16:18:24.000Z</time>
      </trkpt>
      <trkpt lat="45.8774" lon="6.18128">
        <ele>493</ele>
        <time>2013-05-25T16:18:25.000Z</time>
      </trkpt>
      <trkpt lat="45.87737" lon="6.18129">
        <ele>493</ele>
        <time>2013-05-25T16:18:26.000Z</time>
      </trkpt>
      <trkpt lat="45.87734" lon="6.18131">
        <ele>493</ele>
        <time>2013-05-25T16:18:27.000Z</time>
      </trkpt>
      <trkpt lat="45.87732" lon="6.18132">
        <ele>493</ele>
        <time>2013-05-25T16:18:28.000Z</time>
      </trkpt>
      <trkpt lat="45.87729" lon="6.18134">
        <ele>493</ele>
        <time>2013-05-25T16:18:29.000Z</time>
      </trkpt>
      <trkpt lat="45.87727" lon="6.18135">
        <ele>493</ele>
        <time>2013-05-25T16:18:30.000Z</time>
      </trkpt>
      <trkpt lat="45.87725" lon="6.18136">
        <ele>493</ele>
        <time>2013-05-25T16:18:31.000Z</time>
      </trkpt>
      <trkpt lat="45.87722" lon="6.18137">
        <ele>493</ele>
        <time>2013-05-25T16:18:32.000Z</time>
      </trkpt>
      <trkpt lat="45.87719" lon="6.18138">
        <ele>493</ele>
        <time>2013-05-25T16:18:33.000Z</time>
      </trkpt>
      <trkpt lat="45.87717" lon="6.18139">
        <ele>493</ele>
        <time>2013-05-25T16:18:34.000Z</time>
      </trkpt>
      <trkpt lat="45.87714" lon="6.18141">
        <ele>493</ele>
        <time>2013-05-25T16:18:35.000Z</time>
      </trkpt>
      <trkpt lat="45.87711" lon="6.18142">
        <ele>493</ele>
        <time>2013-05-25T16:18:36.000Z</time>
      </trkpt>
      <trkpt lat="45.87709" lon="6.18144">
        <ele>493</ele>
        <time>2013-05-25T16:18:37.000Z</time>
      </trkpt>
      <trkpt lat="45.87706" lon="6.18145">
        <ele>493</ele>
        <time>2013-05-25T16:18:38.000Z</time>
      </trkpt>
      <trkpt lat="45.87703" lon="6.18146">
        <ele>493</ele>
        <time>2013-05-25T16:18:39.000Z</time>
      </trkpt>
      <trkpt lat="45.877" lon="6.18147">
        <ele>493</ele>
        <time>2013-05-25T16:18:40.000Z</time>
      </trkpt>
      <trkpt lat="45.87698" lon="6.18148">
        <ele>493</ele>
        <time>2013-05-25T16:18:41.000Z</time>
      </trkpt>
      <trkpt lat="45.87695" lon="6.1815">
        <ele>493</ele>
        <time>2013-05-25T16:18:42.000Z</time>
      </trkpt>
      <trkpt lat="45.87692" lon="6.18151">
        <ele>493</ele>
        <time>2013-05-25T16:18:43.000Z</time>
      </trkpt>
      <trkpt lat="45.87689" lon="6.18152">
        <ele>493</ele>
        <time>2013-05-25T16:18:44.000Z</time>
      </trkpt>
      <trkpt lat="45.87686" lon="6.18153">
        <ele>493</ele>
        <time>2013-05-25T16:18:45.000Z</time>
      </trkpt>
      <trkpt lat="45.87684" lon="6.18154">
        <ele>493</ele>
        <time>2013-05-25T16:18:46.000Z</time>
      </trkpt>
      <trkpt lat="45.87681" lon="6.18155">
        <ele>493</ele>
        <time>2013-05-25T16:18:47.000Z</time>
      </trkpt>
      <trkpt lat="45.87678" lon="6.18157">
        <ele>493</ele>
        <time>2013-05-25T16:18:48.000Z</time>
      </trkpt>
      <trkpt lat="45.87675" lon="6.18158">
        <ele>493</ele>
        <time>2013-05-25T16:18:49.000Z</time>
      </trkpt>
      <trkpt lat="45.87672" lon="6.18159">
        <ele>493</ele>
        <time>2013-05-25T16:18:50.000Z</time>
      </trkpt>
      <trkpt lat="45.8767" lon="6.1816">
        <ele>493</ele>
        <time>2013-05-25T16:18:51.000Z</time>
      </trkpt>
      <trkpt lat="45.87667" lon="6.18161">
        <ele>494</ele>
        <time>2013-05-25T16:18:52.000Z</time>
      </trkpt>
      <trkpt lat="45.87664" lon="6.18163">
        <ele>493</ele>
        <time>2013-05-25T16:18:53.000Z</time>
      </trkpt>
      <trkpt lat="45.87662" lon="6.18164">
        <ele>492</ele>
        <time>2013-05-25T16:18:54.000Z</time>
      </trkpt>
      <trkpt lat="45.87659" lon="6.18165">
        <ele>492</ele>
        <time>2013-05-25T16:18:55.000Z</time>
      </trkpt>
      <trkpt lat="45.87656" lon="6.18166">
        <ele>492</ele>
        <time>2013-05-25T16:18:56.000Z</time>
      </trkpt>
      <trkpt lat="45.87654" lon="6.18167">
        <ele>495</ele>
        <time>2013-05-25T16:18:57.000Z</time>
      </trkpt>
      <trkpt lat="45.87651" lon="6.18169">
        <ele>495</ele>
        <time>2013-05-25T16:18:58.000Z</time>
      </trkpt>
      <trkpt lat="45.87648" lon="6.1817">
        <ele>496</ele>
        <time>2013-05-25T16:18:59.000Z</time>
      </trkpt>
      <trkpt lat="45.87646" lon="6.18171">
        <ele>496</ele>
        <time>2013-05-25T16:19:00.000Z</time>
      </trkpt>
      <trkpt lat="45.87643" lon="6.18172">
        <ele>496</ele>
        <time>2013-05-25T16:19:01.000Z</time>
      </trkpt>
      <trkpt lat="45.8764" lon="6.18173">
        <ele>496</ele>
        <time>2013-05-25T16:19:02.000Z</time>
      </trkpt>
      <trkpt lat="45.87638" lon="6.18174">
        <ele>496</ele>
        <time>2013-05-25T16:19:03.000Z</time>
      </trkpt>
      <trkpt lat="45.87635" lon="6.18175">
        <ele>496</ele>
        <time>2013-05-25T16:19:04.000Z</time>
      </trkpt>
      <trkpt lat="45.87633" lon="6.18176">
        <ele>496</ele>
        <time>2013-05-25T16:19:05.000Z</time>
      </trkpt>
      <trkpt lat="45.8763" lon="6.18177">
        <ele>496</ele>
        <time>2013-05-25T16:19:06.000Z</time>
      </trkpt>
      <trkpt lat="45.87627" lon="6.18179">
        <ele>496</ele>
        <time>2013-05-25T16:19:07.000Z</time>
      </trkpt>
      <trkpt lat="45.87624" lon="6.18181">
        <ele>496</ele>
        <time>2013-05-25T16:19:08.000Z</time>
      </trkpt>
      <trkpt lat="45.87621" lon="6.18182">
        <ele>496</ele>
        <time>2013-05-25T16:19:09.000Z</time>
      </trkpt>
      <trkpt lat="45.87618" lon="6.18183">
        <ele>495</ele>
        <time>2013-05-25T16:19:10.000Z</time>
      </trkpt>
      <trkpt lat="45.87615" lon="6.18184">
        <ele>495</ele>
        <time>2013-05-25T16:19:11.000Z</time>
      </trkpt>
      <trkpt lat="45.87612" lon="6.18185">
        <ele>495</ele>
        <time>2013-05-25T16:19:12.000Z</time>
      </trkpt>
      <trkpt lat="45.87609" lon="6.18187">
        <ele>495</ele>
        <time>2013-05-25T16:19:13.000Z</time>
      </trkpt>
      <trkpt lat="45.87607" lon="6.18188">
        <ele>495</ele>
        <time>2013-05-25T16:19:14.000Z</time>
      </trkpt>
      <trkpt lat="45.87604" lon="6.18189">
        <ele>495</ele>
        <time>2013-05-25T16:19:15.000Z</time>
      </trkpt>
      <trkpt lat="45.87601" lon="6.18191">
        <ele>495</ele>
        <time>2013-05-25T16:19:16.000Z</time>
      </trkpt>
      <trkpt lat="45.87598" lon="6.18192">
        <ele>495</ele>
        <time>2013-05-25T16:19:17.000Z</time>
      </trkpt>
      <trkpt lat="45.87596" lon="6.18193">
        <ele>495</ele>
        <time>2013-05-25T16:19:18.000Z</time>
      </trkpt>
      <trkpt lat="45.87593" lon="6.18194">
        <ele>495</ele>
        <time>2013-05-25T16:19:19.000Z</time>
      </trkpt>
      <trkpt lat="45.8759" lon="6.18196">
        <ele>495</ele>
        <time>2013-05-25T16:19:20.000Z</time>
      </trkpt>
      <trkpt lat="45.87587" lon="6.18197">
        <ele>495</ele>
        <time>2013-05-25T16:19:21.000Z</time>
      </trkpt>
      <trkpt lat="45.87584" lon="6.18198">
        <ele>495</ele>
        <time>2013-05-25T16:19:22.000Z</time>
      </trkpt>
      <trkpt lat="45.87581" lon="6.18199">
        <ele>492</ele>
        <time>2013-05-25T16:19:23.000Z</time>
      </trkpt>
      <trkpt lat="45.87579" lon="6.182">
        <ele>492</ele>
        <time>2013-05-25T16:19:24.000Z</time>
      </trkpt>
      <trkpt lat="45.87576" lon="6.18201">
        <ele>492</ele>
        <time>2013-05-25T16:19:25.000Z</time>
      </trkpt>
      <trkpt lat="45.87573" lon="6.18202">
        <ele>492</ele>
        <time>2013-05-25T16:19:26.000Z</time>
      </trkpt>
      <trkpt lat="45.8757" lon="6.18203">
        <ele>492</ele>
        <time>2013-05-25T16:19:27.000Z</time>
      </trkpt>
      <trkpt lat="45.87567" lon="6.18203">
        <ele>492</ele>
        <time>2013-05-25T16:19:28.000Z</time>
      </trkpt>
      <trkpt lat="45.87564" lon="6.18204">
        <ele>492</ele>
        <time>2013-05-25T16:19:29.000Z</time>
      </trkpt>
      <trkpt lat="45.87561" lon="6.18205">
        <ele>492</ele>
        <time>2013-05-25T16:19:30.000Z</time>
      </trkpt>
      <trkpt lat="45.87559" lon="6.18206">
        <ele>492</ele>
        <time>2013-05-25T16:19:31.000Z</time>
      </trkpt>
      <trkpt lat="45.87556" lon="6.18206">
        <ele>492</ele>
        <time>2013-05-25T16:19:32.000Z</time>
      </trkpt>
      <trkpt lat="45.87554" lon="6.18207">
        <ele>492</ele>
        <time>2013-05-25T16:19:33.000Z</time>
      </trkpt>
      <trkpt lat="45.87551" lon="6.18207">
        <ele>492</ele>
        <time>2013-05-25T16:19:34.000Z</time>
      </trkpt>
      <trkpt lat="45.87548" lon="6.18208">
        <ele>492</ele>
        <time>2013-05-25T16:19:35.000Z</time>
      </trkpt>
      <trkpt lat="45.87545" lon="6.18208">
        <ele>492</ele>
        <time>2013-05-25T16:19:36.000Z</time>
      </trkpt>
      <trkpt lat="45.87542" lon="6.18209">
        <ele>492</ele>
        <time>2013-05-25T16:19:37.000Z</time>
      </trkpt>
      <trkpt lat="45.8754" lon="6.1821">
        <ele>492</ele>
        <time>2013-05-25T16:19:38.000Z</time>
      </trkpt>
      <trkpt lat="45.87537" lon="6.18211">
        <ele>492</ele>
        <time>2013-05-25T16:19:39.000Z</time>
      </trkpt>
      <trkpt lat="45.87534" lon="6.18212">
        <ele>492</ele>
        <time>2013-05-25T16:19:40.000Z</time>
      </trkpt>
      <trkpt lat="45.87532" lon="6.18212">
        <ele>492</ele>
        <time>2013-05-25T16:19:41.000Z</time>
      </trkpt>
      <trkpt lat="45.87529" lon="6.18213">
        <ele>492</ele>
        <time>2013-05-25T16:19:42.000Z</time>
      </trkpt>
      <trkpt lat="45.87526" lon="6.18213">
        <ele>492</ele>
        <time>2013-05-25T16:19:43.000Z</time>
      </trkpt>
      <trkpt lat="45.87524" lon="6.18214">
        <ele>492</ele>
        <time>2013-05-25T16:19:44.000Z</time>
      </trkpt>
      <trkpt lat="45.87521" lon="6.18214">
        <ele>492</ele>
        <time>2013-05-25T16:19:45.000Z</time>
      </trkpt>
      <trkpt lat="45.87518" lon="6.18215">
        <ele>492</ele>
        <time>2013-05-25T16:19:46.000Z</time>
      </trkpt>
      <trkpt lat="45.87516" lon="6.18215">
        <ele>492</ele>
        <time>2013-05-25T16:19:47.000Z</time>
      </trkpt>
      <trkpt lat="45.87514" lon="6.18216">
        <ele>492</ele>
        <time>2013-05-25T16:19:48.000Z</time>
      </trkpt>
      <trkpt lat="45.87511" lon="6.18216">
        <ele>492</ele>
        <time>2013-05-25T16:19:49.000Z</time>
      </trkpt>
      <trkpt lat="45.87509" lon="6.18217">
        <ele>492</ele>
        <time>2013-05-25T16:19:50.000Z</time>
      </trkpt>
      <trkpt lat="45.87506" lon="6.18217">
        <ele>492</ele>
        <time>2013-05-25T16:19:51.000Z</time>
      </trkpt>
      <trkpt lat="45.87503" lon="6.18218">
        <ele>492</ele>
        <time>2013-05-25T16:19:52.000Z</time>
      </trkpt>
      <trkpt lat="45.875" lon="6.18219">
        <ele>491</ele>
        <time>2013-05-25T16:19:53.000Z</time>
      </trkpt>
      <trkpt lat="45.87497" lon="6.1822">
        <ele>490</ele>
        <time>2013-05-25T16:19:54.000Z</time>
      </trkpt>
      <trkpt lat="45.87494" lon="6.18221">
        <ele>490</ele>
        <time>2013-05-25T16:19:55.000Z</time>
      </trkpt>
      <trkpt lat="45.87491" lon="6.18221">
        <ele>490</ele>
        <time>2013-05-25T16:19:56.000Z</time>
      </trkpt>
      <trkpt lat="45.87489" lon="6.18222">
        <ele>490</ele>
        <time>2013-05-25T16:19:57.000Z</time>
      </trkpt>
      <trkpt lat="45.87485" lon="6.18223">
        <ele>490</ele>
        <time>2013-05-25T16:19:58.000Z</time>
      </trkpt>
      <trkpt lat="45.87482" lon="6.18224">
        <ele>490</ele>
        <time>2013-05-25T16:19:59.000Z</time>
      </trkpt>
      <trkpt lat="45.87479" lon="6.18225">
        <ele>490</ele>
        <time>2013-05-25T16:20:00.000Z</time>
      </trkpt>
      <trkpt lat="45.87476" lon="6.18226">
        <ele>490</ele>
        <time>2013-05-25T16:20:01.000Z</time>
      </trkpt>
      <trkpt lat="45.87473" lon="6.18227">
        <ele>490</ele>
        <time>2013-05-25T16:20:02.000Z</time>
      </trkpt>
      <trkpt lat="45.8747" lon="6.18228">
        <ele>490</ele>
        <time>2013-05-25T16:20:03.000Z</time>
      </trkpt>
      <trkpt lat="45.87467" lon="6.1823">
        <ele>490</ele>
        <time>2013-05-25T16:20:04.000Z</time>
      </trkpt>
      <trkpt lat="45.87464" lon="6.1823">
        <ele>489</ele>
        <time>2013-05-25T16:20:05.000Z</time>
      </trkpt>
      <trkpt lat="45.87461" lon="6.18231">
        <ele>489</ele>
        <time>2013-05-25T16:20:06.000Z</time>
      </trkpt>
      <trkpt lat="45.87459" lon="6.18232">
        <ele>489</ele>
        <time>2013-05-25T16:20:07.000Z</time>
      </trkpt>
      <trkpt lat="45.87456" lon="6.18232">
        <ele>489</ele>
        <time>2013-05-25T16:20:08.000Z</time>
      </trkpt>
      <trkpt lat="45.87453" lon="6.18233">
        <ele>489</ele>
        <time>2013-05-25T16:20:09.000Z</time>
      </trkpt>
      <trkpt lat="45.8745" lon="6.18233">
        <ele>489</ele>
        <time>2013-05-25T16:20:10.000Z</time>
      </trkpt>
      <trkpt lat="45.87447" lon="6.18234">
        <ele>489</ele>
        <time>2013-05-25T16:20:11.000Z</time>
      </trkpt>
      <trkpt lat="45.87444" lon="6.18234">
        <ele>489</ele>
        <time>2013-05-25T16:20:12.000Z</time>
      </trkpt>
      <trkpt lat="45.8744" lon="6.18235">
        <ele>489</ele>
        <time>2013-05-25T16:20:13.000Z</time>
      </trkpt>
      <trkpt lat="45.87437" lon="6.18236">
        <ele>489</ele>
        <time>2013-05-25T16:20:14.000Z</time>
      </trkpt>
      <trkpt lat="45.87435" lon="6.18236">
        <ele>489</ele>
        <time>2013-05-25T16:20:15.000Z</time>
      </trkpt>
      <trkpt lat="45.87432" lon="6.18237">
        <ele>489</ele>
        <time>2013-05-25T16:20:16.000Z</time>
      </trkpt>
      <trkpt lat="45.8743" lon="6.18237">
        <ele>489</ele>
        <time>2013-05-25T16:20:17.000Z</time>
      </trkpt>
      <trkpt lat="45.87428" lon="6.18237">
        <ele>490</ele>
        <time>2013-05-25T16:20:18.000Z</time>
      </trkpt>
      <trkpt lat="45.87425" lon="6.18238">
        <ele>490</ele>
        <time>2013-05-25T16:20:19.000Z</time>
      </trkpt>
      <trkpt lat="45.87422" lon="6.18237">
        <ele>490</ele>
        <time>2013-05-25T16:20:20.000Z</time>
      </trkpt>
      <trkpt lat="45.8742" lon="6.18238">
        <ele>490</ele>
        <time>2013-05-25T16:20:21.000Z</time>
      </trkpt>
      <trkpt lat="45.87417" lon="6.18238">
        <ele>490</ele>
        <time>2013-05-25T16:20:22.000Z</time>
      </trkpt>
      <trkpt lat="45.87414" lon="6.18239">
        <ele>489</ele>
        <time>2013-05-25T16:20:23.000Z</time>
      </trkpt>
      <trkpt lat="45.87411" lon="6.1824">
        <ele>489</ele>
        <time>2013-05-25T16:20:24.000Z</time>
      </trkpt>
      <trkpt lat="45.87408" lon="6.18241">
        <ele>489</ele>
        <time>2013-05-25T16:20:25.000Z</time>
      </trkpt>
      <trkpt lat="45.87406" lon="6.18242">
        <ele>488</ele>
        <time>2013-05-25T16:20:26.000Z</time>
      </trkpt>
      <trkpt lat="45.87403" lon="6.18242">
        <ele>488</ele>
        <time>2013-05-25T16:20:27.000Z</time>
      </trkpt>
      <trkpt lat="45.874" lon="6.18243">
        <ele>488</ele>
        <time>2013-05-25T16:20:28.000Z</time>
      </trkpt>
      <trkpt lat="45.87398" lon="6.18244">
        <ele>488</ele>
        <time>2013-05-25T16:20:29.000Z</time>
      </trkpt>
      <trkpt lat="45.87395" lon="6.18245">
        <ele>487</ele>
        <time>2013-05-25T16:20:30.000Z</time>
      </trkpt>
      <trkpt lat="45.87392" lon="6.18246">
        <ele>487</ele>
        <time>2013-05-25T16:20:31.000Z</time>
      </trkpt>
      <trkpt lat="45.87389" lon="6.18247">
        <ele>487</ele>
        <time>2013-05-25T16:20:32.000Z</time>
      </trkpt>
      <trkpt lat="45.87386" lon="6.18247">
        <ele>487</ele>
        <time>2013-05-25T16:20:33.000Z</time>
      </trkpt>
      <trkpt lat="45.87383" lon="6.18249">
        <ele>487</ele>
        <time>2013-05-25T16:20:34.000Z</time>
      </trkpt>
      <trkpt lat="45.8738" lon="6.18249">
        <ele>487</ele>
        <time>2013-05-25T16:20:35.000Z</time>
      </trkpt>
      <trkpt lat="45.87376" lon="6.1825">
        <ele>494</ele>
        <time>2013-05-25T16:20:36.000Z</time>
      </trkpt>
      <trkpt lat="45.87374" lon="6.18251">
        <ele>493</ele>
        <time>2013-05-25T16:20:37.000Z</time>
      </trkpt>
      <trkpt lat="45.8737" lon="6.18251">
        <ele>493</ele>
        <time>2013-05-25T16:20:38.000Z</time>
      </trkpt>
      <trkpt lat="45.87368" lon="6.18252">
        <ele>493</ele>
        <time>2013-05-25T16:20:39.000Z</time>
      </trkpt>
      <trkpt lat="45.87365" lon="6.18253">
        <ele>493</ele>
        <time>2013-05-25T16:20:40.000Z</time>
      </trkpt>
      <trkpt lat="45.87362" lon="6.18254">
        <ele>493</ele>
        <time>2013-05-25T16:20:41.000Z</time>
      </trkpt>
      <trkpt lat="45.87359" lon="6.18255">
        <ele>493</ele>
        <time>2013-05-25T16:20:42.000Z</time>
      </trkpt>
      <trkpt lat="45.87356" lon="6.18256">
        <ele>493</ele>
        <time>2013-05-25T16:20:43.000Z</time>
      </trkpt>
      <trkpt lat="45.87354" lon="6.18257">
        <ele>492</ele>
        <time>2013-05-25T16:20:44.000Z</time>
      </trkpt>
      <trkpt lat="45.87351" lon="6.18259">
        <ele>492</ele>
        <time>2013-05-25T16:20:45.000Z</time>
      </trkpt>
      <trkpt lat="45.87348" lon="6.1826">
        <ele>492</ele>
        <time>2013-05-25T16:20:46.000Z</time>
      </trkpt>
      <trkpt lat="45.87345" lon="6.18261">
        <ele>492</ele>
        <time>2013-05-25T16:20:47.000Z</time>
      </trkpt>
      <trkpt lat="45.87343" lon="6.18262">
        <ele>492</ele>
        <time>2013-05-25T16:20:48.000Z</time>
      </trkpt>
      <trkpt lat="45.8734" lon="6.18264">
        <ele>492</ele>
        <time>2013-05-25T16:20:49.000Z</time>
      </trkpt>
      <trkpt lat="45.87337" lon="6.18265">
        <ele>492</ele>
        <time>2013-05-25T16:20:50.000Z</time>
      </trkpt>
      <trkpt lat="45.87334" lon="6.18266">
        <ele>492</ele>
        <time>2013-05-25T16:20:51.000Z</time>
      </trkpt>
      <trkpt lat="45.87331" lon="6.18267">
        <ele>490</ele>
        <time>2013-05-25T16:20:52.000Z</time>
      </trkpt>
      <trkpt lat="45.87329" lon="6.18268">
        <ele>490</ele>
        <time>2013-05-25T16:20:53.000Z</time>
      </trkpt>
      <trkpt lat="45.87326" lon="6.18269">
        <ele>490</ele>
        <time>2013-05-25T16:20:54.000Z</time>
      </trkpt>
      <trkpt lat="45.87324" lon="6.1827">
        <ele>490</ele>
        <time>2013-05-25T16:20:55.000Z</time>
      </trkpt>
      <trkpt lat="45.87321" lon="6.18271">
        <ele>490</ele>
        <time>2013-05-25T16:20:56.000Z</time>
      </trkpt>
      <trkpt lat="45.87318" lon="6.18273">
        <ele>490</ele>
        <time>2013-05-25T16:20:57.000Z</time>
      </trkpt>
      <trkpt lat="45.87315" lon="6.18274">
        <ele>490</ele>
        <time>2013-05-25T16:20:58.000Z</time>
      </trkpt>
      <trkpt lat="45.87312" lon="6.18275">
        <ele>490</ele>
        <time>2013-05-25T16:20:59.000Z</time>
      </trkpt>
      <trkpt lat="45.8731" lon="6.18276">
        <ele>490</ele>
        <time>2013-05-25T16:21:00.000Z</time>
      </trkpt>
      <trkpt lat="45.87307" lon="6.18278">
        <ele>490</ele>
        <time>2013-05-25T16:21:01.000Z</time>
      </trkpt>
      <trkpt lat="45.87304" lon="6.18279">
        <ele>490</ele>
        <time>2013-05-25T16:21:02.000Z</time>
      </trkpt>
      <trkpt lat="45.87301" lon="6.1828">
        <ele>490</ele>
        <time>2013-05-25T16:21:03.000Z</time>
      </trkpt>
      <trkpt lat="45.87299" lon="6.18281">
        <ele>490</ele>
        <time>2013-05-25T16:21:04.000Z</time>
      </trkpt>
      <trkpt lat="45.87297" lon="6.18283">
        <ele>490</ele>
        <time>2013-05-25T16:21:05.000Z</time>
      </trkpt>
      <trkpt lat="45.87294" lon="6.18284">
        <ele>490</ele>
        <time>2013-05-25T16:21:06.000Z</time>
      </trkpt>
      <trkpt lat="45.87292" lon="6.18285">
        <ele>490</ele>
        <time>2013-05-25T16:21:07.000Z</time>
      </trkpt>
      <trkpt lat="45.87289" lon="6.18286">
        <ele>490</ele>
        <time>2013-05-25T16:21:08.000Z</time>
      </trkpt>
      <trkpt lat="45.87286" lon="6.18287">
        <ele>490</ele>
        <time>2013-05-25T16:21:09.000Z</time>
      </trkpt>
      <trkpt lat="45.87283" lon="6.18289">
        <ele>490</ele>
        <time>2013-05-25T16:21:10.000Z</time>
      </trkpt>
      <trkpt lat="45.87279" lon="6.1829">
        <ele>490</ele>
        <time>2013-05-25T16:21:11.000Z</time>
      </trkpt>
      <trkpt lat="45.87276" lon="6.18292">
        <ele>490</ele>
        <time>2013-05-25T16:21:12.000Z</time>
      </trkpt>
      <trkpt lat="45.87274" lon="6.18293">
        <ele>490</ele>
        <time>2013-05-25T16:21:13.000Z</time>
      </trkpt>
      <trkpt lat="45.87272" lon="6.18294">
        <ele>490</ele>
        <time>2013-05-25T16:21:14.000Z</time>
      </trkpt>
      <trkpt lat="45.87269" lon="6.18295">
        <ele>490</ele>
        <time>2013-05-25T16:21:15.000Z</time>
      </trkpt>
      <trkpt lat="45.87266" lon="6.18295">
        <ele>490</ele>
        <time>2013-05-25T16:21:16.000Z</time>
      </trkpt>
      <trkpt lat="45.87264" lon="6.18296">
        <ele>490</ele>
        <time>2013-05-25T16:21:17.000Z</time>
      </trkpt>
      <trkpt lat="45.87261" lon="6.18298">
        <ele>490</ele>
        <time>2013-05-25T16:21:18.000Z</time>
      </trkpt>
      <trkpt lat="45.87258" lon="6.183">
        <ele>490</ele>
        <time>2013-05-25T16:21:19.000Z</time>
      </trkpt>
      <trkpt lat="45.87255" lon="6.18301">
        <ele>490</ele>
        <time>2013-05-25T16:21:20.000Z</time>
      </trkpt>
      <trkpt lat="45.87252" lon="6.18303">
        <ele>490</ele>
        <time>2013-05-25T16:21:21.000Z</time>
      </trkpt>
      <trkpt lat="45.87249" lon="6.18304">
        <ele>486</ele>
        <time>2013-05-25T16:21:22.000Z</time>
      </trkpt>
      <trkpt lat="45.87246" lon="6.18306">
        <ele>486</ele>
        <time>2013-05-25T16:21:23.000Z</time>
      </trkpt>
      <trkpt lat="45.87244" lon="6.18308">
        <ele>486</ele>
        <time>2013-05-25T16:21:24.000Z</time>
      </trkpt>
      <trkpt lat="45.87241" lon="6.18308">
        <ele>486</ele>
        <time>2013-05-25T16:21:25.000Z</time>
      </trkpt>
      <trkpt lat="45.87238" lon="6.18309">
        <ele>486</ele>
        <time>2013-05-25T16:21:26.000Z</time>
      </trkpt>
      <trkpt lat="45.87236" lon="6.18311">
        <ele>486</ele>
        <time>2013-05-25T16:21:27.000Z</time>
      </trkpt>
      <trkpt lat="45.87233" lon="6.18312">
        <ele>486</ele>
        <time>2013-05-25T16:21:28.000Z</time>
      </trkpt>
      <trkpt lat="45.8723" lon="6.18314">
        <ele>486</ele>
        <time>2013-05-25T16:21:29.000Z</time>
      </trkpt>
      <trkpt lat="45.87228" lon="6.18316">
        <ele>486</ele>
        <time>2013-05-25T16:21:30.000Z</time>
      </trkpt>
      <trkpt lat="45.87225" lon="6.18318">
        <ele>486</ele>
        <time>2013-05-25T16:21:31.000Z</time>
      </trkpt>
      <trkpt lat="45.87222" lon="6.1832">
        <ele>486</ele>
        <time>2013-05-25T16:21:32.000Z</time>
      </trkpt>
      <trkpt lat="45.87219" lon="6.18321">
        <ele>486</ele>
        <time>2013-05-25T16:21:33.000Z</time>
      </trkpt>
      <trkpt lat="45.87217" lon="6.18323">
        <ele>485</ele>
        <time>2013-05-25T16:21:34.000Z</time>
      </trkpt>
      <trkpt lat="45.87214" lon="6.18325">
        <ele>485</ele>
        <time>2013-05-25T16:21:35.000Z</time>
      </trkpt>
      <trkpt lat="45.87211" lon="6.18327">
        <ele>485</ele>
        <time>2013-05-25T16:21:36.000Z</time>
      </trkpt>
      <trkpt lat="45.87208" lon="6.18329">
        <ele>485</ele>
        <time>2013-05-25T16:21:37.000Z</time>
      </trkpt>
      <trkpt lat="45.87205" lon="6.1833">
        <ele>485</ele>
        <time>2013-05-25T16:21:38.000Z</time>
      </trkpt>
      <trkpt lat="45.87203" lon="6.18332">
        <ele>485</ele>
        <time>2013-05-25T16:21:39.000Z</time>
      </trkpt>
      <trkpt lat="45.872" lon="6.18333">
        <ele>485</ele>
        <time>2013-05-25T16:21:40.000Z</time>
      </trkpt>
      <trkpt lat="45.87197" lon="6.18335">
        <ele>491</ele>
        <time>2013-05-25T16:21:41.000Z</time>
      </trkpt>
      <trkpt lat="45.87194" lon="6.18336">
        <ele>491</ele>
        <time>2013-05-25T16:21:42.000Z</time>
      </trkpt>
      <trkpt lat="45.87191" lon="6.18338">
        <ele>490</ele>
        <time>2013-05-25T16:21:43.000Z</time>
      </trkpt>
      <trkpt lat="45.87188" lon="6.18339">
        <ele>490</ele>
        <time>2013-05-25T16:21:44.000Z</time>
      </trkpt>
      <trkpt lat="45.87185" lon="6.18341">
        <ele>489</ele>
        <time>2013-05-25T16:21:45.000Z</time>
      </trkpt>
      <trkpt lat="45.87182" lon="6.18343">
        <ele>489</ele>
        <time>2013-05-25T16:21:46.000Z</time>
      </trkpt>
      <trkpt lat="45.87179" lon="6.18345">
        <ele>489</ele>
        <time>2013-05-25T16:21:47.000Z</time>
      </trkpt>
      <trkpt lat="45.87176" lon="6.18346">
        <ele>489</ele>
        <time>2013-05-25T16:21:48.000Z</time>
      </trkpt>
      <trkpt lat="45.87173" lon="6.18348">
        <ele>489</ele>
        <time>2013-05-25T16:21:49.000Z</time>
      </trkpt>
      <trkpt lat="45.8717" lon="6.18349">
        <ele>489</ele>
        <time>2013-05-25T16:21:50.000Z</time>
      </trkpt>
      <trkpt lat="45.87167" lon="6.18351">
        <ele>489</ele>
        <time>2013-05-25T16:21:51.000Z</time>
      </trkpt>
      <trkpt lat="45.87164" lon="6.18352">
        <ele>485</ele>
        <time>2013-05-25T16:21:52.000Z</time>
      </trkpt>
      <trkpt lat="45.87162" lon="6.18354">
        <ele>485</ele>
        <time>2013-05-25T16:21:53.000Z</time>
      </trkpt>
      <trkpt lat="45.87159" lon="6.18356">
        <ele>485</ele>
        <time>2013-05-25T16:21:54.000Z</time>
      </trkpt>
      <trkpt lat="45.87156" lon="6.18357">
        <ele>485</ele>
        <time>2013-05-25T16:21:55.000Z</time>
      </trkpt>
      <trkpt lat="45.87153" lon="6.18359">
        <ele>485</ele>
        <time>2013-05-25T16:21:56.000Z</time>
      </trkpt>
      <trkpt lat="45.8715" lon="6.18361">
        <ele>486</ele>
        <time>2013-05-25T16:21:57.000Z</time>
      </trkpt>
      <trkpt lat="45.87148" lon="6.18362">
        <ele>486</ele>
        <time>2013-05-25T16:21:58.000Z</time>
      </trkpt>
      <trkpt lat="45.87145" lon="6.18364">
        <ele>486</ele>
        <time>2013-05-25T16:21:59.000Z</time>
      </trkpt>
      <trkpt lat="45.87142" lon="6.18365">
        <ele>486</ele>
        <time>2013-05-25T16:22:00.000Z</time>
      </trkpt>
      <trkpt lat="45.8714" lon="6.18367">
        <ele>486</ele>
        <time>2013-05-25T16:22:01.000Z</time>
      </trkpt>
      <trkpt lat="45.87137" lon="6.18368">
        <ele>486</ele>
        <time>2013-05-25T16:22:02.000Z</time>
      </trkpt>
      <trkpt lat="45.87135" lon="6.1837">
        <ele>486</ele>
        <time>2013-05-25T16:22:03.000Z</time>
      </trkpt>
      <trkpt lat="45.87132" lon="6.18373">
        <ele>486</ele>
        <time>2013-05-25T16:22:04.000Z</time>
      </trkpt>
      <trkpt lat="45.87129" lon="6.18375">
        <ele>486</ele>
        <time>2013-05-25T16:22:05.000Z</time>
      </trkpt>
      <trkpt lat="45.87126" lon="6.18376">
        <ele>486</ele>
        <time>2013-05-25T16:22:06.000Z</time>
      </trkpt>
      <trkpt lat="45.87124" lon="6.18378">
        <ele>486</ele>
        <time>2013-05-25T16:22:07.000Z</time>
      </trkpt>
      <trkpt lat="45.87121" lon="6.1838">
        <ele>486</ele>
        <time>2013-05-25T16:22:08.000Z</time>
      </trkpt>
      <trkpt lat="45.87118" lon="6.18382">
        <ele>486</ele>
        <time>2013-05-25T16:22:09.000Z</time>
      </trkpt>
      <trkpt lat="45.87115" lon="6.18384">
        <ele>486</ele>
        <time>2013-05-25T16:22:10.000Z</time>
      </trkpt>
      <trkpt lat="45.87112" lon="6.18386">
        <ele>486</ele>
        <time>2013-05-25T16:22:11.000Z</time>
      </trkpt>
      <trkpt lat="45.87109" lon="6.18388">
        <ele>485</ele>
        <time>2013-05-25T16:22:12.000Z</time>
      </trkpt>
      <trkpt lat="45.87107" lon="6.18389">
        <ele>485</ele>
        <time>2013-05-25T16:22:13.000Z</time>
      </trkpt>
      <trkpt lat="45.87104" lon="6.18391">
        <ele>485</ele>
        <time>2013-05-25T16:22:14.000Z</time>
      </trkpt>
      <trkpt lat="45.87101" lon="6.18392">
        <ele>485</ele>
        <time>2013-05-25T16:22:15.000Z</time>
      </trkpt>
      <trkpt lat="45.87098" lon="6.18393">
        <ele>485</ele>
        <time>2013-05-25T16:22:16.000Z</time>
      </trkpt>
      <trkpt lat="45.87096" lon="6.18395">
        <ele>485</ele>
        <time>2013-05-25T16:22:17.000Z</time>
      </trkpt>
      <trkpt lat="45.87093" lon="6.18397">
        <ele>485</ele>
        <time>2013-05-25T16:22:18.000Z</time>
      </trkpt>
      <trkpt lat="45.8709" lon="6.18399">
        <ele>486</ele>
        <time>2013-05-25T16:22:19.000Z</time>
      </trkpt>
      <trkpt lat="45.87088" lon="6.18401">
        <ele>486</ele>
        <time>2013-05-25T16:22:20.000Z</time>
      </trkpt>
      <trkpt lat="45.87085" lon="6.18403">
        <ele>486</ele>
        <time>2013-05-25T16:22:21.000Z</time>
      </trkpt>
      <trkpt lat="45.87083" lon="6.18404">
        <ele>483</ele>
        <time>2013-05-25T16:22:22.000Z</time>
      </trkpt>
      <trkpt lat="45.8708" lon="6.18406">
        <ele>483</ele>
        <time>2013-05-25T16:22:23.000Z</time>
      </trkpt>
      <trkpt lat="45.87077" lon="6.18407">
        <ele>483</ele>
        <time>2013-05-25T16:22:24.000Z</time>
      </trkpt>
      <trkpt lat="45.87074" lon="6.18409">
        <ele>483</ele>
        <time>2013-05-25T16:22:25.000Z</time>
      </trkpt>
      <trkpt lat="45.87072" lon="6.18411">
        <ele>483</ele>
        <time>2013-05-25T16:22:26.000Z</time>
      </trkpt>
      <trkpt lat="45.87069" lon="6.18412">
        <ele>483</ele>
        <time>2013-05-25T16:22:27.000Z</time>
      </trkpt>
      <trkpt lat="45.87066" lon="6.18414">
        <ele>482</ele>
        <time>2013-05-25T16:22:28.000Z</time>
      </trkpt>
      <trkpt lat="45.87063" lon="6.18416">
        <ele>482</ele>
        <time>2013-05-25T16:22:29.000Z</time>
      </trkpt>
      <trkpt lat="45.8706" lon="6.18417">
        <ele>487</ele>
        <time>2013-05-25T16:22:30.000Z</time>
      </trkpt>
      <trkpt lat="45.87058" lon="6.18418">
        <ele>487</ele>
        <time>2013-05-25T16:22:31.000Z</time>
      </trkpt>
      <trkpt lat="45.87055" lon="6.1842">
        <ele>487</ele>
        <time>2013-05-25T16:22:32.000Z</time>
      </trkpt>
      <trkpt lat="45.87052" lon="6.18422">
        <ele>487</ele>
        <time>2013-05-25T16:22:33.000Z</time>
      </trkpt>
      <trkpt lat="45.87049" lon="6.18423">
        <ele>487</ele>
        <time>2013-05-25T16:22:34.000Z</time>
      </trkpt>
      <trkpt lat="45.87047" lon="6.18425">
        <ele>487</ele>
        <time>2013-05-25T16:22:35.000Z</time>
      </trkpt>
      <trkpt lat="45.87044" lon="6.18426">
        <ele>487</ele>
        <time>2013-05-25T16:22:36.000Z</time>
      </trkpt>
      <trkpt lat="45.87041" lon="6.18428">
        <ele>487</ele>
        <time>2013-05-25T16:22:37.000Z</time>
      </trkpt>
      <trkpt lat="45.87039" lon="6.1843">
        <ele>486</ele>
        <time>2013-05-25T16:22:38.000Z</time>
      </trkpt>
      <trkpt lat="45.87036" lon="6.18431">
        <ele>486</ele>
        <time>2013-05-25T16:22:39.000Z</time>
      </trkpt>
      <trkpt lat="45.87034" lon="6.18433">
        <ele>486</ele>
        <time>2013-05-25T16:22:40.000Z</time>
      </trkpt>
      <trkpt lat="45.87031" lon="6.18435">
        <ele>486</ele>
        <time>2013-05-25T16:22:41.000Z</time>
      </trkpt>
      <trkpt lat="45.87029" lon="6.18437">
        <ele>486</ele>
        <time>2013-05-25T16:22:42.000Z</time>
      </trkpt>
      <trkpt lat="45.87026" lon="6.18439">
        <ele>486</ele>
        <time>2013-05-25T16:22:43.000Z</time>
      </trkpt>
      <trkpt lat="45.87024" lon="6.1844">
        <ele>486</ele>
        <time>2013-05-25T16:22:44.000Z</time>
      </trkpt>
      <trkpt lat="45.87021" lon="6.18442">
        <ele>486</ele>
        <time>2013-05-25T16:22:45.000Z</time>
      </trkpt>
      <trkpt lat="45.87018" lon="6.18443">
        <ele>486</ele>
        <time>2013-05-25T16:22:46.000Z</time>
      </trkpt>
      <trkpt lat="45.87016" lon="6.18445">
        <ele>486</ele>
        <time>2013-05-25T16:22:47.000Z</time>
      </trkpt>
      <trkpt lat="45.87013" lon="6.18446">
        <ele>486</ele>
        <time>2013-05-25T16:22:48.000Z</time>
      </trkpt>
      <trkpt lat="45.8701" lon="6.18448">
        <ele>486</ele>
        <time>2013-05-25T16:22:49.000Z</time>
      </trkpt>
      <trkpt lat="45.87007" lon="6.1845">
        <ele>486</ele>
        <time>2013-05-25T16:22:50.000Z</time>
      </trkpt>
      <trkpt lat="45.87005" lon="6.18451">
        <ele>486</ele>
        <time>2013-05-25T16:22:51.000Z</time>
      </trkpt>
      <trkpt lat="45.87002" lon="6.18453">
        <ele>486</ele>
        <time>2013-05-25T16:22:52.000Z</time>
      </trkpt>
      <trkpt lat="45.86999" lon="6.18455">
        <ele>482</ele>
        <time>2013-05-25T16:22:53.000Z</time>
      </trkpt>
      <trkpt lat="45.86996" lon="6.18456">
        <ele>483</ele>
        <time>2013-05-25T16:22:54.000Z</time>
      </trkpt>
      <trkpt lat="45.86994" lon="6.18457">
        <ele>483</ele>
        <time>2013-05-25T16:22:55.000Z</time>
      </trkpt>
      <trkpt lat="45.86991" lon="6.18458">
        <ele>483</ele>
        <time>2013-05-25T16:22:56.000Z</time>
      </trkpt>
      <trkpt lat="45.86989" lon="6.1846">
        <ele>483</ele>
        <time>2013-05-25T16:22:57.000Z</time>
      </trkpt>
      <trkpt lat="45.86986" lon="6.18462">
        <ele>483</ele>
        <time>2013-05-25T16:22:58.000Z</time>
      </trkpt>
      <trkpt lat="45.86984" lon="6.18463">
        <ele>483</ele>
        <time>2013-05-25T16:22:59.000Z</time>
      </trkpt>
      <trkpt lat="45.86981" lon="6.18465">
        <ele>483</ele>
        <time>2013-05-25T16:23:00.000Z</time>
      </trkpt>
      <trkpt lat="45.86978" lon="6.18467">
        <ele>483</ele>
        <time>2013-05-25T16:23:01.000Z</time>
      </trkpt>
      <trkpt lat="45.86975" lon="6.18468">
        <ele>483</ele>
        <time>2013-05-25T16:23:02.000Z</time>
      </trkpt>
      <trkpt lat="45.86972" lon="6.1847">
        <ele>483</ele>
        <time>2013-05-25T16:23:03.000Z</time>
      </trkpt>
      <trkpt lat="45.86969" lon="6.18471">
        <ele>483</ele>
        <time>2013-05-25T16:23:04.000Z</time>
      </trkpt>
      <trkpt lat="45.86967" lon="6.18473">
        <ele>483</ele>
        <time>2013-05-25T16:23:05.000Z</time>
      </trkpt>
      <trkpt lat="45.86964" lon="6.18475">
        <ele>483</ele>
        <time>2013-05-25T16:23:06.000Z</time>
      </trkpt>
      <trkpt lat="45.86961" lon="6.18477">
        <ele>483</ele>
        <time>2013-05-25T16:23:07.000Z</time>
      </trkpt>
      <trkpt lat="45.86959" lon="6.18479">
        <ele>483</ele>
        <time>2013-05-25T16:23:08.000Z</time>
      </trkpt>
      <trkpt lat="45.86956" lon="6.1848">
        <ele>483</ele>
        <time>2013-05-25T16:23:09.000Z</time>
      </trkpt>
      <trkpt lat="45.86954" lon="6.18482">
        <ele>483</ele>
        <time>2013-05-25T16:23:10.000Z</time>
      </trkpt>
      <trkpt lat="45.86951" lon="6.18484">
        <ele>483</ele>
        <time>2013-05-25T16:23:11.000Z</time>
      </trkpt>
      <trkpt lat="45.86948" lon="6.18485">
        <ele>483</ele>
        <time>2013-05-25T16:23:12.000Z</time>
      </trkpt>
      <trkpt lat="45.86946" lon="6.18487">
        <ele>483</ele>
        <time>2013-05-25T16:23:13.000Z</time>
      </trkpt>
      <trkpt lat="45.86943" lon="6.18488">
        <ele>483</ele>
        <time>2013-05-25T16:23:14.000Z</time>
      </trkpt>
      <trkpt lat="45.8694" lon="6.1849">
        <ele>483</ele>
        <time>2013-05-25T16:23:15.000Z</time>
      </trkpt>
      <trkpt lat="45.86937" lon="6.18491">
        <ele>483</ele>
        <time>2013-05-25T16:23:16.000Z</time>
      </trkpt>
      <trkpt lat="45.86935" lon="6.18493">
        <ele>483</ele>
        <time>2013-05-25T16:23:17.000Z</time>
      </trkpt>
      <trkpt lat="45.86932" lon="6.18495">
        <ele>484</ele>
        <time>2013-05-25T16:23:18.000Z</time>
      </trkpt>
      <trkpt lat="45.86929" lon="6.18497">
        <ele>484</ele>
        <time>2013-05-25T16:23:19.000Z</time>
      </trkpt>
      <trkpt lat="45.86927" lon="6.18499">
        <ele>484</ele>
        <time>2013-05-25T16:23:20.000Z</time>
      </trkpt>
      <trkpt lat="45.86924" lon="6.185">
        <ele>487</ele>
        <time>2013-05-25T16:23:21.000Z</time>
      </trkpt>
      <trkpt lat="45.86921" lon="6.18502">
        <ele>486</ele>
        <time>2013-05-25T16:23:22.000Z</time>
      </trkpt>
      <trkpt lat="45.86918" lon="6.18503">
        <ele>486</ele>
        <time>2013-05-25T16:23:23.000Z</time>
      </trkpt>
      <trkpt lat="45.86916" lon="6.18505">
        <ele>485</ele>
        <time>2013-05-25T16:23:24.000Z</time>
      </trkpt>
      <trkpt lat="45.86913" lon="6.18507">
        <ele>485</ele>
        <time>2013-05-25T16:23:25.000Z</time>
      </trkpt>
      <trkpt lat="45.8691" lon="6.18508">
        <ele>485</ele>
        <time>2013-05-25T16:23:26.000Z</time>
      </trkpt>
      <trkpt lat="45.86908" lon="6.1851">
        <ele>485</ele>
        <time>2013-05-25T16:23:27.000Z</time>
      </trkpt>
      <trkpt lat="45.86905" lon="6.18511">
        <ele>485</ele>
        <time>2013-05-25T16:23:28.000Z</time>
      </trkpt>
      <trkpt lat="45.86902" lon="6.18513">
        <ele>485</ele>
        <time>2013-05-25T16:23:29.000Z</time>
      </trkpt>
      <trkpt lat="45.86899" lon="6.18515">
        <ele>485</ele>
        <time>2013-05-25T16:23:30.000Z</time>
      </trkpt>
      <trkpt lat="45.86897" lon="6.18517">
        <ele>485</ele>
        <time>2013-05-25T16:23:31.000Z</time>
      </trkpt>
      <trkpt lat="45.86894" lon="6.18518">
        <ele>484</ele>
        <time>2013-05-25T16:23:32.000Z</time>
      </trkpt>
      <trkpt lat="45.86891" lon="6.1852">
        <ele>484</ele>
        <time>2013-05-25T16:23:33.000Z</time>
      </trkpt>
      <trkpt lat="45.86889" lon="6.18522">
        <ele>484</ele>
        <time>2013-05-25T16:23:34.000Z</time>
      </trkpt>
      <trkpt lat="45.86886" lon="6.18524">
        <ele>484</ele>
        <time>2013-05-25T16:23:35.000Z</time>
      </trkpt>
      <trkpt lat="45.86883" lon="6.18525">
        <ele>484</ele>
        <time>2013-05-25T16:23:36.000Z</time>
      </trkpt>
      <trkpt lat="45.86881" lon="6.18527">
        <ele>484</ele>
        <time>2013-05-25T16:23:37.000Z</time>
      </trkpt>
      <trkpt lat="45.86878" lon="6.18529">
        <ele>484</ele>
        <time>2013-05-25T16:23:38.000Z</time>
      </trkpt>
      <trkpt lat="45.86875" lon="6.18531">
        <ele>484</ele>
        <time>2013-05-25T16:23:39.000Z</time>
      </trkpt>
      <trkpt lat="45.86872" lon="6.18533">
        <ele>484</ele>
        <time>2013-05-25T16:23:40.000Z</time>
      </trkpt>
      <trkpt lat="45.86869" lon="6.18534">
        <ele>484</ele>
        <time>2013-05-25T16:23:41.000Z</time>
      </trkpt>
      <trkpt lat="45.86867" lon="6.18536">
        <ele>483</ele>
        <time>2013-05-25T16:23:42.000Z</time>
      </trkpt>
      <trkpt lat="45.86864" lon="6.18538">
        <ele>483</ele>
        <time>2013-05-25T16:23:43.000Z</time>
      </trkpt>
      <trkpt lat="45.86862" lon="6.18539">
        <ele>483</ele>
        <time>2013-05-25T16:23:44.000Z</time>
      </trkpt>
      <trkpt lat="45.86859" lon="6.18541">
        <ele>483</ele>
        <time>2013-05-25T16:23:45.000Z</time>
      </trkpt>
      <trkpt lat="45.86857" lon="6.18542">
        <ele>483</ele>
        <time>2013-05-25T16:23:46.000Z</time>
      </trkpt>
      <trkpt lat="45.86854" lon="6.18544">
        <ele>483</ele>
        <time>2013-05-25T16:23:47.000Z</time>
      </trkpt>
      <trkpt lat="45.86852" lon="6.18546">
        <ele>483</ele>
        <time>2013-05-25T16:23:48.000Z</time>
      </trkpt>
      <trkpt lat="45.86849" lon="6.18547">
        <ele>483</ele>
        <time>2013-05-25T16:23:49.000Z</time>
      </trkpt>
      <trkpt lat="45.86847" lon="6.18549">
        <ele>483</ele>
        <time>2013-05-25T16:23:50.000Z</time>
      </trkpt>
      <trkpt lat="45.86844" lon="6.1855">
        <ele>483</ele>
        <time>2013-05-25T16:23:51.000Z</time>
      </trkpt>
      <trkpt lat="45.86842" lon="6.18552">
        <ele>483</ele>
        <time>2013-05-25T16:23:52.000Z</time>
      </trkpt>
      <trkpt lat="45.86839" lon="6.18554">
        <ele>483</ele>
        <time>2013-05-25T16:23:53.000Z</time>
      </trkpt>
      <trkpt lat="45.86836" lon="6.18556">
        <ele>483</ele>
        <time>2013-05-25T16:23:54.000Z</time>
      </trkpt>
      <trkpt lat="45.86834" lon="6.18558">
        <ele>482</ele>
        <time>2013-05-25T16:23:55.000Z</time>
      </trkpt>
      <trkpt lat="45.86831" lon="6.18559">
        <ele>478</ele>
        <time>2013-05-25T16:23:56.000Z</time>
      </trkpt>
      <trkpt lat="45.86828" lon="6.18561">
        <ele>478</ele>
        <time>2013-05-25T16:23:57.000Z</time>
      </trkpt>
      <trkpt lat="45.86825" lon="6.18563">
        <ele>478</ele>
        <time>2013-05-25T16:23:58.000Z</time>
      </trkpt>
      <trkpt lat="45.86822" lon="6.18565">
        <ele>478</ele>
        <time>2013-05-25T16:23:59.000Z</time>
      </trkpt>
      <trkpt lat="45.8682" lon="6.18567">
        <ele>478</ele>
        <time>2013-05-25T16:24:00.000Z</time>
      </trkpt>
      <trkpt lat="45.86817" lon="6.18568">
        <ele>478</ele>
        <time>2013-05-25T16:24:01.000Z</time>
      </trkpt>
      <trkpt lat="45.86814" lon="6.1857">
        <ele>478</ele>
        <time>2013-05-25T16:24:02.000Z</time>
      </trkpt>
      <trkpt lat="45.86811" lon="6.18572">
        <ele>477</ele>
        <time>2013-05-25T16:24:03.000Z</time>
      </trkpt>
      <trkpt lat="45.86808" lon="6.18574">
        <ele>477</ele>
        <time>2013-05-25T16:24:04.000Z</time>
      </trkpt>
      <trkpt lat="45.86806" lon="6.18576">
        <ele>477</ele>
        <time>2013-05-25T16:24:05.000Z</time>
      </trkpt>
      <trkpt lat="45.86803" lon="6.18578">
        <ele>477</ele>
        <time>2013-05-25T16:24:06.000Z</time>
      </trkpt>
      <trkpt lat="45.868" lon="6.18579">
        <ele>477</ele>
        <time>2013-05-25T16:24:07.000Z</time>
      </trkpt>
      <trkpt lat="45.86798" lon="6.18581">
        <ele>477</ele>
        <time>2013-05-25T16:24:08.000Z</time>
      </trkpt>
      <trkpt lat="45.86795" lon="6.18582">
        <ele>477</ele>
        <time>2013-05-25T16:24:09.000Z</time>
      </trkpt>
      <trkpt lat="45.86793" lon="6.18584">
        <ele>482</ele>
        <time>2013-05-25T16:24:10.000Z</time>
      </trkpt>
      <trkpt lat="45.8679" lon="6.18586">
        <ele>481</ele>
        <time>2013-05-25T16:24:11.000Z</time>
      </trkpt>
      <trkpt lat="45.86788" lon="6.18588">
        <ele>481</ele>
        <time>2013-05-25T16:24:12.000Z</time>
      </trkpt>
      <trkpt lat="45.86785" lon="6.1859">
        <ele>481</ele>
        <time>2013-05-25T16:24:13.000Z</time>
      </trkpt>
      <trkpt lat="45.86782" lon="6.18592">
        <ele>481</ele>
        <time>2013-05-25T16:24:14.000Z</time>
      </trkpt>
      <trkpt lat="45.8678" lon="6.18595">
        <ele>481</ele>
        <time>2013-05-25T16:24:15.000Z</time>
      </trkpt>
      <trkpt lat="45.86777" lon="6.18597">
        <ele>481</ele>
        <time>2013-05-25T16:24:16.000Z</time>
      </trkpt>
      <trkpt lat="45.86773" lon="6.186">
        <ele>481</ele>
        <time>2013-05-25T16:24:17.000Z</time>
      </trkpt>
      <trkpt lat="45.8677" lon="6.18602">
        <ele>481</ele>
        <time>2013-05-25T16:24:18.000Z</time>
      </trkpt>
      <trkpt lat="45.86768" lon="6.18604">
        <ele>481</ele>
        <time>2013-05-25T16:24:19.000Z</time>
      </trkpt>
      <trkpt lat="45.86765" lon="6.18606">
        <ele>481</ele>
        <time>2013-05-25T16:24:20.000Z</time>
      </trkpt>
      <trkpt lat="45.86763" lon="6.18607">
        <ele>481</ele>
        <time>2013-05-25T16:24:21.000Z</time>
      </trkpt>
      <trkpt lat="45.86761" lon="6.18609">
        <ele>481</ele>
        <time>2013-05-25T16:24:22.000Z</time>
      </trkpt>
      <trkpt lat="45.86758" lon="6.18611">
        <ele>481</ele>
        <time>2013-05-25T16:24:23.000Z</time>
      </trkpt>
      <trkpt lat="45.86756" lon="6.18614">
        <ele>481</ele>
        <time>2013-05-25T16:24:24.000Z</time>
      </trkpt>
      <trkpt lat="45.86754" lon="6.18616">
        <ele>481</ele>
        <time>2013-05-25T16:24:25.000Z</time>
      </trkpt>
      <trkpt lat="45.86752" lon="6.18619">
        <ele>481</ele>
        <time>2013-05-25T16:24:26.000Z</time>
      </trkpt>
      <trkpt lat="45.86749" lon="6.18621">
        <ele>477</ele>
        <time>2013-05-25T16:24:27.000Z</time>
      </trkpt>
      <trkpt lat="45.86747" lon="6.18624">
        <ele>477</ele>
        <time>2013-05-25T16:24:28.000Z</time>
      </trkpt>
      <trkpt lat="45.86745" lon="6.18626">
        <ele>477</ele>
        <time>2013-05-25T16:24:29.000Z</time>
      </trkpt>
      <trkpt lat="45.86742" lon="6.18629">
        <ele>477</ele>
        <time>2013-05-25T16:24:30.000Z</time>
      </trkpt>
      <trkpt lat="45.8674" lon="6.18631">
        <ele>477</ele>
        <time>2013-05-25T16:24:31.000Z</time>
      </trkpt>
      <trkpt lat="45.86737" lon="6.18633">
        <ele>477</ele>
        <time>2013-05-25T16:24:32.000Z</time>
      </trkpt>
      <trkpt lat="45.86735" lon="6.18635">
        <ele>477</ele>
        <time>2013-05-25T16:24:33.000Z</time>
      </trkpt>
      <trkpt lat="45.86732" lon="6.18637">
        <ele>477</ele>
        <time>2013-05-25T16:24:34.000Z</time>
      </trkpt>
      <trkpt lat="45.8673" lon="6.1864">
        <ele>477</ele>
        <time>2013-05-25T16:24:35.000Z</time>
      </trkpt>
      <trkpt lat="45.86727" lon="6.18642">
        <ele>477</ele>
        <time>2013-05-25T16:24:36.000Z</time>
      </trkpt>
      <trkpt lat="45.86724" lon="6.18645">
        <ele>477</ele>
        <time>2013-05-25T16:24:37.000Z</time>
      </trkpt>
      <trkpt lat="45.86721" lon="6.18648">
        <ele>477</ele>
        <time>2013-05-25T16:24:38.000Z</time>
      </trkpt>
      <trkpt lat="45.86718" lon="6.1865">
        <ele>477</ele>
        <time>2013-05-25T16:24:39.000Z</time>
      </trkpt>
      <trkpt lat="45.86716" lon="6.18653">
        <ele>477</ele>
        <time>2013-05-25T16:24:40.000Z</time>
      </trkpt>
      <trkpt lat="45.86713" lon="6.18655">
        <ele>477</ele>
        <time>2013-05-25T16:24:41.000Z</time>
      </trkpt>
      <trkpt lat="45.86711" lon="6.18658">
        <ele>477</ele>
        <time>2013-05-25T16:24:42.000Z</time>
      </trkpt>
      <trkpt lat="45.86708" lon="6.1866">
        <ele>477</ele>
        <time>2013-05-25T16:24:43.000Z</time>
      </trkpt>
      <trkpt lat="45.86706" lon="6.18663">
        <ele>477</ele>
        <time>2013-05-25T16:24:44.000Z</time>
      </trkpt>
      <trkpt lat="45.86703" lon="6.18666">
        <ele>477</ele>
        <time>2013-05-25T16:24:45.000Z</time>
      </trkpt>
      <trkpt lat="45.86701" lon="6.18669">
        <ele>481</ele>
        <time>2013-05-25T16:24:46.000Z</time>
      </trkpt>
      <trkpt lat="45.86698" lon="6.18672">
        <ele>480</ele>
        <time>2013-05-25T16:24:47.000Z</time>
      </trkpt>
      <trkpt lat="45.86696" lon="6.18675">
        <ele>480</ele>
        <time>2013-05-25T16:24:48.000Z</time>
      </trkpt>
      <trkpt lat="45.86694" lon="6.18678">
        <ele>480</ele>
        <time>2013-05-25T16:24:49.000Z</time>
      </trkpt>
      <trkpt lat="45.86691" lon="6.1868">
        <ele>480</ele>
        <time>2013-05-25T16:24:50.000Z</time>
      </trkpt>
      <trkpt lat="45.86689" lon="6.18683">
        <ele>480</ele>
        <time>2013-05-25T16:24:51.000Z</time>
      </trkpt>
      <trkpt lat="45.86686" lon="6.18686">
        <ele>480</ele>
        <time>2013-05-25T16:24:52.000Z</time>
      </trkpt>
      <trkpt lat="45.86683" lon="6.18689">
        <ele>480</ele>
        <time>2013-05-25T16:24:53.000Z</time>
      </trkpt>
      <trkpt lat="45.86681" lon="6.18691">
        <ele>480</ele>
        <time>2013-05-25T16:24:54.000Z</time>
      </trkpt>
      <trkpt lat="45.86679" lon="6.18694">
        <ele>480</ele>
        <time>2013-05-25T16:24:55.000Z</time>
      </trkpt>
      <trkpt lat="45.86676" lon="6.18696">
        <ele>480</ele>
        <time>2013-05-25T16:24:56.000Z</time>
      </trkpt>
      <trkpt lat="45.86674" lon="6.18699">
        <ele>480</ele>
        <time>2013-05-25T16:24:57.000Z</time>
      </trkpt>
      <trkpt lat="45.86671" lon="6.18701">
        <ele>480</ele>
        <time>2013-05-25T16:24:58.000Z</time>
      </trkpt>
      <trkpt lat="45.86668" lon="6.18704">
        <ele>480</ele>
        <time>2013-05-25T16:24:59.000Z</time>
      </trkpt>
      <trkpt lat="45.86666" lon="6.18706">
        <ele>477</ele>
        <time>2013-05-25T16:25:00.000Z</time>
      </trkpt>
      <trkpt lat="45.86664" lon="6.18709">
        <ele>477</ele>
        <time>2013-05-25T16:25:01.000Z</time>
      </trkpt>
      <trkpt lat="45.86662" lon="6.18711">
        <ele>477</ele>
        <time>2013-05-25T16:25:02.000Z</time>
      </trkpt>
      <trkpt lat="45.86659" lon="6.18714">
        <ele>477</ele>
        <time>2013-05-25T16:25:03.000Z</time>
      </trkpt>
      <trkpt lat="45.86657" lon="6.18716">
        <ele>477</ele>
        <time>2013-05-25T16:25:04.000Z</time>
      </trkpt>
      <trkpt lat="45.86654" lon="6.18719">
        <ele>477</ele>
        <time>2013-05-25T16:25:05.000Z</time>
      </trkpt>
      <trkpt lat="45.86652" lon="6.18722">
        <ele>477</ele>
        <time>2013-05-25T16:25:06.000Z</time>
      </trkpt>
      <trkpt lat="45.86649" lon="6.18724">
        <ele>477</ele>
        <time>2013-05-25T16:25:07.000Z</time>
      </trkpt>
      <trkpt lat="45.86647" lon="6.18727">
        <ele>477</ele>
        <time>2013-05-25T16:25:08.000Z</time>
      </trkpt>
      <trkpt lat="45.86645" lon="6.18729">
        <ele>477</ele>
        <time>2013-05-25T16:25:09.000Z</time>
      </trkpt>
      <trkpt lat="45.86643" lon="6.18732">
        <ele>477</ele>
        <time>2013-05-25T16:25:10.000Z</time>
      </trkpt>
      <trkpt lat="45.8664" lon="6.18734">
        <ele>477</ele>
        <time>2013-05-25T16:25:11.000Z</time>
      </trkpt>
      <trkpt lat="45.86638" lon="6.18736">
        <ele>477</ele>
        <time>2013-05-25T16:25:12.000Z</time>
      </trkpt>
      <trkpt lat="45.86636" lon="6.18738">
        <ele>477</ele>
        <time>2013-05-25T16:25:13.000Z</time>
      </trkpt>
      <trkpt lat="45.86633" lon="6.18741">
        <ele>477</ele>
        <time>2013-05-25T16:25:14.000Z</time>
      </trkpt>
      <trkpt lat="45.86631" lon="6.18743">
        <ele>477</ele>
        <time>2013-05-25T16:25:15.000Z</time>
      </trkpt>
      <trkpt lat="45.86629" lon="6.18746">
        <ele>477</ele>
        <time>2013-05-25T16:25:16.000Z</time>
      </trkpt>
      <trkpt lat="45.86626" lon="6.18748">
        <ele>476</ele>
        <time>2013-05-25T16:25:17.000Z</time>
      </trkpt>
      <trkpt lat="45.86624" lon="6.1875">
        <ele>479</ele>
        <time>2013-05-25T16:25:18.000Z</time>
      </trkpt>
      <trkpt lat="45.86621" lon="6.18753">
        <ele>479</ele>
        <time>2013-05-25T16:25:19.000Z</time>
      </trkpt>
      <trkpt lat="45.86619" lon="6.18755">
        <ele>479</ele>
        <time>2013-05-25T16:25:20.000Z</time>
      </trkpt>
      <trkpt lat="45.86616" lon="6.18758">
        <ele>479</ele>
        <time>2013-05-25T16:25:21.000Z</time>
      </trkpt>
      <trkpt lat="45.86614" lon="6.1876">
        <ele>479</ele>
        <time>2013-05-25T16:25:22.000Z</time>
      </trkpt>
      <trkpt lat="45.86612" lon="6.18763">
        <ele>479</ele>
        <time>2013-05-25T16:25:23.000Z</time>
      </trkpt>
      <trkpt lat="45.86609" lon="6.18766">
        <ele>479</ele>
        <time>2013-05-25T16:25:24.000Z</time>
      </trkpt>
      <trkpt lat="45.86607" lon="6.18768">
        <ele>479</ele>
        <time>2013-05-25T16:25:25.000Z</time>
      </trkpt>
      <trkpt lat="45.86605" lon="6.1877">
        <ele>479</ele>
        <time>2013-05-25T16:25:26.000Z</time>
      </trkpt>
      <trkpt lat="45.86603" lon="6.18772">
        <ele>479</ele>
        <time>2013-05-25T16:25:27.000Z</time>
      </trkpt>
      <trkpt lat="45.86601" lon="6.18775">
        <ele>479</ele>
        <time>2013-05-25T16:25:28.000Z</time>
      </trkpt>
      <trkpt lat="45.86598" lon="6.18777">
        <ele>479</ele>
        <time>2013-05-25T16:25:29.000Z</time>
      </trkpt>
      <trkpt lat="45.86596" lon="6.1878">
        <ele>479</ele>
        <time>2013-05-25T16:25:30.000Z</time>
      </trkpt>
      <trkpt lat="45.86594" lon="6.18783">
        <ele>479</ele>
        <time>2013-05-25T16:25:31.000Z</time>
      </trkpt>
      <trkpt lat="45.86592" lon="6.18785">
        <ele>479</ele>
        <time>2013-05-25T16:25:32.000Z</time>
      </trkpt>
      <trkpt lat="45.86589" lon="6.18788">
        <ele>479</ele>
        <time>2013-05-25T16:25:33.000Z</time>
      </trkpt>
      <trkpt lat="45.86587" lon="6.1879">
        <ele>479</ele>
        <time>2013-05-25T16:25:34.000Z</time>
      </trkpt>
      <trkpt lat="45.86585" lon="6.18793">
        <ele>479</ele>
        <time>2013-05-25T16:25:35.000Z</time>
      </trkpt>
      <trkpt lat="45.86583" lon="6.18795">
        <ele>476</ele>
        <time>2013-05-25T16:25:36.000Z</time>
      </trkpt>
      <trkpt lat="45.8658" lon="6.18798">
        <ele>477</ele>
        <time>2013-05-25T16:25:37.000Z</time>
      </trkpt>
      <trkpt lat="45.86578" lon="6.18801">
        <ele>477</ele>
        <time>2013-05-25T16:25:38.000Z</time>
      </trkpt>
      <trkpt lat="45.86576" lon="6.18804">
        <ele>477</ele>
        <time>2013-05-25T16:25:39.000Z</time>
      </trkpt>
      <trkpt lat="45.86574" lon="6.18807">
        <ele>477</ele>
        <time>2013-05-25T16:25:40.000Z</time>
      </trkpt>
      <trkpt lat="45.86572" lon="6.1881">
        <ele>477</ele>
        <time>2013-05-25T16:25:41.000Z</time>
      </trkpt>
      <trkpt lat="45.8657" lon="6.18813">
        <ele>477</ele>
        <time>2013-05-25T16:25:42.000Z</time>
      </trkpt>
      <trkpt lat="45.86568" lon="6.18815">
        <ele>477</ele>
        <time>2013-05-25T16:25:43.000Z</time>
      </trkpt>
      <trkpt lat="45.86565" lon="6.18818">
        <ele>477</ele>
        <time>2013-05-25T16:25:44.000Z</time>
      </trkpt>
      <trkpt lat="45.86563" lon="6.18821">
        <ele>477</ele>
        <time>2013-05-25T16:25:45.000Z</time>
      </trkpt>
      <trkpt lat="45.86561" lon="6.18823">
        <ele>477</ele>
        <time>2013-05-25T16:25:46.000Z</time>
      </trkpt>
      <trkpt lat="45.86559" lon="6.18826">
        <ele>477</ele>
        <time>2013-05-25T16:25:47.000Z</time>
      </trkpt>
      <trkpt lat="45.86557" lon="6.18828">
        <ele>477</ele>
        <time>2013-05-25T16:25:48.000Z</time>
      </trkpt>
      <trkpt lat="45.86554" lon="6.18829">
        <ele>477</ele>
        <time>2013-05-25T16:25:49.000Z</time>
      </trkpt>
      <trkpt lat="45.86552" lon="6.18831">
        <ele>477</ele>
        <time>2013-05-25T16:25:50.000Z</time>
      </trkpt>
      <trkpt lat="45.86549" lon="6.18833">
        <ele>477</ele>
        <time>2013-05-25T16:25:51.000Z</time>
      </trkpt>
      <trkpt lat="45.86547" lon="6.18835">
        <ele>478</ele>
        <time>2013-05-25T16:25:52.000Z</time>
      </trkpt>
      <trkpt lat="45.86545" lon="6.18837">
        <ele>478</ele>
        <time>2013-05-25T16:25:53.000Z</time>
      </trkpt>
      <trkpt lat="45.86542" lon="6.1884">
        <ele>478</ele>
        <time>2013-05-25T16:25:54.000Z</time>
      </trkpt>
      <trkpt lat="45.8654" lon="6.18842">
        <ele>478</ele>
        <time>2013-05-25T16:25:55.000Z</time>
      </trkpt>
      <trkpt lat="45.86537" lon="6.18845">
        <ele>478</ele>
        <time>2013-05-25T16:25:56.000Z</time>
      </trkpt>
      <trkpt lat="45.86535" lon="6.18847">
        <ele>478</ele>
        <time>2013-05-25T16:25:57.000Z</time>
      </trkpt>
      <trkpt lat="45.86532" lon="6.1885">
        <ele>478</ele>
        <time>2013-05-25T16:25:58.000Z</time>
      </trkpt>
      <trkpt lat="45.8653" lon="6.18852">
        <ele>478</ele>
        <time>2013-05-25T16:25:59.000Z</time>
      </trkpt>
      <trkpt lat="45.86527" lon="6.18854">
        <ele>477</ele>
        <time>2013-05-25T16:26:00.000Z</time>
      </trkpt>
      <trkpt lat="45.86525" lon="6.18856">
        <ele>477</ele>
        <time>2013-05-25T16:26:01.000Z</time>
      </trkpt>
      <trkpt lat="45.86522" lon="6.18859">
        <ele>477</ele>
        <time>2013-05-25T16:26:02.000Z</time>
      </trkpt>
      <trkpt lat="45.8652" lon="6.18861">
        <ele>477</ele>
        <time>2013-05-25T16:26:03.000Z</time>
      </trkpt>
      <trkpt lat="45.86517" lon="6.18864">
        <ele>477</ele>
        <time>2013-05-25T16:26:04.000Z</time>
      </trkpt>
      <trkpt lat="45.86514" lon="6.18866">
        <ele>477</ele>
        <time>2013-05-25T16:26:05.000Z</time>
      </trkpt>
      <trkpt lat="45.86512" lon="6.18868">
        <ele>477</ele>
        <time>2013-05-25T16:26:06.000Z</time>
      </trkpt>
      <trkpt lat="45.8651" lon="6.18871">
        <ele>477</ele>
        <time>2013-05-25T16:26:07.000Z</time>
      </trkpt>
      <trkpt lat="45.86507" lon="6.18873">
        <ele>477</ele>
        <time>2013-05-25T16:26:08.000Z</time>
      </trkpt>
      <trkpt lat="45.86505" lon="6.18875">
        <ele>477</ele>
        <time>2013-05-25T16:26:09.000Z</time>
      </trkpt>
      <trkpt lat="45.86502" lon="6.18877">
        <ele>477</ele>
        <time>2013-05-25T16:26:10.000Z</time>
      </trkpt>
      <trkpt lat="45.86499" lon="6.18879">
        <ele>475</ele>
        <time>2013-05-25T16:26:11.000Z</time>
      </trkpt>
      <trkpt lat="45.86497" lon="6.18881">
        <ele>475</ele>
        <time>2013-05-25T16:26:12.000Z</time>
      </trkpt>
      <trkpt lat="45.86495" lon="6.18883">
        <ele>475</ele>
        <time>2013-05-25T16:26:13.000Z</time>
      </trkpt>
      <trkpt lat="45.86493" lon="6.18885">
        <ele>475</ele>
        <time>2013-05-25T16:26:14.000Z</time>
      </trkpt>
      <trkpt lat="45.8649" lon="6.18887">
        <ele>475</ele>
        <time>2013-05-25T16:26:15.000Z</time>
      </trkpt>
      <trkpt lat="45.86488" lon="6.1889">
        <ele>475</ele>
        <time>2013-05-25T16:26:16.000Z</time>
      </trkpt>
      <trkpt lat="45.86486" lon="6.18892">
        <ele>475</ele>
        <time>2013-05-25T16:26:17.000Z</time>
      </trkpt>
      <trkpt lat="45.86484" lon="6.18895">
        <ele>475</ele>
        <time>2013-05-25T16:26:18.000Z</time>
      </trkpt>
      <trkpt lat="45.86481" lon="6.18898">
        <ele>475</ele>
        <time>2013-05-25T16:26:19.000Z</time>
      </trkpt>
      <trkpt lat="45.86479" lon="6.189">
        <ele>475</ele>
        <time>2013-05-25T16:26:20.000Z</time>
      </trkpt>
      <trkpt lat="45.86477" lon="6.18902">
        <ele>475</ele>
        <time>2013-05-25T16:26:21.000Z</time>
      </trkpt>
      <trkpt lat="45.86475" lon="6.18905">
        <ele>475</ele>
        <time>2013-05-25T16:26:22.000Z</time>
      </trkpt>
      <trkpt lat="45.86472" lon="6.18908">
        <ele>475</ele>
        <time>2013-05-25T16:26:23.000Z</time>
      </trkpt>
      <trkpt lat="45.8647" lon="6.1891">
        <ele>475</ele>
        <time>2013-05-25T16:26:24.000Z</time>
      </trkpt>
      <trkpt lat="45.86467" lon="6.18913">
        <ele>475</ele>
        <time>2013-05-25T16:26:25.000Z</time>
      </trkpt>
      <trkpt lat="45.86465" lon="6.18916">
        <ele>475</ele>
        <time>2013-05-25T16:26:26.000Z</time>
      </trkpt>
      <trkpt lat="45.86463" lon="6.18918">
        <ele>475</ele>
        <time>2013-05-25T16:26:27.000Z</time>
      </trkpt>
      <trkpt lat="45.8646" lon="6.18921">
        <ele>475</ele>
        <time>2013-05-25T16:26:28.000Z</time>
      </trkpt>
      <trkpt lat="45.86458" lon="6.18923">
        <ele>474</ele>
        <time>2013-05-25T16:26:29.000Z</time>
      </trkpt>
      <trkpt lat="45.86456" lon="6.18926">
        <ele>474</ele>
        <time>2013-05-25T16:26:30.000Z</time>
      </trkpt>
      <trkpt lat="45.86454" lon="6.18928">
        <ele>474</ele>
        <time>2013-05-25T16:26:31.000Z</time>
      </trkpt>
      <trkpt lat="45.86451" lon="6.1893">
        <ele>474</ele>
        <time>2013-05-25T16:26:32.000Z</time>
      </trkpt>
      <trkpt lat="45.86449" lon="6.18933">
        <ele>474</ele>
        <time>2013-05-25T16:26:33.000Z</time>
      </trkpt>
      <trkpt lat="45.86446" lon="6.18935">
        <ele>474</ele>
        <time>2013-05-25T16:26:34.000Z</time>
      </trkpt>
      <trkpt lat="45.86444" lon="6.18938">
        <ele>474</ele>
        <time>2013-05-25T16:26:35.000Z</time>
      </trkpt>
      <trkpt lat="45.86442" lon="6.1894">
        <ele>474</ele>
        <time>2013-05-25T16:26:36.000Z</time>
      </trkpt>
      <trkpt lat="45.8644" lon="6.18942">
        <ele>474</ele>
        <time>2013-05-25T16:26:37.000Z</time>
      </trkpt>
      <trkpt lat="45.86437" lon="6.18945">
        <ele>474</ele>
        <time>2013-05-25T16:26:38.000Z</time>
      </trkpt>
      <trkpt lat="45.86435" lon="6.18947">
        <ele>474</ele>
        <time>2013-05-25T16:26:39.000Z</time>
      </trkpt>
      <trkpt lat="45.86433" lon="6.18949">
        <ele>474</ele>
        <time>2013-05-25T16:26:40.000Z</time>
      </trkpt>
      <trkpt lat="45.86431" lon="6.18952">
        <ele>474</ele>
        <time>2013-05-25T16:26:41.000Z</time>
      </trkpt>
      <trkpt lat="45.86429" lon="6.18954">
        <ele>474</ele>
        <time>2013-05-25T16:26:42.000Z</time>
      </trkpt>
      <trkpt lat="45.86426" lon="6.18957">
        <ele>474</ele>
        <time>2013-05-25T16:26:43.000Z</time>
      </trkpt>
      <trkpt lat="45.86424" lon="6.18959">
        <ele>473</ele>
        <time>2013-05-25T16:26:44.000Z</time>
      </trkpt>
      <trkpt lat="45.86422" lon="6.18961">
        <ele>473</ele>
        <time>2013-05-25T16:26:45.000Z</time>
      </trkpt>
      <trkpt lat="45.86419" lon="6.18963">
        <ele>473</ele>
        <time>2013-05-25T16:26:46.000Z</time>
      </trkpt>
      <trkpt lat="45.86417" lon="6.18966">
        <ele>473</ele>
        <time>2013-05-25T16:26:47.000Z</time>
      </trkpt>
      <trkpt lat="45.86415" lon="6.18969">
        <ele>471</ele>
        <time>2013-05-25T16:26:48.000Z</time>
      </trkpt>
      <trkpt lat="45.86412" lon="6.18971">
        <ele>471</ele>
        <time>2013-05-25T16:26:49.000Z</time>
      </trkpt>
      <trkpt lat="45.8641" lon="6.18973">
        <ele>471</ele>
        <time>2013-05-25T16:26:50.000Z</time>
      </trkpt>
      <trkpt lat="45.86408" lon="6.18976">
        <ele>471</ele>
        <time>2013-05-25T16:26:51.000Z</time>
      </trkpt>
      <trkpt lat="45.86405" lon="6.18978">
        <ele>471</ele>
        <time>2013-05-25T16:26:52.000Z</time>
      </trkpt>
      <trkpt lat="45.86403" lon="6.18981">
        <ele>471</ele>
        <time>2013-05-25T16:26:53.000Z</time>
      </trkpt>
      <trkpt lat="45.86401" lon="6.18984">
        <ele>471</ele>
        <time>2013-05-25T16:26:54.000Z</time>
      </trkpt>
      <trkpt lat="45.86399" lon="6.18987">
        <ele>470</ele>
        <time>2013-05-25T16:26:55.000Z</time>
      </trkpt>
      <trkpt lat="45.86397" lon="6.1899">
        <ele>470</ele>
        <time>2013-05-25T16:26:56.000Z</time>
      </trkpt>
      <trkpt lat="45.86395" lon="6.18993">
        <ele>470</ele>
        <time>2013-05-25T16:26:57.000Z</time>
      </trkpt>
      <trkpt lat="45.86393" lon="6.18996">
        <ele>470</ele>
        <time>2013-05-25T16:26:58.000Z</time>
      </trkpt>
      <trkpt lat="45.86391" lon="6.18998">
        <ele>470</ele>
        <time>2013-05-25T16:26:59.000Z</time>
      </trkpt>
      <trkpt lat="45.86389" lon="6.19">
        <ele>470</ele>
        <time>2013-05-25T16:27:00.000Z</time>
      </trkpt>
      <trkpt lat="45.86387" lon="6.19002">
        <ele>470</ele>
        <time>2013-05-25T16:27:01.000Z</time>
      </trkpt>
      <trkpt lat="45.86384" lon="6.19005">
        <ele>470</ele>
        <time>2013-05-25T16:27:02.000Z</time>
      </trkpt>
      <trkpt lat="45.86382" lon="6.19007">
        <ele>470</ele>
        <time>2013-05-25T16:27:03.000Z</time>
      </trkpt>
      <trkpt lat="45.86378" lon="6.19009">
        <ele>470</ele>
        <time>2013-05-25T16:27:04.000Z</time>
      </trkpt>
      <trkpt lat="45.86376" lon="6.19011">
        <ele>470</ele>
        <time>2013-05-25T16:27:05.000Z</time>
      </trkpt>
      <trkpt lat="45.86373" lon="6.19014">
        <ele>470</ele>
        <time>2013-05-25T16:27:06.000Z</time>
      </trkpt>
      <trkpt lat="45.86371" lon="6.19016">
        <ele>470</ele>
        <time>2013-05-25T16:27:07.000Z</time>
      </trkpt>
      <trkpt lat="45.86368" lon="6.19018">
        <ele>470</ele>
        <time>2013-05-25T16:27:08.000Z</time>
      </trkpt>
      <trkpt lat="45.86365" lon="6.1902">
        <ele>470</ele>
        <time>2013-05-25T16:27:09.000Z</time>
      </trkpt>
      <trkpt lat="45.86363" lon="6.19023">
        <ele>470</ele>
        <time>2013-05-25T16:27:10.000Z</time>
      </trkpt>
      <trkpt lat="45.8636" lon="6.19026">
        <ele>470</ele>
        <time>2013-05-25T16:27:11.000Z</time>
      </trkpt>
      <trkpt lat="45.86358" lon="6.19028">
        <ele>470</ele>
        <time>2013-05-25T16:27:12.000Z</time>
      </trkpt>
      <trkpt lat="45.86355" lon="6.1903">
        <ele>470</ele>
        <time>2013-05-25T16:27:13.000Z</time>
      </trkpt>
      <trkpt lat="45.86353" lon="6.19032">
        <ele>470</ele>
        <time>2013-05-25T16:27:14.000Z</time>
      </trkpt>
      <trkpt lat="45.8635" lon="6.19033">
        <ele>470</ele>
        <time>2013-05-25T16:27:15.000Z</time>
      </trkpt>
      <trkpt lat="45.86348" lon="6.19035">
        <ele>470</ele>
        <time>2013-05-25T16:27:16.000Z</time>
      </trkpt>
      <trkpt lat="45.86345" lon="6.19037">
        <ele>470</ele>
        <time>2013-05-25T16:27:17.000Z</time>
      </trkpt>
      <trkpt lat="45.86343" lon="6.19039">
        <ele>470</ele>
        <time>2013-05-25T16:27:18.000Z</time>
      </trkpt>
      <trkpt lat="45.86341" lon="6.19042">
        <ele>470</ele>
        <time>2013-05-25T16:27:19.000Z</time>
      </trkpt>
      <trkpt lat="45.86339" lon="6.19043">
        <ele>470</ele>
        <time>2013-05-25T16:27:20.000Z</time>
      </trkpt>
      <trkpt lat="45.86337" lon="6.19045">
        <ele>470</ele>
        <time>2013-05-25T16:27:21.000Z</time>
      </trkpt>
      <trkpt lat="45.86335" lon="6.19047">
        <ele>470</ele>
        <time>2013-05-25T16:27:22.000Z</time>
      </trkpt>
      <trkpt lat="45.86332" lon="6.1905">
        <ele>470</ele>
        <time>2013-05-25T16:27:23.000Z</time>
      </trkpt>
      <trkpt lat="45.8633" lon="6.19052">
        <ele>470</ele>
        <time>2013-05-25T16:27:24.000Z</time>
      </trkpt>
      <trkpt lat="45.86328" lon="6.19054">
        <ele>470</ele>
        <time>2013-05-25T16:27:25.000Z</time>
      </trkpt>
      <trkpt lat="45.86326" lon="6.19056">
        <ele>470</ele>
        <time>2013-05-25T16:27:26.000Z</time>
      </trkpt>
      <trkpt lat="45.86323" lon="6.19059">
        <ele>470</ele>
        <time>2013-05-25T16:27:27.000Z</time>
      </trkpt>
      <trkpt lat="45.86321" lon="6.19061">
        <ele>470</ele>
        <time>2013-05-25T16:27:28.000Z</time>
      </trkpt>
      <trkpt lat="45.86318" lon="6.19063">
        <ele>470</ele>
        <time>2013-05-25T16:27:29.000Z</time>
      </trkpt>
      <trkpt lat="45.86316" lon="6.19066">
        <ele>470</ele>
        <time>2013-05-25T16:27:30.000Z</time>
      </trkpt>
      <trkpt lat="45.86313" lon="6.19069">
        <ele>470</ele>
        <time>2013-05-25T16:27:31.000Z</time>
      </trkpt>
      <trkpt lat="45.86311" lon="6.19071">
        <ele>470</ele>
        <time>2013-05-25T16:27:32.000Z</time>
      </trkpt>
      <trkpt lat="45.86308" lon="6.19074">
        <ele>470</ele>
        <time>2013-05-25T16:27:33.000Z</time>
      </trkpt>
      <trkpt lat="45.86306" lon="6.19076">
        <ele>470</ele>
        <time>2013-05-25T16:27:34.000Z</time>
      </trkpt>
      <trkpt lat="45.86304" lon="6.19079">
        <ele>470</ele>
        <time>2013-05-25T16:27:35.000Z</time>
      </trkpt>
      <trkpt lat="45.86302" lon="6.19081">
        <ele>470</ele>
        <time>2013-05-25T16:27:36.000Z</time>
      </trkpt>
      <trkpt lat="45.863" lon="6.19084">
        <ele>472</ele>
        <time>2013-05-25T16:27:37.000Z</time>
      </trkpt>
      <trkpt lat="45.86297" lon="6.19086">
        <ele>472</ele>
        <time>2013-05-25T16:27:38.000Z</time>
      </trkpt>
      <trkpt lat="45.86295" lon="6.19089">
        <ele>472</ele>
        <time>2013-05-25T16:27:39.000Z</time>
      </trkpt>
      <trkpt lat="45.86293" lon="6.19091">
        <ele>472</ele>
        <time>2013-05-25T16:27:40.000Z</time>
      </trkpt>
      <trkpt lat="45.8629" lon="6.19094">
        <ele>472</ele>
        <time>2013-05-25T16:27:41.000Z</time>
      </trkpt>
      <trkpt lat="45.86288" lon="6.19096">
        <ele>472</ele>
        <time>2013-05-25T16:27:42.000Z</time>
      </trkpt>
      <trkpt lat="45.86285" lon="6.19098">
        <ele>472</ele>
        <time>2013-05-25T16:27:43.000Z</time>
      </trkpt>
      <trkpt lat="45.86282" lon="6.19101">
        <ele>472</ele>
        <time>2013-05-25T16:27:44.000Z</time>
      </trkpt>
      <trkpt lat="45.8628" lon="6.19103">
        <ele>472</ele>
        <time>2013-05-25T16:27:45.000Z</time>
      </trkpt>
      <trkpt lat="45.86278" lon="6.19106">
        <ele>473</ele>
        <time>2013-05-25T16:27:46.000Z</time>
      </trkpt>
      <trkpt lat="45.86275" lon="6.19108">
        <ele>473</ele>
        <time>2013-05-25T16:27:47.000Z</time>
      </trkpt>
      <trkpt lat="45.86273" lon="6.1911">
        <ele>473</ele>
        <time>2013-05-25T16:27:48.000Z</time>
      </trkpt>
      <trkpt lat="45.86271" lon="6.19113">
        <ele>473</ele>
        <time>2013-05-25T16:27:49.000Z</time>
      </trkpt>
      <trkpt lat="45.86269" lon="6.19115">
        <ele>473</ele>
        <time>2013-05-25T16:27:50.000Z</time>
      </trkpt>
      <trkpt lat="45.86268" lon="6.19118">
        <ele>473</ele>
        <time>2013-05-25T16:27:51.000Z</time>
      </trkpt>
      <trkpt lat="45.86266" lon="6.1912">
        <ele>473</ele>
        <time>2013-05-25T16:27:52.000Z</time>
      </trkpt>
      <trkpt lat="45.86265" lon="6.19121">
        <ele>473</ele>
        <time>2013-05-25T16:27:53.000Z</time>
      </trkpt>
      <trkpt lat="45.86263" lon="6.19122">
        <ele>473</ele>
        <time>2013-05-25T16:27:54.000Z</time>
      </trkpt>
      <trkpt lat="45.86262" lon="6.19123">
        <ele>473</ele>
        <time>2013-05-25T16:27:55.000Z</time>
      </trkpt>
      <trkpt lat="45.8626" lon="6.19124">
        <ele>473</ele>
        <time>2013-05-25T16:27:56.000Z</time>
      </trkpt>
      <trkpt lat="45.86259" lon="6.19125">
        <ele>473</ele>
        <time>2013-05-25T16:27:57.000Z</time>
      </trkpt>
      <trkpt lat="45.86257" lon="6.19127">
        <ele>473</ele>
        <time>2013-05-25T16:27:58.000Z</time>
      </trkpt>
      <trkpt lat="45.86255" lon="6.19128">
        <ele>474</ele>
        <time>2013-05-25T16:27:59.000Z</time>
      </trkpt>
      <trkpt lat="45.86253" lon="6.19129">
        <ele>474</ele>
        <time>2013-05-25T16:28:00.000Z</time>
      </trkpt>
      <trkpt lat="45.86251" lon="6.19131">
        <ele>474</ele>
        <time>2013-05-25T16:28:01.000Z</time>
      </trkpt>
      <trkpt lat="45.8625" lon="6.19132">
        <ele>473</ele>
        <time>2013-05-25T16:28:02.000Z</time>
      </trkpt>
      <trkpt lat="45.86247" lon="6.19134">
        <ele>473</ele>
        <time>2013-05-25T16:28:03.000Z</time>
      </trkpt>
      <trkpt lat="45.86245" lon="6.19136">
        <ele>473</ele>
        <time>2013-05-25T16:28:04.000Z</time>
      </trkpt>
      <trkpt lat="45.86243" lon="6.19137">
        <ele>473</ele>
        <time>2013-05-25T16:28:05.000Z</time>
      </trkpt>
      <trkpt lat="45.86241" lon="6.19138">
        <ele>473</ele>
        <time>2013-05-25T16:28:06.000Z</time>
      </trkpt>
      <trkpt lat="45.86238" lon="6.1914">
        <ele>474</ele>
        <time>2013-05-25T16:28:07.000Z</time>
      </trkpt>
      <trkpt lat="45.86236" lon="6.19142">
        <ele>474</ele>
        <time>2013-05-25T16:28:08.000Z</time>
      </trkpt>
      <trkpt lat="45.86234" lon="6.19143">
        <ele>474</ele>
        <time>2013-05-25T16:28:09.000Z</time>
      </trkpt>
      <trkpt lat="45.86232" lon="6.19144">
        <ele>474</ele>
        <time>2013-05-25T16:28:10.000Z</time>
      </trkpt>
      <trkpt lat="45.86229" lon="6.19146">
        <ele>474</ele>
        <time>2013-05-25T16:28:11.000Z</time>
      </trkpt>
      <trkpt lat="45.86226" lon="6.19149">
        <ele>474</ele>
        <time>2013-05-25T16:28:12.000Z</time>
      </trkpt>
      <trkpt lat="45.86223" lon="6.19152">
        <ele>474</ele>
        <time>2013-05-25T16:28:13.000Z</time>
      </trkpt>
      <trkpt lat="45.86221" lon="6.19155">
        <ele>474</ele>
        <time>2013-05-25T16:28:14.000Z</time>
      </trkpt>
      <trkpt lat="45.86218" lon="6.19157">
        <ele>474</ele>
        <time>2013-05-25T16:28:15.000Z</time>
      </trkpt>
      <trkpt lat="45.86215" lon="6.1916">
        <ele>473</ele>
        <time>2013-05-25T16:28:16.000Z</time>
      </trkpt>
      <trkpt lat="45.86213" lon="6.19162">
        <ele>473</ele>
        <time>2013-05-25T16:28:17.000Z</time>
      </trkpt>
      <trkpt lat="45.8621" lon="6.19164">
        <ele>473</ele>
        <time>2013-05-25T16:28:18.000Z</time>
      </trkpt>
      <trkpt lat="45.86208" lon="6.19166">
        <ele>473</ele>
        <time>2013-05-25T16:28:19.000Z</time>
      </trkpt>
      <trkpt lat="45.86206" lon="6.19168">
        <ele>476</ele>
        <time>2013-05-25T16:28:20.000Z</time>
      </trkpt>
      <trkpt lat="45.86203" lon="6.1917">
        <ele>476</ele>
        <time>2013-05-25T16:28:21.000Z</time>
      </trkpt>
      <trkpt lat="45.86201" lon="6.19171">
        <ele>476</ele>
        <time>2013-05-25T16:28:22.000Z</time>
      </trkpt>
      <trkpt lat="45.86198" lon="6.19174">
        <ele>476</ele>
        <time>2013-05-25T16:28:23.000Z</time>
      </trkpt>
      <trkpt lat="45.86195" lon="6.19176">
        <ele>475</ele>
        <time>2013-05-25T16:28:24.000Z</time>
      </trkpt>
      <trkpt lat="45.86194" lon="6.19177">
        <ele>475</ele>
        <time>2013-05-25T16:28:25.000Z</time>
      </trkpt>
      <trkpt lat="45.86192" lon="6.19179">
        <ele>475</ele>
        <time>2013-05-25T16:28:26.000Z</time>
      </trkpt>
      <trkpt lat="45.86189" lon="6.19182">
        <ele>475</ele>
        <time>2013-05-25T16:28:27.000Z</time>
      </trkpt>
      <trkpt lat="45.86187" lon="6.19184">
        <ele>475</ele>
        <time>2013-05-25T16:28:28.000Z</time>
      </trkpt>
      <trkpt lat="45.86184" lon="6.19186">
        <ele>475</ele>
        <time>2013-05-25T16:28:29.000Z</time>
      </trkpt>
      <trkpt lat="45.86181" lon="6.19188">
        <ele>475</ele>
        <time>2013-05-25T16:28:30.000Z</time>
      </trkpt>
      <trkpt lat="45.86179" lon="6.1919">
        <ele>475</ele>
        <time>2013-05-25T16:28:31.000Z</time>
      </trkpt>
      <trkpt lat="45.86176" lon="6.19191">
        <ele>475</ele>
        <time>2013-05-25T16:28:32.000Z</time>
      </trkpt>
      <trkpt lat="45.86173" lon="6.19193">
        <ele>475</ele>
        <time>2013-05-25T16:28:33.000Z</time>
      </trkpt>
      <trkpt lat="45.86171" lon="6.19195">
        <ele>475</ele>
        <time>2013-05-25T16:28:34.000Z</time>
      </trkpt>
      <trkpt lat="45.86168" lon="6.19197">
        <ele>475</ele>
        <time>2013-05-25T16:28:35.000Z</time>
      </trkpt>
      <trkpt lat="45.86166" lon="6.192">
        <ele>475</ele>
        <time>2013-05-25T16:28:36.000Z</time>
      </trkpt>
      <trkpt lat="45.86163" lon="6.19202">
        <ele>475</ele>
        <time>2013-05-25T16:28:37.000Z</time>
      </trkpt>
      <trkpt lat="45.86161" lon="6.19205">
        <ele>475</ele>
        <time>2013-05-25T16:28:38.000Z</time>
      </trkpt>
      <trkpt lat="45.86159" lon="6.19207">
        <ele>475</ele>
        <time>2013-05-25T16:28:39.000Z</time>
      </trkpt>
      <trkpt lat="45.86157" lon="6.19209">
        <ele>475</ele>
        <time>2013-05-25T16:28:40.000Z</time>
      </trkpt>
      <trkpt lat="45.86155" lon="6.19212">
        <ele>475</ele>
        <time>2013-05-25T16:28:41.000Z</time>
      </trkpt>
      <trkpt lat="45.86153" lon="6.19214">
        <ele>475</ele>
        <time>2013-05-25T16:28:42.000Z</time>
      </trkpt>
      <trkpt lat="45.86151" lon="6.19217">
        <ele>475</ele>
        <time>2013-05-25T16:28:43.000Z</time>
      </trkpt>
      <trkpt lat="45.86149" lon="6.19219">
        <ele>475</ele>
        <time>2013-05-25T16:28:44.000Z</time>
      </trkpt>
      <trkpt lat="45.86147" lon="6.19222">
        <ele>475</ele>
        <time>2013-05-25T16:28:45.000Z</time>
      </trkpt>
      <trkpt lat="45.86145" lon="6.19224">
        <ele>475</ele>
        <time>2013-05-25T16:28:46.000Z</time>
      </trkpt>
      <trkpt lat="45.86143" lon="6.19227">
        <ele>475</ele>
        <time>2013-05-25T16:28:47.000Z</time>
      </trkpt>
      <trkpt lat="45.86141" lon="6.19229">
        <ele>475</ele>
        <time>2013-05-25T16:28:48.000Z</time>
      </trkpt>
      <trkpt lat="45.86139" lon="6.19232">
        <ele>475</ele>
        <time>2013-05-25T16:28:49.000Z</time>
      </trkpt>
      <trkpt lat="45.86137" lon="6.19235">
        <ele>476</ele>
        <time>2013-05-25T16:28:50.000Z</time>
      </trkpt>
      <trkpt lat="45.86135" lon="6.19237">
        <ele>476</ele>
        <time>2013-05-25T16:28:51.000Z</time>
      </trkpt>
      <trkpt lat="45.86134" lon="6.1924">
        <ele>476</ele>
        <time>2013-05-25T16:28:52.000Z</time>
      </trkpt>
      <trkpt lat="45.86132" lon="6.19243">
        <ele>476</ele>
        <time>2013-05-25T16:28:53.000Z</time>
      </trkpt>
      <trkpt lat="45.86131" lon="6.19246">
        <ele>476</ele>
        <time>2013-05-25T16:28:54.000Z</time>
      </trkpt>
      <trkpt lat="45.86129" lon="6.19249">
        <ele>476</ele>
        <time>2013-05-25T16:28:55.000Z</time>
      </trkpt>
      <trkpt lat="45.86128" lon="6.19252">
        <ele>478</ele>
        <time>2013-05-25T16:28:56.000Z</time>
      </trkpt>
      <trkpt lat="45.86126" lon="6.19255">
        <ele>478</ele>
        <time>2013-05-25T16:28:57.000Z</time>
      </trkpt>
      <trkpt lat="45.86125" lon="6.19257">
        <ele>478</ele>
        <time>2013-05-25T16:28:58.000Z</time>
      </trkpt>
      <trkpt lat="45.86124" lon="6.1926">
        <ele>478</ele>
        <time>2013-05-25T16:28:59.000Z</time>
      </trkpt>
      <trkpt lat="45.86124" lon="6.19263">
        <ele>478</ele>
        <time>2013-05-25T16:29:00.000Z</time>
      </trkpt>
      <trkpt lat="45.86122" lon="6.19265">
        <ele>478</ele>
        <time>2013-05-25T16:29:01.000Z</time>
      </trkpt>
      <trkpt lat="45.86121" lon="6.19267">
        <ele>478</ele>
        <time>2013-05-25T16:29:02.000Z</time>
      </trkpt>
      <trkpt lat="45.8612" lon="6.1927">
        <ele>478</ele>
        <time>2013-05-25T16:29:03.000Z</time>
      </trkpt>
      <trkpt lat="45.86118" lon="6.19273">
        <ele>478</ele>
        <time>2013-05-25T16:29:04.000Z</time>
      </trkpt>
      <trkpt lat="45.86117" lon="6.19277">
        <ele>478</ele>
        <time>2013-05-25T16:29:05.000Z</time>
      </trkpt>
      <trkpt lat="45.86115" lon="6.1928">
        <ele>478</ele>
        <time>2013-05-25T16:29:06.000Z</time>
      </trkpt>
      <trkpt lat="45.86114" lon="6.19283">
        <ele>478</ele>
        <time>2013-05-25T16:29:07.000Z</time>
      </trkpt>
      <trkpt lat="45.86113" lon="6.19286">
        <ele>478</ele>
        <time>2013-05-25T16:29:08.000Z</time>
      </trkpt>
      <trkpt lat="45.86113" lon="6.19289">
        <ele>478</ele>
        <time>2013-05-25T16:29:09.000Z</time>
      </trkpt>
      <trkpt lat="45.86112" lon="6.19292">
        <ele>478</ele>
        <time>2013-05-25T16:29:10.000Z</time>
      </trkpt>
      <trkpt lat="45.86111" lon="6.19295">
        <ele>478</ele>
        <time>2013-05-25T16:29:11.000Z</time>
      </trkpt>
      <trkpt lat="45.8611" lon="6.19298">
        <ele>479</ele>
        <time>2013-05-25T16:29:12.000Z</time>
      </trkpt>
      <trkpt lat="45.86108" lon="6.19302">
        <ele>479</ele>
        <time>2013-05-25T16:29:13.000Z</time>
      </trkpt>
      <trkpt lat="45.86108" lon="6.19305">
        <ele>479</ele>
        <time>2013-05-25T16:29:14.000Z</time>
      </trkpt>
      <trkpt lat="45.86107" lon="6.19308">
        <ele>479</ele>
        <time>2013-05-25T16:29:15.000Z</time>
      </trkpt>
      <trkpt lat="45.86106" lon="6.19312">
        <ele>479</ele>
        <time>2013-05-25T16:29:16.000Z</time>
      </trkpt>
      <trkpt lat="45.86105" lon="6.19315">
        <ele>479</ele>
        <time>2013-05-25T16:29:17.000Z</time>
      </trkpt>
      <trkpt lat="45.86105" lon="6.19318">
        <ele>479</ele>
        <time>2013-05-25T16:29:18.000Z</time>
      </trkpt>
      <trkpt lat="45.86104" lon="6.19322">
        <ele>479</ele>
        <time>2013-05-25T16:29:19.000Z</time>
      </trkpt>
      <trkpt lat="45.86103" lon="6.19325">
        <ele>479</ele>
        <time>2013-05-25T16:29:20.000Z</time>
      </trkpt>
      <trkpt lat="45.86102" lon="6.19329">
        <ele>479</ele>
        <time>2013-05-25T16:29:21.000Z</time>
      </trkpt>
      <trkpt lat="45.861" lon="6.19332">
        <ele>479</ele>
        <time>2013-05-25T16:29:22.000Z</time>
      </trkpt>
      <trkpt lat="45.861" lon="6.19336">
        <ele>480</ele>
        <time>2013-05-25T16:29:23.000Z</time>
      </trkpt>
      <trkpt lat="45.86099" lon="6.1934">
        <ele>480</ele>
        <time>2013-05-25T16:29:24.000Z</time>
      </trkpt>
      <trkpt lat="45.86098" lon="6.19344">
        <ele>480</ele>
        <time>2013-05-25T16:29:25.000Z</time>
      </trkpt>
      <trkpt lat="45.86097" lon="6.19348">
        <ele>480</ele>
        <time>2013-05-25T16:29:26.000Z</time>
      </trkpt>
      <trkpt lat="45.86097" lon="6.19352">
        <ele>480</ele>
        <time>2013-05-25T16:29:27.000Z</time>
      </trkpt>
      <trkpt lat="45.86097" lon="6.19356">
        <ele>480</ele>
        <time>2013-05-25T16:29:28.000Z</time>
      </trkpt>
      <trkpt lat="45.86097" lon="6.1936">
        <ele>480</ele>
        <time>2013-05-25T16:29:29.000Z</time>
      </trkpt>
      <trkpt lat="45.86097" lon="6.19364">
        <ele>480</ele>
        <time>2013-05-25T16:29:30.000Z</time>
      </trkpt>
      <trkpt lat="45.86097" lon="6.19368">
        <ele>480</ele>
        <time>2013-05-25T16:29:31.000Z</time>
      </trkpt>
      <trkpt lat="45.86097" lon="6.19371">
        <ele>480</ele>
        <time>2013-05-25T16:29:32.000Z</time>
      </trkpt>
      <trkpt lat="45.86097" lon="6.19375">
        <ele>480</ele>
        <time>2013-05-25T16:29:33.000Z</time>
      </trkpt>
      <trkpt lat="45.86097" lon="6.19378">
        <ele>480</ele>
        <time>2013-05-25T16:29:34.000Z</time>
      </trkpt>
      <trkpt lat="45.86098" lon="6.19382">
        <ele>480</ele>
        <time>2013-05-25T16:29:35.000Z</time>
      </trkpt>
      <trkpt lat="45.86098" lon="6.19385">
        <ele>480</ele>
        <time>2013-05-25T16:29:36.000Z</time>
      </trkpt>
      <trkpt lat="45.86098" lon="6.19389">
        <ele>480</ele>
        <time>2013-05-25T16:29:37.000Z</time>
      </trkpt>
      <trkpt lat="45.86099" lon="6.19393">
        <ele>481</ele>
        <time>2013-05-25T16:29:38.000Z</time>
      </trkpt>
      <trkpt lat="45.86099" lon="6.19396">
        <ele>481</ele>
        <time>2013-05-25T16:29:39.000Z</time>
      </trkpt>
      <trkpt lat="45.86099" lon="6.194">
        <ele>481</ele>
        <time>2013-05-25T16:29:40.000Z</time>
      </trkpt>
      <trkpt lat="45.861" lon="6.19404">
        <ele>481</ele>
        <time>2013-05-25T16:29:41.000Z</time>
      </trkpt>
      <trkpt lat="45.861" lon="6.19407">
        <ele>481</ele>
        <time>2013-05-25T16:29:42.000Z</time>
      </trkpt>
      <trkpt lat="45.861" lon="6.19411">
        <ele>481</ele>
        <time>2013-05-25T16:29:43.000Z</time>
      </trkpt>
      <trkpt lat="45.861" lon="6.19414">
        <ele>481</ele>
        <time>2013-05-25T16:29:44.000Z</time>
      </trkpt>
      <trkpt lat="45.86101" lon="6.19417">
        <ele>482</ele>
        <time>2013-05-25T16:29:45.000Z</time>
      </trkpt>
      <trkpt lat="45.86101" lon="6.19421">
        <ele>482</ele>
        <time>2013-05-25T16:29:46.000Z</time>
      </trkpt>
      <trkpt lat="45.86101" lon="6.19424">
        <ele>482</ele>
        <time>2013-05-25T16:29:47.000Z</time>
      </trkpt>
      <trkpt lat="45.86101" lon="6.19427">
        <ele>482</ele>
        <time>2013-05-25T16:29:48.000Z</time>
      </trkpt>
      <trkpt lat="45.86101" lon="6.1943">
        <ele>482</ele>
        <time>2013-05-25T16:29:49.000Z</time>
      </trkpt>
      <trkpt lat="45.86101" lon="6.19434">
        <ele>482</ele>
        <time>2013-05-25T16:29:50.000Z</time>
      </trkpt>
      <trkpt lat="45.86101" lon="6.19437">
        <ele>482</ele>
        <time>2013-05-25T16:29:51.000Z</time>
      </trkpt>
      <trkpt lat="45.861" lon="6.19441">
        <ele>483</ele>
        <time>2013-05-25T16:29:52.000Z</time>
      </trkpt>
      <trkpt lat="45.861" lon="6.19444">
        <ele>483</ele>
        <time>2013-05-25T16:29:53.000Z</time>
      </trkpt>
      <trkpt lat="45.861" lon="6.19447">
        <ele>483</ele>
        <time>2013-05-25T16:29:54.000Z</time>
      </trkpt>
      <trkpt lat="45.86099" lon="6.1945">
        <ele>483</ele>
        <time>2013-05-25T16:29:55.000Z</time>
      </trkpt>
      <trkpt lat="45.86097" lon="6.19453">
        <ele>483</ele>
        <time>2013-05-25T16:29:56.000Z</time>
      </trkpt>
      <trkpt lat="45.86096" lon="6.19456">
        <ele>483</ele>
        <time>2013-05-25T16:29:57.000Z</time>
      </trkpt>
      <trkpt lat="45.86094" lon="6.19458">
        <ele>483</ele>
        <time>2013-05-25T16:29:58.000Z</time>
      </trkpt>
      <trkpt lat="45.86094" lon="6.19459">
        <ele>483</ele>
        <time>2013-05-25T16:29:59.000Z</time>
      </trkpt>
      <trkpt lat="45.86094" lon="6.19461">
        <ele>483</ele>
        <time>2013-05-25T16:30:00.000Z</time>
      </trkpt>
      <trkpt lat="45.86093" lon="6.19463">
        <ele>483</ele>
        <time>2013-05-25T16:30:01.000Z</time>
      </trkpt>
      <trkpt lat="45.86092" lon="6.19465">
        <ele>483</ele>
        <time>2013-05-25T16:30:02.000Z</time>
      </trkpt>
      <trkpt lat="45.86092" lon="6.19468">
        <ele>483</ele>
        <time>2013-05-25T16:30:03.000Z</time>
      </trkpt>
      <trkpt lat="45.86091" lon="6.1947">
        <ele>483</ele>
        <time>2013-05-25T16:30:04.000Z</time>
      </trkpt>
      <trkpt lat="45.86089" lon="6.19473">
        <ele>483</ele>
        <time>2013-05-25T16:30:05.000Z</time>
      </trkpt>
      <trkpt lat="45.86087" lon="6.19476">
        <ele>483</ele>
        <time>2013-05-25T16:30:06.000Z</time>
      </trkpt>
      <trkpt lat="45.86086" lon="6.19478">
        <ele>483</ele>
        <time>2013-05-25T16:30:07.000Z</time>
      </trkpt>
      <trkpt lat="45.86084" lon="6.19481">
        <ele>484</ele>
        <time>2013-05-25T16:30:08.000Z</time>
      </trkpt>
      <trkpt lat="45.86083" lon="6.19483">
        <ele>483</ele>
        <time>2013-05-25T16:30:09.000Z</time>
      </trkpt>
      <trkpt lat="45.86081" lon="6.19486">
        <ele>484</ele>
        <time>2013-05-25T16:30:10.000Z</time>
      </trkpt>
      <trkpt lat="45.86079" lon="6.19489">
        <ele>484</ele>
        <time>2013-05-25T16:30:11.000Z</time>
      </trkpt>
      <trkpt lat="45.86077" lon="6.19492">
        <ele>484</ele>
        <time>2013-05-25T16:30:12.000Z</time>
      </trkpt>
      <trkpt lat="45.86076" lon="6.19495">
        <ele>484</ele>
        <time>2013-05-25T16:30:13.000Z</time>
      </trkpt>
      <trkpt lat="45.86074" lon="6.19498">
        <ele>484</ele>
        <time>2013-05-25T16:30:14.000Z</time>
      </trkpt>
      <trkpt lat="45.86073" lon="6.19501">
        <ele>485</ele>
        <time>2013-05-25T16:30:15.000Z</time>
      </trkpt>
      <trkpt lat="45.86071" lon="6.19504">
        <ele>485</ele>
        <time>2013-05-25T16:30:16.000Z</time>
      </trkpt>
      <trkpt lat="45.86068" lon="6.19507">
        <ele>485</ele>
        <time>2013-05-25T16:30:17.000Z</time>
      </trkpt>
      <trkpt lat="45.86066" lon="6.1951">
        <ele>486</ele>
        <time>2013-05-25T16:30:18.000Z</time>
      </trkpt>
      <trkpt lat="45.86064" lon="6.19512">
        <ele>486</ele>
        <time>2013-05-25T16:30:19.000Z</time>
      </trkpt>
      <trkpt lat="45.86062" lon="6.19515">
        <ele>486</ele>
        <time>2013-05-25T16:30:20.000Z</time>
      </trkpt>
      <trkpt lat="45.86059" lon="6.19517">
        <ele>486</ele>
        <time>2013-05-25T16:30:21.000Z</time>
      </trkpt>
      <trkpt lat="45.86057" lon="6.19519">
        <ele>486</ele>
        <time>2013-05-25T16:30:22.000Z</time>
      </trkpt>
      <trkpt lat="45.86055" lon="6.19522">
        <ele>486</ele>
        <time>2013-05-25T16:30:23.000Z</time>
      </trkpt>
      <trkpt lat="45.86052" lon="6.19524">
        <ele>486</ele>
        <time>2013-05-25T16:30:24.000Z</time>
      </trkpt>
      <trkpt lat="45.8605" lon="6.19527">
        <ele>486</ele>
        <time>2013-05-25T16:30:25.000Z</time>
      </trkpt>
      <trkpt lat="45.86048" lon="6.1953">
        <ele>486</ele>
        <time>2013-05-25T16:30:26.000Z</time>
      </trkpt>
      <trkpt lat="45.86046" lon="6.19533">
        <ele>487</ele>
        <time>2013-05-25T16:30:27.000Z</time>
      </trkpt>
      <trkpt lat="45.86044" lon="6.19536">
        <ele>487</ele>
        <time>2013-05-25T16:30:28.000Z</time>
      </trkpt>
      <trkpt lat="45.86042" lon="6.19539">
        <ele>487</ele>
        <time>2013-05-25T16:30:29.000Z</time>
      </trkpt>
      <trkpt lat="45.8604" lon="6.19541">
        <ele>487</ele>
        <time>2013-05-25T16:30:30.000Z</time>
      </trkpt>
      <trkpt lat="45.86037" lon="6.19544">
        <ele>487</ele>
        <time>2013-05-25T16:30:31.000Z</time>
      </trkpt>
      <trkpt lat="45.86035" lon="6.19547">
        <ele>487</ele>
        <time>2013-05-25T16:30:32.000Z</time>
      </trkpt>
      <trkpt lat="45.86033" lon="6.19549">
        <ele>487</ele>
        <time>2013-05-25T16:30:33.000Z</time>
      </trkpt>
      <trkpt lat="45.86031" lon="6.19551">
        <ele>487</ele>
        <time>2013-05-25T16:30:34.000Z</time>
      </trkpt>
      <trkpt lat="45.86029" lon="6.19553">
        <ele>487</ele>
        <time>2013-05-25T16:30:35.000Z</time>
      </trkpt>
      <trkpt lat="45.86027" lon="6.19555">
        <ele>487</ele>
        <time>2013-05-25T16:30:36.000Z</time>
      </trkpt>
      <trkpt lat="45.86025" lon="6.19558">
        <ele>487</ele>
        <time>2013-05-25T16:30:37.000Z</time>
      </trkpt>
      <trkpt lat="45.86023" lon="6.19561">
        <ele>487</ele>
        <time>2013-05-25T16:30:38.000Z</time>
      </trkpt>
      <trkpt lat="45.86021" lon="6.19563">
        <ele>487</ele>
        <time>2013-05-25T16:30:39.000Z</time>
      </trkpt>
      <trkpt lat="45.86019" lon="6.19566">
        <ele>487</ele>
        <time>2013-05-25T16:30:40.000Z</time>
      </trkpt>
      <trkpt lat="45.86017" lon="6.19568">
        <ele>487</ele>
        <time>2013-05-25T16:30:41.000Z</time>
      </trkpt>
      <trkpt lat="45.86014" lon="6.1957">
        <ele>487</ele>
        <time>2013-05-25T16:30:42.000Z</time>
      </trkpt>
      <trkpt lat="45.86012" lon="6.19572">
        <ele>487</ele>
        <time>2013-05-25T16:30:43.000Z</time>
      </trkpt>
      <trkpt lat="45.86009" lon="6.19573">
        <ele>487</ele>
        <time>2013-05-25T16:30:44.000Z</time>
      </trkpt>
      <trkpt lat="45.86006" lon="6.19575">
        <ele>487</ele>
        <time>2013-05-25T16:30:45.000Z</time>
      </trkpt>
      <trkpt lat="45.86004" lon="6.19576">
        <ele>487</ele>
        <time>2013-05-25T16:30:46.000Z</time>
      </trkpt>
      <trkpt lat="45.86002" lon="6.19578">
        <ele>487</ele>
        <time>2013-05-25T16:30:47.000Z</time>
      </trkpt>
      <trkpt lat="45.85999" lon="6.19579">
        <ele>487</ele>
        <time>2013-05-25T16:30:48.000Z</time>
      </trkpt>
      <trkpt lat="45.85997" lon="6.19581">
        <ele>487</ele>
        <time>2013-05-25T16:30:49.000Z</time>
      </trkpt>
      <trkpt lat="45.85994" lon="6.19582">
        <ele>486</ele>
        <time>2013-05-25T16:30:50.000Z</time>
      </trkpt>
      <trkpt lat="45.85991" lon="6.19584">
        <ele>487</ele>
        <time>2013-05-25T16:30:51.000Z</time>
      </trkpt>
      <trkpt lat="45.8599" lon="6.19587">
        <ele>487</ele>
        <time>2013-05-25T16:30:52.000Z</time>
      </trkpt>
      <trkpt lat="45.85988" lon="6.19589">
        <ele>487</ele>
        <time>2013-05-25T16:30:53.000Z</time>
      </trkpt>
      <trkpt lat="45.85985" lon="6.19592">
        <ele>487</ele>
        <time>2013-05-25T16:30:54.000Z</time>
      </trkpt>
      <trkpt lat="45.85983" lon="6.19595">
        <ele>487</ele>
        <time>2013-05-25T16:30:55.000Z</time>
      </trkpt>
      <trkpt lat="45.85981" lon="6.19598">
        <ele>487</ele>
        <time>2013-05-25T16:30:56.000Z</time>
      </trkpt>
      <trkpt lat="45.85979" lon="6.196">
        <ele>487</ele>
        <time>2013-05-25T16:30:57.000Z</time>
      </trkpt>
      <trkpt lat="45.85977" lon="6.19602">
        <ele>487</ele>
        <time>2013-05-25T16:30:58.000Z</time>
      </trkpt>
      <trkpt lat="45.85975" lon="6.19603">
        <ele>487</ele>
        <time>2013-05-25T16:30:59.000Z</time>
      </trkpt>
      <trkpt lat="45.85973" lon="6.19606">
        <ele>487</ele>
        <time>2013-05-25T16:31:00.000Z</time>
      </trkpt>
      <trkpt lat="45.85971" lon="6.19607">
        <ele>487</ele>
        <time>2013-05-25T16:31:01.000Z</time>
      </trkpt>
      <trkpt lat="45.85969" lon="6.1961">
        <ele>487</ele>
        <time>2013-05-25T16:31:02.000Z</time>
      </trkpt>
      <trkpt lat="45.85968" lon="6.19611">
        <ele>487</ele>
        <time>2013-05-25T16:31:03.000Z</time>
      </trkpt>
      <trkpt lat="45.85966" lon="6.19614">
        <ele>487</ele>
        <time>2013-05-25T16:31:04.000Z</time>
      </trkpt>
      <trkpt lat="45.85964" lon="6.19615">
        <ele>487</ele>
        <time>2013-05-25T16:31:05.000Z</time>
      </trkpt>
      <trkpt lat="45.85962" lon="6.19616">
        <ele>487</ele>
        <time>2013-05-25T16:31:06.000Z</time>
      </trkpt>
      <trkpt lat="45.8596" lon="6.19618">
        <ele>487</ele>
        <time>2013-05-25T16:31:07.000Z</time>
      </trkpt>
      <trkpt lat="45.85959" lon="6.19619">
        <ele>487</ele>
        <time>2013-05-25T16:31:08.000Z</time>
      </trkpt>
      <trkpt lat="45.85957" lon="6.1962">
        <ele>487</ele>
        <time>2013-05-25T16:31:09.000Z</time>
      </trkpt>
      <trkpt lat="45.85955" lon="6.19621">
        <ele>487</ele>
        <time>2013-05-25T16:31:10.000Z</time>
      </trkpt>
      <trkpt lat="45.85954" lon="6.19622">
        <ele>487</ele>
        <time>2013-05-25T16:31:11.000Z</time>
      </trkpt>
      <trkpt lat="45.85952" lon="6.19624">
        <ele>487</ele>
        <time>2013-05-25T16:31:12.000Z</time>
      </trkpt>
      <trkpt lat="45.85949" lon="6.19626">
        <ele>487</ele>
        <time>2013-05-25T16:31:13.000Z</time>
      </trkpt>
      <trkpt lat="45.85947" lon="6.19628">
        <ele>487</ele>
        <time>2013-05-25T16:31:14.000Z</time>
      </trkpt>
      <trkpt lat="45.85944" lon="6.1963">
        <ele>487</ele>
        <time>2013-05-25T16:31:15.000Z</time>
      </trkpt>
      <trkpt lat="45.85942" lon="6.19632">
        <ele>487</ele>
        <time>2013-05-25T16:31:16.000Z</time>
      </trkpt>
      <trkpt lat="45.8594" lon="6.19634">
        <ele>487</ele>
        <time>2013-05-25T16:31:17.000Z</time>
      </trkpt>
      <trkpt lat="45.85937" lon="6.19635">
        <ele>487</ele>
        <time>2013-05-25T16:31:18.000Z</time>
      </trkpt>
      <trkpt lat="45.85935" lon="6.19636">
        <ele>487</ele>
        <time>2013-05-25T16:31:19.000Z</time>
      </trkpt>
      <trkpt lat="45.85932" lon="6.19638">
        <ele>487</ele>
        <time>2013-05-25T16:31:20.000Z</time>
      </trkpt>
      <trkpt lat="45.85929" lon="6.19638">
        <ele>487</ele>
        <time>2013-05-25T16:31:21.000Z</time>
      </trkpt>
      <trkpt lat="45.85927" lon="6.19639">
        <ele>487</ele>
        <time>2013-05-25T16:31:22.000Z</time>
      </trkpt>
      <trkpt lat="45.85925" lon="6.1964">
        <ele>487</ele>
        <time>2013-05-25T16:31:23.000Z</time>
      </trkpt>
      <trkpt lat="45.85922" lon="6.19642">
        <ele>487</ele>
        <time>2013-05-25T16:31:24.000Z</time>
      </trkpt>
      <trkpt lat="45.85919" lon="6.19643">
        <ele>487</ele>
        <time>2013-05-25T16:31:25.000Z</time>
      </trkpt>
      <trkpt lat="45.85917" lon="6.19645">
        <ele>485</ele>
        <time>2013-05-25T16:31:26.000Z</time>
      </trkpt>
      <trkpt lat="45.85914" lon="6.19645">
        <ele>485</ele>
        <time>2013-05-25T16:31:27.000Z</time>
      </trkpt>
      <trkpt lat="45.85912" lon="6.19647">
        <ele>485</ele>
        <time>2013-05-25T16:31:28.000Z</time>
      </trkpt>
      <trkpt lat="45.85909" lon="6.19649">
        <ele>485</ele>
        <time>2013-05-25T16:31:29.000Z</time>
      </trkpt>
      <trkpt lat="45.85907" lon="6.19651">
        <ele>485</ele>
        <time>2013-05-25T16:31:30.000Z</time>
      </trkpt>
      <trkpt lat="45.85905" lon="6.19653">
        <ele>485</ele>
        <time>2013-05-25T16:31:31.000Z</time>
      </trkpt>
      <trkpt lat="45.85903" lon="6.19655">
        <ele>485</ele>
        <time>2013-05-25T16:31:32.000Z</time>
      </trkpt>
      <trkpt lat="45.859" lon="6.19657">
        <ele>485</ele>
        <time>2013-05-25T16:31:33.000Z</time>
      </trkpt>
      <trkpt lat="45.85898" lon="6.19659">
        <ele>485</ele>
        <time>2013-05-25T16:31:34.000Z</time>
      </trkpt>
      <trkpt lat="45.85896" lon="6.1966">
        <ele>485</ele>
        <time>2013-05-25T16:31:35.000Z</time>
      </trkpt>
      <trkpt lat="45.85893" lon="6.19661">
        <ele>485</ele>
        <time>2013-05-25T16:31:36.000Z</time>
      </trkpt>
      <trkpt lat="45.8589" lon="6.19662">
        <ele>485</ele>
        <time>2013-05-25T16:31:37.000Z</time>
      </trkpt>
      <trkpt lat="45.85887" lon="6.19663">
        <ele>485</ele>
        <time>2013-05-25T16:31:38.000Z</time>
      </trkpt>
      <trkpt lat="45.85884" lon="6.19663">
        <ele>485</ele>
        <time>2013-05-25T16:31:39.000Z</time>
      </trkpt>
      <trkpt lat="45.85881" lon="6.19663">
        <ele>485</ele>
        <time>2013-05-25T16:31:40.000Z</time>
      </trkpt>
      <trkpt lat="45.85877" lon="6.19662">
        <ele>485</ele>
        <time>2013-05-25T16:31:41.000Z</time>
      </trkpt>
      <trkpt lat="45.85874" lon="6.19663">
        <ele>485</ele>
        <time>2013-05-25T16:31:42.000Z</time>
      </trkpt>
      <trkpt lat="45.85872" lon="6.19666">
        <ele>485</ele>
        <time>2013-05-25T16:31:43.000Z</time>
      </trkpt>
      <trkpt lat="45.8587" lon="6.19668">
        <ele>487</ele>
        <time>2013-05-25T16:31:44.000Z</time>
      </trkpt>
      <trkpt lat="45.85868" lon="6.19671">
        <ele>487</ele>
        <time>2013-05-25T16:31:45.000Z</time>
      </trkpt>
      <trkpt lat="45.85865" lon="6.19674">
        <ele>487</ele>
        <time>2013-05-25T16:31:46.000Z</time>
      </trkpt>
      <trkpt lat="45.85863" lon="6.19676">
        <ele>487</ele>
        <time>2013-05-25T16:31:47.000Z</time>
      </trkpt>
      <trkpt lat="45.85862" lon="6.19678">
        <ele>487</ele>
        <time>2013-05-25T16:31:48.000Z</time>
      </trkpt>
      <trkpt lat="45.85859" lon="6.19681">
        <ele>487</ele>
        <time>2013-05-25T16:31:49.000Z</time>
      </trkpt>
      <trkpt lat="45.85857" lon="6.19683">
        <ele>487</ele>
        <time>2013-05-25T16:31:50.000Z</time>
      </trkpt>
      <trkpt lat="45.85855" lon="6.19685">
        <ele>487</ele>
        <time>2013-05-25T16:31:51.000Z</time>
      </trkpt>
      <trkpt lat="45.85853" lon="6.19688">
        <ele>487</ele>
        <time>2013-05-25T16:31:52.000Z</time>
      </trkpt>
      <trkpt lat="45.85851" lon="6.19691">
        <ele>487</ele>
        <time>2013-05-25T16:31:53.000Z</time>
      </trkpt>
      <trkpt lat="45.85849" lon="6.19694">
        <ele>487</ele>
        <time>2013-05-25T16:31:54.000Z</time>
      </trkpt>
      <trkpt lat="45.85848" lon="6.19697">
        <ele>487</ele>
        <time>2013-05-25T16:31:55.000Z</time>
      </trkpt>
      <trkpt lat="45.85846" lon="6.19699">
        <ele>487</ele>
        <time>2013-05-25T16:31:56.000Z</time>
      </trkpt>
      <trkpt lat="45.85844" lon="6.19702">
        <ele>487</ele>
        <time>2013-05-25T16:31:57.000Z</time>
      </trkpt>
      <trkpt lat="45.85842" lon="6.19705">
        <ele>488</ele>
        <time>2013-05-25T16:31:58.000Z</time>
      </trkpt>
      <trkpt lat="45.8584" lon="6.19708">
        <ele>488</ele>
        <time>2013-05-25T16:31:59.000Z</time>
      </trkpt>
      <trkpt lat="45.85838" lon="6.19711">
        <ele>488</ele>
        <time>2013-05-25T16:32:00.000Z</time>
      </trkpt>
      <trkpt lat="45.85836" lon="6.19714">
        <ele>488</ele>
        <time>2013-05-25T16:32:01.000Z</time>
      </trkpt>
      <trkpt lat="45.85834" lon="6.19718">
        <ele>488</ele>
        <time>2013-05-25T16:32:02.000Z</time>
      </trkpt>
      <trkpt lat="45.85832" lon="6.19721">
        <ele>488</ele>
        <time>2013-05-25T16:32:03.000Z</time>
      </trkpt>
      <trkpt lat="45.85831" lon="6.19724">
        <ele>488</ele>
        <time>2013-05-25T16:32:04.000Z</time>
      </trkpt>
      <trkpt lat="45.85829" lon="6.19727">
        <ele>489</ele>
        <time>2013-05-25T16:32:05.000Z</time>
      </trkpt>
      <trkpt lat="45.85828" lon="6.1973">
        <ele>489</ele>
        <time>2013-05-25T16:32:06.000Z</time>
      </trkpt>
      <trkpt lat="45.85826" lon="6.19733">
        <ele>489</ele>
        <time>2013-05-25T16:32:07.000Z</time>
      </trkpt>
      <trkpt lat="45.85824" lon="6.19736">
        <ele>489</ele>
        <time>2013-05-25T16:32:08.000Z</time>
      </trkpt>
      <trkpt lat="45.85823" lon="6.19738">
        <ele>489</ele>
        <time>2013-05-25T16:32:09.000Z</time>
      </trkpt>
      <trkpt lat="45.85821" lon="6.19741">
        <ele>489</ele>
        <time>2013-05-25T16:32:10.000Z</time>
      </trkpt>
      <trkpt lat="45.85819" lon="6.19744">
        <ele>489</ele>
        <time>2013-05-25T16:32:11.000Z</time>
      </trkpt>
      <trkpt lat="45.85817" lon="6.19747">
        <ele>489</ele>
        <time>2013-05-25T16:32:12.000Z</time>
      </trkpt>
      <trkpt lat="45.85816" lon="6.19749">
        <ele>489</ele>
        <time>2013-05-25T16:32:13.000Z</time>
      </trkpt>
      <trkpt lat="45.85814" lon="6.19751">
        <ele>492</ele>
        <time>2013-05-25T16:32:14.000Z</time>
      </trkpt>
      <trkpt lat="45.85812" lon="6.19754">
        <ele>492</ele>
        <time>2013-05-25T16:32:15.000Z</time>
      </trkpt>
      <trkpt lat="45.8581" lon="6.19756">
        <ele>493</ele>
        <time>2013-05-25T16:32:16.000Z</time>
      </trkpt>
      <trkpt lat="45.85808" lon="6.19759">
        <ele>493</ele>
        <time>2013-05-25T16:32:17.000Z</time>
      </trkpt>
      <trkpt lat="45.85807" lon="6.19761">
        <ele>493</ele>
        <time>2013-05-25T16:32:18.000Z</time>
      </trkpt>
      <trkpt lat="45.85805" lon="6.19763">
        <ele>493</ele>
        <time>2013-05-25T16:32:19.000Z</time>
      </trkpt>
      <trkpt lat="45.85802" lon="6.19766">
        <ele>494</ele>
        <time>2013-05-25T16:32:20.000Z</time>
      </trkpt>
      <trkpt lat="45.858" lon="6.19768">
        <ele>494</ele>
        <time>2013-05-25T16:32:21.000Z</time>
      </trkpt>
      <trkpt lat="45.85798" lon="6.1977">
        <ele>494</ele>
        <time>2013-05-25T16:32:22.000Z</time>
      </trkpt>
      <trkpt lat="45.85796" lon="6.19772">
        <ele>494</ele>
        <time>2013-05-25T16:32:23.000Z</time>
      </trkpt>
      <trkpt lat="45.85794" lon="6.19774">
        <ele>494</ele>
        <time>2013-05-25T16:32:24.000Z</time>
      </trkpt>
      <trkpt lat="45.85791" lon="6.19776">
        <ele>494</ele>
        <time>2013-05-25T16:32:25.000Z</time>
      </trkpt>
      <trkpt lat="45.85789" lon="6.19777">
        <ele>495</ele>
        <time>2013-05-25T16:32:26.000Z</time>
      </trkpt>
      <trkpt lat="45.85787" lon="6.19779">
        <ele>495</ele>
        <time>2013-05-25T16:32:27.000Z</time>
      </trkpt>
      <trkpt lat="45.85785" lon="6.1978">
        <ele>495</ele>
        <time>2013-05-25T16:32:28.000Z</time>
      </trkpt>
      <trkpt lat="45.85783" lon="6.19782">
        <ele>495</ele>
        <time>2013-05-25T16:32:29.000Z</time>
      </trkpt>
      <trkpt lat="45.8578" lon="6.19783">
        <ele>495</ele>
        <time>2013-05-25T16:32:30.000Z</time>
      </trkpt>
      <trkpt lat="45.85778" lon="6.19784">
        <ele>495</ele>
        <time>2013-05-25T16:32:31.000Z</time>
      </trkpt>
      <trkpt lat="45.85776" lon="6.19784">
        <ele>495</ele>
        <time>2013-05-25T16:32:32.000Z</time>
      </trkpt>
      <trkpt lat="45.85774" lon="6.19785">
        <ele>495</ele>
        <time>2013-05-25T16:32:33.000Z</time>
      </trkpt>
      <trkpt lat="45.85772" lon="6.19785">
        <ele>495</ele>
        <time>2013-05-25T16:32:34.000Z</time>
      </trkpt>
      <trkpt lat="45.8577" lon="6.19785">
        <ele>496</ele>
        <time>2013-05-25T16:32:35.000Z</time>
      </trkpt>
      <trkpt lat="45.85767" lon="6.19785">
        <ele>496</ele>
        <time>2013-05-25T16:32:36.000Z</time>
      </trkpt>
      <trkpt lat="45.85765" lon="6.19785">
        <ele>496</ele>
        <time>2013-05-25T16:32:37.000Z</time>
      </trkpt>
      <trkpt lat="45.85763" lon="6.19785">
        <ele>496</ele>
        <time>2013-05-25T16:32:38.000Z</time>
      </trkpt>
      <trkpt lat="45.8576" lon="6.19785">
        <ele>496</ele>
        <time>2013-05-25T16:32:39.000Z</time>
      </trkpt>
      <trkpt lat="45.85758" lon="6.19785">
        <ele>496</ele>
        <time>2013-05-25T16:32:40.000Z</time>
      </trkpt>
      <trkpt lat="45.85755" lon="6.19785">
        <ele>496</ele>
        <time>2013-05-25T16:32:41.000Z</time>
      </trkpt>
      <trkpt lat="45.85753" lon="6.19786">
        <ele>496</ele>
        <time>2013-05-25T16:32:42.000Z</time>
      </trkpt>
      <trkpt lat="45.8575" lon="6.19785">
        <ele>496</ele>
        <time>2013-05-25T16:32:43.000Z</time>
      </trkpt>
      <trkpt lat="45.85748" lon="6.19785">
        <ele>500</ele>
        <time>2013-05-25T16:32:44.000Z</time>
      </trkpt>
      <trkpt lat="45.85747" lon="6.19784">
        <ele>500</ele>
        <time>2013-05-25T16:32:45.000Z</time>
      </trkpt>
      <trkpt lat="45.85744" lon="6.19784">
        <ele>500</ele>
        <time>2013-05-25T16:32:46.000Z</time>
      </trkpt>
      <trkpt lat="45.85742" lon="6.19783">
        <ele>500</ele>
        <time>2013-05-25T16:32:47.000Z</time>
      </trkpt>
      <trkpt lat="45.85738" lon="6.19783">
        <ele>500</ele>
        <time>2013-05-25T16:32:48.000Z</time>
      </trkpt>
      <trkpt lat="45.85736" lon="6.19782">
        <ele>500</ele>
        <time>2013-05-25T16:32:49.000Z</time>
      </trkpt>
      <trkpt lat="45.85734" lon="6.19781">
        <ele>500</ele>
        <time>2013-05-25T16:32:50.000Z</time>
      </trkpt>
      <trkpt lat="45.85732" lon="6.1978">
        <ele>500</ele>
        <time>2013-05-25T16:32:51.000Z</time>
      </trkpt>
      <trkpt lat="45.8573" lon="6.1978">
        <ele>500</ele>
        <time>2013-05-25T16:32:52.000Z</time>
      </trkpt>
      <trkpt lat="45.85729" lon="6.19778">
        <ele>500</ele>
        <time>2013-05-25T16:32:53.000Z</time>
      </trkpt>
      <trkpt lat="45.85726" lon="6.19777">
        <ele>500</ele>
        <time>2013-05-25T16:32:54.000Z</time>
      </trkpt>
      <trkpt lat="45.85725" lon="6.19775">
        <ele>500</ele>
        <time>2013-05-25T16:32:55.000Z</time>
      </trkpt>
      <trkpt lat="45.85723" lon="6.19773">
        <ele>500</ele>
        <time>2013-05-25T16:32:56.000Z</time>
      </trkpt>
      <trkpt lat="45.85721" lon="6.19772">
        <ele>500</ele>
        <time>2013-05-25T16:32:57.000Z</time>
      </trkpt>
      <trkpt lat="45.85719" lon="6.1977">
        <ele>500</ele>
        <time>2013-05-25T16:32:58.000Z</time>
      </trkpt>
      <trkpt lat="45.85717" lon="6.19769">
        <ele>501</ele>
        <time>2013-05-25T16:32:59.000Z</time>
      </trkpt>
      <trkpt lat="45.85715" lon="6.19768">
        <ele>501</ele>
        <time>2013-05-25T16:33:00.000Z</time>
      </trkpt>
      <trkpt lat="45.85712" lon="6.19766">
        <ele>501</ele>
        <time>2013-05-25T16:33:01.000Z</time>
      </trkpt>
      <trkpt lat="45.85709" lon="6.19765">
        <ele>501</ele>
        <time>2013-05-25T16:33:02.000Z</time>
      </trkpt>
      <trkpt lat="45.85707" lon="6.19764">
        <ele>501</ele>
        <time>2013-05-25T16:33:03.000Z</time>
      </trkpt>
      <trkpt lat="45.85704" lon="6.19762">
        <ele>501</ele>
        <time>2013-05-25T16:33:04.000Z</time>
      </trkpt>
      <trkpt lat="45.85702" lon="6.1976">
        <ele>501</ele>
        <time>2013-05-25T16:33:05.000Z</time>
      </trkpt>
      <trkpt lat="45.857" lon="6.19758">
        <ele>501</ele>
        <time>2013-05-25T16:33:06.000Z</time>
      </trkpt>
      <trkpt lat="45.85698" lon="6.19756">
        <ele>501</ele>
        <time>2013-05-25T16:33:07.000Z</time>
      </trkpt>
      <trkpt lat="45.85695" lon="6.19756">
        <ele>501</ele>
        <time>2013-05-25T16:33:08.000Z</time>
      </trkpt>
      <trkpt lat="45.85693" lon="6.19755">
        <ele>501</ele>
        <time>2013-05-25T16:33:09.000Z</time>
      </trkpt>
      <trkpt lat="45.85691" lon="6.19754">
        <ele>501</ele>
        <time>2013-05-25T16:33:10.000Z</time>
      </trkpt>
      <trkpt lat="45.85688" lon="6.19752">
        <ele>501</ele>
        <time>2013-05-25T16:33:11.000Z</time>
      </trkpt>
      <trkpt lat="45.85685" lon="6.19751">
        <ele>501</ele>
        <time>2013-05-25T16:33:12.000Z</time>
      </trkpt>
      <trkpt lat="45.85683" lon="6.1975">
        <ele>497</ele>
        <time>2013-05-25T16:33:13.000Z</time>
      </trkpt>
      <trkpt lat="45.85681" lon="6.19749">
        <ele>497</ele>
        <time>2013-05-25T16:33:14.000Z</time>
      </trkpt>
      <trkpt lat="45.85679" lon="6.19747">
        <ele>498</ele>
        <time>2013-05-25T16:33:15.000Z</time>
      </trkpt>
      <trkpt lat="45.85677" lon="6.19746">
        <ele>498</ele>
        <time>2013-05-25T16:33:16.000Z</time>
      </trkpt>
      <trkpt lat="45.85675" lon="6.19745">
        <ele>498</ele>
        <time>2013-05-25T16:33:17.000Z</time>
      </trkpt>
      <trkpt lat="45.85673" lon="6.19743">
        <ele>498</ele>
        <time>2013-05-25T16:33:18.000Z</time>
      </trkpt>
      <trkpt lat="45.85671" lon="6.19743">
        <ele>499</ele>
        <time>2013-05-25T16:33:19.000Z</time>
      </trkpt>
      <trkpt lat="45.85669" lon="6.19743">
        <ele>499</ele>
        <time>2013-05-25T16:33:20.000Z</time>
      </trkpt>
      <trkpt lat="45.85667" lon="6.19742">
        <ele>499</ele>
        <time>2013-05-25T16:33:21.000Z</time>
      </trkpt>
      <trkpt lat="45.85665" lon="6.19741">
        <ele>499</ele>
        <time>2013-05-25T16:33:22.000Z</time>
      </trkpt>
      <trkpt lat="45.85663" lon="6.19741">
        <ele>499</ele>
        <time>2013-05-25T16:33:23.000Z</time>
      </trkpt>
      <trkpt lat="45.8566" lon="6.1974">
        <ele>499</ele>
        <time>2013-05-25T16:33:24.000Z</time>
      </trkpt>
      <trkpt lat="45.85658" lon="6.1974">
        <ele>499</ele>
        <time>2013-05-25T16:33:25.000Z</time>
      </trkpt>
      <trkpt lat="45.85656" lon="6.1974">
        <ele>498</ele>
        <time>2013-05-25T16:33:26.000Z</time>
      </trkpt>
      <trkpt lat="45.85654" lon="6.1974">
        <ele>498</ele>
        <time>2013-05-25T16:33:27.000Z</time>
      </trkpt>
      <trkpt lat="45.85652" lon="6.1974">
        <ele>498</ele>
        <time>2013-05-25T16:33:28.000Z</time>
      </trkpt>
      <trkpt lat="45.85651" lon="6.1974">
        <ele>498</ele>
        <time>2013-05-25T16:33:29.000Z</time>
      </trkpt>
      <trkpt lat="45.85648" lon="6.1974">
        <ele>498</ele>
        <time>2013-05-25T16:33:30.000Z</time>
      </trkpt>
      <trkpt lat="45.85646" lon="6.19741">
        <ele>498</ele>
        <time>2013-05-25T16:33:31.000Z</time>
      </trkpt>
      <trkpt lat="45.85644" lon="6.1974">
        <ele>498</ele>
        <time>2013-05-25T16:33:32.000Z</time>
      </trkpt>
      <trkpt lat="45.85643" lon="6.1974">
        <ele>497</ele>
        <time>2013-05-25T16:33:33.000Z</time>
      </trkpt>
      <trkpt lat="45.8564" lon="6.19741">
        <ele>497</ele>
        <time>2013-05-25T16:33:34.000Z</time>
      </trkpt>
      <trkpt lat="45.85638" lon="6.19741">
        <ele>497</ele>
        <time>2013-05-25T16:33:35.000Z</time>
      </trkpt>
      <trkpt lat="45.85635" lon="6.19742">
        <ele>497</ele>
        <time>2013-05-25T16:33:36.000Z</time>
      </trkpt>
      <trkpt lat="45.85633" lon="6.19742">
        <ele>497</ele>
        <time>2013-05-25T16:33:37.000Z</time>
      </trkpt>
      <trkpt lat="45.85631" lon="6.19742">
        <ele>497</ele>
        <time>2013-05-25T16:33:38.000Z</time>
      </trkpt>
      <trkpt lat="45.85629" lon="6.19743">
        <ele>497</ele>
        <time>2013-05-25T16:33:39.000Z</time>
      </trkpt>
      <trkpt lat="45.85626" lon="6.19743">
        <ele>497</ele>
        <time>2013-05-25T16:33:40.000Z</time>
      </trkpt>
      <trkpt lat="45.85624" lon="6.19744">
        <ele>497</ele>
        <time>2013-05-25T16:33:41.000Z</time>
      </trkpt>
      <trkpt lat="45.85622" lon="6.19745">
        <ele>497</ele>
        <time>2013-05-25T16:33:42.000Z</time>
      </trkpt>
      <trkpt lat="45.85619" lon="6.19746">
        <ele>497</ele>
        <time>2013-05-25T16:33:43.000Z</time>
      </trkpt>
      <trkpt lat="45.85616" lon="6.19748">
        <ele>497</ele>
        <time>2013-05-25T16:33:44.000Z</time>
      </trkpt>
      <trkpt lat="45.85614" lon="6.19749">
        <ele>497</ele>
        <time>2013-05-25T16:33:45.000Z</time>
      </trkpt>
      <trkpt lat="45.85612" lon="6.1975">
        <ele>497</ele>
        <time>2013-05-25T16:33:46.000Z</time>
      </trkpt>
      <trkpt lat="45.85609" lon="6.19751">
        <ele>502</ele>
        <time>2013-05-25T16:33:47.000Z</time>
      </trkpt>
      <trkpt lat="45.85606" lon="6.19753">
        <ele>502</ele>
        <time>2013-05-25T16:33:48.000Z</time>
      </trkpt>
      <trkpt lat="45.85604" lon="6.19754">
        <ele>502</ele>
        <time>2013-05-25T16:33:49.000Z</time>
      </trkpt>
      <trkpt lat="45.85602" lon="6.19756">
        <ele>502</ele>
        <time>2013-05-25T16:33:50.000Z</time>
      </trkpt>
      <trkpt lat="45.856" lon="6.19757">
        <ele>501</ele>
        <time>2013-05-25T16:33:51.000Z</time>
      </trkpt>
      <trkpt lat="45.85598" lon="6.19759">
        <ele>501</ele>
        <time>2013-05-25T16:33:52.000Z</time>
      </trkpt>
      <trkpt lat="45.85596" lon="6.19761">
        <ele>501</ele>
        <time>2013-05-25T16:33:53.000Z</time>
      </trkpt>
      <trkpt lat="45.85594" lon="6.19763">
        <ele>501</ele>
        <time>2013-05-25T16:33:54.000Z</time>
      </trkpt>
      <trkpt lat="45.85592" lon="6.19765">
        <ele>501</ele>
        <time>2013-05-25T16:33:55.000Z</time>
      </trkpt>
      <trkpt lat="45.8559" lon="6.19767">
        <ele>502</ele>
        <time>2013-05-25T16:33:56.000Z</time>
      </trkpt>
      <trkpt lat="45.85588" lon="6.1977">
        <ele>502</ele>
        <time>2013-05-25T16:33:57.000Z</time>
      </trkpt>
      <trkpt lat="45.85586" lon="6.19772">
        <ele>502</ele>
        <time>2013-05-25T16:33:58.000Z</time>
      </trkpt>
      <trkpt lat="45.85584" lon="6.19775">
        <ele>502</ele>
        <time>2013-05-25T16:33:59.000Z</time>
      </trkpt>
      <trkpt lat="45.85582" lon="6.19777">
        <ele>501</ele>
        <time>2013-05-25T16:34:00.000Z</time>
      </trkpt>
      <trkpt lat="45.8558" lon="6.1978">
        <ele>501</ele>
        <time>2013-05-25T16:34:01.000Z</time>
      </trkpt>
      <trkpt lat="45.85578" lon="6.19782">
        <ele>501</ele>
        <time>2013-05-25T16:34:02.000Z</time>
      </trkpt>
      <trkpt lat="45.85576" lon="6.19785">
        <ele>501</ele>
        <time>2013-05-25T16:34:03.000Z</time>
      </trkpt>
      <trkpt lat="45.85574" lon="6.19787">
        <ele>501</ele>
        <time>2013-05-25T16:34:04.000Z</time>
      </trkpt>
      <trkpt lat="45.85572" lon="6.1979">
        <ele>501</ele>
        <time>2013-05-25T16:34:05.000Z</time>
      </trkpt>
      <trkpt lat="45.8557" lon="6.19792">
        <ele>501</ele>
        <time>2013-05-25T16:34:06.000Z</time>
      </trkpt>
      <trkpt lat="45.85569" lon="6.19794">
        <ele>501</ele>
        <time>2013-05-25T16:34:07.000Z</time>
      </trkpt>
      <trkpt lat="45.85567" lon="6.19797">
        <ele>502</ele>
        <time>2013-05-25T16:34:08.000Z</time>
      </trkpt>
      <trkpt lat="45.85565" lon="6.19799">
        <ele>502</ele>
        <time>2013-05-25T16:34:09.000Z</time>
      </trkpt>
      <trkpt lat="45.85563" lon="6.19801">
        <ele>502</ele>
        <time>2013-05-25T16:34:10.000Z</time>
      </trkpt>
      <trkpt lat="45.85561" lon="6.19804">
        <ele>502</ele>
        <time>2013-05-25T16:34:11.000Z</time>
      </trkpt>
      <trkpt lat="45.85559" lon="6.19806">
        <ele>502</ele>
        <time>2013-05-25T16:34:12.000Z</time>
      </trkpt>
      <trkpt lat="45.85557" lon="6.19809">
        <ele>502</ele>
        <time>2013-05-25T16:34:13.000Z</time>
      </trkpt>
      <trkpt lat="45.85556" lon="6.19811">
        <ele>502</ele>
        <time>2013-05-25T16:34:14.000Z</time>
      </trkpt>
      <trkpt lat="45.85554" lon="6.19813">
        <ele>502</ele>
        <time>2013-05-25T16:34:15.000Z</time>
      </trkpt>
      <trkpt lat="45.85552" lon="6.19816">
        <ele>502</ele>
        <time>2013-05-25T16:34:16.000Z</time>
      </trkpt>
      <trkpt lat="45.85551" lon="6.19818">
        <ele>502</ele>
        <time>2013-05-25T16:34:17.000Z</time>
      </trkpt>
      <trkpt lat="45.85549" lon="6.1982">
        <ele>502</ele>
        <time>2013-05-25T16:34:18.000Z</time>
      </trkpt>
      <trkpt lat="45.85548" lon="6.19823">
        <ele>502</ele>
        <time>2013-05-25T16:34:19.000Z</time>
      </trkpt>
      <trkpt lat="45.85546" lon="6.19825">
        <ele>502</ele>
        <time>2013-05-25T16:34:20.000Z</time>
      </trkpt>
      <trkpt lat="45.85544" lon="6.19828">
        <ele>502</ele>
        <time>2013-05-25T16:34:21.000Z</time>
      </trkpt>
      <trkpt lat="45.85542" lon="6.1983">
        <ele>502</ele>
        <time>2013-05-25T16:34:22.000Z</time>
      </trkpt>
      <trkpt lat="45.85541" lon="6.19832">
        <ele>502</ele>
        <time>2013-05-25T16:34:23.000Z</time>
      </trkpt>
      <trkpt lat="45.85539" lon="6.19835">
        <ele>507</ele>
        <time>2013-05-25T16:34:24.000Z</time>
      </trkpt>
      <trkpt lat="45.85537" lon="6.19838">
        <ele>506</ele>
        <time>2013-05-25T16:34:25.000Z</time>
      </trkpt>
      <trkpt lat="45.85535" lon="6.1984">
        <ele>506</ele>
        <time>2013-05-25T16:34:26.000Z</time>
      </trkpt>
      <trkpt lat="45.85534" lon="6.19842">
        <ele>506</ele>
        <time>2013-05-25T16:34:27.000Z</time>
      </trkpt>
      <trkpt lat="45.85532" lon="6.19845">
        <ele>506</ele>
        <time>2013-05-25T16:34:28.000Z</time>
      </trkpt>
      <trkpt lat="45.8553" lon="6.19847">
        <ele>506</ele>
        <time>2013-05-25T16:34:29.000Z</time>
      </trkpt>
      <trkpt lat="45.85529" lon="6.19849">
        <ele>506</ele>
        <time>2013-05-25T16:34:30.000Z</time>
      </trkpt>
      <trkpt lat="45.85527" lon="6.19852">
        <ele>507</ele>
        <time>2013-05-25T16:34:31.000Z</time>
      </trkpt>
      <trkpt lat="45.85525" lon="6.19854">
        <ele>507</ele>
        <time>2013-05-25T16:34:32.000Z</time>
      </trkpt>
      <trkpt lat="45.85523" lon="6.19856">
        <ele>507</ele>
        <time>2013-05-25T16:34:33.000Z</time>
      </trkpt>
      <trkpt lat="45.85522" lon="6.19858">
        <ele>507</ele>
        <time>2013-05-25T16:34:34.000Z</time>
      </trkpt>
      <trkpt lat="45.8552" lon="6.1986">
        <ele>507</ele>
        <time>2013-05-25T16:34:35.000Z</time>
      </trkpt>
      <trkpt lat="45.85518" lon="6.19863">
        <ele>507</ele>
        <time>2013-05-25T16:34:36.000Z</time>
      </trkpt>
      <trkpt lat="45.85517" lon="6.19865">
        <ele>507</ele>
        <time>2013-05-25T16:34:37.000Z</time>
      </trkpt>
      <trkpt lat="45.85515" lon="6.19867">
        <ele>507</ele>
        <time>2013-05-25T16:34:38.000Z</time>
      </trkpt>
      <trkpt lat="45.85514" lon="6.1987">
        <ele>507</ele>
        <time>2013-05-25T16:34:39.000Z</time>
      </trkpt>
      <trkpt lat="45.85512" lon="6.19872">
        <ele>507</ele>
        <time>2013-05-25T16:34:40.000Z</time>
      </trkpt>
      <trkpt lat="45.8551" lon="6.19874">
        <ele>507</ele>
        <time>2013-05-25T16:34:41.000Z</time>
      </trkpt>
      <trkpt lat="45.85508" lon="6.19877">
        <ele>508</ele>
        <time>2013-05-25T16:34:42.000Z</time>
      </trkpt>
      <trkpt lat="45.85506" lon="6.19879">
        <ele>508</ele>
        <time>2013-05-25T16:34:43.000Z</time>
      </trkpt>
      <trkpt lat="45.85505" lon="6.19882">
        <ele>508</ele>
        <time>2013-05-25T16:34:44.000Z</time>
      </trkpt>
      <trkpt lat="45.85503" lon="6.19884">
        <ele>508</ele>
        <time>2013-05-25T16:34:45.000Z</time>
      </trkpt>
      <trkpt lat="45.85501" lon="6.19887">
        <ele>508</ele>
        <time>2013-05-25T16:34:46.000Z</time>
      </trkpt>
      <trkpt lat="45.855" lon="6.19889">
        <ele>508</ele>
        <time>2013-05-25T16:34:47.000Z</time>
      </trkpt>
      <trkpt lat="45.85498" lon="6.19891">
        <ele>508</ele>
        <time>2013-05-25T16:34:48.000Z</time>
      </trkpt>
      <trkpt lat="45.85496" lon="6.19894">
        <ele>508</ele>
        <time>2013-05-25T16:34:49.000Z</time>
      </trkpt>
      <trkpt lat="45.85494" lon="6.19896">
        <ele>509</ele>
        <time>2013-05-25T16:34:50.000Z</time>
      </trkpt>
      <trkpt lat="45.85492" lon="6.19899">
        <ele>509</ele>
        <time>2013-05-25T16:34:51.000Z</time>
      </trkpt>
      <trkpt lat="45.85491" lon="6.19902">
        <ele>509</ele>
        <time>2013-05-25T16:34:52.000Z</time>
      </trkpt>
      <trkpt lat="45.85489" lon="6.19904">
        <ele>509</ele>
        <time>2013-05-25T16:34:53.000Z</time>
      </trkpt>
      <trkpt lat="45.85488" lon="6.19906">
        <ele>509</ele>
        <time>2013-05-25T16:34:54.000Z</time>
      </trkpt>
      <trkpt lat="45.85487" lon="6.19909">
        <ele>509</ele>
        <time>2013-05-25T16:34:55.000Z</time>
      </trkpt>
      <trkpt lat="45.85485" lon="6.19912">
        <ele>509</ele>
        <time>2013-05-25T16:34:56.000Z</time>
      </trkpt>
      <trkpt lat="45.85484" lon="6.19914">
        <ele>509</ele>
        <time>2013-05-25T16:34:57.000Z</time>
      </trkpt>
      <trkpt lat="45.85482" lon="6.19917">
        <ele>512</ele>
        <time>2013-05-25T16:34:58.000Z</time>
      </trkpt>
      <trkpt lat="45.85481" lon="6.19919">
        <ele>512</ele>
        <time>2013-05-25T16:34:59.000Z</time>
      </trkpt>
      <trkpt lat="45.85479" lon="6.19922">
        <ele>512</ele>
        <time>2013-05-25T16:35:00.000Z</time>
      </trkpt>
      <trkpt lat="45.85478" lon="6.19925">
        <ele>512</ele>
        <time>2013-05-25T16:35:01.000Z</time>
      </trkpt>
      <trkpt lat="45.85477" lon="6.19927">
        <ele>513</ele>
        <time>2013-05-25T16:35:02.000Z</time>
      </trkpt>
      <trkpt lat="45.85477" lon="6.19929">
        <ele>513</ele>
        <time>2013-05-25T16:35:03.000Z</time>
      </trkpt>
      <trkpt lat="45.85476" lon="6.19932">
        <ele>513</ele>
        <time>2013-05-25T16:35:04.000Z</time>
      </trkpt>
      <trkpt lat="45.85474" lon="6.19935">
        <ele>513</ele>
        <time>2013-05-25T16:35:05.000Z</time>
      </trkpt>
      <trkpt lat="45.85473" lon="6.19938">
        <ele>513</ele>
        <time>2013-05-25T16:35:06.000Z</time>
      </trkpt>
      <trkpt lat="45.85472" lon="6.19941">
        <ele>513</ele>
        <time>2013-05-25T16:35:07.000Z</time>
      </trkpt>
      <trkpt lat="45.85471" lon="6.19944">
        <ele>513</ele>
        <time>2013-05-25T16:35:08.000Z</time>
      </trkpt>
      <trkpt lat="45.8547" lon="6.19947">
        <ele>514</ele>
        <time>2013-05-25T16:35:09.000Z</time>
      </trkpt>
      <trkpt lat="45.85468" lon="6.1995">
        <ele>514</ele>
        <time>2013-05-25T16:35:10.000Z</time>
      </trkpt>
      <trkpt lat="45.85467" lon="6.19953">
        <ele>514</ele>
        <time>2013-05-25T16:35:11.000Z</time>
      </trkpt>
      <trkpt lat="45.85465" lon="6.19956">
        <ele>514</ele>
        <time>2013-05-25T16:35:12.000Z</time>
      </trkpt>
      <trkpt lat="45.85464" lon="6.19959">
        <ele>514</ele>
        <time>2013-05-25T16:35:13.000Z</time>
      </trkpt>
      <trkpt lat="45.85463" lon="6.19961">
        <ele>514</ele>
        <time>2013-05-25T16:35:14.000Z</time>
      </trkpt>
      <trkpt lat="45.85461" lon="6.19964">
        <ele>514</ele>
        <time>2013-05-25T16:35:15.000Z</time>
      </trkpt>
      <trkpt lat="45.85459" lon="6.19967">
        <ele>514</ele>
        <time>2013-05-25T16:35:16.000Z</time>
      </trkpt>
      <trkpt lat="45.85458" lon="6.19969">
        <ele>514</ele>
        <time>2013-05-25T16:35:17.000Z</time>
      </trkpt>
      <trkpt lat="45.85456" lon="6.19972">
        <ele>514</ele>
        <time>2013-05-25T16:35:18.000Z</time>
      </trkpt>
      <trkpt lat="45.85455" lon="6.19975">
        <ele>514</ele>
        <time>2013-05-25T16:35:19.000Z</time>
      </trkpt>
      <trkpt lat="45.85453" lon="6.19978">
        <ele>515</ele>
        <time>2013-05-25T16:35:20.000Z</time>
      </trkpt>
      <trkpt lat="45.85452" lon="6.1998">
        <ele>515</ele>
        <time>2013-05-25T16:35:21.000Z</time>
      </trkpt>
      <trkpt lat="45.8545" lon="6.19983">
        <ele>515</ele>
        <time>2013-05-25T16:35:22.000Z</time>
      </trkpt>
      <trkpt lat="45.85448" lon="6.19986">
        <ele>515</ele>
        <time>2013-05-25T16:35:23.000Z</time>
      </trkpt>
      <trkpt lat="45.85447" lon="6.19989">
        <ele>515</ele>
        <time>2013-05-25T16:35:24.000Z</time>
      </trkpt>
      <trkpt lat="45.85446" lon="6.19993">
        <ele>515</ele>
        <time>2013-05-25T16:35:25.000Z</time>
      </trkpt>
      <trkpt lat="45.85445" lon="6.19996">
        <ele>515</ele>
        <time>2013-05-25T16:35:26.000Z</time>
      </trkpt>
      <trkpt lat="45.85444" lon="6.19999">
        <ele>515</ele>
        <time>2013-05-25T16:35:27.000Z</time>
      </trkpt>
      <trkpt lat="45.85443" lon="6.20003">
        <ele>518</ele>
        <time>2013-05-25T16:35:28.000Z</time>
      </trkpt>
      <trkpt lat="45.85441" lon="6.20006">
        <ele>518</ele>
        <time>2013-05-25T16:35:29.000Z</time>
      </trkpt>
      <trkpt lat="45.8544" lon="6.20009">
        <ele>518</ele>
        <time>2013-05-25T16:35:30.000Z</time>
      </trkpt>
      <trkpt lat="45.85439" lon="6.20012">
        <ele>518</ele>
        <time>2013-05-25T16:35:31.000Z</time>
      </trkpt>
      <trkpt lat="45.85437" lon="6.20015">
        <ele>518</ele>
        <time>2013-05-25T16:35:32.000Z</time>
      </trkpt>
      <trkpt lat="45.85436" lon="6.20018">
        <ele>518</ele>
        <time>2013-05-25T16:35:33.000Z</time>
      </trkpt>
      <trkpt lat="45.85436" lon="6.2002">
        <ele>519</ele>
        <time>2013-05-25T16:35:34.000Z</time>
      </trkpt>
      <trkpt lat="45.85435" lon="6.20023">
        <ele>519</ele>
        <time>2013-05-25T16:35:35.000Z</time>
      </trkpt>
      <trkpt lat="45.85434" lon="6.20025">
        <ele>519</ele>
        <time>2013-05-25T16:35:36.000Z</time>
      </trkpt>
      <trkpt lat="45.85433" lon="6.20027">
        <ele>519</ele>
        <time>2013-05-25T16:35:37.000Z</time>
      </trkpt>
      <trkpt lat="45.85432" lon="6.2003">
        <ele>519</ele>
        <time>2013-05-25T16:35:38.000Z</time>
      </trkpt>
      <trkpt lat="45.8543" lon="6.20033">
        <ele>519</ele>
        <time>2013-05-25T16:35:39.000Z</time>
      </trkpt>
      <trkpt lat="45.85428" lon="6.20036">
        <ele>519</ele>
        <time>2013-05-25T16:35:40.000Z</time>
      </trkpt>
      <trkpt lat="45.85427" lon="6.2004">
        <ele>519</ele>
        <time>2013-05-25T16:35:41.000Z</time>
      </trkpt>
      <trkpt lat="45.85425" lon="6.20043">
        <ele>520</ele>
        <time>2013-05-25T16:35:42.000Z</time>
      </trkpt>
      <trkpt lat="45.85425" lon="6.20046">
        <ele>520</ele>
        <time>2013-05-25T16:35:43.000Z</time>
      </trkpt>
      <trkpt lat="45.85423" lon="6.20049">
        <ele>520</ele>
        <time>2013-05-25T16:35:44.000Z</time>
      </trkpt>
      <trkpt lat="45.85422" lon="6.20052">
        <ele>520</ele>
        <time>2013-05-25T16:35:45.000Z</time>
      </trkpt>
      <trkpt lat="45.85421" lon="6.20055">
        <ele>520</ele>
        <time>2013-05-25T16:35:46.000Z</time>
      </trkpt>
      <trkpt lat="45.8542" lon="6.20058">
        <ele>520</ele>
        <time>2013-05-25T16:35:47.000Z</time>
      </trkpt>
      <trkpt lat="45.85419" lon="6.20061">
        <ele>520</ele>
        <time>2013-05-25T16:35:48.000Z</time>
      </trkpt>
      <trkpt lat="45.85419" lon="6.20064">
        <ele>520</ele>
        <time>2013-05-25T16:35:49.000Z</time>
      </trkpt>
      <trkpt lat="45.85418" lon="6.20067">
        <ele>520</ele>
        <time>2013-05-25T16:35:50.000Z</time>
      </trkpt>
      <trkpt lat="45.85417" lon="6.2007">
        <ele>520</ele>
        <time>2013-05-25T16:35:51.000Z</time>
      </trkpt>
      <trkpt lat="45.85415" lon="6.20073">
        <ele>521</ele>
        <time>2013-05-25T16:35:52.000Z</time>
      </trkpt>
      <trkpt lat="45.85414" lon="6.20076">
        <ele>521</ele>
        <time>2013-05-25T16:35:53.000Z</time>
      </trkpt>
      <trkpt lat="45.85412" lon="6.20079">
        <ele>521</ele>
        <time>2013-05-25T16:35:54.000Z</time>
      </trkpt>
      <trkpt lat="45.85411" lon="6.20082">
        <ele>521</ele>
        <time>2013-05-25T16:35:55.000Z</time>
      </trkpt>
      <trkpt lat="45.8541" lon="6.20085">
        <ele>522</ele>
        <time>2013-05-25T16:35:56.000Z</time>
      </trkpt>
      <trkpt lat="45.85408" lon="6.20088">
        <ele>522</ele>
        <time>2013-05-25T16:35:57.000Z</time>
      </trkpt>
      <trkpt lat="45.85406" lon="6.20091">
        <ele>522</ele>
        <time>2013-05-25T16:35:58.000Z</time>
      </trkpt>
      <trkpt lat="45.85405" lon="6.20093">
        <ele>522</ele>
        <time>2013-05-25T16:35:59.000Z</time>
      </trkpt>
      <trkpt lat="45.85403" lon="6.20097">
        <ele>523</ele>
        <time>2013-05-25T16:36:00.000Z</time>
      </trkpt>
      <trkpt lat="45.85401" lon="6.201">
        <ele>523</ele>
        <time>2013-05-25T16:36:01.000Z</time>
      </trkpt>
      <trkpt lat="45.854" lon="6.20103">
        <ele>523</ele>
        <time>2013-05-25T16:36:02.000Z</time>
      </trkpt>
      <trkpt lat="45.85399" lon="6.20106">
        <ele>523</ele>
        <time>2013-05-25T16:36:03.000Z</time>
      </trkpt>
      <trkpt lat="45.85398" lon="6.20109">
        <ele>523</ele>
        <time>2013-05-25T16:36:04.000Z</time>
      </trkpt>
      <trkpt lat="45.85397" lon="6.20112">
        <ele>523</ele>
        <time>2013-05-25T16:36:05.000Z</time>
      </trkpt>
      <trkpt lat="45.85396" lon="6.20115">
        <ele>524</ele>
        <time>2013-05-25T16:36:06.000Z</time>
      </trkpt>
      <trkpt lat="45.85395" lon="6.20118">
        <ele>524</ele>
        <time>2013-05-25T16:36:07.000Z</time>
      </trkpt>
      <trkpt lat="45.85394" lon="6.2012">
        <ele>524</ele>
        <time>2013-05-25T16:36:08.000Z</time>
      </trkpt>
      <trkpt lat="45.85392" lon="6.20123">
        <ele>524</ele>
        <time>2013-05-25T16:36:09.000Z</time>
      </trkpt>
      <trkpt lat="45.85391" lon="6.20126">
        <ele>524</ele>
        <time>2013-05-25T16:36:10.000Z</time>
      </trkpt>
      <trkpt lat="45.85389" lon="6.20129">
        <ele>524</ele>
        <time>2013-05-25T16:36:11.000Z</time>
      </trkpt>
      <trkpt lat="45.85388" lon="6.20133">
        <ele>524</ele>
        <time>2013-05-25T16:36:12.000Z</time>
      </trkpt>
      <trkpt lat="45.85387" lon="6.20136">
        <ele>524</ele>
        <time>2013-05-25T16:36:13.000Z</time>
      </trkpt>
      <trkpt lat="45.85386" lon="6.20139">
        <ele>524</ele>
        <time>2013-05-25T16:36:14.000Z</time>
      </trkpt>
      <trkpt lat="45.85384" lon="6.20142">
        <ele>524</ele>
        <time>2013-05-25T16:36:15.000Z</time>
      </trkpt>
      <trkpt lat="45.85383" lon="6.20145">
        <ele>525</ele>
        <time>2013-05-25T16:36:16.000Z</time>
      </trkpt>
      <trkpt lat="45.85382" lon="6.20148">
        <ele>525</ele>
        <time>2013-05-25T16:36:17.000Z</time>
      </trkpt>
      <trkpt lat="45.8538" lon="6.20151">
        <ele>525</ele>
        <time>2013-05-25T16:36:18.000Z</time>
      </trkpt>
      <trkpt lat="45.85379" lon="6.20154">
        <ele>525</ele>
        <time>2013-05-25T16:36:19.000Z</time>
      </trkpt>
      <trkpt lat="45.85378" lon="6.20157">
        <ele>525</ele>
        <time>2013-05-25T16:36:20.000Z</time>
      </trkpt>
      <trkpt lat="45.85377" lon="6.20159">
        <ele>525</ele>
        <time>2013-05-25T16:36:21.000Z</time>
      </trkpt>
      <trkpt lat="45.85376" lon="6.20162">
        <ele>525</ele>
        <time>2013-05-25T16:36:22.000Z</time>
      </trkpt>
      <trkpt lat="45.85375" lon="6.20165">
        <ele>525</ele>
        <time>2013-05-25T16:36:23.000Z</time>
      </trkpt>
      <trkpt lat="45.85373" lon="6.20167">
        <ele>527</ele>
        <time>2013-05-25T16:36:24.000Z</time>
      </trkpt>
      <trkpt lat="45.85372" lon="6.2017">
        <ele>527</ele>
        <time>2013-05-25T16:36:25.000Z</time>
      </trkpt>
      <trkpt lat="45.85371" lon="6.20172">
        <ele>527</ele>
        <time>2013-05-25T16:36:26.000Z</time>
      </trkpt>
      <trkpt lat="45.8537" lon="6.20173">
        <ele>527</ele>
        <time>2013-05-25T16:36:27.000Z</time>
      </trkpt>
      <trkpt lat="45.85369" lon="6.20175">
        <ele>527</ele>
        <time>2013-05-25T16:36:28.000Z</time>
      </trkpt>
      <trkpt lat="45.85369" lon="6.20177">
        <ele>527</ele>
        <time>2013-05-25T16:36:29.000Z</time>
      </trkpt>
      <trkpt lat="45.85368" lon="6.20179">
        <ele>527</ele>
        <time>2013-05-25T16:36:30.000Z</time>
      </trkpt>
      <trkpt lat="45.85367" lon="6.20181">
        <ele>527</ele>
        <time>2013-05-25T16:36:31.000Z</time>
      </trkpt>
      <trkpt lat="45.85366" lon="6.20184">
        <ele>527</ele>
        <time>2013-05-25T16:36:32.000Z</time>
      </trkpt>
      <trkpt lat="45.85365" lon="6.20187">
        <ele>527</ele>
        <time>2013-05-25T16:36:33.000Z</time>
      </trkpt>
      <trkpt lat="45.85365" lon="6.2019">
        <ele>527</ele>
        <time>2013-05-25T16:36:34.000Z</time>
      </trkpt>
      <trkpt lat="45.85363" lon="6.20192">
        <ele>527</ele>
        <time>2013-05-25T16:36:35.000Z</time>
      </trkpt>
      <trkpt lat="45.85361" lon="6.20195">
        <ele>527</ele>
        <time>2013-05-25T16:36:36.000Z</time>
      </trkpt>
      <trkpt lat="45.8536" lon="6.20199">
        <ele>527</ele>
        <time>2013-05-25T16:36:37.000Z</time>
      </trkpt>
      <trkpt lat="45.85358" lon="6.20202">
        <ele>527</ele>
        <time>2013-05-25T16:36:38.000Z</time>
      </trkpt>
      <trkpt lat="45.85356" lon="6.20206">
        <ele>527</ele>
        <time>2013-05-25T16:36:39.000Z</time>
      </trkpt>
      <trkpt lat="45.85354" lon="6.20209">
        <ele>527</ele>
        <time>2013-05-25T16:36:40.000Z</time>
      </trkpt>
      <trkpt lat="45.85353" lon="6.20212">
        <ele>527</ele>
        <time>2013-05-25T16:36:41.000Z</time>
      </trkpt>
      <trkpt lat="45.85352" lon="6.20215">
        <ele>527</ele>
        <time>2013-05-25T16:36:42.000Z</time>
      </trkpt>
      <trkpt lat="45.85351" lon="6.20217">
        <ele>527</ele>
        <time>2013-05-25T16:36:43.000Z</time>
      </trkpt>
      <trkpt lat="45.85351" lon="6.2022">
        <ele>527</ele>
        <time>2013-05-25T16:36:44.000Z</time>
      </trkpt>
      <trkpt lat="45.85351" lon="6.20222">
        <ele>527</ele>
        <time>2013-05-25T16:36:45.000Z</time>
      </trkpt>
      <trkpt lat="45.8535" lon="6.20225">
        <ele>527</ele>
        <time>2013-05-25T16:36:46.000Z</time>
      </trkpt>
      <trkpt lat="45.85349" lon="6.20228">
        <ele>527</ele>
        <time>2013-05-25T16:36:47.000Z</time>
      </trkpt>
      <trkpt lat="45.85348" lon="6.20231">
        <ele>527</ele>
        <time>2013-05-25T16:36:48.000Z</time>
      </trkpt>
      <trkpt lat="45.85347" lon="6.20234">
        <ele>527</ele>
        <time>2013-05-25T16:36:49.000Z</time>
      </trkpt>
      <trkpt lat="45.85347" lon="6.20237">
        <ele>527</ele>
        <time>2013-05-25T16:36:50.000Z</time>
      </trkpt>
      <trkpt lat="45.85347" lon="6.2024">
        <ele>527</ele>
        <time>2013-05-25T16:36:51.000Z</time>
      </trkpt>
      <trkpt lat="45.85346" lon="6.20243">
        <ele>527</ele>
        <time>2013-05-25T16:36:52.000Z</time>
      </trkpt>
      <trkpt lat="45.85346" lon="6.20247">
        <ele>527</ele>
        <time>2013-05-25T16:36:53.000Z</time>
      </trkpt>
      <trkpt lat="45.85345" lon="6.2025">
        <ele>528</ele>
        <time>2013-05-25T16:36:54.000Z</time>
      </trkpt>
      <trkpt lat="45.85344" lon="6.20254">
        <ele>528</ele>
        <time>2013-05-25T16:36:55.000Z</time>
      </trkpt>
      <trkpt lat="45.85343" lon="6.20258">
        <ele>528</ele>
        <time>2013-05-25T16:36:56.000Z</time>
      </trkpt>
      <trkpt lat="45.85342" lon="6.20261">
        <ele>528</ele>
        <time>2013-05-25T16:36:57.000Z</time>
      </trkpt>
      <trkpt lat="45.85342" lon="6.20265">
        <ele>528</ele>
        <time>2013-05-25T16:36:58.000Z</time>
      </trkpt>
      <trkpt lat="45.8534" lon="6.20269">
        <ele>528</ele>
        <time>2013-05-25T16:36:59.000Z</time>
      </trkpt>
      <trkpt lat="45.85339" lon="6.20272">
        <ele>528</ele>
        <time>2013-05-25T16:37:00.000Z</time>
      </trkpt>
      <trkpt lat="45.85338" lon="6.20275">
        <ele>529</ele>
        <time>2013-05-25T16:37:01.000Z</time>
      </trkpt>
      <trkpt lat="45.85338" lon="6.20278">
        <ele>529</ele>
        <time>2013-05-25T16:37:02.000Z</time>
      </trkpt>
      <trkpt lat="45.85337" lon="6.20282">
        <ele>529</ele>
        <time>2013-05-25T16:37:03.000Z</time>
      </trkpt>
      <trkpt lat="45.85337" lon="6.20285">
        <ele>529</ele>
        <time>2013-05-25T16:37:04.000Z</time>
      </trkpt>
      <trkpt lat="45.85336" lon="6.20288">
        <ele>529</ele>
        <time>2013-05-25T16:37:05.000Z</time>
      </trkpt>
      <trkpt lat="45.85335" lon="6.20292">
        <ele>529</ele>
        <time>2013-05-25T16:37:06.000Z</time>
      </trkpt>
      <trkpt lat="45.85334" lon="6.20295">
        <ele>529</ele>
        <time>2013-05-25T16:37:07.000Z</time>
      </trkpt>
      <trkpt lat="45.85333" lon="6.20298">
        <ele>530</ele>
        <time>2013-05-25T16:37:08.000Z</time>
      </trkpt>
      <trkpt lat="45.85332" lon="6.20301">
        <ele>530</ele>
        <time>2013-05-25T16:37:09.000Z</time>
      </trkpt>
      <trkpt lat="45.85332" lon="6.20303">
        <ele>530</ele>
        <time>2013-05-25T16:37:10.000Z</time>
      </trkpt>
      <trkpt lat="45.85332" lon="6.20305">
        <ele>530</ele>
        <time>2013-05-25T16:37:11.000Z</time>
      </trkpt>
      <trkpt lat="45.85332" lon="6.20308">
        <ele>530</ele>
        <time>2013-05-25T16:37:12.000Z</time>
      </trkpt>
      <trkpt lat="45.85332" lon="6.2031">
        <ele>530</ele>
        <time>2013-05-25T16:37:13.000Z</time>
      </trkpt>
      <trkpt lat="45.85332" lon="6.20313">
        <ele>530</ele>
        <time>2013-05-25T16:37:14.000Z</time>
      </trkpt>
      <trkpt lat="45.85333" lon="6.20315">
        <ele>530</ele>
        <time>2013-05-25T16:37:15.000Z</time>
      </trkpt>
      <trkpt lat="45.85333" lon="6.20318">
        <ele>530</ele>
        <time>2013-05-25T16:37:16.000Z</time>
      </trkpt>
      <trkpt lat="45.85333" lon="6.20322">
        <ele>530</ele>
        <time>2013-05-25T16:37:17.000Z</time>
      </trkpt>
      <trkpt lat="45.85333" lon="6.20326">
        <ele>530</ele>
        <time>2013-05-25T16:37:18.000Z</time>
      </trkpt>
      <trkpt lat="45.85332" lon="6.20329">
        <ele>529</ele>
        <time>2013-05-25T16:37:19.000Z</time>
      </trkpt>
      <trkpt lat="45.85332" lon="6.20332">
        <ele>529</ele>
        <time>2013-05-25T16:37:20.000Z</time>
      </trkpt>
      <trkpt lat="45.85332" lon="6.20336">
        <ele>529</ele>
        <time>2013-05-25T16:37:21.000Z</time>
      </trkpt>
      <trkpt lat="45.85332" lon="6.20338">
        <ele>530</ele>
        <time>2013-05-25T16:37:22.000Z</time>
      </trkpt>
      <trkpt lat="45.85331" lon="6.20341">
        <ele>530</ele>
        <time>2013-05-25T16:37:23.000Z</time>
      </trkpt>
      <trkpt lat="45.85331" lon="6.20343">
        <ele>530</ele>
        <time>2013-05-25T16:37:24.000Z</time>
      </trkpt>
      <trkpt lat="45.85332" lon="6.20346">
        <ele>531</ele>
        <time>2013-05-25T16:37:25.000Z</time>
      </trkpt>
      <trkpt lat="45.85332" lon="6.20349">
        <ele>531</ele>
        <time>2013-05-25T16:37:26.000Z</time>
      </trkpt>
      <trkpt lat="45.85331" lon="6.20352">
        <ele>531</ele>
        <time>2013-05-25T16:37:27.000Z</time>
      </trkpt>
      <trkpt lat="45.85331" lon="6.20355">
        <ele>531</ele>
        <time>2013-05-25T16:37:28.000Z</time>
      </trkpt>
      <trkpt lat="45.85331" lon="6.20358">
        <ele>532</ele>
        <time>2013-05-25T16:37:29.000Z</time>
      </trkpt>
      <trkpt lat="45.85331" lon="6.20362">
        <ele>532</ele>
        <time>2013-05-25T16:37:30.000Z</time>
      </trkpt>
      <trkpt lat="45.8533" lon="6.20366">
        <ele>532</ele>
        <time>2013-05-25T16:37:31.000Z</time>
      </trkpt>
      <trkpt lat="45.8533" lon="6.2037">
        <ele>532</ele>
        <time>2013-05-25T16:37:32.000Z</time>
      </trkpt>
      <trkpt lat="45.85329" lon="6.20375">
        <ele>532</ele>
        <time>2013-05-25T16:37:33.000Z</time>
      </trkpt>
      <trkpt lat="45.85329" lon="6.20379">
        <ele>533</ele>
        <time>2013-05-25T16:37:34.000Z</time>
      </trkpt>
      <trkpt lat="45.85328" lon="6.20383">
        <ele>533</ele>
        <time>2013-05-25T16:37:35.000Z</time>
      </trkpt>
      <trkpt lat="45.85327" lon="6.20387">
        <ele>533</ele>
        <time>2013-05-25T16:37:36.000Z</time>
      </trkpt>
      <trkpt lat="45.85327" lon="6.2039">
        <ele>533</ele>
        <time>2013-05-25T16:37:37.000Z</time>
      </trkpt>
      <trkpt lat="45.85326" lon="6.20395">
        <ele>533</ele>
        <time>2013-05-25T16:37:38.000Z</time>
      </trkpt>
      <trkpt lat="45.85326" lon="6.20399">
        <ele>533</ele>
        <time>2013-05-25T16:37:39.000Z</time>
      </trkpt>
      <trkpt lat="45.85325" lon="6.20402">
        <ele>533</ele>
        <time>2013-05-25T16:37:40.000Z</time>
      </trkpt>
      <trkpt lat="45.85324" lon="6.20407">
        <ele>533</ele>
        <time>2013-05-25T16:37:41.000Z</time>
      </trkpt>
      <trkpt lat="45.85324" lon="6.2041">
        <ele>533</ele>
        <time>2013-05-25T16:37:42.000Z</time>
      </trkpt>
      <trkpt lat="45.85323" lon="6.20415">
        <ele>533</ele>
        <time>2013-05-25T16:37:43.000Z</time>
      </trkpt>
      <trkpt lat="45.85322" lon="6.20419">
        <ele>534</ele>
        <time>2013-05-25T16:37:44.000Z</time>
      </trkpt>
      <trkpt lat="45.85321" lon="6.20422">
        <ele>534</ele>
        <time>2013-05-25T16:37:45.000Z</time>
      </trkpt>
      <trkpt lat="45.85321" lon="6.20426">
        <ele>534</ele>
        <time>2013-05-25T16:37:46.000Z</time>
      </trkpt>
      <trkpt lat="45.8532" lon="6.2043">
        <ele>534</ele>
        <time>2013-05-25T16:37:47.000Z</time>
      </trkpt>
      <trkpt lat="45.8532" lon="6.20434">
        <ele>534</ele>
        <time>2013-05-25T16:37:48.000Z</time>
      </trkpt>
      <trkpt lat="45.85319" lon="6.20438">
        <ele>534</ele>
        <time>2013-05-25T16:37:49.000Z</time>
      </trkpt>
      <trkpt lat="45.85319" lon="6.20441">
        <ele>534</ele>
        <time>2013-05-25T16:37:50.000Z</time>
      </trkpt>
      <trkpt lat="45.85318" lon="6.20445">
        <ele>534</ele>
        <time>2013-05-25T16:37:51.000Z</time>
      </trkpt>
      <trkpt lat="45.85317" lon="6.20448">
        <ele>535</ele>
        <time>2013-05-25T16:37:52.000Z</time>
      </trkpt>
      <trkpt lat="45.85316" lon="6.20451">
        <ele>535</ele>
        <time>2013-05-25T16:37:53.000Z</time>
      </trkpt>
      <trkpt lat="45.85316" lon="6.20455">
        <ele>535</ele>
        <time>2013-05-25T16:37:54.000Z</time>
      </trkpt>
      <trkpt lat="45.85314" lon="6.20458">
        <ele>535</ele>
        <time>2013-05-25T16:37:55.000Z</time>
      </trkpt>
      <trkpt lat="45.85314" lon="6.20462">
        <ele>535</ele>
        <time>2013-05-25T16:37:56.000Z</time>
      </trkpt>
      <trkpt lat="45.85312" lon="6.20465">
        <ele>535</ele>
        <time>2013-05-25T16:37:57.000Z</time>
      </trkpt>
      <trkpt lat="45.85311" lon="6.20468">
        <ele>535</ele>
        <time>2013-05-25T16:37:58.000Z</time>
      </trkpt>
      <trkpt lat="45.8531" lon="6.20472">
        <ele>535</ele>
        <time>2013-05-25T16:37:59.000Z</time>
      </trkpt>
      <trkpt lat="45.85309" lon="6.20475">
        <ele>535</ele>
        <time>2013-05-25T16:38:00.000Z</time>
      </trkpt>
      <trkpt lat="45.85308" lon="6.20479">
        <ele>535</ele>
        <time>2013-05-25T16:38:01.000Z</time>
      </trkpt>
      <trkpt lat="45.85306" lon="6.20481">
        <ele>535</ele>
        <time>2013-05-25T16:38:02.000Z</time>
      </trkpt>
      <trkpt lat="45.85305" lon="6.20483">
        <ele>535</ele>
        <time>2013-05-25T16:38:03.000Z</time>
      </trkpt>
      <trkpt lat="45.85303" lon="6.20485">
        <ele>535</ele>
        <time>2013-05-25T16:38:04.000Z</time>
      </trkpt>
      <trkpt lat="45.85301" lon="6.20488">
        <ele>535</ele>
        <time>2013-05-25T16:38:05.000Z</time>
      </trkpt>
      <trkpt lat="45.85299" lon="6.2049">
        <ele>535</ele>
        <time>2013-05-25T16:38:06.000Z</time>
      </trkpt>
      <trkpt lat="45.85297" lon="6.20493">
        <ele>535</ele>
        <time>2013-05-25T16:38:07.000Z</time>
      </trkpt>
      <trkpt lat="45.85295" lon="6.20495">
        <ele>535</ele>
        <time>2013-05-25T16:38:08.000Z</time>
      </trkpt>
      <trkpt lat="45.85293" lon="6.20498">
        <ele>535</ele>
        <time>2013-05-25T16:38:09.000Z</time>
      </trkpt>
      <trkpt lat="45.85291" lon="6.20501">
        <ele>536</ele>
        <time>2013-05-25T16:38:10.000Z</time>
      </trkpt>
      <trkpt lat="45.85289" lon="6.20504">
        <ele>536</ele>
        <time>2013-05-25T16:38:11.000Z</time>
      </trkpt>
      <trkpt lat="45.85287" lon="6.20507">
        <ele>536</ele>
        <time>2013-05-25T16:38:12.000Z</time>
      </trkpt>
      <trkpt lat="45.85285" lon="6.20509">
        <ele>536</ele>
        <time>2013-05-25T16:38:13.000Z</time>
      </trkpt>
      <trkpt lat="45.85284" lon="6.20512">
        <ele>536</ele>
        <time>2013-05-25T16:38:14.000Z</time>
      </trkpt>
      <trkpt lat="45.85282" lon="6.20515">
        <ele>536</ele>
        <time>2013-05-25T16:38:15.000Z</time>
      </trkpt>
      <trkpt lat="45.8528" lon="6.20518">
        <ele>536</ele>
        <time>2013-05-25T16:38:16.000Z</time>
      </trkpt>
      <trkpt lat="45.85278" lon="6.2052">
        <ele>536</ele>
        <time>2013-05-25T16:38:17.000Z</time>
      </trkpt>
      <trkpt lat="45.85276" lon="6.20523">
        <ele>536</ele>
        <time>2013-05-25T16:38:18.000Z</time>
      </trkpt>
      <trkpt lat="45.85274" lon="6.20526">
        <ele>536</ele>
        <time>2013-05-25T16:38:19.000Z</time>
      </trkpt>
      <trkpt lat="45.85272" lon="6.20528">
        <ele>536</ele>
        <time>2013-05-25T16:38:20.000Z</time>
      </trkpt>
      <trkpt lat="45.8527" lon="6.20531">
        <ele>536</ele>
        <time>2013-05-25T16:38:21.000Z</time>
      </trkpt>
      <trkpt lat="45.85268" lon="6.20533">
        <ele>536</ele>
        <time>2013-05-25T16:38:22.000Z</time>
      </trkpt>
      <trkpt lat="45.85266" lon="6.20536">
        <ele>536</ele>
        <time>2013-05-25T16:38:23.000Z</time>
      </trkpt>
      <trkpt lat="45.85264" lon="6.20538">
        <ele>536</ele>
        <time>2013-05-25T16:38:24.000Z</time>
      </trkpt>
      <trkpt lat="45.85262" lon="6.20541">
        <ele>536</ele>
        <time>2013-05-25T16:38:25.000Z</time>
      </trkpt>
      <trkpt lat="45.8526" lon="6.20543">
        <ele>537</ele>
        <time>2013-05-25T16:38:26.000Z</time>
      </trkpt>
      <trkpt lat="45.85258" lon="6.20545">
        <ele>537</ele>
        <time>2013-05-25T16:38:27.000Z</time>
      </trkpt>
      <trkpt lat="45.85257" lon="6.20547">
        <ele>537</ele>
        <time>2013-05-25T16:38:28.000Z</time>
      </trkpt>
      <trkpt lat="45.85255" lon="6.2055">
        <ele>537</ele>
        <time>2013-05-25T16:38:29.000Z</time>
      </trkpt>
      <trkpt lat="45.85252" lon="6.20552">
        <ele>537</ele>
        <time>2013-05-25T16:38:30.000Z</time>
      </trkpt>
      <trkpt lat="45.8525" lon="6.20555">
        <ele>539</ele>
        <time>2013-05-25T16:38:31.000Z</time>
      </trkpt>
      <trkpt lat="45.85248" lon="6.20557">
        <ele>539</ele>
        <time>2013-05-25T16:38:32.000Z</time>
      </trkpt>
      <trkpt lat="45.85246" lon="6.2056">
        <ele>539</ele>
        <time>2013-05-25T16:38:33.000Z</time>
      </trkpt>
      <trkpt lat="45.85245" lon="6.20562">
        <ele>539</ele>
        <time>2013-05-25T16:38:34.000Z</time>
      </trkpt>
      <trkpt lat="45.85243" lon="6.20565">
        <ele>539</ele>
        <time>2013-05-25T16:38:35.000Z</time>
      </trkpt>
      <trkpt lat="45.85241" lon="6.20567">
        <ele>539</ele>
        <time>2013-05-25T16:38:36.000Z</time>
      </trkpt>
      <trkpt lat="45.8524" lon="6.2057">
        <ele>539</ele>
        <time>2013-05-25T16:38:37.000Z</time>
      </trkpt>
      <trkpt lat="45.85238" lon="6.20572">
        <ele>539</ele>
        <time>2013-05-25T16:38:38.000Z</time>
      </trkpt>
      <trkpt lat="45.85236" lon="6.20574">
        <ele>539</ele>
        <time>2013-05-25T16:38:39.000Z</time>
      </trkpt>
      <trkpt lat="45.85235" lon="6.20577">
        <ele>539</ele>
        <time>2013-05-25T16:38:40.000Z</time>
      </trkpt>
      <trkpt lat="45.85233" lon="6.2058">
        <ele>539</ele>
        <time>2013-05-25T16:38:41.000Z</time>
      </trkpt>
      <trkpt lat="45.85231" lon="6.20582">
        <ele>539</ele>
        <time>2013-05-25T16:38:42.000Z</time>
      </trkpt>
      <trkpt lat="45.85229" lon="6.20584">
        <ele>539</ele>
        <time>2013-05-25T16:38:43.000Z</time>
      </trkpt>
      <trkpt lat="45.85227" lon="6.20586">
        <ele>540</ele>
        <time>2013-05-25T16:38:44.000Z</time>
      </trkpt>
      <trkpt lat="45.85226" lon="6.20588">
        <ele>540</ele>
        <time>2013-05-25T16:38:45.000Z</time>
      </trkpt>
      <trkpt lat="45.85224" lon="6.2059">
        <ele>540</ele>
        <time>2013-05-25T16:38:46.000Z</time>
      </trkpt>
      <trkpt lat="45.85222" lon="6.20592">
        <ele>540</ele>
        <time>2013-05-25T16:38:47.000Z</time>
      </trkpt>
      <trkpt lat="45.85221" lon="6.20595">
        <ele>540</ele>
        <time>2013-05-25T16:38:48.000Z</time>
      </trkpt>
      <trkpt lat="45.85219" lon="6.20597">
        <ele>540</ele>
        <time>2013-05-25T16:38:49.000Z</time>
      </trkpt>
      <trkpt lat="45.85217" lon="6.206">
        <ele>541</ele>
        <time>2013-05-25T16:38:50.000Z</time>
      </trkpt>
      <trkpt lat="45.85215" lon="6.20602">
        <ele>541</ele>
        <time>2013-05-25T16:38:51.000Z</time>
      </trkpt>
      <trkpt lat="45.85213" lon="6.20604">
        <ele>541</ele>
        <time>2013-05-25T16:38:52.000Z</time>
      </trkpt>
      <trkpt lat="45.85212" lon="6.20606">
        <ele>541</ele>
        <time>2013-05-25T16:38:53.000Z</time>
      </trkpt>
      <trkpt lat="45.8521" lon="6.20608">
        <ele>541</ele>
        <time>2013-05-25T16:38:54.000Z</time>
      </trkpt>
      <trkpt lat="45.85208" lon="6.20611">
        <ele>541</ele>
        <time>2013-05-25T16:38:55.000Z</time>
      </trkpt>
      <trkpt lat="45.85206" lon="6.20613">
        <ele>541</ele>
        <time>2013-05-25T16:38:56.000Z</time>
      </trkpt>
      <trkpt lat="45.85204" lon="6.20616">
        <ele>541</ele>
        <time>2013-05-25T16:38:57.000Z</time>
      </trkpt>
      <trkpt lat="45.85202" lon="6.20618">
        <ele>541</ele>
        <time>2013-05-25T16:38:58.000Z</time>
      </trkpt>
      <trkpt lat="45.852" lon="6.20621">
        <ele>541</ele>
        <time>2013-05-25T16:38:59.000Z</time>
      </trkpt>
      <trkpt lat="45.85199" lon="6.20623">
        <ele>541</ele>
        <time>2013-05-25T16:39:00.000Z</time>
      </trkpt>
      <trkpt lat="45.85197" lon="6.20625">
        <ele>541</ele>
        <time>2013-05-25T16:39:01.000Z</time>
      </trkpt>
      <trkpt lat="45.85196" lon="6.20628">
        <ele>541</ele>
        <time>2013-05-25T16:39:02.000Z</time>
      </trkpt>
      <trkpt lat="45.85194" lon="6.2063">
        <ele>541</ele>
        <time>2013-05-25T16:39:03.000Z</time>
      </trkpt>
      <trkpt lat="45.85192" lon="6.20631">
        <ele>542</ele>
        <time>2013-05-25T16:39:04.000Z</time>
      </trkpt>
      <trkpt lat="45.8519" lon="6.20633">
        <ele>542</ele>
        <time>2013-05-25T16:39:05.000Z</time>
      </trkpt>
      <trkpt lat="45.85189" lon="6.20636">
        <ele>542</ele>
        <time>2013-05-25T16:39:06.000Z</time>
      </trkpt>
      <trkpt lat="45.85187" lon="6.20638">
        <ele>542</ele>
        <time>2013-05-25T16:39:07.000Z</time>
      </trkpt>
      <trkpt lat="45.85185" lon="6.2064">
        <ele>542</ele>
        <time>2013-05-25T16:39:08.000Z</time>
      </trkpt>
      <trkpt lat="45.85184" lon="6.20642">
        <ele>542</ele>
        <time>2013-05-25T16:39:09.000Z</time>
      </trkpt>
      <trkpt lat="45.85182" lon="6.20644">
        <ele>542</ele>
        <time>2013-05-25T16:39:10.000Z</time>
      </trkpt>
      <trkpt lat="45.8518" lon="6.20646">
        <ele>542</ele>
        <time>2013-05-25T16:39:11.000Z</time>
      </trkpt>
      <trkpt lat="45.85179" lon="6.20648">
        <ele>542</ele>
        <time>2013-05-25T16:39:12.000Z</time>
      </trkpt>
      <trkpt lat="45.85177" lon="6.2065">
        <ele>542</ele>
        <time>2013-05-25T16:39:13.000Z</time>
      </trkpt>
      <trkpt lat="45.85175" lon="6.20652">
        <ele>542</ele>
        <time>2013-05-25T16:39:14.000Z</time>
      </trkpt>
      <trkpt lat="45.85174" lon="6.20654">
        <ele>542</ele>
        <time>2013-05-25T16:39:15.000Z</time>
      </trkpt>
      <trkpt lat="45.85171" lon="6.20656">
        <ele>542</ele>
        <time>2013-05-25T16:39:16.000Z</time>
      </trkpt>
      <trkpt lat="45.8517" lon="6.20658">
        <ele>542</ele>
        <time>2013-05-25T16:39:17.000Z</time>
      </trkpt>
      <trkpt lat="45.85168" lon="6.2066">
        <ele>543</ele>
        <time>2013-05-25T16:39:18.000Z</time>
      </trkpt>
      <trkpt lat="45.85167" lon="6.20663">
        <ele>543</ele>
        <time>2013-05-25T16:39:19.000Z</time>
      </trkpt>
      <trkpt lat="45.85165" lon="6.20665">
        <ele>543</ele>
        <time>2013-05-25T16:39:20.000Z</time>
      </trkpt>
      <trkpt lat="45.85164" lon="6.20668">
        <ele>543</ele>
        <time>2013-05-25T16:39:21.000Z</time>
      </trkpt>
      <trkpt lat="45.85162" lon="6.2067">
        <ele>544</ele>
        <time>2013-05-25T16:39:22.000Z</time>
      </trkpt>
      <trkpt lat="45.8516" lon="6.20672">
        <ele>544</ele>
        <time>2013-05-25T16:39:23.000Z</time>
      </trkpt>
      <trkpt lat="45.85158" lon="6.20675">
        <ele>544</ele>
        <time>2013-05-25T16:39:24.000Z</time>
      </trkpt>
      <trkpt lat="45.85156" lon="6.20677">
        <ele>544</ele>
        <time>2013-05-25T16:39:25.000Z</time>
      </trkpt>
      <trkpt lat="45.85155" lon="6.20679">
        <ele>544</ele>
        <time>2013-05-25T16:39:26.000Z</time>
      </trkpt>
      <trkpt lat="45.85153" lon="6.20682">
        <ele>544</ele>
        <time>2013-05-25T16:39:27.000Z</time>
      </trkpt>
      <trkpt lat="45.85151" lon="6.20684">
        <ele>545</ele>
        <time>2013-05-25T16:39:28.000Z</time>
      </trkpt>
      <trkpt lat="45.85149" lon="6.20686">
        <ele>545</ele>
        <time>2013-05-25T16:39:29.000Z</time>
      </trkpt>
      <trkpt lat="45.85147" lon="6.20689">
        <ele>545</ele>
        <time>2013-05-25T16:39:30.000Z</time>
      </trkpt>
      <trkpt lat="45.85145" lon="6.2069">
        <ele>545</ele>
        <time>2013-05-25T16:39:31.000Z</time>
      </trkpt>
      <trkpt lat="45.85143" lon="6.20693">
        <ele>545</ele>
        <time>2013-05-25T16:39:32.000Z</time>
      </trkpt>
      <trkpt lat="45.85141" lon="6.20695">
        <ele>545</ele>
        <time>2013-05-25T16:39:33.000Z</time>
      </trkpt>
      <trkpt lat="45.8514" lon="6.20697">
        <ele>545</ele>
        <time>2013-05-25T16:39:34.000Z</time>
      </trkpt>
      <trkpt lat="45.85138" lon="6.207">
        <ele>545</ele>
        <time>2013-05-25T16:39:35.000Z</time>
      </trkpt>
      <trkpt lat="45.85136" lon="6.20702">
        <ele>545</ele>
        <time>2013-05-25T16:39:36.000Z</time>
      </trkpt>
      <trkpt lat="45.85134" lon="6.20704">
        <ele>545</ele>
        <time>2013-05-25T16:39:37.000Z</time>
      </trkpt>
      <trkpt lat="45.85132" lon="6.20707">
        <ele>545</ele>
        <time>2013-05-25T16:39:38.000Z</time>
      </trkpt>
      <trkpt lat="45.8513" lon="6.20709">
        <ele>545</ele>
        <time>2013-05-25T16:39:39.000Z</time>
      </trkpt>
      <trkpt lat="45.85128" lon="6.20712">
        <ele>545</ele>
        <time>2013-05-25T16:39:40.000Z</time>
      </trkpt>
      <trkpt lat="45.85126" lon="6.20714">
        <ele>545</ele>
        <time>2013-05-25T16:39:41.000Z</time>
      </trkpt>
      <trkpt lat="45.85124" lon="6.20717">
        <ele>545</ele>
        <time>2013-05-25T16:39:42.000Z</time>
      </trkpt>
      <trkpt lat="45.85122" lon="6.20719">
        <ele>545</ele>
        <time>2013-05-25T16:39:43.000Z</time>
      </trkpt>
      <trkpt lat="45.8512" lon="6.20722">
        <ele>546</ele>
        <time>2013-05-25T16:39:44.000Z</time>
      </trkpt>
      <trkpt lat="45.85119" lon="6.20724">
        <ele>546</ele>
        <time>2013-05-25T16:39:45.000Z</time>
      </trkpt>
      <trkpt lat="45.85117" lon="6.20727">
        <ele>546</ele>
        <time>2013-05-25T16:39:46.000Z</time>
      </trkpt>
      <trkpt lat="45.85115" lon="6.20729">
        <ele>546</ele>
        <time>2013-05-25T16:39:47.000Z</time>
      </trkpt>
      <trkpt lat="45.85113" lon="6.20732">
        <ele>546</ele>
        <time>2013-05-25T16:39:48.000Z</time>
      </trkpt>
      <trkpt lat="45.85111" lon="6.20735">
        <ele>546</ele>
        <time>2013-05-25T16:39:49.000Z</time>
      </trkpt>
      <trkpt lat="45.85109" lon="6.20738">
        <ele>546</ele>
        <time>2013-05-25T16:39:50.000Z</time>
      </trkpt>
      <trkpt lat="45.85107" lon="6.2074">
        <ele>546</ele>
        <time>2013-05-25T16:39:51.000Z</time>
      </trkpt>
      <trkpt lat="45.85105" lon="6.20743">
        <ele>546</ele>
        <time>2013-05-25T16:39:52.000Z</time>
      </trkpt>
      <trkpt lat="45.85103" lon="6.20746">
        <ele>546</ele>
        <time>2013-05-25T16:39:53.000Z</time>
      </trkpt>
      <trkpt lat="45.85101" lon="6.20749">
        <ele>546</ele>
        <time>2013-05-25T16:39:54.000Z</time>
      </trkpt>
      <trkpt lat="45.851" lon="6.20751">
        <ele>546</ele>
        <time>2013-05-25T16:39:55.000Z</time>
      </trkpt>
      <trkpt lat="45.85098" lon="6.20754">
        <ele>546</ele>
        <time>2013-05-25T16:39:56.000Z</time>
      </trkpt>
      <trkpt lat="45.85095" lon="6.20757">
        <ele>546</ele>
        <time>2013-05-25T16:39:57.000Z</time>
      </trkpt>
      <trkpt lat="45.85093" lon="6.2076">
        <ele>546</ele>
        <time>2013-05-25T16:39:58.000Z</time>
      </trkpt>
      <trkpt lat="45.85091" lon="6.20762">
        <ele>546</ele>
        <time>2013-05-25T16:39:59.000Z</time>
      </trkpt>
      <trkpt lat="45.85089" lon="6.20765">
        <ele>546</ele>
        <time>2013-05-25T16:40:00.000Z</time>
      </trkpt>
      <trkpt lat="45.85087" lon="6.20768">
        <ele>546</ele>
        <time>2013-05-25T16:40:01.000Z</time>
      </trkpt>
      <trkpt lat="45.85085" lon="6.2077">
        <ele>546</ele>
        <time>2013-05-25T16:40:02.000Z</time>
      </trkpt>
      <trkpt lat="45.85083" lon="6.20772">
        <ele>546</ele>
        <time>2013-05-25T16:40:03.000Z</time>
      </trkpt>
      <trkpt lat="45.85081" lon="6.20775">
        <ele>546</ele>
        <time>2013-05-25T16:40:04.000Z</time>
      </trkpt>
      <trkpt lat="45.85079" lon="6.20778">
        <ele>546</ele>
        <time>2013-05-25T16:40:05.000Z</time>
      </trkpt>
      <trkpt lat="45.85077" lon="6.2078">
        <ele>546</ele>
        <time>2013-05-25T16:40:06.000Z</time>
      </trkpt>
      <trkpt lat="45.85075" lon="6.20783">
        <ele>547</ele>
        <time>2013-05-25T16:40:07.000Z</time>
      </trkpt>
      <trkpt lat="45.85072" lon="6.20785">
        <ele>547</ele>
        <time>2013-05-25T16:40:08.000Z</time>
      </trkpt>
      <trkpt lat="45.8507" lon="6.20788">
        <ele>547</ele>
        <time>2013-05-25T16:40:09.000Z</time>
      </trkpt>
      <trkpt lat="45.85068" lon="6.2079">
        <ele>547</ele>
        <time>2013-05-25T16:40:10.000Z</time>
      </trkpt>
      <trkpt lat="45.85066" lon="6.20793">
        <ele>547</ele>
        <time>2013-05-25T16:40:11.000Z</time>
      </trkpt>
      <trkpt lat="45.85064" lon="6.20795">
        <ele>547</ele>
        <time>2013-05-25T16:40:12.000Z</time>
      </trkpt>
      <trkpt lat="45.85062" lon="6.20798">
        <ele>547</ele>
        <time>2013-05-25T16:40:13.000Z</time>
      </trkpt>
      <trkpt lat="45.8506" lon="6.208">
        <ele>547</ele>
        <time>2013-05-25T16:40:14.000Z</time>
      </trkpt>
      <trkpt lat="45.85058" lon="6.20803">
        <ele>547</ele>
        <time>2013-05-25T16:40:15.000Z</time>
      </trkpt>
      <trkpt lat="45.85056" lon="6.20805">
        <ele>547</ele>
        <time>2013-05-25T16:40:16.000Z</time>
      </trkpt>
      <trkpt lat="45.85054" lon="6.20808">
        <ele>547</ele>
        <time>2013-05-25T16:40:17.000Z</time>
      </trkpt>
      <trkpt lat="45.85052" lon="6.2081">
        <ele>547</ele>
        <time>2013-05-25T16:40:18.000Z</time>
      </trkpt>
      <trkpt lat="45.8505" lon="6.20813">
        <ele>547</ele>
        <time>2013-05-25T16:40:19.000Z</time>
      </trkpt>
      <trkpt lat="45.85048" lon="6.20815">
        <ele>547</ele>
        <time>2013-05-25T16:40:20.000Z</time>
      </trkpt>
      <trkpt lat="45.85046" lon="6.20817">
        <ele>547</ele>
        <time>2013-05-25T16:40:21.000Z</time>
      </trkpt>
      <trkpt lat="45.85044" lon="6.2082">
        <ele>547</ele>
        <time>2013-05-25T16:40:22.000Z</time>
      </trkpt>
      <trkpt lat="45.85042" lon="6.20822">
        <ele>547</ele>
        <time>2013-05-25T16:40:23.000Z</time>
      </trkpt>
      <trkpt lat="45.8504" lon="6.20825">
        <ele>547</ele>
        <time>2013-05-25T16:40:24.000Z</time>
      </trkpt>
      <trkpt lat="45.85038" lon="6.20827">
        <ele>546</ele>
        <time>2013-05-25T16:40:25.000Z</time>
      </trkpt>
      <trkpt lat="45.85036" lon="6.2083">
        <ele>546</ele>
        <time>2013-05-25T16:40:26.000Z</time>
      </trkpt>
      <trkpt lat="45.85034" lon="6.20833">
        <ele>546</ele>
        <time>2013-05-25T16:40:27.000Z</time>
      </trkpt>
      <trkpt lat="45.85032" lon="6.20835">
        <ele>546</ele>
        <time>2013-05-25T16:40:28.000Z</time>
      </trkpt>
      <trkpt lat="45.8503" lon="6.20838">
        <ele>546</ele>
        <time>2013-05-25T16:40:29.000Z</time>
      </trkpt>
      <trkpt lat="45.85028" lon="6.2084">
        <ele>546</ele>
        <time>2013-05-25T16:40:30.000Z</time>
      </trkpt>
      <trkpt lat="45.85026" lon="6.20843">
        <ele>546</ele>
        <time>2013-05-25T16:40:31.000Z</time>
      </trkpt>
      <trkpt lat="45.85024" lon="6.20846">
        <ele>546</ele>
        <time>2013-05-25T16:40:32.000Z</time>
      </trkpt>
      <trkpt lat="45.85022" lon="6.20848">
        <ele>546</ele>
        <time>2013-05-25T16:40:33.000Z</time>
      </trkpt>
      <trkpt lat="45.8502" lon="6.20851">
        <ele>546</ele>
        <time>2013-05-25T16:40:34.000Z</time>
      </trkpt>
      <trkpt lat="45.85018" lon="6.20854">
        <ele>546</ele>
        <time>2013-05-25T16:40:35.000Z</time>
      </trkpt>
      <trkpt lat="45.85016" lon="6.20856">
        <ele>546</ele>
        <time>2013-05-25T16:40:36.000Z</time>
      </trkpt>
      <trkpt lat="45.85014" lon="6.20859">
        <ele>546</ele>
        <time>2013-05-25T16:40:37.000Z</time>
      </trkpt>
      <trkpt lat="45.85012" lon="6.20862">
        <ele>546</ele>
        <time>2013-05-25T16:40:38.000Z</time>
      </trkpt>
      <trkpt lat="45.8501" lon="6.20864">
        <ele>546</ele>
        <time>2013-05-25T16:40:39.000Z</time>
      </trkpt>
      <trkpt lat="45.85008" lon="6.20867">
        <ele>546</ele>
        <time>2013-05-25T16:40:40.000Z</time>
      </trkpt>
      <trkpt lat="45.85006" lon="6.2087">
        <ele>546</ele>
        <time>2013-05-25T16:40:41.000Z</time>
      </trkpt>
      <trkpt lat="45.85004" lon="6.20872">
        <ele>546</ele>
        <time>2013-05-25T16:40:42.000Z</time>
      </trkpt>
      <trkpt lat="45.85002" lon="6.20875">
        <ele>546</ele>
        <time>2013-05-25T16:40:43.000Z</time>
      </trkpt>
      <trkpt lat="45.85" lon="6.20878">
        <ele>547</ele>
        <time>2013-05-25T16:40:44.000Z</time>
      </trkpt>
      <trkpt lat="45.84998" lon="6.20881">
        <ele>547</ele>
        <time>2013-05-25T16:40:45.000Z</time>
      </trkpt>
      <trkpt lat="45.84996" lon="6.20883">
        <ele>547</ele>
        <time>2013-05-25T16:40:46.000Z</time>
      </trkpt>
      <trkpt lat="45.84994" lon="6.20886">
        <ele>547</ele>
        <time>2013-05-25T16:40:47.000Z</time>
      </trkpt>
      <trkpt lat="45.84992" lon="6.20889">
        <ele>547</ele>
        <time>2013-05-25T16:40:48.000Z</time>
      </trkpt>
      <trkpt lat="45.8499" lon="6.20892">
        <ele>547</ele>
        <time>2013-05-25T16:40:49.000Z</time>
      </trkpt>
      <trkpt lat="45.84988" lon="6.20895">
        <ele>547</ele>
        <time>2013-05-25T16:40:50.000Z</time>
      </trkpt>
      <trkpt lat="45.84986" lon="6.20898">
        <ele>547</ele>
        <time>2013-05-25T16:40:51.000Z</time>
      </trkpt>
      <trkpt lat="45.84984" lon="6.20901">
        <ele>547</ele>
        <time>2013-05-25T16:40:52.000Z</time>
      </trkpt>
      <trkpt lat="45.84982" lon="6.20904">
        <ele>547</ele>
        <time>2013-05-25T16:40:53.000Z</time>
      </trkpt>
      <trkpt lat="45.8498" lon="6.20907">
        <ele>547</ele>
        <time>2013-05-25T16:40:54.000Z</time>
      </trkpt>
      <trkpt lat="45.84978" lon="6.2091">
        <ele>547</ele>
        <time>2013-05-25T16:40:55.000Z</time>
      </trkpt>
      <trkpt lat="45.84977" lon="6.20913">
        <ele>547</ele>
        <time>2013-05-25T16:40:56.000Z</time>
      </trkpt>
      <trkpt lat="45.84975" lon="6.20917">
        <ele>547</ele>
        <time>2013-05-25T16:40:57.000Z</time>
      </trkpt>
      <trkpt lat="45.84974" lon="6.2092">
        <ele>548</ele>
        <time>2013-05-25T16:40:58.000Z</time>
      </trkpt>
      <trkpt lat="45.84973" lon="6.20922">
        <ele>548</ele>
        <time>2013-05-25T16:40:59.000Z</time>
      </trkpt>
      <trkpt lat="45.84971" lon="6.20925">
        <ele>548</ele>
        <time>2013-05-25T16:41:00.000Z</time>
      </trkpt>
      <trkpt lat="45.84969" lon="6.20929">
        <ele>548</ele>
        <time>2013-05-25T16:41:01.000Z</time>
      </trkpt>
      <trkpt lat="45.84967" lon="6.20931">
        <ele>548</ele>
        <time>2013-05-25T16:41:02.000Z</time>
      </trkpt>
      <trkpt lat="45.84966" lon="6.20935">
        <ele>548</ele>
        <time>2013-05-25T16:41:03.000Z</time>
      </trkpt>
      <trkpt lat="45.84964" lon="6.20938">
        <ele>548</ele>
        <time>2013-05-25T16:41:04.000Z</time>
      </trkpt>
      <trkpt lat="45.84963" lon="6.2094">
        <ele>548</ele>
        <time>2013-05-25T16:41:05.000Z</time>
      </trkpt>
      <trkpt lat="45.84961" lon="6.20943">
        <ele>548</ele>
        <time>2013-05-25T16:41:06.000Z</time>
      </trkpt>
      <trkpt lat="45.84959" lon="6.20946">
        <ele>548</ele>
        <time>2013-05-25T16:41:07.000Z</time>
      </trkpt>
      <trkpt lat="45.84957" lon="6.20949">
        <ele>548</ele>
        <time>2013-05-25T16:41:08.000Z</time>
      </trkpt>
      <trkpt lat="45.84955" lon="6.20952">
        <ele>549</ele>
        <time>2013-05-25T16:41:09.000Z</time>
      </trkpt>
      <trkpt lat="45.84954" lon="6.20955">
        <ele>549</ele>
        <time>2013-05-25T16:41:10.000Z</time>
      </trkpt>
      <trkpt lat="45.84953" lon="6.20958">
        <ele>549</ele>
        <time>2013-05-25T16:41:11.000Z</time>
      </trkpt>
      <trkpt lat="45.84951" lon="6.20961">
        <ele>549</ele>
        <time>2013-05-25T16:41:12.000Z</time>
      </trkpt>
      <trkpt lat="45.8495" lon="6.20964">
        <ele>549</ele>
        <time>2013-05-25T16:41:13.000Z</time>
      </trkpt>
      <trkpt lat="45.84948" lon="6.20967">
        <ele>549</ele>
        <time>2013-05-25T16:41:14.000Z</time>
      </trkpt>
      <trkpt lat="45.84946" lon="6.20969">
        <ele>549</ele>
        <time>2013-05-25T16:41:15.000Z</time>
      </trkpt>
      <trkpt lat="45.84945" lon="6.20972">
        <ele>549</ele>
        <time>2013-05-25T16:41:16.000Z</time>
      </trkpt>
      <trkpt lat="45.84943" lon="6.20975">
        <ele>549</ele>
        <time>2013-05-25T16:41:17.000Z</time>
      </trkpt>
      <trkpt lat="45.84942" lon="6.20978">
        <ele>549</ele>
        <time>2013-05-25T16:41:18.000Z</time>
      </trkpt>
      <trkpt lat="45.8494" lon="6.2098">
        <ele>549</ele>
        <time>2013-05-25T16:41:19.000Z</time>
      </trkpt>
      <trkpt lat="45.84938" lon="6.20984">
        <ele>549</ele>
        <time>2013-05-25T16:41:20.000Z</time>
      </trkpt>
      <trkpt lat="45.84937" lon="6.20987">
        <ele>549</ele>
        <time>2013-05-25T16:41:21.000Z</time>
      </trkpt>
      <trkpt lat="45.84935" lon="6.2099">
        <ele>550</ele>
        <time>2013-05-25T16:41:22.000Z</time>
      </trkpt>
      <trkpt lat="45.84933" lon="6.20992">
        <ele>550</ele>
        <time>2013-05-25T16:41:23.000Z</time>
      </trkpt>
      <trkpt lat="45.84932" lon="6.20995">
        <ele>550</ele>
        <time>2013-05-25T16:41:24.000Z</time>
      </trkpt>
      <trkpt lat="45.8493" lon="6.20998">
        <ele>550</ele>
        <time>2013-05-25T16:41:25.000Z</time>
      </trkpt>
      <trkpt lat="45.84928" lon="6.21001">
        <ele>550</ele>
        <time>2013-05-25T16:41:26.000Z</time>
      </trkpt>
      <trkpt lat="45.84926" lon="6.21004">
        <ele>550</ele>
        <time>2013-05-25T16:41:27.000Z</time>
      </trkpt>
      <trkpt lat="45.84925" lon="6.21007">
        <ele>550</ele>
        <time>2013-05-25T16:41:28.000Z</time>
      </trkpt>
      <trkpt lat="45.84923" lon="6.2101">
        <ele>550</ele>
        <time>2013-05-25T16:41:29.000Z</time>
      </trkpt>
      <trkpt lat="45.84921" lon="6.21013">
        <ele>550</ele>
        <time>2013-05-25T16:41:30.000Z</time>
      </trkpt>
      <trkpt lat="45.84919" lon="6.21016">
        <ele>550</ele>
        <time>2013-05-25T16:41:31.000Z</time>
      </trkpt>
      <trkpt lat="45.84918" lon="6.21019">
        <ele>550</ele>
        <time>2013-05-25T16:41:32.000Z</time>
      </trkpt>
      <trkpt lat="45.84916" lon="6.21022">
        <ele>552</ele>
        <time>2013-05-25T16:41:33.000Z</time>
      </trkpt>
      <trkpt lat="45.84915" lon="6.21024">
        <ele>552</ele>
        <time>2013-05-25T16:41:34.000Z</time>
      </trkpt>
      <trkpt lat="45.84913" lon="6.21027">
        <ele>552</ele>
        <time>2013-05-25T16:41:35.000Z</time>
      </trkpt>
      <trkpt lat="45.84912" lon="6.2103">
        <ele>552</ele>
        <time>2013-05-25T16:41:36.000Z</time>
      </trkpt>
      <trkpt lat="45.8491" lon="6.21033">
        <ele>552</ele>
        <time>2013-05-25T16:41:37.000Z</time>
      </trkpt>
      <trkpt lat="45.84908" lon="6.21036">
        <ele>552</ele>
        <time>2013-05-25T16:41:38.000Z</time>
      </trkpt>
      <trkpt lat="45.84907" lon="6.21039">
        <ele>552</ele>
        <time>2013-05-25T16:41:39.000Z</time>
      </trkpt>
      <trkpt lat="45.84905" lon="6.21042">
        <ele>552</ele>
        <time>2013-05-25T16:41:40.000Z</time>
      </trkpt>
      <trkpt lat="45.84903" lon="6.21045">
        <ele>552</ele>
        <time>2013-05-25T16:41:41.000Z</time>
      </trkpt>
      <trkpt lat="45.84902" lon="6.21048">
        <ele>552</ele>
        <time>2013-05-25T16:41:42.000Z</time>
      </trkpt>
      <trkpt lat="45.849" lon="6.21051">
        <ele>552</ele>
        <time>2013-05-25T16:41:43.000Z</time>
      </trkpt>
      <trkpt lat="45.84899" lon="6.21054">
        <ele>552</ele>
        <time>2013-05-25T16:41:44.000Z</time>
      </trkpt>
      <trkpt lat="45.84897" lon="6.21057">
        <ele>552</ele>
        <time>2013-05-25T16:41:45.000Z</time>
      </trkpt>
      <trkpt lat="45.84895" lon="6.2106">
        <ele>552</ele>
        <time>2013-05-25T16:41:46.000Z</time>
      </trkpt>
      <trkpt lat="45.84893" lon="6.21063">
        <ele>552</ele>
        <time>2013-05-25T16:41:47.000Z</time>
      </trkpt>
      <trkpt lat="45.84892" lon="6.21065">
        <ele>552</ele>
        <time>2013-05-25T16:41:48.000Z</time>
      </trkpt>
      <trkpt lat="45.8489" lon="6.21068">
        <ele>552</ele>
        <time>2013-05-25T16:41:49.000Z</time>
      </trkpt>
      <trkpt lat="45.84889" lon="6.21071">
        <ele>552</ele>
        <time>2013-05-25T16:41:50.000Z</time>
      </trkpt>
      <trkpt lat="45.84887" lon="6.21074">
        <ele>552</ele>
        <time>2013-05-25T16:41:51.000Z</time>
      </trkpt>
      <trkpt lat="45.84885" lon="6.21077">
        <ele>552</ele>
        <time>2013-05-25T16:41:52.000Z</time>
      </trkpt>
      <trkpt lat="45.84884" lon="6.21079">
        <ele>552</ele>
        <time>2013-05-25T16:41:53.000Z</time>
      </trkpt>
      <trkpt lat="45.84882" lon="6.21083">
        <ele>552</ele>
        <time>2013-05-25T16:41:54.000Z</time>
      </trkpt>
      <trkpt lat="45.8488" lon="6.21086">
        <ele>551</ele>
        <time>2013-05-25T16:41:55.000Z</time>
      </trkpt>
      <trkpt lat="45.84878" lon="6.21089">
        <ele>551</ele>
        <time>2013-05-25T16:41:56.000Z</time>
      </trkpt>
      <trkpt lat="45.84877" lon="6.21092">
        <ele>551</ele>
        <time>2013-05-25T16:41:57.000Z</time>
      </trkpt>
      <trkpt lat="45.84875" lon="6.21095">
        <ele>551</ele>
        <time>2013-05-25T16:41:58.000Z</time>
      </trkpt>
      <trkpt lat="45.84873" lon="6.21098">
        <ele>551</ele>
        <time>2013-05-25T16:41:59.000Z</time>
      </trkpt>
      <trkpt lat="45.84871" lon="6.21101">
        <ele>551</ele>
        <time>2013-05-25T16:42:00.000Z</time>
      </trkpt>
      <trkpt lat="45.84869" lon="6.21104">
        <ele>551</ele>
        <time>2013-05-25T16:42:01.000Z</time>
      </trkpt>
      <trkpt lat="45.84866" lon="6.21106">
        <ele>551</ele>
        <time>2013-05-25T16:42:02.000Z</time>
      </trkpt>
      <trkpt lat="45.84864" lon="6.21109">
        <ele>551</ele>
        <time>2013-05-25T16:42:03.000Z</time>
      </trkpt>
      <trkpt lat="45.84862" lon="6.21112">
        <ele>551</ele>
        <time>2013-05-25T16:42:04.000Z</time>
      </trkpt>
      <trkpt lat="45.8486" lon="6.21114">
        <ele>551</ele>
        <time>2013-05-25T16:42:05.000Z</time>
      </trkpt>
      <trkpt lat="45.84859" lon="6.21117">
        <ele>551</ele>
        <time>2013-05-25T16:42:06.000Z</time>
      </trkpt>
      <trkpt lat="45.84857" lon="6.2112">
        <ele>551</ele>
        <time>2013-05-25T16:42:07.000Z</time>
      </trkpt>
      <trkpt lat="45.84855" lon="6.21122">
        <ele>551</ele>
        <time>2013-05-25T16:42:08.000Z</time>
      </trkpt>
      <trkpt lat="45.84854" lon="6.21125">
        <ele>551</ele>
        <time>2013-05-25T16:42:09.000Z</time>
      </trkpt>
      <trkpt lat="45.84852" lon="6.21129">
        <ele>550</ele>
        <time>2013-05-25T16:42:10.000Z</time>
      </trkpt>
      <trkpt lat="45.84851" lon="6.21132">
        <ele>550</ele>
        <time>2013-05-25T16:42:11.000Z</time>
      </trkpt>
      <trkpt lat="45.8485" lon="6.21135">
        <ele>550</ele>
        <time>2013-05-25T16:42:12.000Z</time>
      </trkpt>
      <trkpt lat="45.84848" lon="6.21137">
        <ele>550</ele>
        <time>2013-05-25T16:42:13.000Z</time>
      </trkpt>
      <trkpt lat="45.84847" lon="6.2114">
        <ele>550</ele>
        <time>2013-05-25T16:42:14.000Z</time>
      </trkpt>
      <trkpt lat="45.84846" lon="6.21143">
        <ele>550</ele>
        <time>2013-05-25T16:42:15.000Z</time>
      </trkpt>
      <trkpt lat="45.84844" lon="6.21145">
        <ele>550</ele>
        <time>2013-05-25T16:42:16.000Z</time>
      </trkpt>
      <trkpt lat="45.84843" lon="6.21148">
        <ele>550</ele>
        <time>2013-05-25T16:42:17.000Z</time>
      </trkpt>
      <trkpt lat="45.84841" lon="6.21151">
        <ele>550</ele>
        <time>2013-05-25T16:42:18.000Z</time>
      </trkpt>
      <trkpt lat="45.8484" lon="6.21154">
        <ele>550</ele>
        <time>2013-05-25T16:42:19.000Z</time>
      </trkpt>
      <trkpt lat="45.84838" lon="6.21156">
        <ele>550</ele>
        <time>2013-05-25T16:42:20.000Z</time>
      </trkpt>
      <trkpt lat="45.84836" lon="6.21159">
        <ele>549</ele>
        <time>2013-05-25T16:42:21.000Z</time>
      </trkpt>
      <trkpt lat="45.84835" lon="6.21162">
        <ele>549</ele>
        <time>2013-05-25T16:42:22.000Z</time>
      </trkpt>
      <trkpt lat="45.84834" lon="6.21165">
        <ele>549</ele>
        <time>2013-05-25T16:42:23.000Z</time>
      </trkpt>
      <trkpt lat="45.84833" lon="6.21167">
        <ele>549</ele>
        <time>2013-05-25T16:42:24.000Z</time>
      </trkpt>
      <trkpt lat="45.84831" lon="6.2117">
        <ele>550</ele>
        <time>2013-05-25T16:42:25.000Z</time>
      </trkpt>
      <trkpt lat="45.8483" lon="6.21173">
        <ele>550</ele>
        <time>2013-05-25T16:42:26.000Z</time>
      </trkpt>
      <trkpt lat="45.84828" lon="6.21176">
        <ele>551</ele>
        <time>2013-05-25T16:42:27.000Z</time>
      </trkpt>
      <trkpt lat="45.84826" lon="6.21179">
        <ele>551</ele>
        <time>2013-05-25T16:42:28.000Z</time>
      </trkpt>
      <trkpt lat="45.84825" lon="6.21182">
        <ele>552</ele>
        <time>2013-05-25T16:42:29.000Z</time>
      </trkpt>
      <trkpt lat="45.84823" lon="6.21185">
        <ele>552</ele>
        <time>2013-05-25T16:42:30.000Z</time>
      </trkpt>
      <trkpt lat="45.84822" lon="6.21188">
        <ele>552</ele>
        <time>2013-05-25T16:42:31.000Z</time>
      </trkpt>
      <trkpt lat="45.8482" lon="6.21191">
        <ele>553</ele>
        <time>2013-05-25T16:42:32.000Z</time>
      </trkpt>
      <trkpt lat="45.84818" lon="6.21194">
        <ele>553</ele>
        <time>2013-05-25T16:42:33.000Z</time>
      </trkpt>
      <trkpt lat="45.84817" lon="6.21197">
        <ele>553</ele>
        <time>2013-05-25T16:42:34.000Z</time>
      </trkpt>
      <trkpt lat="45.84815" lon="6.212">
        <ele>553</ele>
        <time>2013-05-25T16:42:35.000Z</time>
      </trkpt>
      <trkpt lat="45.84814" lon="6.21203">
        <ele>553</ele>
        <time>2013-05-25T16:42:36.000Z</time>
      </trkpt>
      <trkpt lat="45.84812" lon="6.21206">
        <ele>553</ele>
        <time>2013-05-25T16:42:37.000Z</time>
      </trkpt>
      <trkpt lat="45.8481" lon="6.21209">
        <ele>553</ele>
        <time>2013-05-25T16:42:38.000Z</time>
      </trkpt>
      <trkpt lat="45.84809" lon="6.21212">
        <ele>554</ele>
        <time>2013-05-25T16:42:39.000Z</time>
      </trkpt>
      <trkpt lat="45.84807" lon="6.21215">
        <ele>554</ele>
        <time>2013-05-25T16:42:40.000Z</time>
      </trkpt>
      <trkpt lat="45.84806" lon="6.21218">
        <ele>554</ele>
        <time>2013-05-25T16:42:41.000Z</time>
      </trkpt>
      <trkpt lat="45.84804" lon="6.21221">
        <ele>554</ele>
        <time>2013-05-25T16:42:42.000Z</time>
      </trkpt>
      <trkpt lat="45.84802" lon="6.21223">
        <ele>554</ele>
        <time>2013-05-25T16:42:43.000Z</time>
      </trkpt>
      <trkpt lat="45.84801" lon="6.21226">
        <ele>554</ele>
        <time>2013-05-25T16:42:44.000Z</time>
      </trkpt>
      <trkpt lat="45.84799" lon="6.21229">
        <ele>554</ele>
        <time>2013-05-25T16:42:45.000Z</time>
      </trkpt>
      <trkpt lat="45.84797" lon="6.21232">
        <ele>554</ele>
        <time>2013-05-25T16:42:46.000Z</time>
      </trkpt>
      <trkpt lat="45.84796" lon="6.21234">
        <ele>554</ele>
        <time>2013-05-25T16:42:47.000Z</time>
      </trkpt>
      <trkpt lat="45.84794" lon="6.21237">
        <ele>554</ele>
        <time>2013-05-25T16:42:48.000Z</time>
      </trkpt>
      <trkpt lat="45.84793" lon="6.2124">
        <ele>554</ele>
        <time>2013-05-25T16:42:49.000Z</time>
      </trkpt>
      <trkpt lat="45.84791" lon="6.21243">
        <ele>554</ele>
        <time>2013-05-25T16:42:50.000Z</time>
      </trkpt>
      <trkpt lat="45.84789" lon="6.21246">
        <ele>554</ele>
        <time>2013-05-25T16:42:51.000Z</time>
      </trkpt>
      <trkpt lat="45.84788" lon="6.21249">
        <ele>554</ele>
        <time>2013-05-25T16:42:52.000Z</time>
      </trkpt>
      <trkpt lat="45.84786" lon="6.21252">
        <ele>553</ele>
        <time>2013-05-25T16:42:53.000Z</time>
      </trkpt>
      <trkpt lat="45.84784" lon="6.21254">
        <ele>553</ele>
        <time>2013-05-25T16:42:54.000Z</time>
      </trkpt>
      <trkpt lat="45.84783" lon="6.21257">
        <ele>554</ele>
        <time>2013-05-25T16:42:55.000Z</time>
      </trkpt>
      <trkpt lat="45.84781" lon="6.21259">
        <ele>554</ele>
        <time>2013-05-25T16:42:56.000Z</time>
      </trkpt>
      <trkpt lat="45.8478" lon="6.21262">
        <ele>554</ele>
        <time>2013-05-25T16:42:57.000Z</time>
      </trkpt>
      <trkpt lat="45.84778" lon="6.21265">
        <ele>554</ele>
        <time>2013-05-25T16:42:58.000Z</time>
      </trkpt>
      <trkpt lat="45.84777" lon="6.21267">
        <ele>554</ele>
        <time>2013-05-25T16:42:59.000Z</time>
      </trkpt>
      <trkpt lat="45.84775" lon="6.2127">
        <ele>554</ele>
        <time>2013-05-25T16:43:00.000Z</time>
      </trkpt>
      <trkpt lat="45.84774" lon="6.21273">
        <ele>554</ele>
        <time>2013-05-25T16:43:01.000Z</time>
      </trkpt>
      <trkpt lat="45.84772" lon="6.21276">
        <ele>554</ele>
        <time>2013-05-25T16:43:02.000Z</time>
      </trkpt>
      <trkpt lat="45.84771" lon="6.21279">
        <ele>554</ele>
        <time>2013-05-25T16:43:03.000Z</time>
      </trkpt>
      <trkpt lat="45.84769" lon="6.21281">
        <ele>554</ele>
        <time>2013-05-25T16:43:04.000Z</time>
      </trkpt>
      <trkpt lat="45.84768" lon="6.21284">
        <ele>554</ele>
        <time>2013-05-25T16:43:05.000Z</time>
      </trkpt>
      <trkpt lat="45.84767" lon="6.21287">
        <ele>553</ele>
        <time>2013-05-25T16:43:06.000Z</time>
      </trkpt>
      <trkpt lat="45.84765" lon="6.2129">
        <ele>553</ele>
        <time>2013-05-25T16:43:07.000Z</time>
      </trkpt>
      <trkpt lat="45.84764" lon="6.21292">
        <ele>553</ele>
        <time>2013-05-25T16:43:08.000Z</time>
      </trkpt>
      <trkpt lat="45.84762" lon="6.21295">
        <ele>553</ele>
        <time>2013-05-25T16:43:09.000Z</time>
      </trkpt>
      <trkpt lat="45.84761" lon="6.21298">
        <ele>553</ele>
        <time>2013-05-25T16:43:10.000Z</time>
      </trkpt>
      <trkpt lat="45.84759" lon="6.21301">
        <ele>553</ele>
        <time>2013-05-25T16:43:11.000Z</time>
      </trkpt>
      <trkpt lat="45.84758" lon="6.21303">
        <ele>553</ele>
        <time>2013-05-25T16:43:12.000Z</time>
      </trkpt>
      <trkpt lat="45.84756" lon="6.21306">
        <ele>553</ele>
        <time>2013-05-25T16:43:13.000Z</time>
      </trkpt>
      <trkpt lat="45.84755" lon="6.21309">
        <ele>553</ele>
        <time>2013-05-25T16:43:14.000Z</time>
      </trkpt>
      <trkpt lat="45.84753" lon="6.21312">
        <ele>553</ele>
        <time>2013-05-25T16:43:15.000Z</time>
      </trkpt>
      <trkpt lat="45.84752" lon="6.21314">
        <ele>553</ele>
        <time>2013-05-25T16:43:16.000Z</time>
      </trkpt>
      <trkpt lat="45.84751" lon="6.21317">
        <ele>553</ele>
        <time>2013-05-25T16:43:17.000Z</time>
      </trkpt>
      <trkpt lat="45.84749" lon="6.21319">
        <ele>555</ele>
        <time>2013-05-25T16:43:18.000Z</time>
      </trkpt>
      <trkpt lat="45.84748" lon="6.21322">
        <ele>555</ele>
        <time>2013-05-25T16:43:19.000Z</time>
      </trkpt>
      <trkpt lat="45.84746" lon="6.21325">
        <ele>554</ele>
        <time>2013-05-25T16:43:20.000Z</time>
      </trkpt>
      <trkpt lat="45.84745" lon="6.21328">
        <ele>554</ele>
        <time>2013-05-25T16:43:21.000Z</time>
      </trkpt>
      <trkpt lat="45.84743" lon="6.2133">
        <ele>554</ele>
        <time>2013-05-25T16:43:22.000Z</time>
      </trkpt>
      <trkpt lat="45.84742" lon="6.21333">
        <ele>554</ele>
        <time>2013-05-25T16:43:23.000Z</time>
      </trkpt>
      <trkpt lat="45.8474" lon="6.21336">
        <ele>554</ele>
        <time>2013-05-25T16:43:24.000Z</time>
      </trkpt>
      <trkpt lat="45.84738" lon="6.21338">
        <ele>554</ele>
        <time>2013-05-25T16:43:25.000Z</time>
      </trkpt>
      <trkpt lat="45.84737" lon="6.21341">
        <ele>554</ele>
        <time>2013-05-25T16:43:26.000Z</time>
      </trkpt>
      <trkpt lat="45.84735" lon="6.21344">
        <ele>554</ele>
        <time>2013-05-25T16:43:27.000Z</time>
      </trkpt>
      <trkpt lat="45.84733" lon="6.21346">
        <ele>554</ele>
        <time>2013-05-25T16:43:28.000Z</time>
      </trkpt>
      <trkpt lat="45.84732" lon="6.21349">
        <ele>554</ele>
        <time>2013-05-25T16:43:29.000Z</time>
      </trkpt>
      <trkpt lat="45.8473" lon="6.21352">
        <ele>554</ele>
        <time>2013-05-25T16:43:30.000Z</time>
      </trkpt>
      <trkpt lat="45.84729" lon="6.21354">
        <ele>554</ele>
        <time>2013-05-25T16:43:31.000Z</time>
      </trkpt>
      <trkpt lat="45.84727" lon="6.21357">
        <ele>554</ele>
        <time>2013-05-25T16:43:32.000Z</time>
      </trkpt>
      <trkpt lat="45.84726" lon="6.2136">
        <ele>555</ele>
        <time>2013-05-25T16:43:33.000Z</time>
      </trkpt>
      <trkpt lat="45.84724" lon="6.21362">
        <ele>555</ele>
        <time>2013-05-25T16:43:34.000Z</time>
      </trkpt>
      <trkpt lat="45.84723" lon="6.21365">
        <ele>555</ele>
        <time>2013-05-25T16:43:35.000Z</time>
      </trkpt>
      <trkpt lat="45.84721" lon="6.21367">
        <ele>555</ele>
        <time>2013-05-25T16:43:36.000Z</time>
      </trkpt>
      <trkpt lat="45.84719" lon="6.2137">
        <ele>555</ele>
        <time>2013-05-25T16:43:37.000Z</time>
      </trkpt>
      <trkpt lat="45.84718" lon="6.21373">
        <ele>555</ele>
        <time>2013-05-25T16:43:38.000Z</time>
      </trkpt>
      <trkpt lat="45.84716" lon="6.21375">
        <ele>555</ele>
        <time>2013-05-25T16:43:39.000Z</time>
      </trkpt>
      <trkpt lat="45.84715" lon="6.21378">
        <ele>555</ele>
        <time>2013-05-25T16:43:40.000Z</time>
      </trkpt>
      <trkpt lat="45.84713" lon="6.21381">
        <ele>555</ele>
        <time>2013-05-25T16:43:41.000Z</time>
      </trkpt>
      <trkpt lat="45.84712" lon="6.21383">
        <ele>555</ele>
        <time>2013-05-25T16:43:42.000Z</time>
      </trkpt>
      <trkpt lat="45.84711" lon="6.21386">
        <ele>555</ele>
        <time>2013-05-25T16:43:43.000Z</time>
      </trkpt>
      <trkpt lat="45.84709" lon="6.21388">
        <ele>555</ele>
        <time>2013-05-25T16:43:44.000Z</time>
      </trkpt>
      <trkpt lat="45.84707" lon="6.21391">
        <ele>555</ele>
        <time>2013-05-25T16:43:45.000Z</time>
      </trkpt>
      <trkpt lat="45.84706" lon="6.21393">
        <ele>555</ele>
        <time>2013-05-25T16:43:46.000Z</time>
      </trkpt>
      <trkpt lat="45.84704" lon="6.21396">
        <ele>555</ele>
        <time>2013-05-25T16:43:47.000Z</time>
      </trkpt>
      <trkpt lat="45.84703" lon="6.21399">
        <ele>555</ele>
        <time>2013-05-25T16:43:48.000Z</time>
      </trkpt>
      <trkpt lat="45.84702" lon="6.21401">
        <ele>555</ele>
        <time>2013-05-25T16:43:49.000Z</time>
      </trkpt>
      <trkpt lat="45.847" lon="6.21404">
        <ele>555</ele>
        <time>2013-05-25T16:43:50.000Z</time>
      </trkpt>
      <trkpt lat="45.84698" lon="6.21407">
        <ele>555</ele>
        <time>2013-05-25T16:43:51.000Z</time>
      </trkpt>
      <trkpt lat="45.84696" lon="6.21409">
        <ele>555</ele>
        <time>2013-05-25T16:43:52.000Z</time>
      </trkpt>
      <trkpt lat="45.84694" lon="6.21411">
        <ele>556</ele>
        <time>2013-05-25T16:43:53.000Z</time>
      </trkpt>
      <trkpt lat="45.84692" lon="6.21413">
        <ele>556</ele>
        <time>2013-05-25T16:43:54.000Z</time>
      </trkpt>
      <trkpt lat="45.8469" lon="6.21415">
        <ele>556</ele>
        <time>2013-05-25T16:43:55.000Z</time>
      </trkpt>
      <trkpt lat="45.84688" lon="6.21418">
        <ele>556</ele>
        <time>2013-05-25T16:43:56.000Z</time>
      </trkpt>
      <trkpt lat="45.84687" lon="6.2142">
        <ele>556</ele>
        <time>2013-05-25T16:43:57.000Z</time>
      </trkpt>
      <trkpt lat="45.84685" lon="6.21422">
        <ele>556</ele>
        <time>2013-05-25T16:43:58.000Z</time>
      </trkpt>
      <trkpt lat="45.84683" lon="6.21424">
        <ele>556</ele>
        <time>2013-05-25T16:43:59.000Z</time>
      </trkpt>
      <trkpt lat="45.84681" lon="6.21426">
        <ele>557</ele>
        <time>2013-05-25T16:44:00.000Z</time>
      </trkpt>
      <trkpt lat="45.84679" lon="6.21429">
        <ele>557</ele>
        <time>2013-05-25T16:44:01.000Z</time>
      </trkpt>
      <trkpt lat="45.84677" lon="6.21431">
        <ele>557</ele>
        <time>2013-05-25T16:44:02.000Z</time>
      </trkpt>
      <trkpt lat="45.84675" lon="6.21433">
        <ele>557</ele>
        <time>2013-05-25T16:44:03.000Z</time>
      </trkpt>
      <trkpt lat="45.84673" lon="6.21435">
        <ele>557</ele>
        <time>2013-05-25T16:44:04.000Z</time>
      </trkpt>
      <trkpt lat="45.84672" lon="6.21438">
        <ele>557</ele>
        <time>2013-05-25T16:44:05.000Z</time>
      </trkpt>
      <trkpt lat="45.8467" lon="6.21441">
        <ele>557</ele>
        <time>2013-05-25T16:44:06.000Z</time>
      </trkpt>
      <trkpt lat="45.84669" lon="6.21443">
        <ele>557</ele>
        <time>2013-05-25T16:44:07.000Z</time>
      </trkpt>
      <trkpt lat="45.84667" lon="6.21446">
        <ele>557</ele>
        <time>2013-05-25T16:44:08.000Z</time>
      </trkpt>
      <trkpt lat="45.84665" lon="6.21449">
        <ele>557</ele>
        <time>2013-05-25T16:44:09.000Z</time>
      </trkpt>
      <trkpt lat="45.84663" lon="6.21451">
        <ele>557</ele>
        <time>2013-05-25T16:44:10.000Z</time>
      </trkpt>
      <trkpt lat="45.84662" lon="6.21454">
        <ele>557</ele>
        <time>2013-05-25T16:44:11.000Z</time>
      </trkpt>
      <trkpt lat="45.8466" lon="6.21456">
        <ele>557</ele>
        <time>2013-05-25T16:44:12.000Z</time>
      </trkpt>
      <trkpt lat="45.84659" lon="6.21459">
        <ele>557</ele>
        <time>2013-05-25T16:44:13.000Z</time>
      </trkpt>
      <trkpt lat="45.84657" lon="6.21462">
        <ele>557</ele>
        <time>2013-05-25T16:44:14.000Z</time>
      </trkpt>
      <trkpt lat="45.84655" lon="6.21464">
        <ele>557</ele>
        <time>2013-05-25T16:44:15.000Z</time>
      </trkpt>
      <trkpt lat="45.84654" lon="6.21467">
        <ele>557</ele>
        <time>2013-05-25T16:44:16.000Z</time>
      </trkpt>
      <trkpt lat="45.84652" lon="6.2147">
        <ele>557</ele>
        <time>2013-05-25T16:44:17.000Z</time>
      </trkpt>
      <trkpt lat="45.84651" lon="6.21473">
        <ele>557</ele>
        <time>2013-05-25T16:44:18.000Z</time>
      </trkpt>
      <trkpt lat="45.8465" lon="6.21476">
        <ele>557</ele>
        <time>2013-05-25T16:44:19.000Z</time>
      </trkpt>
      <trkpt lat="45.84649" lon="6.21479">
        <ele>557</ele>
        <time>2013-05-25T16:44:20.000Z</time>
      </trkpt>
      <trkpt lat="45.84648" lon="6.21483">
        <ele>557</ele>
        <time>2013-05-25T16:44:21.000Z</time>
      </trkpt>
      <trkpt lat="45.84647" lon="6.21486">
        <ele>557</ele>
        <time>2013-05-25T16:44:22.000Z</time>
      </trkpt>
      <trkpt lat="45.84646" lon="6.21489">
        <ele>557</ele>
        <time>2013-05-25T16:44:23.000Z</time>
      </trkpt>
      <trkpt lat="45.84645" lon="6.21493">
        <ele>557</ele>
        <time>2013-05-25T16:44:24.000Z</time>
      </trkpt>
      <trkpt lat="45.84644" lon="6.21496">
        <ele>557</ele>
        <time>2013-05-25T16:44:25.000Z</time>
      </trkpt>
      <trkpt lat="45.84644" lon="6.21499">
        <ele>557</ele>
        <time>2013-05-25T16:44:26.000Z</time>
      </trkpt>
      <trkpt lat="45.84644" lon="6.21502">
        <ele>558</ele>
        <time>2013-05-25T16:44:27.000Z</time>
      </trkpt>
      <trkpt lat="45.84644" lon="6.21505">
        <ele>558</ele>
        <time>2013-05-25T16:44:28.000Z</time>
      </trkpt>
      <trkpt lat="45.84644" lon="6.21509">
        <ele>558</ele>
        <time>2013-05-25T16:44:29.000Z</time>
      </trkpt>
      <trkpt lat="45.84643" lon="6.21512">
        <ele>558</ele>
        <time>2013-05-25T16:44:30.000Z</time>
      </trkpt>
      <trkpt lat="45.84643" lon="6.21516">
        <ele>558</ele>
        <time>2013-05-25T16:44:31.000Z</time>
      </trkpt>
      <trkpt lat="45.84643" lon="6.21519">
        <ele>558</ele>
        <time>2013-05-25T16:44:32.000Z</time>
      </trkpt>
      <trkpt lat="45.84643" lon="6.21523">
        <ele>558</ele>
        <time>2013-05-25T16:44:33.000Z</time>
      </trkpt>
      <trkpt lat="45.84643" lon="6.21526">
        <ele>558</ele>
        <time>2013-05-25T16:44:34.000Z</time>
      </trkpt>
      <trkpt lat="45.84643" lon="6.2153">
        <ele>558</ele>
        <time>2013-05-25T16:44:35.000Z</time>
      </trkpt>
      <trkpt lat="45.84643" lon="6.21533">
        <ele>558</ele>
        <time>2013-05-25T16:44:36.000Z</time>
      </trkpt>
      <trkpt lat="45.84643" lon="6.21537">
        <ele>558</ele>
        <time>2013-05-25T16:44:37.000Z</time>
      </trkpt>
      <trkpt lat="45.84643" lon="6.2154">
        <ele>558</ele>
        <time>2013-05-25T16:44:38.000Z</time>
      </trkpt>
      <trkpt lat="45.84643" lon="6.21544">
        <ele>558</ele>
        <time>2013-05-25T16:44:39.000Z</time>
      </trkpt>
      <trkpt lat="45.84644" lon="6.21547">
        <ele>558</ele>
        <time>2013-05-25T16:44:40.000Z</time>
      </trkpt>
      <trkpt lat="45.84644" lon="6.21551">
        <ele>558</ele>
        <time>2013-05-25T16:44:41.000Z</time>
      </trkpt>
      <trkpt lat="45.84645" lon="6.21554">
        <ele>559</ele>
        <time>2013-05-25T16:44:42.000Z</time>
      </trkpt>
      <trkpt lat="45.84645" lon="6.21557">
        <ele>559</ele>
        <time>2013-05-25T16:44:43.000Z</time>
      </trkpt>
      <trkpt lat="45.84646" lon="6.21561">
        <ele>559</ele>
        <time>2013-05-25T16:44:44.000Z</time>
      </trkpt>
      <trkpt lat="45.84647" lon="6.21564">
        <ele>559</ele>
        <time>2013-05-25T16:44:45.000Z</time>
      </trkpt>
      <trkpt lat="45.84647" lon="6.21567">
        <ele>559</ele>
        <time>2013-05-25T16:44:46.000Z</time>
      </trkpt>
      <trkpt lat="45.84648" lon="6.2157">
        <ele>559</ele>
        <time>2013-05-25T16:44:47.000Z</time>
      </trkpt>
      <trkpt lat="45.84649" lon="6.21573">
        <ele>559</ele>
        <time>2013-05-25T16:44:48.000Z</time>
      </trkpt>
      <trkpt lat="45.8465" lon="6.21576">
        <ele>559</ele>
        <time>2013-05-25T16:44:49.000Z</time>
      </trkpt>
      <trkpt lat="45.84651" lon="6.21579">
        <ele>559</ele>
        <time>2013-05-25T16:44:50.000Z</time>
      </trkpt>
      <trkpt lat="45.84653" lon="6.21581">
        <ele>559</ele>
        <time>2013-05-25T16:44:51.000Z</time>
      </trkpt>
      <trkpt lat="45.84654" lon="6.21584">
        <ele>561</ele>
        <time>2013-05-25T16:44:52.000Z</time>
      </trkpt>
      <trkpt lat="45.84655" lon="6.21587">
        <ele>561</ele>
        <time>2013-05-25T16:44:53.000Z</time>
      </trkpt>
      <trkpt lat="45.84657" lon="6.21589">
        <ele>561</ele>
        <time>2013-05-25T16:44:54.000Z</time>
      </trkpt>
      <trkpt lat="45.84658" lon="6.21592">
        <ele>561</ele>
        <time>2013-05-25T16:44:55.000Z</time>
      </trkpt>
      <trkpt lat="45.84659" lon="6.21595">
        <ele>561</ele>
        <time>2013-05-25T16:44:56.000Z</time>
      </trkpt>
      <trkpt lat="45.84661" lon="6.21597">
        <ele>561</ele>
        <time>2013-05-25T16:44:57.000Z</time>
      </trkpt>
      <trkpt lat="45.84662" lon="6.216">
        <ele>562</ele>
        <time>2013-05-25T16:44:58.000Z</time>
      </trkpt>
      <trkpt lat="45.84664" lon="6.21602">
        <ele>562</ele>
        <time>2013-05-25T16:44:59.000Z</time>
      </trkpt>
      <trkpt lat="45.84665" lon="6.21605">
        <ele>562</ele>
        <time>2013-05-25T16:45:00.000Z</time>
      </trkpt>
      <trkpt lat="45.84667" lon="6.21608">
        <ele>565</ele>
        <time>2013-05-25T16:45:01.000Z</time>
      </trkpt>
      <trkpt lat="45.84669" lon="6.2161">
        <ele>565</ele>
        <time>2013-05-25T16:45:02.000Z</time>
      </trkpt>
      <trkpt lat="45.84671" lon="6.21612">
        <ele>565</ele>
        <time>2013-05-25T16:45:03.000Z</time>
      </trkpt>
      <trkpt lat="45.84672" lon="6.21615">
        <ele>566</ele>
        <time>2013-05-25T16:45:04.000Z</time>
      </trkpt>
      <trkpt lat="45.84674" lon="6.21617">
        <ele>566</ele>
        <time>2013-05-25T16:45:05.000Z</time>
      </trkpt>
      <trkpt lat="45.84676" lon="6.21619">
        <ele>566</ele>
        <time>2013-05-25T16:45:06.000Z</time>
      </trkpt>
      <trkpt lat="45.84678" lon="6.21621">
        <ele>567</ele>
        <time>2013-05-25T16:45:07.000Z</time>
      </trkpt>
      <trkpt lat="45.84679" lon="6.21623">
        <ele>567</ele>
        <time>2013-05-25T16:45:08.000Z</time>
      </trkpt>
      <trkpt lat="45.84681" lon="6.21626">
        <ele>567</ele>
        <time>2013-05-25T16:45:09.000Z</time>
      </trkpt>
      <trkpt lat="45.84683" lon="6.21628">
        <ele>567</ele>
        <time>2013-05-25T16:45:10.000Z</time>
      </trkpt>
      <trkpt lat="45.84684" lon="6.2163">
        <ele>567</ele>
        <time>2013-05-25T16:45:11.000Z</time>
      </trkpt>
      <trkpt lat="45.84686" lon="6.21632">
        <ele>568</ele>
        <time>2013-05-25T16:45:12.000Z</time>
      </trkpt>
      <trkpt lat="45.84688" lon="6.21633">
        <ele>568</ele>
        <time>2013-05-25T16:45:13.000Z</time>
      </trkpt>
      <trkpt lat="45.8469" lon="6.21635">
        <ele>568</ele>
        <time>2013-05-25T16:45:14.000Z</time>
      </trkpt>
      <trkpt lat="45.84692" lon="6.21636">
        <ele>568</ele>
        <time>2013-05-25T16:45:15.000Z</time>
      </trkpt>
      <trkpt lat="45.84694" lon="6.21638">
        <ele>568</ele>
        <time>2013-05-25T16:45:16.000Z</time>
      </trkpt>
      <trkpt lat="45.84696" lon="6.21639">
        <ele>568</ele>
        <time>2013-05-25T16:45:17.000Z</time>
      </trkpt>
      <trkpt lat="45.84698" lon="6.2164">
        <ele>568</ele>
        <time>2013-05-25T16:45:18.000Z</time>
      </trkpt>
      <trkpt lat="45.847" lon="6.21642">
        <ele>569</ele>
        <time>2013-05-25T16:45:19.000Z</time>
      </trkpt>
      <trkpt lat="45.84702" lon="6.21642">
        <ele>569</ele>
        <time>2013-05-25T16:45:20.000Z</time>
      </trkpt>
      <trkpt lat="45.84704" lon="6.21643">
        <ele>569</ele>
        <time>2013-05-25T16:45:21.000Z</time>
      </trkpt>
      <trkpt lat="45.84706" lon="6.21644">
        <ele>569</ele>
        <time>2013-05-25T16:45:22.000Z</time>
      </trkpt>
      <trkpt lat="45.84708" lon="6.21646">
        <ele>569</ele>
        <time>2013-05-25T16:45:23.000Z</time>
      </trkpt>
      <trkpt lat="45.8471" lon="6.21646">
        <ele>569</ele>
        <time>2013-05-25T16:45:24.000Z</time>
      </trkpt>
      <trkpt lat="45.84712" lon="6.21647">
        <ele>569</ele>
        <time>2013-05-25T16:45:25.000Z</time>
      </trkpt>
      <trkpt lat="45.84714" lon="6.21647">
        <ele>570</ele>
        <time>2013-05-25T16:45:26.000Z</time>
      </trkpt>
      <trkpt lat="45.84717" lon="6.21648">
        <ele>570</ele>
        <time>2013-05-25T16:45:27.000Z</time>
      </trkpt>
      <trkpt lat="45.84719" lon="6.21648">
        <ele>570</ele>
        <time>2013-05-25T16:45:28.000Z</time>
      </trkpt>
      <trkpt lat="45.84721" lon="6.21649">
        <ele>570</ele>
        <time>2013-05-25T16:45:29.000Z</time>
      </trkpt>
      <trkpt lat="45.84724" lon="6.21649">
        <ele>570</ele>
        <time>2013-05-25T16:45:30.000Z</time>
      </trkpt>
      <trkpt lat="45.84726" lon="6.21649">
        <ele>570</ele>
        <time>2013-05-25T16:45:31.000Z</time>
      </trkpt>
      <trkpt lat="45.84728" lon="6.21649">
        <ele>571</ele>
        <time>2013-05-25T16:45:32.000Z</time>
      </trkpt>
      <trkpt lat="45.8473" lon="6.2165">
        <ele>571</ele>
        <time>2013-05-25T16:45:33.000Z</time>
      </trkpt>
      <trkpt lat="45.84732" lon="6.2165">
        <ele>571</ele>
        <time>2013-05-25T16:45:34.000Z</time>
      </trkpt>
      <trkpt lat="45.84734" lon="6.2165">
        <ele>571</ele>
        <time>2013-05-25T16:45:35.000Z</time>
      </trkpt>
      <trkpt lat="45.84737" lon="6.21651">
        <ele>572</ele>
        <time>2013-05-25T16:45:36.000Z</time>
      </trkpt>
      <trkpt lat="45.84739" lon="6.21651">
        <ele>572</ele>
        <time>2013-05-25T16:45:37.000Z</time>
      </trkpt>
      <trkpt lat="45.84741" lon="6.21651">
        <ele>572</ele>
        <time>2013-05-25T16:45:38.000Z</time>
      </trkpt>
      <trkpt lat="45.84743" lon="6.21652">
        <ele>572</ele>
        <time>2013-05-25T16:45:39.000Z</time>
      </trkpt>
      <trkpt lat="45.84745" lon="6.21652">
        <ele>573</ele>
        <time>2013-05-25T16:45:40.000Z</time>
      </trkpt>
      <trkpt lat="45.84747" lon="6.21652">
        <ele>573</ele>
        <time>2013-05-25T16:45:41.000Z</time>
      </trkpt>
      <trkpt lat="45.84749" lon="6.21653">
        <ele>573</ele>
        <time>2013-05-25T16:45:42.000Z</time>
      </trkpt>
      <trkpt lat="45.84752" lon="6.21653">
        <ele>575</ele>
        <time>2013-05-25T16:45:43.000Z</time>
      </trkpt>
      <trkpt lat="45.84754" lon="6.21654">
        <ele>575</ele>
        <time>2013-05-25T16:45:44.000Z</time>
      </trkpt>
      <trkpt lat="45.84756" lon="6.21654">
        <ele>575</ele>
        <time>2013-05-25T16:45:45.000Z</time>
      </trkpt>
      <trkpt lat="45.84758" lon="6.21654">
        <ele>575</ele>
        <time>2013-05-25T16:45:46.000Z</time>
      </trkpt>
      <trkpt lat="45.8476" lon="6.21654">
        <ele>575</ele>
        <time>2013-05-25T16:45:47.000Z</time>
      </trkpt>
      <trkpt lat="45.84762" lon="6.21655">
        <ele>575</ele>
        <time>2013-05-25T16:45:48.000Z</time>
      </trkpt>
      <trkpt lat="45.84765" lon="6.21655">
        <ele>574</ele>
        <time>2013-05-25T16:45:49.000Z</time>
      </trkpt>
      <trkpt lat="45.84767" lon="6.21655">
        <ele>574</ele>
        <time>2013-05-25T16:45:50.000Z</time>
      </trkpt>
      <trkpt lat="45.84769" lon="6.21655">
        <ele>574</ele>
        <time>2013-05-25T16:45:51.000Z</time>
      </trkpt>
      <trkpt lat="45.84771" lon="6.21655">
        <ele>574</ele>
        <time>2013-05-25T16:45:52.000Z</time>
      </trkpt>
      <trkpt lat="45.84773" lon="6.21655">
        <ele>574</ele>
        <time>2013-05-25T16:45:53.000Z</time>
      </trkpt>
      <trkpt lat="45.84775" lon="6.21655">
        <ele>574</ele>
        <time>2013-05-25T16:45:54.000Z</time>
      </trkpt>
      <trkpt lat="45.84777" lon="6.21655">
        <ele>574</ele>
        <time>2013-05-25T16:45:55.000Z</time>
      </trkpt>
      <trkpt lat="45.8478" lon="6.21655">
        <ele>574</ele>
        <time>2013-05-25T16:45:56.000Z</time>
      </trkpt>
      <trkpt lat="45.84782" lon="6.21655">
        <ele>574</ele>
        <time>2013-05-25T16:45:57.000Z</time>
      </trkpt>
      <trkpt lat="45.84784" lon="6.21655">
        <ele>574</ele>
        <time>2013-05-25T16:45:58.000Z</time>
      </trkpt>
      <trkpt lat="45.84786" lon="6.21655">
        <ele>574</ele>
        <time>2013-05-25T16:45:59.000Z</time>
      </trkpt>
      <trkpt lat="45.84788" lon="6.21655">
        <ele>574</ele>
        <time>2013-05-25T16:46:00.000Z</time>
      </trkpt>
      <trkpt lat="45.8479" lon="6.21655">
        <ele>574</ele>
        <time>2013-05-25T16:46:01.000Z</time>
      </trkpt>
      <trkpt lat="45.84792" lon="6.21656">
        <ele>574</ele>
        <time>2013-05-25T16:46:02.000Z</time>
      </trkpt>
      <trkpt lat="45.84794" lon="6.21656">
        <ele>574</ele>
        <time>2013-05-25T16:46:03.000Z</time>
      </trkpt>
      <trkpt lat="45.84796" lon="6.21656">
        <ele>574</ele>
        <time>2013-05-25T16:46:04.000Z</time>
      </trkpt>
      <trkpt lat="45.84798" lon="6.21656">
        <ele>574</ele>
        <time>2013-05-25T16:46:05.000Z</time>
      </trkpt>
      <trkpt lat="45.848" lon="6.21656">
        <ele>574</ele>
        <time>2013-05-25T16:46:06.000Z</time>
      </trkpt>
      <trkpt lat="45.84803" lon="6.21656">
        <ele>575</ele>
        <time>2013-05-25T16:46:07.000Z</time>
      </trkpt>
      <trkpt lat="45.84805" lon="6.21656">
        <ele>575</ele>
        <time>2013-05-25T16:46:08.000Z</time>
      </trkpt>
      <trkpt lat="45.84807" lon="6.21656">
        <ele>575</ele>
        <time>2013-05-25T16:46:09.000Z</time>
      </trkpt>
      <trkpt lat="45.84809" lon="6.21656">
        <ele>575</ele>
        <time>2013-05-25T16:46:10.000Z</time>
      </trkpt>
      <trkpt lat="45.84811" lon="6.21656">
        <ele>575</ele>
        <time>2013-05-25T16:46:11.000Z</time>
      </trkpt>
      <trkpt lat="45.84813" lon="6.21656">
        <ele>575</ele>
        <time>2013-05-25T16:46:12.000Z</time>
      </trkpt>
      <trkpt lat="45.84816" lon="6.21656">
        <ele>576</ele>
        <time>2013-05-25T16:46:13.000Z</time>
      </trkpt>
      <trkpt lat="45.84818" lon="6.21656">
        <ele>576</ele>
        <time>2013-05-25T16:46:14.000Z</time>
      </trkpt>
      <trkpt lat="45.8482" lon="6.21656">
        <ele>576</ele>
        <time>2013-05-25T16:46:15.000Z</time>
      </trkpt>
      <trkpt lat="45.84823" lon="6.21655">
        <ele>576</ele>
        <time>2013-05-25T16:46:16.000Z</time>
      </trkpt>
      <trkpt lat="45.84825" lon="6.21655">
        <ele>576</ele>
        <time>2013-05-25T16:46:17.000Z</time>
      </trkpt>
      <trkpt lat="45.84827" lon="6.21654">
        <ele>577</ele>
        <time>2013-05-25T16:46:18.000Z</time>
      </trkpt>
      <trkpt lat="45.84829" lon="6.21654">
        <ele>577</ele>
        <time>2013-05-25T16:46:19.000Z</time>
      </trkpt>
      <trkpt lat="45.84831" lon="6.21654">
        <ele>577</ele>
        <time>2013-05-25T16:46:20.000Z</time>
      </trkpt>
      <trkpt lat="45.84834" lon="6.21653">
        <ele>579</ele>
        <time>2013-05-25T16:46:21.000Z</time>
      </trkpt>
      <trkpt lat="45.84836" lon="6.21653">
        <ele>579</ele>
        <time>2013-05-25T16:46:22.000Z</time>
      </trkpt>
      <trkpt lat="45.84838" lon="6.21653">
        <ele>579</ele>
        <time>2013-05-25T16:46:23.000Z</time>
      </trkpt>
      <trkpt lat="45.8484" lon="6.21652">
        <ele>579</ele>
        <time>2013-05-25T16:46:24.000Z</time>
      </trkpt>
      <trkpt lat="45.84843" lon="6.21652">
        <ele>579</ele>
        <time>2013-05-25T16:46:25.000Z</time>
      </trkpt>
      <trkpt lat="45.84845" lon="6.21651">
        <ele>579</ele>
        <time>2013-05-25T16:46:26.000Z</time>
      </trkpt>
      <trkpt lat="45.84847" lon="6.21651">
        <ele>579</ele>
        <time>2013-05-25T16:46:27.000Z</time>
      </trkpt>
      <trkpt lat="45.8485" lon="6.2165">
        <ele>579</ele>
        <time>2013-05-25T16:46:28.000Z</time>
      </trkpt>
      <trkpt lat="45.84852" lon="6.21649">
        <ele>579</ele>
        <time>2013-05-25T16:46:29.000Z</time>
      </trkpt>
      <trkpt lat="45.84854" lon="6.21649">
        <ele>579</ele>
        <time>2013-05-25T16:46:30.000Z</time>
      </trkpt>
      <trkpt lat="45.84856" lon="6.21648">
        <ele>579</ele>
        <time>2013-05-25T16:46:31.000Z</time>
      </trkpt>
      <trkpt lat="45.84858" lon="6.21647">
        <ele>579</ele>
        <time>2013-05-25T16:46:32.000Z</time>
      </trkpt>
      <trkpt lat="45.8486" lon="6.21647">
        <ele>579</ele>
        <time>2013-05-25T16:46:33.000Z</time>
      </trkpt>
      <trkpt lat="45.84862" lon="6.21646">
        <ele>579</ele>
        <time>2013-05-25T16:46:34.000Z</time>
      </trkpt>
      <trkpt lat="45.84864" lon="6.21645">
        <ele>579</ele>
        <time>2013-05-25T16:46:35.000Z</time>
      </trkpt>
      <trkpt lat="45.84866" lon="6.21644">
        <ele>579</ele>
        <time>2013-05-25T16:46:36.000Z</time>
      </trkpt>
      <trkpt lat="45.84869" lon="6.21643">
        <ele>579</ele>
        <time>2013-05-25T16:46:37.000Z</time>
      </trkpt>
      <trkpt lat="45.84871" lon="6.21642">
        <ele>579</ele>
        <time>2013-05-25T16:46:38.000Z</time>
      </trkpt>
      <trkpt lat="45.84873" lon="6.2164">
        <ele>579</ele>
        <time>2013-05-25T16:46:39.000Z</time>
      </trkpt>
      <trkpt lat="45.84875" lon="6.21639">
        <ele>579</ele>
        <time>2013-05-25T16:46:40.000Z</time>
      </trkpt>
      <trkpt lat="45.84877" lon="6.21638">
        <ele>579</ele>
        <time>2013-05-25T16:46:41.000Z</time>
      </trkpt>
      <trkpt lat="45.84879" lon="6.21637">
        <ele>579</ele>
        <time>2013-05-25T16:46:42.000Z</time>
      </trkpt>
      <trkpt lat="45.84882" lon="6.21636">
        <ele>579</ele>
        <time>2013-05-25T16:46:43.000Z</time>
      </trkpt>
      <trkpt lat="45.84884" lon="6.21636">
        <ele>579</ele>
        <time>2013-05-25T16:46:44.000Z</time>
      </trkpt>
      <trkpt lat="45.84886" lon="6.21635">
        <ele>579</ele>
        <time>2013-05-25T16:46:45.000Z</time>
      </trkpt>
      <trkpt lat="45.84889" lon="6.21634">
        <ele>579</ele>
        <time>2013-05-25T16:46:46.000Z</time>
      </trkpt>
      <trkpt lat="45.84891" lon="6.21633">
        <ele>579</ele>
        <time>2013-05-25T16:46:47.000Z</time>
      </trkpt>
      <trkpt lat="45.84893" lon="6.21632">
        <ele>579</ele>
        <time>2013-05-25T16:46:48.000Z</time>
      </trkpt>
      <trkpt lat="45.84895" lon="6.21631">
        <ele>579</ele>
        <time>2013-05-25T16:46:49.000Z</time>
      </trkpt>
      <trkpt lat="45.84897" lon="6.2163">
        <ele>579</ele>
        <time>2013-05-25T16:46:50.000Z</time>
      </trkpt>
      <trkpt lat="45.84899" lon="6.21629">
        <ele>579</ele>
        <time>2013-05-25T16:46:51.000Z</time>
      </trkpt>
      <trkpt lat="45.84901" lon="6.21628">
        <ele>579</ele>
        <time>2013-05-25T16:46:52.000Z</time>
      </trkpt>
      <trkpt lat="45.84903" lon="6.21626">
        <ele>579</ele>
        <time>2013-05-25T16:46:53.000Z</time>
      </trkpt>
      <trkpt lat="45.84905" lon="6.21625">
        <ele>579</ele>
        <time>2013-05-25T16:46:54.000Z</time>
      </trkpt>
      <trkpt lat="45.84907" lon="6.21624">
        <ele>579</ele>
        <time>2013-05-25T16:46:55.000Z</time>
      </trkpt>
      <trkpt lat="45.8491" lon="6.21623">
        <ele>579</ele>
        <time>2013-05-25T16:46:56.000Z</time>
      </trkpt>
      <trkpt lat="45.84912" lon="6.21622">
        <ele>579</ele>
        <time>2013-05-25T16:46:57.000Z</time>
      </trkpt>
      <trkpt lat="45.84914" lon="6.21621">
        <ele>579</ele>
        <time>2013-05-25T16:46:58.000Z</time>
      </trkpt>
      <trkpt lat="45.84916" lon="6.21621">
        <ele>579</ele>
        <time>2013-05-25T16:46:59.000Z</time>
      </trkpt>
      <trkpt lat="45.84918" lon="6.2162">
        <ele>584</ele>
        <time>2013-05-25T16:47:00.000Z</time>
      </trkpt>
      <trkpt lat="45.8492" lon="6.21619">
        <ele>584</ele>
        <time>2013-05-25T16:47:01.000Z</time>
      </trkpt>
      <trkpt lat="45.84922" lon="6.21618">
        <ele>584</ele>
        <time>2013-05-25T16:47:02.000Z</time>
      </trkpt>
      <trkpt lat="45.84924" lon="6.21617">
        <ele>584</ele>
        <time>2013-05-25T16:47:03.000Z</time>
      </trkpt>
      <trkpt lat="45.84926" lon="6.21616">
        <ele>584</ele>
        <time>2013-05-25T16:47:04.000Z</time>
      </trkpt>
      <trkpt lat="45.84928" lon="6.21616">
        <ele>584</ele>
        <time>2013-05-25T16:47:05.000Z</time>
      </trkpt>
      <trkpt lat="45.8493" lon="6.21615">
        <ele>584</ele>
        <time>2013-05-25T16:47:06.000Z</time>
      </trkpt>
      <trkpt lat="45.84932" lon="6.21614">
        <ele>584</ele>
        <time>2013-05-25T16:47:07.000Z</time>
      </trkpt>
      <trkpt lat="45.84934" lon="6.21613">
        <ele>584</ele>
        <time>2013-05-25T16:47:08.000Z</time>
      </trkpt>
      <trkpt lat="45.84936" lon="6.21612">
        <ele>584</ele>
        <time>2013-05-25T16:47:09.000Z</time>
      </trkpt>
      <trkpt lat="45.84938" lon="6.21612">
        <ele>584</ele>
        <time>2013-05-25T16:47:10.000Z</time>
      </trkpt>
      <trkpt lat="45.8494" lon="6.21611">
        <ele>584</ele>
        <time>2013-05-25T16:47:11.000Z</time>
      </trkpt>
      <trkpt lat="45.84942" lon="6.2161">
        <ele>584</ele>
        <time>2013-05-25T16:47:12.000Z</time>
      </trkpt>
      <trkpt lat="45.84944" lon="6.2161">
        <ele>584</ele>
        <time>2013-05-25T16:47:13.000Z</time>
      </trkpt>
      <trkpt lat="45.84946" lon="6.2161">
        <ele>585</ele>
        <time>2013-05-25T16:47:14.000Z</time>
      </trkpt>
      <trkpt lat="45.84948" lon="6.21609">
        <ele>585</ele>
        <time>2013-05-25T16:47:15.000Z</time>
      </trkpt>
      <trkpt lat="45.8495" lon="6.21608">
        <ele>585</ele>
        <time>2013-05-25T16:47:16.000Z</time>
      </trkpt>
      <trkpt lat="45.84952" lon="6.21608">
        <ele>585</ele>
        <time>2013-05-25T16:47:17.000Z</time>
      </trkpt>
      <trkpt lat="45.84955" lon="6.21606">
        <ele>585</ele>
        <time>2013-05-25T16:47:18.000Z</time>
      </trkpt>
      <trkpt lat="45.84957" lon="6.21605">
        <ele>585</ele>
        <time>2013-05-25T16:47:19.000Z</time>
      </trkpt>
      <trkpt lat="45.84959" lon="6.21604">
        <ele>585</ele>
        <time>2013-05-25T16:47:20.000Z</time>
      </trkpt>
      <trkpt lat="45.84961" lon="6.21603">
        <ele>585</ele>
        <time>2013-05-25T16:47:21.000Z</time>
      </trkpt>
      <trkpt lat="45.84963" lon="6.21602">
        <ele>585</ele>
        <time>2013-05-25T16:47:22.000Z</time>
      </trkpt>
      <trkpt lat="45.84965" lon="6.21602">
        <ele>585</ele>
        <time>2013-05-25T16:47:23.000Z</time>
      </trkpt>
      <trkpt lat="45.84968" lon="6.21601">
        <ele>586</ele>
        <time>2013-05-25T16:47:24.000Z</time>
      </trkpt>
      <trkpt lat="45.8497" lon="6.216">
        <ele>586</ele>
        <time>2013-05-25T16:47:25.000Z</time>
      </trkpt>
      <trkpt lat="45.84972" lon="6.216">
        <ele>586</ele>
        <time>2013-05-25T16:47:26.000Z</time>
      </trkpt>
      <trkpt lat="45.84974" lon="6.21599">
        <ele>586</ele>
        <time>2013-05-25T16:47:27.000Z</time>
      </trkpt>
      <trkpt lat="45.84977" lon="6.21598">
        <ele>586</ele>
        <time>2013-05-25T16:47:28.000Z</time>
      </trkpt>
      <trkpt lat="45.84979" lon="6.21597">
        <ele>586</ele>
        <time>2013-05-25T16:47:29.000Z</time>
      </trkpt>
      <trkpt lat="45.84981" lon="6.21596">
        <ele>586</ele>
        <time>2013-05-25T16:47:30.000Z</time>
      </trkpt>
      <trkpt lat="45.84984" lon="6.21595">
        <ele>586</ele>
        <time>2013-05-25T16:47:31.000Z</time>
      </trkpt>
      <trkpt lat="45.84986" lon="6.21594">
        <ele>586</ele>
        <time>2013-05-25T16:47:32.000Z</time>
      </trkpt>
      <trkpt lat="45.84988" lon="6.21593">
        <ele>586</ele>
        <time>2013-05-25T16:47:33.000Z</time>
      </trkpt>
      <trkpt lat="45.8499" lon="6.21592">
        <ele>586</ele>
        <time>2013-05-25T16:47:34.000Z</time>
      </trkpt>
      <trkpt lat="45.84992" lon="6.21591">
        <ele>586</ele>
        <time>2013-05-25T16:47:35.000Z</time>
      </trkpt>
      <trkpt lat="45.84994" lon="6.2159">
        <ele>586</ele>
        <time>2013-05-25T16:47:36.000Z</time>
      </trkpt>
      <trkpt lat="45.84997" lon="6.21589">
        <ele>585</ele>
        <time>2013-05-25T16:47:37.000Z</time>
      </trkpt>
      <trkpt lat="45.84999" lon="6.21588">
        <ele>585</ele>
        <time>2013-05-25T16:47:38.000Z</time>
      </trkpt>
      <trkpt lat="45.85001" lon="6.21587">
        <ele>587</ele>
        <time>2013-05-25T16:47:39.000Z</time>
      </trkpt>
      <trkpt lat="45.85003" lon="6.21586">
        <ele>587</ele>
        <time>2013-05-25T16:47:40.000Z</time>
      </trkpt>
      <trkpt lat="45.85005" lon="6.21584">
        <ele>587</ele>
        <time>2013-05-25T16:47:41.000Z</time>
      </trkpt>
      <trkpt lat="45.85008" lon="6.21583">
        <ele>586</ele>
        <time>2013-05-25T16:47:42.000Z</time>
      </trkpt>
      <trkpt lat="45.8501" lon="6.21582">
        <ele>586</ele>
        <time>2013-05-25T16:47:43.000Z</time>
      </trkpt>
      <trkpt lat="45.85012" lon="6.21581">
        <ele>586</ele>
        <time>2013-05-25T16:47:44.000Z</time>
      </trkpt>
      <trkpt lat="45.85014" lon="6.2158">
        <ele>586</ele>
        <time>2013-05-25T16:47:45.000Z</time>
      </trkpt>
      <trkpt lat="45.85016" lon="6.21579">
        <ele>587</ele>
        <time>2013-05-25T16:47:46.000Z</time>
      </trkpt>
      <trkpt lat="45.85018" lon="6.21578">
        <ele>587</ele>
        <time>2013-05-25T16:47:47.000Z</time>
      </trkpt>
      <trkpt lat="45.85021" lon="6.21577">
        <ele>587</ele>
        <time>2013-05-25T16:47:48.000Z</time>
      </trkpt>
      <trkpt lat="45.85023" lon="6.21576">
        <ele>587</ele>
        <time>2013-05-25T16:47:49.000Z</time>
      </trkpt>
      <trkpt lat="45.85025" lon="6.21575">
        <ele>587</ele>
        <time>2013-05-25T16:47:50.000Z</time>
      </trkpt>
      <trkpt lat="45.85028" lon="6.21573">
        <ele>588</ele>
        <time>2013-05-25T16:47:51.000Z</time>
      </trkpt>
      <trkpt lat="45.8503" lon="6.21572">
        <ele>588</ele>
        <time>2013-05-25T16:47:52.000Z</time>
      </trkpt>
      <trkpt lat="45.85032" lon="6.21571">
        <ele>588</ele>
        <time>2013-05-25T16:47:53.000Z</time>
      </trkpt>
      <trkpt lat="45.85035" lon="6.21571">
        <ele>588</ele>
        <time>2013-05-25T16:47:54.000Z</time>
      </trkpt>
      <trkpt lat="45.85037" lon="6.2157">
        <ele>588</ele>
        <time>2013-05-25T16:47:55.000Z</time>
      </trkpt>
      <trkpt lat="45.85039" lon="6.21568">
        <ele>589</ele>
        <time>2013-05-25T16:47:56.000Z</time>
      </trkpt>
      <trkpt lat="45.85041" lon="6.21568">
        <ele>589</ele>
        <time>2013-05-25T16:47:57.000Z</time>
      </trkpt>
      <trkpt lat="45.85044" lon="6.21567">
        <ele>589</ele>
        <time>2013-05-25T16:47:58.000Z</time>
      </trkpt>
      <trkpt lat="45.85046" lon="6.21566">
        <ele>589</ele>
        <time>2013-05-25T16:47:59.000Z</time>
      </trkpt>
      <trkpt lat="45.85048" lon="6.21565">
        <ele>590</ele>
        <time>2013-05-25T16:48:00.000Z</time>
      </trkpt>
      <trkpt lat="45.8505" lon="6.21564">
        <ele>590</ele>
        <time>2013-05-25T16:48:01.000Z</time>
      </trkpt>
      <trkpt lat="45.85052" lon="6.21564">
        <ele>590</ele>
        <time>2013-05-25T16:48:02.000Z</time>
      </trkpt>
      <trkpt lat="45.85054" lon="6.21563">
        <ele>590</ele>
        <time>2013-05-25T16:48:03.000Z</time>
      </trkpt>
      <trkpt lat="45.85056" lon="6.21562">
        <ele>590</ele>
        <time>2013-05-25T16:48:04.000Z</time>
      </trkpt>
      <trkpt lat="45.85059" lon="6.21561">
        <ele>591</ele>
        <time>2013-05-25T16:48:05.000Z</time>
      </trkpt>
      <trkpt lat="45.85061" lon="6.21561">
        <ele>591</ele>
        <time>2013-05-25T16:48:06.000Z</time>
      </trkpt>
      <trkpt lat="45.85063" lon="6.2156">
        <ele>591</ele>
        <time>2013-05-25T16:48:07.000Z</time>
      </trkpt>
      <trkpt lat="45.85065" lon="6.21558">
        <ele>591</ele>
        <time>2013-05-25T16:48:08.000Z</time>
      </trkpt>
      <trkpt lat="45.85067" lon="6.21557">
        <ele>591</ele>
        <time>2013-05-25T16:48:09.000Z</time>
      </trkpt>
      <trkpt lat="45.85069" lon="6.21556">
        <ele>591</ele>
        <time>2013-05-25T16:48:10.000Z</time>
      </trkpt>
      <trkpt lat="45.85071" lon="6.21555">
        <ele>591</ele>
        <time>2013-05-25T16:48:11.000Z</time>
      </trkpt>
      <trkpt lat="45.85073" lon="6.21554">
        <ele>591</ele>
        <time>2013-05-25T16:48:12.000Z</time>
      </trkpt>
      <trkpt lat="45.85075" lon="6.21553">
        <ele>591</ele>
        <time>2013-05-25T16:48:13.000Z</time>
      </trkpt>
      <trkpt lat="45.85077" lon="6.21552">
        <ele>591</ele>
        <time>2013-05-25T16:48:14.000Z</time>
      </trkpt>
      <trkpt lat="45.85079" lon="6.21551">
        <ele>591</ele>
        <time>2013-05-25T16:48:15.000Z</time>
      </trkpt>
      <trkpt lat="45.85081" lon="6.2155">
        <ele>591</ele>
        <time>2013-05-25T16:48:16.000Z</time>
      </trkpt>
      <trkpt lat="45.85083" lon="6.21548">
        <ele>591</ele>
        <time>2013-05-25T16:48:17.000Z</time>
      </trkpt>
      <trkpt lat="45.85085" lon="6.21547">
        <ele>599</ele>
        <time>2013-05-25T16:48:18.000Z</time>
      </trkpt>
      <trkpt lat="45.85087" lon="6.21545">
        <ele>599</ele>
        <time>2013-05-25T16:48:19.000Z</time>
      </trkpt>
      <trkpt lat="45.85089" lon="6.21544">
        <ele>599</ele>
        <time>2013-05-25T16:48:20.000Z</time>
      </trkpt>
      <trkpt lat="45.85091" lon="6.21543">
        <ele>599</ele>
        <time>2013-05-25T16:48:21.000Z</time>
      </trkpt>
      <trkpt lat="45.85093" lon="6.21541">
        <ele>599</ele>
        <time>2013-05-25T16:48:22.000Z</time>
      </trkpt>
      <trkpt lat="45.85095" lon="6.2154">
        <ele>599</ele>
        <time>2013-05-25T16:48:23.000Z</time>
      </trkpt>
      <trkpt lat="45.85097" lon="6.21538">
        <ele>599</ele>
        <time>2013-05-25T16:48:24.000Z</time>
      </trkpt>
      <trkpt lat="45.85099" lon="6.21537">
        <ele>599</ele>
        <time>2013-05-25T16:48:25.000Z</time>
      </trkpt>
      <trkpt lat="45.85101" lon="6.21536">
        <ele>599</ele>
        <time>2013-05-25T16:48:26.000Z</time>
      </trkpt>
      <trkpt lat="45.85103" lon="6.21535">
        <ele>599</ele>
        <time>2013-05-25T16:48:27.000Z</time>
      </trkpt>
      <trkpt lat="45.85105" lon="6.21534">
        <ele>599</ele>
        <time>2013-05-25T16:48:28.000Z</time>
      </trkpt>
      <trkpt lat="45.85107" lon="6.21532">
        <ele>599</ele>
        <time>2013-05-25T16:48:29.000Z</time>
      </trkpt>
      <trkpt lat="45.85109" lon="6.21531">
        <ele>599</ele>
        <time>2013-05-25T16:48:30.000Z</time>
      </trkpt>
      <trkpt lat="45.85111" lon="6.21528">
        <ele>599</ele>
        <time>2013-05-25T16:48:31.000Z</time>
      </trkpt>
      <trkpt lat="45.85113" lon="6.21527">
        <ele>599</ele>
        <time>2013-05-25T16:48:32.000Z</time>
      </trkpt>
      <trkpt lat="45.85115" lon="6.21526">
        <ele>599</ele>
        <time>2013-05-25T16:48:33.000Z</time>
      </trkpt>
      <trkpt lat="45.85117" lon="6.21524">
        <ele>599</ele>
        <time>2013-05-25T16:48:34.000Z</time>
      </trkpt>
      <trkpt lat="45.85119" lon="6.21523">
        <ele>599</ele>
        <time>2013-05-25T16:48:35.000Z</time>
      </trkpt>
      <trkpt lat="45.85121" lon="6.21521">
        <ele>600</ele>
        <time>2013-05-25T16:48:36.000Z</time>
      </trkpt>
      <trkpt lat="45.85123" lon="6.21518">
        <ele>600</ele>
        <time>2013-05-25T16:48:37.000Z</time>
      </trkpt>
      <trkpt lat="45.85124" lon="6.21516">
        <ele>600</ele>
        <time>2013-05-25T16:48:38.000Z</time>
      </trkpt>
      <trkpt lat="45.85126" lon="6.21514">
        <ele>600</ele>
        <time>2013-05-25T16:48:39.000Z</time>
      </trkpt>
      <trkpt lat="45.85128" lon="6.21512">
        <ele>600</ele>
        <time>2013-05-25T16:48:40.000Z</time>
      </trkpt>
      <trkpt lat="45.8513" lon="6.2151">
        <ele>600</ele>
        <time>2013-05-25T16:48:41.000Z</time>
      </trkpt>
      <trkpt lat="45.85132" lon="6.21508">
        <ele>600</ele>
        <time>2013-05-25T16:48:42.000Z</time>
      </trkpt>
      <trkpt lat="45.85134" lon="6.21507">
        <ele>600</ele>
        <time>2013-05-25T16:48:43.000Z</time>
      </trkpt>
      <trkpt lat="45.85136" lon="6.21505">
        <ele>600</ele>
        <time>2013-05-25T16:48:44.000Z</time>
      </trkpt>
      <trkpt lat="45.85138" lon="6.21503">
        <ele>600</ele>
        <time>2013-05-25T16:48:45.000Z</time>
      </trkpt>
      <trkpt lat="45.8514" lon="6.21502">
        <ele>601</ele>
        <time>2013-05-25T16:48:46.000Z</time>
      </trkpt>
      <trkpt lat="45.85142" lon="6.215">
        <ele>596</ele>
        <time>2013-05-25T16:48:47.000Z</time>
      </trkpt>
      <trkpt lat="45.85144" lon="6.21498">
        <ele>596</ele>
        <time>2013-05-25T16:48:48.000Z</time>
      </trkpt>
      <trkpt lat="45.85146" lon="6.21495">
        <ele>596</ele>
        <time>2013-05-25T16:48:49.000Z</time>
      </trkpt>
      <trkpt lat="45.85148" lon="6.21493">
        <ele>596</ele>
        <time>2013-05-25T16:48:50.000Z</time>
      </trkpt>
      <trkpt lat="45.8515" lon="6.21491">
        <ele>597</ele>
        <time>2013-05-25T16:48:51.000Z</time>
      </trkpt>
      <trkpt lat="45.85152" lon="6.21489">
        <ele>597</ele>
        <time>2013-05-25T16:48:52.000Z</time>
      </trkpt>
      <trkpt lat="45.85154" lon="6.21487">
        <ele>597</ele>
        <time>2013-05-25T16:48:53.000Z</time>
      </trkpt>
      <trkpt lat="45.85156" lon="6.21485">
        <ele>597</ele>
        <time>2013-05-25T16:48:54.000Z</time>
      </trkpt>
      <trkpt lat="45.85158" lon="6.21484">
        <ele>597</ele>
        <time>2013-05-25T16:48:55.000Z</time>
      </trkpt>
      <trkpt lat="45.8516" lon="6.21482">
        <ele>597</ele>
        <time>2013-05-25T16:48:56.000Z</time>
      </trkpt>
      <trkpt lat="45.85162" lon="6.2148">
        <ele>597</ele>
        <time>2013-05-25T16:48:57.000Z</time>
      </trkpt>
      <trkpt lat="45.85164" lon="6.21478">
        <ele>596</ele>
        <time>2013-05-25T16:48:58.000Z</time>
      </trkpt>
      <trkpt lat="45.85166" lon="6.21477">
        <ele>596</ele>
        <time>2013-05-25T16:48:59.000Z</time>
      </trkpt>
      <trkpt lat="45.85168" lon="6.21475">
        <ele>604</ele>
        <time>2013-05-25T16:49:00.000Z</time>
      </trkpt>
      <trkpt lat="45.8517" lon="6.21473">
        <ele>604</ele>
        <time>2013-05-25T16:49:01.000Z</time>
      </trkpt>
      <trkpt lat="45.85172" lon="6.21471">
        <ele>604</ele>
        <time>2013-05-25T16:49:02.000Z</time>
      </trkpt>
      <trkpt lat="45.85174" lon="6.21469">
        <ele>604</ele>
        <time>2013-05-25T16:49:03.000Z</time>
      </trkpt>
      <trkpt lat="45.85176" lon="6.21467">
        <ele>604</ele>
        <time>2013-05-25T16:49:04.000Z</time>
      </trkpt>
      <trkpt lat="45.85178" lon="6.21465">
        <ele>604</ele>
        <time>2013-05-25T16:49:05.000Z</time>
      </trkpt>
      <trkpt lat="45.8518" lon="6.21463">
        <ele>604</ele>
        <time>2013-05-25T16:49:06.000Z</time>
      </trkpt>
      <trkpt lat="45.85182" lon="6.21462">
        <ele>604</ele>
        <time>2013-05-25T16:49:07.000Z</time>
      </trkpt>
      <trkpt lat="45.85184" lon="6.21461">
        <ele>605</ele>
        <time>2013-05-25T16:49:08.000Z</time>
      </trkpt>
      <trkpt lat="45.85187" lon="6.2146">
        <ele>605</ele>
        <time>2013-05-25T16:49:09.000Z</time>
      </trkpt>
      <trkpt lat="45.85189" lon="6.21459">
        <ele>605</ele>
        <time>2013-05-25T16:49:10.000Z</time>
      </trkpt>
      <trkpt lat="45.85192" lon="6.21458">
        <ele>605</ele>
        <time>2013-05-25T16:49:11.000Z</time>
      </trkpt>
      <trkpt lat="45.85194" lon="6.21457">
        <ele>605</ele>
        <time>2013-05-25T16:49:12.000Z</time>
      </trkpt>
      <trkpt lat="45.85196" lon="6.21456">
        <ele>605</ele>
        <time>2013-05-25T16:49:13.000Z</time>
      </trkpt>
      <trkpt lat="45.85198" lon="6.21455">
        <ele>606</ele>
        <time>2013-05-25T16:49:14.000Z</time>
      </trkpt>
      <trkpt lat="45.852" lon="6.21455">
        <ele>606</ele>
        <time>2013-05-25T16:49:15.000Z</time>
      </trkpt>
      <trkpt lat="45.85203" lon="6.21455">
        <ele>606</ele>
        <time>2013-05-25T16:49:16.000Z</time>
      </trkpt>
      <trkpt lat="45.85205" lon="6.21454">
        <ele>606</ele>
        <time>2013-05-25T16:49:17.000Z</time>
      </trkpt>
      <trkpt lat="45.85207" lon="6.21454">
        <ele>607</ele>
        <time>2013-05-25T16:49:18.000Z</time>
      </trkpt>
      <trkpt lat="45.85209" lon="6.21454">
        <ele>607</ele>
        <time>2013-05-25T16:49:19.000Z</time>
      </trkpt>
      <trkpt lat="45.85212" lon="6.21454">
        <ele>607</ele>
        <time>2013-05-25T16:49:20.000Z</time>
      </trkpt>
      <trkpt lat="45.85214" lon="6.21455">
        <ele>607</ele>
        <time>2013-05-25T16:49:21.000Z</time>
      </trkpt>
      <trkpt lat="45.85216" lon="6.21456">
        <ele>608</ele>
        <time>2013-05-25T16:49:22.000Z</time>
      </trkpt>
      <trkpt lat="45.85218" lon="6.21457">
        <ele>608</ele>
        <time>2013-05-25T16:49:23.000Z</time>
      </trkpt>
      <trkpt lat="45.8522" lon="6.21459">
        <ele>608</ele>
        <time>2013-05-25T16:49:24.000Z</time>
      </trkpt>
      <trkpt lat="45.85221" lon="6.21461">
        <ele>609</ele>
        <time>2013-05-25T16:49:25.000Z</time>
      </trkpt>
      <trkpt lat="45.85222" lon="6.21463">
        <ele>609</ele>
        <time>2013-05-25T16:49:26.000Z</time>
      </trkpt>
      <trkpt lat="45.85224" lon="6.21466">
        <ele>609</ele>
        <time>2013-05-25T16:49:27.000Z</time>
      </trkpt>
      <trkpt lat="45.85225" lon="6.21468">
        <ele>609</ele>
        <time>2013-05-25T16:49:28.000Z</time>
      </trkpt>
      <trkpt lat="45.85226" lon="6.21471">
        <ele>610</ele>
        <time>2013-05-25T16:49:29.000Z</time>
      </trkpt>
      <trkpt lat="45.85226" lon="6.21475">
        <ele>610</ele>
        <time>2013-05-25T16:49:30.000Z</time>
      </trkpt>
      <trkpt lat="45.85227" lon="6.21478">
        <ele>610</ele>
        <time>2013-05-25T16:49:31.000Z</time>
      </trkpt>
      <trkpt lat="45.85227" lon="6.21481">
        <ele>611</ele>
        <time>2013-05-25T16:49:32.000Z</time>
      </trkpt>
      <trkpt lat="45.85227" lon="6.21484">
        <ele>611</ele>
        <time>2013-05-25T16:49:33.000Z</time>
      </trkpt>
      <trkpt lat="45.85227" lon="6.21487">
        <ele>611</ele>
        <time>2013-05-25T16:49:34.000Z</time>
      </trkpt>
      <trkpt lat="45.85227" lon="6.2149">
        <ele>611</ele>
        <time>2013-05-25T16:49:35.000Z</time>
      </trkpt>
      <trkpt lat="45.85226" lon="6.21493">
        <ele>611</ele>
        <time>2013-05-25T16:49:36.000Z</time>
      </trkpt>
      <trkpt lat="45.85226" lon="6.21496">
        <ele>611</ele>
        <time>2013-05-25T16:49:37.000Z</time>
      </trkpt>
      <trkpt lat="45.85224" lon="6.21499">
        <ele>611</ele>
        <time>2013-05-25T16:49:38.000Z</time>
      </trkpt>
      <trkpt lat="45.85223" lon="6.21502">
        <ele>616</ele>
        <time>2013-05-25T16:49:39.000Z</time>
      </trkpt>
      <trkpt lat="45.85222" lon="6.21505">
        <ele>616</ele>
        <time>2013-05-25T16:49:40.000Z</time>
      </trkpt>
      <trkpt lat="45.85221" lon="6.21508">
        <ele>616</ele>
        <time>2013-05-25T16:49:41.000Z</time>
      </trkpt>
      <trkpt lat="45.85219" lon="6.21511">
        <ele>616</ele>
        <time>2013-05-25T16:49:42.000Z</time>
      </trkpt>
      <trkpt lat="45.85218" lon="6.21513">
        <ele>616</ele>
        <time>2013-05-25T16:49:43.000Z</time>
      </trkpt>
      <trkpt lat="45.85217" lon="6.21515">
        <ele>616</ele>
        <time>2013-05-25T16:49:44.000Z</time>
      </trkpt>
      <trkpt lat="45.85216" lon="6.21518">
        <ele>615</ele>
        <time>2013-05-25T16:49:45.000Z</time>
      </trkpt>
      <trkpt lat="45.85215" lon="6.2152">
        <ele>615</ele>
        <time>2013-05-25T16:49:46.000Z</time>
      </trkpt>
      <trkpt lat="45.85213" lon="6.21523">
        <ele>615</ele>
        <time>2013-05-25T16:49:47.000Z</time>
      </trkpt>
      <trkpt lat="45.85212" lon="6.21526">
        <ele>615</ele>
        <time>2013-05-25T16:49:48.000Z</time>
      </trkpt>
      <trkpt lat="45.8521" lon="6.21528">
        <ele>615</ele>
        <time>2013-05-25T16:49:49.000Z</time>
      </trkpt>
      <trkpt lat="45.85208" lon="6.2153">
        <ele>615</ele>
        <time>2013-05-25T16:49:50.000Z</time>
      </trkpt>
      <trkpt lat="45.85206" lon="6.21532">
        <ele>615</ele>
        <time>2013-05-25T16:49:51.000Z</time>
      </trkpt>
      <trkpt lat="45.85205" lon="6.21535">
        <ele>615</ele>
        <time>2013-05-25T16:49:52.000Z</time>
      </trkpt>
      <trkpt lat="45.85203" lon="6.21537">
        <ele>615</ele>
        <time>2013-05-25T16:49:53.000Z</time>
      </trkpt>
      <trkpt lat="45.85202" lon="6.21539">
        <ele>615</ele>
        <time>2013-05-25T16:49:54.000Z</time>
      </trkpt>
      <trkpt lat="45.85201" lon="6.21542">
        <ele>615</ele>
        <time>2013-05-25T16:49:55.000Z</time>
      </trkpt>
      <trkpt lat="45.852" lon="6.21545">
        <ele>615</ele>
        <time>2013-05-25T16:49:56.000Z</time>
      </trkpt>
      <trkpt lat="45.85199" lon="6.21547">
        <ele>615</ele>
        <time>2013-05-25T16:49:57.000Z</time>
      </trkpt>
      <trkpt lat="45.85197" lon="6.2155">
        <ele>615</ele>
        <time>2013-05-25T16:49:58.000Z</time>
      </trkpt>
      <trkpt lat="45.85195" lon="6.21552">
        <ele>615</ele>
        <time>2013-05-25T16:49:59.000Z</time>
      </trkpt>
      <trkpt lat="45.85193" lon="6.21554">
        <ele>615</ele>
        <time>2013-05-25T16:50:00.000Z</time>
      </trkpt>
      <trkpt lat="45.85192" lon="6.21557">
        <ele>615</ele>
        <time>2013-05-25T16:50:01.000Z</time>
      </trkpt>
      <trkpt lat="45.8519" lon="6.21559">
        <ele>615</ele>
        <time>2013-05-25T16:50:02.000Z</time>
      </trkpt>
      <trkpt lat="45.85189" lon="6.21562">
        <ele>615</ele>
        <time>2013-05-25T16:50:03.000Z</time>
      </trkpt>
      <trkpt lat="45.85187" lon="6.21564">
        <ele>615</ele>
        <time>2013-05-25T16:50:04.000Z</time>
      </trkpt>
      <trkpt lat="45.85185" lon="6.21567">
        <ele>615</ele>
        <time>2013-05-25T16:50:05.000Z</time>
      </trkpt>
      <trkpt lat="45.85184" lon="6.21569">
        <ele>615</ele>
        <time>2013-05-25T16:50:06.000Z</time>
      </trkpt>
      <trkpt lat="45.85182" lon="6.21572">
        <ele>614</ele>
        <time>2013-05-25T16:50:07.000Z</time>
      </trkpt>
      <trkpt lat="45.85181" lon="6.21574">
        <ele>614</ele>
        <time>2013-05-25T16:50:08.000Z</time>
      </trkpt>
      <trkpt lat="45.85181" lon="6.21577">
        <ele>614</ele>
        <time>2013-05-25T16:50:09.000Z</time>
      </trkpt>
      <trkpt lat="45.85179" lon="6.21579">
        <ele>614</ele>
        <time>2013-05-25T16:50:10.000Z</time>
      </trkpt>
      <trkpt lat="45.85178" lon="6.21582">
        <ele>614</ele>
        <time>2013-05-25T16:50:11.000Z</time>
      </trkpt>
      <trkpt lat="45.85177" lon="6.21584">
        <ele>617</ele>
        <time>2013-05-25T16:50:12.000Z</time>
      </trkpt>
      <trkpt lat="45.85176" lon="6.21586">
        <ele>617</ele>
        <time>2013-05-25T16:50:13.000Z</time>
      </trkpt>
      <trkpt lat="45.85174" lon="6.21589">
        <ele>617</ele>
        <time>2013-05-25T16:50:14.000Z</time>
      </trkpt>
      <trkpt lat="45.85173" lon="6.21591">
        <ele>617</ele>
        <time>2013-05-25T16:50:15.000Z</time>
      </trkpt>
      <trkpt lat="45.8517" lon="6.21593">
        <ele>618</ele>
        <time>2013-05-25T16:50:16.000Z</time>
      </trkpt>
      <trkpt lat="45.85168" lon="6.21596">
        <ele>618</ele>
        <time>2013-05-25T16:50:17.000Z</time>
      </trkpt>
      <trkpt lat="45.85167" lon="6.21598">
        <ele>619</ele>
        <time>2013-05-25T16:50:18.000Z</time>
      </trkpt>
      <trkpt lat="45.85165" lon="6.21601">
        <ele>612</ele>
        <time>2013-05-25T16:50:19.000Z</time>
      </trkpt>
      <trkpt lat="45.85163" lon="6.21603">
        <ele>612</ele>
        <time>2013-05-25T16:50:20.000Z</time>
      </trkpt>
      <trkpt lat="45.85162" lon="6.21606">
        <ele>612</ele>
        <time>2013-05-25T16:50:21.000Z</time>
      </trkpt>
      <trkpt lat="45.85162" lon="6.21608">
        <ele>612</ele>
        <time>2013-05-25T16:50:22.000Z</time>
      </trkpt>
      <trkpt lat="45.85162" lon="6.2161">
        <ele>612</ele>
        <time>2013-05-25T16:50:23.000Z</time>
      </trkpt>
      <trkpt lat="45.85164" lon="6.21611">
        <ele>613</ele>
        <time>2013-05-25T16:50:24.000Z</time>
      </trkpt>
      <trkpt lat="45.85167" lon="6.2161">
        <ele>613</ele>
        <time>2013-05-25T16:50:25.000Z</time>
      </trkpt>
      <trkpt lat="45.85169" lon="6.21609">
        <ele>622</ele>
        <time>2013-05-25T16:50:26.000Z</time>
      </trkpt>
      <trkpt lat="45.85171" lon="6.21608">
        <ele>622</ele>
        <time>2013-05-25T16:50:27.000Z</time>
      </trkpt>
      <trkpt lat="45.85173" lon="6.21607">
        <ele>622</ele>
        <time>2013-05-25T16:50:28.000Z</time>
      </trkpt>
      <trkpt lat="45.85175" lon="6.21605">
        <ele>622</ele>
        <time>2013-05-25T16:50:29.000Z</time>
      </trkpt>
      <trkpt lat="45.85177" lon="6.21604">
        <ele>622</ele>
        <time>2013-05-25T16:50:30.000Z</time>
      </trkpt>
      <trkpt lat="45.85178" lon="6.21602">
        <ele>621</ele>
        <time>2013-05-25T16:50:31.000Z</time>
      </trkpt>
      <trkpt lat="45.8518" lon="6.216">
        <ele>621</ele>
        <time>2013-05-25T16:50:32.000Z</time>
      </trkpt>
      <trkpt lat="45.85182" lon="6.21598">
        <ele>621</ele>
        <time>2013-05-25T16:50:33.000Z</time>
      </trkpt>
      <trkpt lat="45.85183" lon="6.21596">
        <ele>621</ele>
        <time>2013-05-25T16:50:34.000Z</time>
      </trkpt>
      <trkpt lat="45.85185" lon="6.21594">
        <ele>621</ele>
        <time>2013-05-25T16:50:35.000Z</time>
      </trkpt>
      <trkpt lat="45.85187" lon="6.21592">
        <ele>621</ele>
        <time>2013-05-25T16:50:36.000Z</time>
      </trkpt>
      <trkpt lat="45.85188" lon="6.2159">
        <ele>622</ele>
        <time>2013-05-25T16:50:37.000Z</time>
      </trkpt>
      <trkpt lat="45.85189" lon="6.21588">
        <ele>622</ele>
        <time>2013-05-25T16:50:38.000Z</time>
      </trkpt>
      <trkpt lat="45.85191" lon="6.21585">
        <ele>622</ele>
        <time>2013-05-25T16:50:39.000Z</time>
      </trkpt>
      <trkpt lat="45.85193" lon="6.21583">
        <ele>616</ele>
        <time>2013-05-25T16:50:40.000Z</time>
      </trkpt>
      <trkpt lat="45.85195" lon="6.2158">
        <ele>616</ele>
        <time>2013-05-25T16:50:41.000Z</time>
      </trkpt>
      <trkpt lat="45.85196" lon="6.21578">
        <ele>616</ele>
        <time>2013-05-25T16:50:42.000Z</time>
      </trkpt>
      <trkpt lat="45.85198" lon="6.21575">
        <ele>616</ele>
        <time>2013-05-25T16:50:43.000Z</time>
      </trkpt>
      <trkpt lat="45.85199" lon="6.21572">
        <ele>616</ele>
        <time>2013-05-25T16:50:44.000Z</time>
      </trkpt>
      <trkpt lat="45.85201" lon="6.2157">
        <ele>617</ele>
        <time>2013-05-25T16:50:45.000Z</time>
      </trkpt>
      <trkpt lat="45.85202" lon="6.21569">
        <ele>617</ele>
        <time>2013-05-25T16:50:46.000Z</time>
      </trkpt>
      <trkpt lat="45.85204" lon="6.21567">
        <ele>617</ele>
        <time>2013-05-25T16:50:47.000Z</time>
      </trkpt>
      <trkpt lat="45.85206" lon="6.21565">
        <ele>617</ele>
        <time>2013-05-25T16:50:48.000Z</time>
      </trkpt>
      <trkpt lat="45.85207" lon="6.21562">
        <ele>617</ele>
        <time>2013-05-25T16:50:49.000Z</time>
      </trkpt>
      <trkpt lat="45.85209" lon="6.2156">
        <ele>617</ele>
        <time>2013-05-25T16:50:50.000Z</time>
      </trkpt>
      <trkpt lat="45.85211" lon="6.21558">
        <ele>617</ele>
        <time>2013-05-25T16:50:51.000Z</time>
      </trkpt>
      <trkpt lat="45.85212" lon="6.21556">
        <ele>617</ele>
        <time>2013-05-25T16:50:52.000Z</time>
      </trkpt>
      <trkpt lat="45.85214" lon="6.21554">
        <ele>617</ele>
        <time>2013-05-25T16:50:53.000Z</time>
      </trkpt>
      <trkpt lat="45.85215" lon="6.21553">
        <ele>618</ele>
        <time>2013-05-25T16:50:54.000Z</time>
      </trkpt>
      <trkpt lat="45.85217" lon="6.21551">
        <ele>618</ele>
        <time>2013-05-25T16:50:55.000Z</time>
      </trkpt>
      <trkpt lat="45.85218" lon="6.2155">
        <ele>618</ele>
        <time>2013-05-25T16:50:56.000Z</time>
      </trkpt>
      <trkpt lat="45.8522" lon="6.21547">
        <ele>618</ele>
        <time>2013-05-25T16:50:57.000Z</time>
      </trkpt>
      <trkpt lat="45.85222" lon="6.21546">
        <ele>618</ele>
        <time>2013-05-25T16:50:58.000Z</time>
      </trkpt>
      <trkpt lat="45.85223" lon="6.21544">
        <ele>618</ele>
        <time>2013-05-25T16:50:59.000Z</time>
      </trkpt>
      <trkpt lat="45.85225" lon="6.21542">
        <ele>618</ele>
        <time>2013-05-25T16:51:00.000Z</time>
      </trkpt>
      <trkpt lat="45.85226" lon="6.21541">
        <ele>618</ele>
        <time>2013-05-25T16:51:01.000Z</time>
      </trkpt>
      <trkpt lat="45.85228" lon="6.21539">
        <ele>618</ele>
        <time>2013-05-25T16:51:02.000Z</time>
      </trkpt>
      <trkpt lat="45.8523" lon="6.21538">
        <ele>618</ele>
        <time>2013-05-25T16:51:03.000Z</time>
      </trkpt>
      <trkpt lat="45.85231" lon="6.21536">
        <ele>618</ele>
        <time>2013-05-25T16:51:04.000Z</time>
      </trkpt>
      <trkpt lat="45.85233" lon="6.21535">
        <ele>618</ele>
        <time>2013-05-25T16:51:05.000Z</time>
      </trkpt>
      <trkpt lat="45.85235" lon="6.21533">
        <ele>618</ele>
        <time>2013-05-25T16:51:06.000Z</time>
      </trkpt>
      <trkpt lat="45.85237" lon="6.21531">
        <ele>618</ele>
        <time>2013-05-25T16:51:07.000Z</time>
      </trkpt>
      <trkpt lat="45.85239" lon="6.2153">
        <ele>618</ele>
        <time>2013-05-25T16:51:08.000Z</time>
      </trkpt>
      <trkpt lat="45.85241" lon="6.21529">
        <ele>618</ele>
        <time>2013-05-25T16:51:09.000Z</time>
      </trkpt>
      <trkpt lat="45.85243" lon="6.21527">
        <ele>618</ele>
        <time>2013-05-25T16:51:10.000Z</time>
      </trkpt>
      <trkpt lat="45.85245" lon="6.21525">
        <ele>618</ele>
        <time>2013-05-25T16:51:11.000Z</time>
      </trkpt>
      <trkpt lat="45.85247" lon="6.21523">
        <ele>618</ele>
        <time>2013-05-25T16:51:12.000Z</time>
      </trkpt>
      <trkpt lat="45.85249" lon="6.21521">
        <ele>618</ele>
        <time>2013-05-25T16:51:13.000Z</time>
      </trkpt>
      <trkpt lat="45.85251" lon="6.2152">
        <ele>627</ele>
        <time>2013-05-25T16:51:14.000Z</time>
      </trkpt>
      <trkpt lat="45.85252" lon="6.21519">
        <ele>626</ele>
        <time>2013-05-25T16:51:15.000Z</time>
      </trkpt>
      <trkpt lat="45.85254" lon="6.21516">
        <ele>626</ele>
        <time>2013-05-25T16:51:16.000Z</time>
      </trkpt>
      <trkpt lat="45.85256" lon="6.21515">
        <ele>626</ele>
        <time>2013-05-25T16:51:17.000Z</time>
      </trkpt>
      <trkpt lat="45.85258" lon="6.21514">
        <ele>626</ele>
        <time>2013-05-25T16:51:18.000Z</time>
      </trkpt>
      <trkpt lat="45.85259" lon="6.21513">
        <ele>626</ele>
        <time>2013-05-25T16:51:19.000Z</time>
      </trkpt>
      <trkpt lat="45.85261" lon="6.21511">
        <ele>626</ele>
        <time>2013-05-25T16:51:20.000Z</time>
      </trkpt>
      <trkpt lat="45.85262" lon="6.2151">
        <ele>626</ele>
        <time>2013-05-25T16:51:21.000Z</time>
      </trkpt>
      <trkpt lat="45.85264" lon="6.21509">
        <ele>626</ele>
        <time>2013-05-25T16:51:22.000Z</time>
      </trkpt>
      <trkpt lat="45.85266" lon="6.21508">
        <ele>626</ele>
        <time>2013-05-25T16:51:23.000Z</time>
      </trkpt>
      <trkpt lat="45.85268" lon="6.21507">
        <ele>627</ele>
        <time>2013-05-25T16:51:24.000Z</time>
      </trkpt>
      <trkpt lat="45.85269" lon="6.21507">
        <ele>627</ele>
        <time>2013-05-25T16:51:25.000Z</time>
      </trkpt>
      <trkpt lat="45.85271" lon="6.21506">
        <ele>627</ele>
        <time>2013-05-25T16:51:26.000Z</time>
      </trkpt>
      <trkpt lat="45.85272" lon="6.21505">
        <ele>627</ele>
        <time>2013-05-25T16:51:27.000Z</time>
      </trkpt>
      <trkpt lat="45.85274" lon="6.21504">
        <ele>628</ele>
        <time>2013-05-25T16:51:28.000Z</time>
      </trkpt>
      <trkpt lat="45.85275" lon="6.21503">
        <ele>628</ele>
        <time>2013-05-25T16:51:29.000Z</time>
      </trkpt>
      <trkpt lat="45.85277" lon="6.21502">
        <ele>628</ele>
        <time>2013-05-25T16:51:30.000Z</time>
      </trkpt>
      <trkpt lat="45.85279" lon="6.21502">
        <ele>629</ele>
        <time>2013-05-25T16:51:31.000Z</time>
      </trkpt>
      <trkpt lat="45.85281" lon="6.21501">
        <ele>629</ele>
        <time>2013-05-25T16:51:32.000Z</time>
      </trkpt>
      <trkpt lat="45.85283" lon="6.215">
        <ele>625</ele>
        <time>2013-05-25T16:51:33.000Z</time>
      </trkpt>
      <trkpt lat="45.85286" lon="6.215">
        <ele>625</ele>
        <time>2013-05-25T16:51:34.000Z</time>
      </trkpt>
      <trkpt lat="45.85288" lon="6.21498">
        <ele>625</ele>
        <time>2013-05-25T16:51:35.000Z</time>
      </trkpt>
      <trkpt lat="45.8529" lon="6.21498">
        <ele>625</ele>
        <time>2013-05-25T16:51:36.000Z</time>
      </trkpt>
      <trkpt lat="45.85292" lon="6.21498">
        <ele>626</ele>
        <time>2013-05-25T16:51:37.000Z</time>
      </trkpt>
      <trkpt lat="45.85294" lon="6.21497">
        <ele>626</ele>
        <time>2013-05-25T16:51:38.000Z</time>
      </trkpt>
      <trkpt lat="45.85296" lon="6.21496">
        <ele>626</ele>
        <time>2013-05-25T16:51:39.000Z</time>
      </trkpt>
      <trkpt lat="45.85298" lon="6.21496">
        <ele>627</ele>
        <time>2013-05-25T16:51:40.000Z</time>
      </trkpt>
      <trkpt lat="45.853" lon="6.21496">
        <ele>627</ele>
        <time>2013-05-25T16:51:41.000Z</time>
      </trkpt>
      <trkpt lat="45.85302" lon="6.21495">
        <ele>627</ele>
        <time>2013-05-25T16:51:42.000Z</time>
      </trkpt>
      <trkpt lat="45.85304" lon="6.21495">
        <ele>628</ele>
        <time>2013-05-25T16:51:43.000Z</time>
      </trkpt>
      <trkpt lat="45.85306" lon="6.21494">
        <ele>628</ele>
        <time>2013-05-25T16:51:44.000Z</time>
      </trkpt>
      <trkpt lat="45.85308" lon="6.21493">
        <ele>628</ele>
        <time>2013-05-25T16:51:45.000Z</time>
      </trkpt>
      <trkpt lat="45.8531" lon="6.21493">
        <ele>628</ele>
        <time>2013-05-25T16:51:46.000Z</time>
      </trkpt>
      <trkpt lat="45.85312" lon="6.21492">
        <ele>629</ele>
        <time>2013-05-25T16:51:47.000Z</time>
      </trkpt>
      <trkpt lat="45.85314" lon="6.21492">
        <ele>629</ele>
        <time>2013-05-25T16:51:48.000Z</time>
      </trkpt>
      <trkpt lat="45.85317" lon="6.21491">
        <ele>630</ele>
        <time>2013-05-25T16:51:49.000Z</time>
      </trkpt>
      <trkpt lat="45.85319" lon="6.2149">
        <ele>630</ele>
        <time>2013-05-25T16:51:50.000Z</time>
      </trkpt>
      <trkpt lat="45.85321" lon="6.21489">
        <ele>630</ele>
        <time>2013-05-25T16:51:51.000Z</time>
      </trkpt>
      <trkpt lat="45.85323" lon="6.21489">
        <ele>630</ele>
        <time>2013-05-25T16:51:52.000Z</time>
      </trkpt>
      <trkpt lat="45.85325" lon="6.21488">
        <ele>631</ele>
        <time>2013-05-25T16:51:53.000Z</time>
      </trkpt>
      <trkpt lat="45.85327" lon="6.21487">
        <ele>631</ele>
        <time>2013-05-25T16:51:54.000Z</time>
      </trkpt>
      <trkpt lat="45.85328" lon="6.21486">
        <ele>631</ele>
        <time>2013-05-25T16:51:55.000Z</time>
      </trkpt>
      <trkpt lat="45.85331" lon="6.21484">
        <ele>631</ele>
        <time>2013-05-25T16:51:56.000Z</time>
      </trkpt>
      <trkpt lat="45.85333" lon="6.21483">
        <ele>630</ele>
        <time>2013-05-25T16:51:57.000Z</time>
      </trkpt>
      <trkpt lat="45.85334" lon="6.21482">
        <ele>639</ele>
        <time>2013-05-25T16:51:58.000Z</time>
      </trkpt>
      <trkpt lat="45.85336" lon="6.2148">
        <ele>639</ele>
        <time>2013-05-25T16:51:59.000Z</time>
      </trkpt>
      <trkpt lat="45.85338" lon="6.21478">
        <ele>639</ele>
        <time>2013-05-25T16:52:00.000Z</time>
      </trkpt>
      <trkpt lat="45.8534" lon="6.21477">
        <ele>640</ele>
        <time>2013-05-25T16:52:01.000Z</time>
      </trkpt>
      <trkpt lat="45.85341" lon="6.21475">
        <ele>640</ele>
        <time>2013-05-25T16:52:02.000Z</time>
      </trkpt>
      <trkpt lat="45.85343" lon="6.21473">
        <ele>640</ele>
        <time>2013-05-25T16:52:03.000Z</time>
      </trkpt>
      <trkpt lat="45.85344" lon="6.2147">
        <ele>640</ele>
        <time>2013-05-25T16:52:04.000Z</time>
      </trkpt>
      <trkpt lat="45.85346" lon="6.21468">
        <ele>640</ele>
        <time>2013-05-25T16:52:05.000Z</time>
      </trkpt>
      <trkpt lat="45.85346" lon="6.21465">
        <ele>641</ele>
        <time>2013-05-25T16:52:06.000Z</time>
      </trkpt>
      <trkpt lat="45.85348" lon="6.21463">
        <ele>641</ele>
        <time>2013-05-25T16:52:07.000Z</time>
      </trkpt>
      <trkpt lat="45.85348" lon="6.2146">
        <ele>641</ele>
        <time>2013-05-25T16:52:08.000Z</time>
      </trkpt>
      <trkpt lat="45.85349" lon="6.21457">
        <ele>641</ele>
        <time>2013-05-25T16:52:09.000Z</time>
      </trkpt>
      <trkpt lat="45.85349" lon="6.21455">
        <ele>641</ele>
        <time>2013-05-25T16:52:10.000Z</time>
      </trkpt>
      <trkpt lat="45.85349" lon="6.21452">
        <ele>640</ele>
        <time>2013-05-25T16:52:11.000Z</time>
      </trkpt>
      <trkpt lat="45.8535" lon="6.21449">
        <ele>640</ele>
        <time>2013-05-25T16:52:12.000Z</time>
      </trkpt>
      <trkpt lat="45.85349" lon="6.21447">
        <ele>640</ele>
        <time>2013-05-25T16:52:13.000Z</time>
      </trkpt>
      <trkpt lat="45.85349" lon="6.21444">
        <ele>640</ele>
        <time>2013-05-25T16:52:14.000Z</time>
      </trkpt>
      <trkpt lat="45.85349" lon="6.2144">
        <ele>640</ele>
        <time>2013-05-25T16:52:15.000Z</time>
      </trkpt>
      <trkpt lat="45.85349" lon="6.21437">
        <ele>639</ele>
        <time>2013-05-25T16:52:16.000Z</time>
      </trkpt>
      <trkpt lat="45.85349" lon="6.21435">
        <ele>639</ele>
        <time>2013-05-25T16:52:17.000Z</time>
      </trkpt>
      <trkpt lat="45.85349" lon="6.21432">
        <ele>639</ele>
        <time>2013-05-25T16:52:18.000Z</time>
      </trkpt>
      <trkpt lat="45.85349" lon="6.21429">
        <ele>638</ele>
        <time>2013-05-25T16:52:19.000Z</time>
      </trkpt>
      <trkpt lat="45.85349" lon="6.21426">
        <ele>638</ele>
        <time>2013-05-25T16:52:20.000Z</time>
      </trkpt>
      <trkpt lat="45.85349" lon="6.21423">
        <ele>638</ele>
        <time>2013-05-25T16:52:21.000Z</time>
      </trkpt>
      <trkpt lat="45.85349" lon="6.2142">
        <ele>637</ele>
        <time>2013-05-25T16:52:22.000Z</time>
      </trkpt>
      <trkpt lat="45.85349" lon="6.21416">
        <ele>636</ele>
        <time>2013-05-25T16:52:23.000Z</time>
      </trkpt>
      <trkpt lat="45.8535" lon="6.21413">
        <ele>637</ele>
        <time>2013-05-25T16:52:24.000Z</time>
      </trkpt>
      <trkpt lat="45.8535" lon="6.2141">
        <ele>637</ele>
        <time>2013-05-25T16:52:25.000Z</time>
      </trkpt>
      <trkpt lat="45.85351" lon="6.21406">
        <ele>637</ele>
        <time>2013-05-25T16:52:26.000Z</time>
      </trkpt>
      <trkpt lat="45.85352" lon="6.21403">
        <ele>638</ele>
        <time>2013-05-25T16:52:27.000Z</time>
      </trkpt>
      <trkpt lat="45.85353" lon="6.214">
        <ele>638</ele>
        <time>2013-05-25T16:52:28.000Z</time>
      </trkpt>
      <trkpt lat="45.85354" lon="6.21397">
        <ele>638</ele>
        <time>2013-05-25T16:52:29.000Z</time>
      </trkpt>
      <trkpt lat="45.85356" lon="6.21395">
        <ele>639</ele>
        <time>2013-05-25T16:52:30.000Z</time>
      </trkpt>
      <trkpt lat="45.85357" lon="6.21392">
        <ele>639</ele>
        <time>2013-05-25T16:52:31.000Z</time>
      </trkpt>
      <trkpt lat="45.85358" lon="6.21389">
        <ele>639</ele>
        <time>2013-05-25T16:52:32.000Z</time>
      </trkpt>
      <trkpt lat="45.8536" lon="6.21387">
        <ele>639</ele>
        <time>2013-05-25T16:52:33.000Z</time>
      </trkpt>
      <trkpt lat="45.85362" lon="6.21385">
        <ele>640</ele>
        <time>2013-05-25T16:52:34.000Z</time>
      </trkpt>
      <trkpt lat="45.85363" lon="6.21383">
        <ele>640</ele>
        <time>2013-05-25T16:52:35.000Z</time>
      </trkpt>
      <trkpt lat="45.85366" lon="6.21381">
        <ele>640</ele>
        <time>2013-05-25T16:52:36.000Z</time>
      </trkpt>
      <trkpt lat="45.85368" lon="6.21379">
        <ele>640</ele>
        <time>2013-05-25T16:52:37.000Z</time>
      </trkpt>
      <trkpt lat="45.8537" lon="6.21377">
        <ele>640</ele>
        <time>2013-05-25T16:52:38.000Z</time>
      </trkpt>
      <trkpt lat="45.85371" lon="6.21375">
        <ele>641</ele>
        <time>2013-05-25T16:52:39.000Z</time>
      </trkpt>
      <trkpt lat="45.85373" lon="6.21374">
        <ele>641</ele>
        <time>2013-05-25T16:52:40.000Z</time>
      </trkpt>
      <trkpt lat="45.85375" lon="6.21373">
        <ele>641</ele>
        <time>2013-05-25T16:52:41.000Z</time>
      </trkpt>
      <trkpt lat="45.85377" lon="6.21372">
        <ele>641</ele>
        <time>2013-05-25T16:52:42.000Z</time>
      </trkpt>
      <trkpt lat="45.85379" lon="6.21371">
        <ele>641</ele>
        <time>2013-05-25T16:52:43.000Z</time>
      </trkpt>
      <trkpt lat="45.85381" lon="6.2137">
        <ele>642</ele>
        <time>2013-05-25T16:52:44.000Z</time>
      </trkpt>
      <trkpt lat="45.85383" lon="6.21369">
        <ele>642</ele>
        <time>2013-05-25T16:52:45.000Z</time>
      </trkpt>
      <trkpt lat="45.85385" lon="6.21368">
        <ele>642</ele>
        <time>2013-05-25T16:52:46.000Z</time>
      </trkpt>
      <trkpt lat="45.85387" lon="6.21367">
        <ele>642</ele>
        <time>2013-05-25T16:52:47.000Z</time>
      </trkpt>
      <trkpt lat="45.85389" lon="6.21366">
        <ele>642</ele>
        <time>2013-05-25T16:52:48.000Z</time>
      </trkpt>
      <trkpt lat="45.85391" lon="6.21366">
        <ele>642</ele>
        <time>2013-05-25T16:52:49.000Z</time>
      </trkpt>
      <trkpt lat="45.85393" lon="6.21365">
        <ele>643</ele>
        <time>2013-05-25T16:52:50.000Z</time>
      </trkpt>
      <trkpt lat="45.85395" lon="6.21364">
        <ele>643</ele>
        <time>2013-05-25T16:52:51.000Z</time>
      </trkpt>
      <trkpt lat="45.85396" lon="6.21363">
        <ele>643</ele>
        <time>2013-05-25T16:52:52.000Z</time>
      </trkpt>
      <trkpt lat="45.85398" lon="6.21361">
        <ele>643</ele>
        <time>2013-05-25T16:52:53.000Z</time>
      </trkpt>
      <trkpt lat="45.854" lon="6.21361">
        <ele>643</ele>
        <time>2013-05-25T16:52:54.000Z</time>
      </trkpt>
      <trkpt lat="45.85402" lon="6.2136">
        <ele>643</ele>
        <time>2013-05-25T16:52:55.000Z</time>
      </trkpt>
      <trkpt lat="45.85404" lon="6.2136">
        <ele>643</ele>
        <time>2013-05-25T16:52:56.000Z</time>
      </trkpt>
      <trkpt lat="45.85406" lon="6.21359">
        <ele>644</ele>
        <time>2013-05-25T16:52:57.000Z</time>
      </trkpt>
      <trkpt lat="45.85408" lon="6.21358">
        <ele>644</ele>
        <time>2013-05-25T16:52:58.000Z</time>
      </trkpt>
      <trkpt lat="45.8541" lon="6.21357">
        <ele>644</ele>
        <time>2013-05-25T16:52:59.000Z</time>
      </trkpt>
      <trkpt lat="45.85412" lon="6.21356">
        <ele>644</ele>
        <time>2013-05-25T16:53:00.000Z</time>
      </trkpt>
      <trkpt lat="45.85414" lon="6.21355">
        <ele>644</ele>
        <time>2013-05-25T16:53:01.000Z</time>
      </trkpt>
      <trkpt lat="45.85416" lon="6.21355">
        <ele>644</ele>
        <time>2013-05-25T16:53:02.000Z</time>
      </trkpt>
      <trkpt lat="45.85418" lon="6.21354">
        <ele>650</ele>
        <time>2013-05-25T16:53:03.000Z</time>
      </trkpt>
      <trkpt lat="45.8542" lon="6.21353">
        <ele>650</ele>
        <time>2013-05-25T16:53:04.000Z</time>
      </trkpt>
      <trkpt lat="45.85422" lon="6.21352">
        <ele>650</ele>
        <time>2013-05-25T16:53:05.000Z</time>
      </trkpt>
      <trkpt lat="45.85424" lon="6.2135">
        <ele>650</ele>
        <time>2013-05-25T16:53:06.000Z</time>
      </trkpt>
      <trkpt lat="45.85426" lon="6.21349">
        <ele>650</ele>
        <time>2013-05-25T16:53:07.000Z</time>
      </trkpt>
      <trkpt lat="45.85428" lon="6.21348">
        <ele>650</ele>
        <time>2013-05-25T16:53:08.000Z</time>
      </trkpt>
      <trkpt lat="45.8543" lon="6.21347">
        <ele>650</ele>
        <time>2013-05-25T16:53:09.000Z</time>
      </trkpt>
      <trkpt lat="45.85432" lon="6.21346">
        <ele>650</ele>
        <time>2013-05-25T16:53:10.000Z</time>
      </trkpt>
      <trkpt lat="45.85433" lon="6.21344">
        <ele>650</ele>
        <time>2013-05-25T16:53:11.000Z</time>
      </trkpt>
      <trkpt lat="45.85435" lon="6.21343">
        <ele>651</ele>
        <time>2013-05-25T16:53:12.000Z</time>
      </trkpt>
      <trkpt lat="45.85437" lon="6.21342">
        <ele>651</ele>
        <time>2013-05-25T16:53:13.000Z</time>
      </trkpt>
      <trkpt lat="45.85439" lon="6.21341">
        <ele>651</ele>
        <time>2013-05-25T16:53:14.000Z</time>
      </trkpt>
      <trkpt lat="45.85441" lon="6.2134">
        <ele>651</ele>
        <time>2013-05-25T16:53:15.000Z</time>
      </trkpt>
      <trkpt lat="45.85443" lon="6.21339">
        <ele>651</ele>
        <time>2013-05-25T16:53:16.000Z</time>
      </trkpt>
      <trkpt lat="45.85445" lon="6.21338">
        <ele>651</ele>
        <time>2013-05-25T16:53:17.000Z</time>
      </trkpt>
      <trkpt lat="45.85446" lon="6.21337">
        <ele>651</ele>
        <time>2013-05-25T16:53:18.000Z</time>
      </trkpt>
      <trkpt lat="45.85448" lon="6.21336">
        <ele>652</ele>
        <time>2013-05-25T16:53:19.000Z</time>
      </trkpt>
      <trkpt lat="45.8545" lon="6.21335">
        <ele>652</ele>
        <time>2013-05-25T16:53:20.000Z</time>
      </trkpt>
      <trkpt lat="45.85452" lon="6.21334">
        <ele>652</ele>
        <time>2013-05-25T16:53:21.000Z</time>
      </trkpt>
      <trkpt lat="45.85454" lon="6.21333">
        <ele>651</ele>
        <time>2013-05-25T16:53:22.000Z</time>
      </trkpt>
      <trkpt lat="45.85456" lon="6.21333">
        <ele>651</ele>
        <time>2013-05-25T16:53:23.000Z</time>
      </trkpt>
      <trkpt lat="45.85458" lon="6.21332">
        <ele>651</ele>
        <time>2013-05-25T16:53:24.000Z</time>
      </trkpt>
      <trkpt lat="45.8546" lon="6.21331">
        <ele>651</ele>
        <time>2013-05-25T16:53:25.000Z</time>
      </trkpt>
      <trkpt lat="45.85462" lon="6.2133">
        <ele>651</ele>
        <time>2013-05-25T16:53:26.000Z</time>
      </trkpt>
      <trkpt lat="45.85464" lon="6.21329">
        <ele>651</ele>
        <time>2013-05-25T16:53:27.000Z</time>
      </trkpt>
      <trkpt lat="45.85466" lon="6.21328">
        <ele>651</ele>
        <time>2013-05-25T16:53:28.000Z</time>
      </trkpt>
      <trkpt lat="45.85468" lon="6.21327">
        <ele>652</ele>
        <time>2013-05-25T16:53:29.000Z</time>
      </trkpt>
      <trkpt lat="45.8547" lon="6.21326">
        <ele>652</ele>
        <time>2013-05-25T16:53:30.000Z</time>
      </trkpt>
      <trkpt lat="45.85472" lon="6.21326">
        <ele>652</ele>
        <time>2013-05-25T16:53:31.000Z</time>
      </trkpt>
      <trkpt lat="45.85474" lon="6.21325">
        <ele>652</ele>
        <time>2013-05-25T16:53:32.000Z</time>
      </trkpt>
      <trkpt lat="45.85476" lon="6.21325">
        <ele>652</ele>
        <time>2013-05-25T16:53:33.000Z</time>
      </trkpt>
      <trkpt lat="45.85479" lon="6.21325">
        <ele>652</ele>
        <time>2013-05-25T16:53:34.000Z</time>
      </trkpt>
      <trkpt lat="45.85481" lon="6.21324">
        <ele>652</ele>
        <time>2013-05-25T16:53:35.000Z</time>
      </trkpt>
      <trkpt lat="45.85483" lon="6.21325">
        <ele>653</ele>
        <time>2013-05-25T16:53:36.000Z</time>
      </trkpt>
      <trkpt lat="45.85486" lon="6.21325">
        <ele>653</ele>
        <time>2013-05-25T16:53:37.000Z</time>
      </trkpt>
      <trkpt lat="45.85488" lon="6.21327">
        <ele>653</ele>
        <time>2013-05-25T16:53:38.000Z</time>
      </trkpt>
      <trkpt lat="45.8549" lon="6.21328">
        <ele>653</ele>
        <time>2013-05-25T16:53:39.000Z</time>
      </trkpt>
      <trkpt lat="45.85491" lon="6.21331">
        <ele>654</ele>
        <time>2013-05-25T16:53:40.000Z</time>
      </trkpt>
      <trkpt lat="45.85492" lon="6.21334">
        <ele>654</ele>
        <time>2013-05-25T16:53:41.000Z</time>
      </trkpt>
      <trkpt lat="45.85492" lon="6.21337">
        <ele>654</ele>
        <time>2013-05-25T16:53:42.000Z</time>
      </trkpt>
      <trkpt lat="45.85491" lon="6.21339">
        <ele>654</ele>
        <time>2013-05-25T16:53:43.000Z</time>
      </trkpt>
      <trkpt lat="45.85491" lon="6.2134">
        <ele>654</ele>
        <time>2013-05-25T16:53:44.000Z</time>
      </trkpt>
    </trkseg>
  </trk>
</gpx>